<?xml version="1.0" encoding="UTF-8"?>
<gpx xmlns="http://www.topografix.com/GPX/1/1" creator="GPSies http://www.gpsies.com - Zwarte woud - Dag 2" version="1.1" xmlns:xsi="http://www.w3.org/2001/XMLSchema-instance" xsi:schemaLocation="http://www.topografix.com/GPX/1/1 http://www.topografix.com/GPX/1/1/gpx.xsd">
  <metadata>
    <name>Zwarte woud - Dag 2</name>
    <copyright author="GPSies.com" />
    <link href="http://www.gpsies.com/map.do?fileId=vunewlmstdekhtmp">
      <text>Zwarte woud - Dag 2 on GPSies.com</text>
    </link>
    <time>2008-10-29T11:16:22Z</time>
  </metadata>
  <trk>
    <name>Zwarte woud - Dag 2 on GPSies.com</name>
    <link href="http://www.gpsies.com/map.do?fileId=vunewlmstdekhtmp" />
    <trkseg>
      <trkpt lat="48.28808780" lon="8.113317500">
        <ele>256.00000</ele>
        <time>2008-10-29T11:16:22Z</time>
      </trkpt>
      <trkpt lat="48.28817370" lon="8.114776600">
        <ele>254.00000</ele>
        <time>2008-10-29T11:17:01Z</time>
      </trkpt>
      <trkpt lat="48.28813080" lon="8.115592000">
        <ele>250.00000</ele>
        <time>2008-10-29T11:17:23Z</time>
      </trkpt>
      <trkpt lat="48.28774450" lon="8.116664900">
        <ele>238.00000</ele>
        <time>2008-10-29T11:17:56Z</time>
      </trkpt>
      <trkpt lat="48.28744410" lon="8.117566100">
        <ele>243.00000</ele>
        <time>2008-10-29T11:18:23Z</time>
      </trkpt>
      <trkpt lat="48.28731540" lon="8.118124000">
        <ele>245.00000</ele>
        <time>2008-10-29T11:18:38Z</time>
      </trkpt>
      <trkpt lat="48.28727250" lon="8.118724800">
        <ele>245.00000</ele>
        <time>2008-10-29T11:18:54Z</time>
      </trkpt>
      <trkpt lat="48.28727250" lon="8.119411500">
        <ele>247.00000</ele>
        <time>2008-10-29T11:19:13Z</time>
      </trkpt>
      <trkpt lat="48.28722950" lon="8.121256800">
        <ele>255.00000</ele>
        <time>2008-10-29T11:20:02Z</time>
      </trkpt>
      <trkpt lat="48.28722950" lon="8.122029300">
        <ele>255.00000</ele>
        <time>2008-10-29T11:20:22Z</time>
      </trkpt>
      <trkpt lat="48.28731540" lon="8.122887600">
        <ele>258.00000</ele>
        <time>2008-10-29T11:20:46Z</time>
      </trkpt>
      <trkpt lat="48.28748700" lon="8.123531300">
        <ele>259.00000</ele>
        <time>2008-10-29T11:21:04Z</time>
      </trkpt>
      <trkpt lat="48.28765870" lon="8.124003400">
        <ele>260.00000</ele>
        <time>2008-10-29T11:21:18Z</time>
      </trkpt>
      <trkpt lat="48.28813080" lon="8.124561300">
        <ele>265.00000</ele>
        <time>2008-10-29T11:21:42Z</time>
      </trkpt>
      <trkpt lat="48.28881740" lon="8.124861700">
        <ele>261.00000</ele>
        <time>2008-10-29T11:22:11Z</time>
      </trkpt>
      <trkpt lat="48.28911780" lon="8.125205000">
        <ele>261.00000</ele>
        <time>2008-10-29T11:22:26Z</time>
      </trkpt>
      <trkpt lat="48.28920360" lon="8.125419600">
        <ele>258.00000</ele>
        <time>2008-10-29T11:22:33Z</time>
      </trkpt>
      <trkpt lat="48.28924660" lon="8.125762900">
        <ele>258.00000</ele>
        <time>2008-10-29T11:22:42Z</time>
      </trkpt>
      <trkpt lat="48.28920360" lon="8.126106300">
        <ele>258.00000</ele>
        <time>2008-10-29T11:22:51Z</time>
      </trkpt>
      <trkpt lat="48.28911780" lon="8.126535400">
        <ele>253.00000</ele>
        <time>2008-10-29T11:23:03Z</time>
      </trkpt>
      <trkpt lat="48.28877450" lon="8.127050400">
        <ele>253.00000</ele>
        <time>2008-10-29T11:23:23Z</time>
      </trkpt>
      <trkpt lat="48.28787330" lon="8.128037500">
        <ele>251.00000</ele>
        <time>2008-10-29T11:24:07Z</time>
      </trkpt>
      <trkpt lat="48.28748700" lon="8.128466600">
        <ele>251.00000</ele>
        <time>2008-10-29T11:24:27Z</time>
      </trkpt>
      <trkpt lat="48.28705790" lon="8.128981600">
        <ele>244.00000</ele>
        <time>2008-10-29T11:24:49Z</time>
      </trkpt>
      <trkpt lat="48.28662870" lon="8.129754100">
        <ele>247.00000</ele>
        <time>2008-10-29T11:25:15Z</time>
      </trkpt>
      <trkpt lat="48.28607080" lon="8.131341900">
        <ele>236.00000</ele>
        <time>2008-10-29T11:26:03Z</time>
      </trkpt>
      <trkpt lat="48.28594210" lon="8.131942700">
        <ele>236.00000</ele>
        <time>2008-10-29T11:26:20Z</time>
      </trkpt>
      <trkpt lat="48.28589920" lon="8.133101500">
        <ele>244.00000</ele>
        <time>2008-10-29T11:26:51Z</time>
      </trkpt>
      <trkpt lat="48.28551290" lon="8.134474800">
        <ele>253.00000</ele>
        <time>2008-10-29T11:27:31Z</time>
      </trkpt>
      <trkpt lat="48.28529830" lon="8.135418900">
        <ele>230.00000</ele>
        <time>2008-10-29T11:27:57Z</time>
      </trkpt>
      <trkpt lat="48.28521250" lon="8.135848000">
        <ele>230.00000</ele>
        <time>2008-10-29T11:28:09Z</time>
      </trkpt>
      <trkpt lat="48.28516960" lon="8.138294200">
        <ele>239.00000</ele>
        <time>2008-10-29T11:29:14Z</time>
      </trkpt>
      <trkpt lat="48.28516960" lon="8.138594600">
        <ele>239.00000</ele>
        <time>2008-10-29T11:29:22Z</time>
      </trkpt>
      <trkpt lat="48.28525540" lon="8.138980900">
        <ele>232.00000</ele>
        <time>2008-10-29T11:29:33Z</time>
      </trkpt>
      <trkpt lat="48.28564170" lon="8.139925000">
        <ele>257.00000</ele>
        <time>2008-10-29T11:30:03Z</time>
      </trkpt>
      <trkpt lat="48.28607080" lon="8.140869100">
        <ele>238.00000</ele>
        <time>2008-10-29T11:30:33Z</time>
      </trkpt>
      <trkpt lat="48.28688620" lon="8.142414100">
        <ele>241.00000</ele>
        <time>2008-10-29T11:31:26Z</time>
      </trkpt>
      <trkpt lat="48.28740120" lon="8.143744500">
        <ele>255.00000</ele>
        <time>2008-10-29T11:32:07Z</time>
      </trkpt>
      <trkpt lat="48.28804490" lon="8.144602800">
        <ele>257.00000</ele>
        <time>2008-10-29T11:32:41Z</time>
      </trkpt>
      <trkpt lat="48.28817370" lon="8.144946100">
        <ele>257.00000</ele>
        <time>2008-10-29T11:32:52Z</time>
      </trkpt>
      <trkpt lat="48.28855990" lon="8.147263500">
        <ele>237.00000</ele>
        <time>2008-10-29T11:33:55Z</time>
      </trkpt>
      <trkpt lat="48.28873160" lon="8.148336400">
        <ele>233.00000</ele>
        <time>2008-10-29T11:34:25Z</time>
      </trkpt>
      <trkpt lat="48.28877450" lon="8.148980100">
        <ele>247.00000</ele>
        <time>2008-10-29T11:34:42Z</time>
      </trkpt>
      <trkpt lat="48.28868870" lon="8.149623900">
        <ele>236.00000</ele>
        <time>2008-10-29T11:34:59Z</time>
      </trkpt>
      <trkpt lat="48.28864570" lon="8.150954200">
        <ele>238.00000</ele>
        <time>2008-10-29T11:35:35Z</time>
      </trkpt>
      <trkpt lat="48.28851700" lon="8.151598000">
        <ele>236.00000</ele>
        <time>2008-10-29T11:35:53Z</time>
      </trkpt>
      <trkpt lat="48.28791620" lon="8.152842500">
        <ele>232.00000</ele>
        <time>2008-10-29T11:36:34Z</time>
      </trkpt>
      <trkpt lat="48.28718660" lon="8.155589100">
        <ele>231.00000</ele>
        <time>2008-10-29T11:37:53Z</time>
      </trkpt>
      <trkpt lat="48.28594210" lon="8.158378600">
        <ele>231.00000</ele>
        <time>2008-10-29T11:39:22Z</time>
      </trkpt>
      <trkpt lat="48.28559880" lon="8.159494400">
        <ele>231.00000</ele>
        <time>2008-10-29T11:39:55Z</time>
      </trkpt>
      <trkpt lat="48.28521250" lon="8.161211000">
        <ele>230.00000</ele>
        <time>2008-10-29T11:40:43Z</time>
      </trkpt>
      <trkpt lat="48.28516960" lon="8.161983500">
        <ele>232.00000</ele>
        <time>2008-10-29T11:41:04Z</time>
      </trkpt>
      <trkpt lat="48.28516960" lon="8.162670100">
        <ele>233.00000</ele>
        <time>2008-10-29T11:41:22Z</time>
      </trkpt>
      <trkpt lat="48.28521250" lon="8.163914700">
        <ele>232.00000</ele>
        <time>2008-10-29T11:41:55Z</time>
      </trkpt>
      <trkpt lat="48.28529830" lon="8.164815900">
        <ele>233.00000</ele>
        <time>2008-10-29T11:42:19Z</time>
      </trkpt>
      <trkpt lat="48.28542710" lon="8.165330900">
        <ele>235.00000</ele>
        <time>2008-10-29T11:42:34Z</time>
      </trkpt>
      <trkpt lat="48.28551290" lon="8.165545500">
        <ele>234.00000</ele>
        <time>2008-10-29T11:42:41Z</time>
      </trkpt>
      <trkpt lat="48.28589920" lon="8.166060400">
        <ele>234.00000</ele>
        <time>2008-10-29T11:43:01Z</time>
      </trkpt>
      <trkpt lat="48.28594210" lon="8.166232100">
        <ele>234.00000</ele>
        <time>2008-10-29T11:43:06Z</time>
      </trkpt>
      <trkpt lat="48.28615670" lon="8.166875800">
        <ele>236.00000</ele>
        <time>2008-10-29T11:43:25Z</time>
      </trkpt>
      <trkpt lat="48.28641410" lon="8.167862900">
        <ele>239.00000</ele>
        <time>2008-10-29T11:43:54Z</time>
      </trkpt>
      <trkpt lat="48.28671460" lon="8.171811100">
        <ele>238.00000</ele>
        <time>2008-10-29T11:45:40Z</time>
      </trkpt>
      <trkpt lat="48.28675750" lon="8.172111500">
        <ele>240.00000</ele>
        <time>2008-10-29T11:45:48Z</time>
      </trkpt>
      <trkpt lat="48.28667160" lon="8.172497700">
        <ele>240.00000</ele>
        <time>2008-10-29T11:45:59Z</time>
      </trkpt>
      <trkpt lat="48.28658580" lon="8.172841100">
        <ele>240.00000</ele>
        <time>2008-10-29T11:46:08Z</time>
      </trkpt>
      <trkpt lat="48.28637120" lon="8.173356100">
        <ele>241.00000</ele>
        <time>2008-10-29T11:46:25Z</time>
      </trkpt>
      <trkpt lat="48.28628540" lon="8.173956900">
        <ele>241.00000</ele>
        <time>2008-10-29T11:46:41Z</time>
      </trkpt>
      <trkpt lat="48.28641410" lon="8.175458900">
        <ele>246.00000</ele>
        <time>2008-10-29T11:47:21Z</time>
      </trkpt>
      <trkpt lat="48.28667160" lon="8.176703500">
        <ele>250.00000</ele>
        <time>2008-10-29T11:47:56Z</time>
      </trkpt>
      <trkpt lat="48.28710080" lon="8.178076700">
        <ele>267.00000</ele>
        <time>2008-10-29T11:48:36Z</time>
      </trkpt>
      <trkpt lat="48.28752990" lon="8.179149600">
        <ele>259.00000</ele>
        <time>2008-10-29T11:49:10Z</time>
      </trkpt>
      <trkpt lat="48.28774450" lon="8.179621700">
        <ele>245.00000</ele>
        <time>2008-10-29T11:49:25Z</time>
      </trkpt>
      <trkpt lat="48.28821660" lon="8.180351300">
        <ele>273.00000</ele>
        <time>2008-10-29T11:49:52Z</time>
      </trkpt>
      <trkpt lat="48.28834530" lon="8.180651700">
        <ele>251.00000</ele>
        <time>2008-10-29T11:50:02Z</time>
      </trkpt>
      <trkpt lat="48.28838830" lon="8.180909200">
        <ele>251.00000</ele>
        <time>2008-10-29T11:50:09Z</time>
      </trkpt>
      <trkpt lat="48.28830240" lon="8.182196600">
        <ele>237.00000</ele>
        <time>2008-10-29T11:50:43Z</time>
      </trkpt>
      <trkpt lat="48.28834530" lon="8.182454100">
        <ele>237.00000</ele>
        <time>2008-10-29T11:50:50Z</time>
      </trkpt>
      <trkpt lat="48.28860280" lon="8.184084900">
        <ele>237.00000</ele>
        <time>2008-10-29T11:51:35Z</time>
      </trkpt>
      <trkpt lat="48.28886030" lon="8.186359400">
        <ele>244.00000</ele>
        <time>2008-10-29T11:52:36Z</time>
      </trkpt>
      <trkpt lat="48.28877450" lon="8.187861400">
        <ele>245.00000</ele>
        <time>2008-10-29T11:53:16Z</time>
      </trkpt>
      <trkpt lat="48.28873160" lon="8.188290600">
        <ele>242.00000</ele>
        <time>2008-10-29T11:53:28Z</time>
      </trkpt>
      <trkpt lat="48.28838830" lon="8.190736800">
        <ele>258.00000</ele>
        <time>2008-10-29T11:54:35Z</time>
      </trkpt>
      <trkpt lat="48.28787330" lon="8.192710900">
        <ele>243.00000</ele>
        <time>2008-10-29T11:55:31Z</time>
      </trkpt>
      <trkpt lat="48.28710080" lon="8.194341700">
        <ele>259.00000</ele>
        <time>2008-10-29T11:56:24Z</time>
      </trkpt>
      <trkpt lat="48.28658580" lon="8.195114100">
        <ele>252.00000</ele>
        <time>2008-10-29T11:56:53Z</time>
      </trkpt>
      <trkpt lat="48.28615670" lon="8.195972400">
        <ele>242.00000</ele>
        <time>2008-10-29T11:57:22Z</time>
      </trkpt>
      <trkpt lat="48.28577040" lon="8.196487400">
        <ele>255.00000</ele>
        <time>2008-10-29T11:57:43Z</time>
      </trkpt>
      <trkpt lat="48.28555580" lon="8.197302800">
        <ele>279.00000</ele>
        <time>2008-10-29T11:58:06Z</time>
      </trkpt>
      <trkpt lat="48.28508380" lon="8.198247000">
        <ele>253.00000</ele>
        <time>2008-10-29T11:58:38Z</time>
      </trkpt>
      <trkpt lat="48.28491210" lon="8.198890700">
        <ele>264.00000</ele>
        <time>2008-10-29T11:58:56Z</time>
      </trkpt>
      <trkpt lat="48.28491210" lon="8.199319800">
        <ele>264.00000</ele>
        <time>2008-10-29T11:59:07Z</time>
      </trkpt>
      <trkpt lat="48.28504090" lon="8.199963600">
        <ele>264.00000</ele>
        <time>2008-10-29T11:59:25Z</time>
      </trkpt>
      <trkpt lat="48.28499790" lon="8.200435600">
        <ele>266.00000</ele>
        <time>2008-10-29T11:59:38Z</time>
      </trkpt>
      <trkpt lat="48.28469750" lon="8.201851800">
        <ele>275.00000</ele>
        <time>2008-10-29T12:00:18Z</time>
      </trkpt>
      <trkpt lat="48.28452590" lon="8.202323900">
        <ele>250.00000</ele>
        <time>2008-10-29T12:00:32Z</time>
      </trkpt>
      <trkpt lat="48.28431130" lon="8.202710200">
        <ele>250.00000</ele>
        <time>2008-10-29T12:00:45Z</time>
      </trkpt>
      <trkpt lat="48.28392510" lon="8.203268100">
        <ele>269.00000</ele>
        <time>2008-10-29T12:01:07Z</time>
      </trkpt>
      <trkpt lat="48.28379630" lon="8.203396800">
        <ele>269.00000</ele>
        <time>2008-10-29T12:01:13Z</time>
      </trkpt>
      <trkpt lat="48.28332420" lon="8.204169300">
        <ele>262.00000</ele>
        <time>2008-10-29T12:01:41Z</time>
      </trkpt>
      <trkpt lat="48.28255180" lon="8.205843000">
        <ele>260.00000</ele>
        <time>2008-10-29T12:02:35Z</time>
      </trkpt>
      <trkpt lat="48.28220840" lon="8.206744200">
        <ele>264.00000</ele>
        <time>2008-10-29T12:03:03Z</time>
      </trkpt>
      <trkpt lat="48.28169350" lon="8.207860000">
        <ele>254.00000</ele>
        <time>2008-10-29T12:03:39Z</time>
      </trkpt>
      <trkpt lat="48.28143600" lon="8.208632500">
        <ele>263.00000</ele>
        <time>2008-10-29T12:04:02Z</time>
      </trkpt>
      <trkpt lat="48.28139310" lon="8.209319100">
        <ele>276.00000</ele>
        <time>2008-10-29T12:04:20Z</time>
      </trkpt>
      <trkpt lat="48.28143600" lon="8.209791200">
        <ele>273.00000</ele>
        <time>2008-10-29T12:04:33Z</time>
      </trkpt>
      <trkpt lat="48.28165050" lon="8.210520700">
        <ele>260.00000</ele>
        <time>2008-10-29T12:04:54Z</time>
      </trkpt>
      <trkpt lat="48.28216550" lon="8.211164500">
        <ele>285.00000</ele>
        <time>2008-10-29T12:05:21Z</time>
      </trkpt>
      <trkpt lat="48.28246590" lon="8.211379100">
        <ele>256.00000</ele>
        <time>2008-10-29T12:05:35Z</time>
      </trkpt>
      <trkpt lat="48.28280930" lon="8.211507800">
        <ele>256.00000</ele>
        <time>2008-10-29T12:05:49Z</time>
      </trkpt>
      <trkpt lat="48.28358170" lon="8.211636500">
        <ele>263.00000</ele>
        <time>2008-10-29T12:06:20Z</time>
      </trkpt>
      <trkpt lat="48.28469750" lon="8.211422000">
        <ele>257.00000</ele>
        <time>2008-10-29T12:07:05Z</time>
      </trkpt>
      <trkpt lat="48.28572750" lon="8.210949900">
        <ele>294.00000</ele>
        <time>2008-10-29T12:07:48Z</time>
      </trkpt>
      <trkpt lat="48.28637120" lon="8.210907000">
        <ele>281.00000</ele>
        <time>2008-10-29T12:08:14Z</time>
      </trkpt>
      <trkpt lat="48.28671460" lon="8.210992800">
        <ele>281.00000</ele>
        <time>2008-10-29T12:08:28Z</time>
      </trkpt>
      <trkpt lat="48.28710080" lon="8.211250300">
        <ele>252.00000</ele>
        <time>2008-10-29T12:08:45Z</time>
      </trkpt>
      <trkpt lat="48.28740120" lon="8.211550700">
        <ele>252.00000</ele>
        <time>2008-10-29T12:08:59Z</time>
      </trkpt>
      <trkpt lat="48.28774450" lon="8.212065700">
        <ele>252.00000</ele>
        <time>2008-10-29T12:09:18Z</time>
      </trkpt>
      <trkpt lat="48.28843120" lon="8.213868100">
        <ele>254.00000</ele>
        <time>2008-10-29T12:10:14Z</time>
      </trkpt>
      <trkpt lat="48.28873160" lon="8.214597700">
        <ele>256.00000</ele>
        <time>2008-10-29T12:10:37Z</time>
      </trkpt>
      <trkpt lat="48.28907490" lon="8.215541800">
        <ele>257.00000</ele>
        <time>2008-10-29T12:11:05Z</time>
      </trkpt>
      <trkpt lat="48.28928950" lon="8.216056800">
        <ele>257.00000</ele>
        <time>2008-10-29T12:11:21Z</time>
      </trkpt>
      <trkpt lat="48.28997610" lon="8.217902200">
        <ele>256.00000</ele>
        <time>2008-10-29T12:12:18Z</time>
      </trkpt>
      <trkpt lat="48.29049110" lon="8.219361300">
        <ele>255.00000</ele>
        <time>2008-10-29T12:13:02Z</time>
      </trkpt>
      <trkpt lat="48.29070570" lon="8.220434200">
        <ele>264.00000</ele>
        <time>2008-10-29T12:13:32Z</time>
      </trkpt>
      <trkpt lat="48.29074860" lon="8.220949200">
        <ele>264.00000</ele>
        <time>2008-10-29T12:13:45Z</time>
      </trkpt>
      <trkpt lat="48.29079150" lon="8.221249600">
        <ele>264.00000</ele>
        <time>2008-10-29T12:13:54Z</time>
      </trkpt>
      <trkpt lat="48.29087730" lon="8.222236600">
        <ele>313.00000</ele>
        <time>2008-10-29T12:14:20Z</time>
      </trkpt>
      <trkpt lat="48.29092030" lon="8.222580000">
        <ele>313.00000</ele>
        <time>2008-10-29T12:14:29Z</time>
      </trkpt>
      <trkpt lat="48.29096320" lon="8.222966200">
        <ele>342.00000</ele>
        <time>2008-10-29T12:14:40Z</time>
      </trkpt>
      <trkpt lat="48.29134940" lon="8.224639900">
        <ele>361.00000</ele>
        <time>2008-10-29T12:15:27Z</time>
      </trkpt>
      <trkpt lat="48.29177860" lon="8.225927400">
        <ele>388.00000</ele>
        <time>2008-10-29T12:16:05Z</time>
      </trkpt>
      <trkpt lat="48.29529760" lon="8.235583300">
        <ele>346.00000</ele>
        <time>2008-10-29T12:20:59Z</time>
      </trkpt>
      <trkpt lat="48.29585550" lon="8.236999500">
        <ele>287.00000</ele>
        <time>2008-10-29T12:21:42Z</time>
      </trkpt>
      <trkpt lat="48.29594140" lon="8.237214100">
        <ele>286.00000</ele>
        <time>2008-10-29T12:21:49Z</time>
      </trkpt>
      <trkpt lat="48.29632760" lon="8.237814900">
        <ele>271.00000</ele>
        <time>2008-10-29T12:22:11Z</time>
      </trkpt>
      <trkpt lat="48.29675670" lon="8.238587400">
        <ele>270.00000</ele>
        <time>2008-10-29T12:22:38Z</time>
      </trkpt>
      <trkpt lat="48.29697130" lon="8.238973600">
        <ele>268.00000</ele>
        <time>2008-10-29T12:22:52Z</time>
      </trkpt>
      <trkpt lat="48.29765800" lon="8.240304000">
        <ele>268.00000</ele>
        <time>2008-10-29T12:23:36Z</time>
      </trkpt>
      <trkpt lat="48.29791550" lon="8.240861900">
        <ele>270.00000</ele>
        <time>2008-10-29T12:23:54Z</time>
      </trkpt>
      <trkpt lat="48.29791550" lon="8.240947700">
        <ele>270.00000</ele>
        <time>2008-10-29T12:23:57Z</time>
      </trkpt>
      <trkpt lat="48.29808710" lon="8.241548500">
        <ele>274.00000</ele>
        <time>2008-10-29T12:24:14Z</time>
      </trkpt>
      <trkpt lat="48.29830170" lon="8.242750200">
        <ele>272.00000</ele>
        <time>2008-10-29T12:24:47Z</time>
      </trkpt>
      <trkpt lat="48.29851630" lon="8.244295100">
        <ele>268.00000</ele>
        <time>2008-10-29T12:25:29Z</time>
      </trkpt>
      <trkpt lat="48.29855920" lon="8.245754200">
        <ele>271.00000</ele>
        <time>2008-10-29T12:26:08Z</time>
      </trkpt>
      <trkpt lat="48.29855920" lon="8.246226300">
        <ele>271.00000</ele>
        <time>2008-10-29T12:26:21Z</time>
      </trkpt>
      <trkpt lat="48.29851630" lon="8.247427900">
        <ele>267.00000</ele>
        <time>2008-10-29T12:26:53Z</time>
      </trkpt>
      <trkpt lat="48.29855920" lon="8.248500800">
        <ele>269.00000</ele>
        <time>2008-10-29T12:27:21Z</time>
      </trkpt>
      <trkpt lat="48.29877380" lon="8.249487900">
        <ele>271.00000</ele>
        <time>2008-10-29T12:27:49Z</time>
      </trkpt>
      <trkpt lat="48.29911710" lon="8.250603700">
        <ele>271.00000</ele>
        <time>2008-10-29T12:28:22Z</time>
      </trkpt>
      <trkpt lat="48.29946040" lon="8.251762400">
        <ele>273.00000</ele>
        <time>2008-10-29T12:28:56Z</time>
      </trkpt>
      <trkpt lat="48.29954620" lon="8.252620700">
        <ele>274.00000</ele>
        <time>2008-10-29T12:29:19Z</time>
      </trkpt>
      <trkpt lat="48.29946040" lon="8.253479000">
        <ele>278.00000</ele>
        <time>2008-10-29T12:29:42Z</time>
      </trkpt>
      <trkpt lat="48.29937460" lon="8.253822300">
        <ele>279.00000</ele>
        <time>2008-10-29T12:29:52Z</time>
      </trkpt>
      <trkpt lat="48.29916000" lon="8.254551900">
        <ele>279.00000</ele>
        <time>2008-10-29T12:30:13Z</time>
      </trkpt>
      <trkpt lat="48.29873090" lon="8.255281400">
        <ele>273.00000</ele>
        <time>2008-10-29T12:30:39Z</time>
      </trkpt>
      <trkpt lat="48.29774380" lon="8.256826400">
        <ele>278.00000</ele>
        <time>2008-10-29T12:31:36Z</time>
      </trkpt>
      <trkpt lat="48.29727170" lon="8.257513000">
        <ele>282.00000</ele>
        <time>2008-10-29T12:32:02Z</time>
      </trkpt>
      <trkpt lat="48.29710010" lon="8.257813500">
        <ele>282.00000</ele>
        <time>2008-10-29T12:32:13Z</time>
      </trkpt>
      <trkpt lat="48.29654220" lon="8.258671800">
        <ele>280.00000</ele>
        <time>2008-10-29T12:32:45Z</time>
      </trkpt>
      <trkpt lat="48.29581260" lon="8.259830500">
        <ele>292.00000</ele>
        <time>2008-10-29T12:33:27Z</time>
      </trkpt>
      <trkpt lat="48.29555510" lon="8.260259600">
        <ele>292.00000</ele>
        <time>2008-10-29T12:33:43Z</time>
      </trkpt>
      <trkpt lat="48.29491140" lon="8.261289600">
        <ele>308.00000</ele>
        <time>2008-10-29T12:34:20Z</time>
      </trkpt>
      <trkpt lat="48.29456810" lon="8.261590000">
        <ele>282.00000</ele>
        <time>2008-10-29T12:34:36Z</time>
      </trkpt>
      <trkpt lat="48.29401020" lon="8.261847500">
        <ele>282.00000</ele>
        <time>2008-10-29T12:34:59Z</time>
      </trkpt>
      <trkpt lat="48.29272270" lon="8.262062100">
        <ele>286.00000</ele>
        <time>2008-10-29T12:35:51Z</time>
      </trkpt>
      <trkpt lat="48.29212190" lon="8.262233700">
        <ele>281.00000</ele>
        <time>2008-10-29T12:36:16Z</time>
      </trkpt>
      <trkpt lat="48.29152110" lon="8.262577100">
        <ele>282.00000</ele>
        <time>2008-10-29T12:36:41Z</time>
      </trkpt>
      <trkpt lat="48.29104900" lon="8.263006200">
        <ele>285.00000</ele>
        <time>2008-10-29T12:37:04Z</time>
      </trkpt>
      <trkpt lat="48.29087730" lon="8.263220800">
        <ele>285.00000</ele>
        <time>2008-10-29T12:37:13Z</time>
      </trkpt>
      <trkpt lat="48.29070570" lon="8.263692900">
        <ele>285.00000</ele>
        <time>2008-10-29T12:37:27Z</time>
      </trkpt>
      <trkpt lat="48.29061990" lon="8.264379500">
        <ele>290.00000</ele>
        <time>2008-10-29T12:37:45Z</time>
      </trkpt>
      <trkpt lat="48.29074860" lon="8.265323600">
        <ele>296.00000</ele>
        <time>2008-10-29T12:38:11Z</time>
      </trkpt>
      <trkpt lat="48.29092030" lon="8.266181900">
        <ele>292.00000</ele>
        <time>2008-10-29T12:38:35Z</time>
      </trkpt>
      <trkpt lat="48.29130650" lon="8.267684000">
        <ele>318.00000</ele>
        <time>2008-10-29T12:39:18Z</time>
      </trkpt>
      <trkpt lat="48.29152110" lon="8.269615200">
        <ele>293.00000</ele>
        <time>2008-10-29T12:40:10Z</time>
      </trkpt>
      <trkpt lat="48.29164980" lon="8.270258900">
        <ele>293.00000</ele>
        <time>2008-10-29T12:40:28Z</time>
      </trkpt>
      <trkpt lat="48.29199310" lon="8.271031400">
        <ele>291.00000</ele>
        <time>2008-10-29T12:40:53Z</time>
      </trkpt>
      <trkpt lat="48.29259400" lon="8.272104300">
        <ele>291.00000</ele>
        <time>2008-10-29T12:41:30Z</time>
      </trkpt>
      <trkpt lat="48.29276560" lon="8.272748000">
        <ele>291.00000</ele>
        <time>2008-10-29T12:41:48Z</time>
      </trkpt>
      <trkpt lat="48.29272270" lon="8.273220100">
        <ele>288.00000</ele>
        <time>2008-10-29T12:42:01Z</time>
      </trkpt>
      <trkpt lat="48.29255100" lon="8.273949600">
        <ele>291.00000</ele>
        <time>2008-10-29T12:42:22Z</time>
      </trkpt>
      <trkpt lat="48.29109190" lon="8.276138300">
        <ele>289.00000</ele>
        <time>2008-10-29T12:43:44Z</time>
      </trkpt>
      <trkpt lat="48.29053400" lon="8.276867900">
        <ele>294.00000</ele>
        <time>2008-10-29T12:44:14Z</time>
      </trkpt>
      <trkpt lat="48.29010490" lon="8.277382900">
        <ele>295.00000</ele>
        <time>2008-10-29T12:44:36Z</time>
      </trkpt>
      <trkpt lat="48.28984740" lon="8.277554500">
        <ele>295.00000</ele>
        <time>2008-10-29T12:44:47Z</time>
      </trkpt>
      <trkpt lat="48.28937530" lon="8.277983700">
        <ele>291.00000</ele>
        <time>2008-10-29T12:45:09Z</time>
      </trkpt>
      <trkpt lat="48.28877450" lon="8.278627400">
        <ele>291.00000</ele>
        <time>2008-10-29T12:45:39Z</time>
      </trkpt>
      <trkpt lat="48.28847410" lon="8.279099500">
        <ele>297.00000</ele>
        <time>2008-10-29T12:45:56Z</time>
      </trkpt>
      <trkpt lat="48.28813080" lon="8.279871900">
        <ele>297.00000</ele>
        <time>2008-10-29T12:46:21Z</time>
      </trkpt>
      <trkpt lat="48.28783040" lon="8.280816100">
        <ele>315.00000</ele>
        <time>2008-10-29T12:46:49Z</time>
      </trkpt>
      <trkpt lat="48.28740120" lon="8.282618500">
        <ele>300.00000</ele>
        <time>2008-10-29T12:47:40Z</time>
      </trkpt>
      <trkpt lat="48.28722950" lon="8.283691400">
        <ele>300.00000</ele>
        <time>2008-10-29T12:48:09Z</time>
      </trkpt>
      <trkpt lat="48.28714370" lon="8.284421000">
        <ele>299.00000</ele>
        <time>2008-10-29T12:48:29Z</time>
      </trkpt>
      <trkpt lat="48.28714370" lon="8.284807200">
        <ele>298.00000</ele>
        <time>2008-10-29T12:48:39Z</time>
      </trkpt>
      <trkpt lat="48.28718660" lon="8.285279300">
        <ele>298.00000</ele>
        <time>2008-10-29T12:48:52Z</time>
      </trkpt>
      <trkpt lat="48.28731540" lon="8.285837200">
        <ele>301.00000</ele>
        <time>2008-10-29T12:49:08Z</time>
      </trkpt>
      <trkpt lat="48.28770160" lon="8.286523800">
        <ele>307.00000</ele>
        <time>2008-10-29T12:49:32Z</time>
      </trkpt>
      <trkpt lat="48.28855990" lon="8.287210500">
        <ele>307.00000</ele>
        <time>2008-10-29T12:50:10Z</time>
      </trkpt>
      <trkpt lat="48.28898910" lon="8.287639600">
        <ele>297.00000</ele>
        <time>2008-10-29T12:50:31Z</time>
      </trkpt>
      <trkpt lat="48.28916070" lon="8.287854200">
        <ele>297.00000</ele>
        <time>2008-10-29T12:50:40Z</time>
      </trkpt>
      <trkpt lat="48.28950410" lon="8.288497900">
        <ele>308.00000</ele>
        <time>2008-10-29T12:51:02Z</time>
      </trkpt>
      <trkpt lat="48.28967570" lon="8.289055800">
        <ele>304.00000</ele>
        <time>2008-10-29T12:51:18Z</time>
      </trkpt>
      <trkpt lat="48.28980450" lon="8.289828300">
        <ele>303.00000</ele>
        <time>2008-10-29T12:51:40Z</time>
      </trkpt>
      <trkpt lat="48.28976150" lon="8.290686600">
        <ele>306.00000</ele>
        <time>2008-10-29T12:52:03Z</time>
      </trkpt>
      <trkpt lat="48.28946110" lon="8.291244500">
        <ele>332.00000</ele>
        <time>2008-10-29T12:52:22Z</time>
      </trkpt>
      <trkpt lat="48.28898910" lon="8.291802400">
        <ele>306.00000</ele>
        <time>2008-10-29T12:52:46Z</time>
      </trkpt>
      <trkpt lat="48.28877450" lon="8.292274500">
        <ele>299.00000</ele>
        <time>2008-10-29T12:53:01Z</time>
      </trkpt>
      <trkpt lat="48.28873160" lon="8.292961100">
        <ele>323.00000</ele>
        <time>2008-10-29T12:53:19Z</time>
      </trkpt>
      <trkpt lat="48.28886030" lon="8.293561900">
        <ele>299.00000</ele>
        <time>2008-10-29T12:53:36Z</time>
      </trkpt>
      <trkpt lat="48.28911780" lon="8.293991100">
        <ele>304.00000</ele>
        <time>2008-10-29T12:53:52Z</time>
      </trkpt>
      <trkpt lat="48.29061990" lon="8.295493100">
        <ele>305.00000</ele>
        <time>2008-10-29T12:55:04Z</time>
      </trkpt>
      <trkpt lat="48.29083440" lon="8.295793500">
        <ele>305.00000</ele>
        <time>2008-10-29T12:55:15Z</time>
      </trkpt>
      <trkpt lat="48.29109190" lon="8.296308500">
        <ele>329.00000</ele>
        <time>2008-10-29T12:55:33Z</time>
      </trkpt>
      <trkpt lat="48.29134940" lon="8.297166800">
        <ele>309.00000</ele>
        <time>2008-10-29T12:55:58Z</time>
      </trkpt>
      <trkpt lat="48.29152110" lon="8.298025100">
        <ele>308.00000</ele>
        <time>2008-10-29T12:56:22Z</time>
      </trkpt>
      <trkpt lat="48.29195020" lon="8.301630000">
        <ele>318.00000</ele>
        <time>2008-10-29T12:57:59Z</time>
      </trkpt>
      <trkpt lat="48.29212190" lon="8.302960400">
        <ele>305.00000</ele>
        <time>2008-10-29T12:58:35Z</time>
      </trkpt>
      <trkpt lat="48.29225060" lon="8.303861600">
        <ele>312.00000</ele>
        <time>2008-10-29T12:59:00Z</time>
      </trkpt>
      <trkpt lat="48.29229350" lon="8.304076200">
        <ele>312.00000</ele>
        <time>2008-10-29T12:59:06Z</time>
      </trkpt>
      <trkpt lat="48.29250810" lon="8.305621100">
        <ele>319.00000</ele>
        <time>2008-10-29T12:59:48Z</time>
      </trkpt>
      <trkpt lat="48.29250810" lon="8.306822800">
        <ele>317.00000</ele>
        <time>2008-10-29T13:00:20Z</time>
      </trkpt>
      <trkpt lat="48.29246520" lon="8.307380700">
        <ele>316.00000</ele>
        <time>2008-10-29T13:00:35Z</time>
      </trkpt>
      <trkpt lat="48.29242230" lon="8.307681100">
        <ele>316.00000</ele>
        <time>2008-10-29T13:00:43Z</time>
      </trkpt>
      <trkpt lat="48.29242230" lon="8.308453600">
        <ele>320.00000</ele>
        <time>2008-10-29T13:01:03Z</time>
      </trkpt>
      <trkpt lat="48.29242230" lon="8.309440600">
        <ele>322.00000</ele>
        <time>2008-10-29T13:01:30Z</time>
      </trkpt>
      <trkpt lat="48.29250810" lon="8.310341800">
        <ele>316.00000</ele>
        <time>2008-10-29T13:01:54Z</time>
      </trkpt>
      <trkpt lat="48.29250810" lon="8.311715100">
        <ele>318.00000</ele>
        <time>2008-10-29T13:02:31Z</time>
      </trkpt>
      <trkpt lat="48.29237940" lon="8.313260100">
        <ele>318.00000</ele>
        <time>2008-10-29T13:03:12Z</time>
      </trkpt>
      <trkpt lat="48.29225060" lon="8.314333000">
        <ele>316.00000</ele>
        <time>2008-10-29T13:03:41Z</time>
      </trkpt>
      <trkpt lat="48.29173560" lon="8.316564600">
        <ele>327.00000</ele>
        <time>2008-10-29T13:04:44Z</time>
      </trkpt>
      <trkpt lat="48.29156400" lon="8.318109500">
        <ele>321.00000</ele>
        <time>2008-10-29T13:05:26Z</time>
      </trkpt>
      <trkpt lat="48.29152110" lon="8.320255300">
        <ele>315.00000</ele>
        <time>2008-10-29T13:06:23Z</time>
      </trkpt>
      <trkpt lat="48.29143520" lon="8.320727300">
        <ele>318.00000</ele>
        <time>2008-10-29T13:06:36Z</time>
      </trkpt>
      <trkpt lat="48.29070570" lon="8.323259400">
        <ele>327.00000</ele>
        <time>2008-10-29T13:07:49Z</time>
      </trkpt>
      <trkpt lat="48.29049110" lon="8.323860200">
        <ele>327.00000</ele>
        <time>2008-10-29T13:08:08Z</time>
      </trkpt>
      <trkpt lat="48.29027650" lon="8.324632600">
        <ele>352.00000</ele>
        <time>2008-10-29T13:08:30Z</time>
      </trkpt>
      <trkpt lat="48.28911780" lon="8.327808400">
        <ele>411.00000</ele>
        <time>2008-10-29T13:10:06Z</time>
      </trkpt>
      <trkpt lat="48.28843120" lon="8.329310400">
        <ele>442.00000</ele>
        <time>2008-10-29T13:10:55Z</time>
      </trkpt>
      <trkpt lat="48.28791620" lon="8.330469100">
        <ele>421.00000</ele>
        <time>2008-10-29T13:11:32Z</time>
      </trkpt>
      <trkpt lat="48.28744410" lon="8.331327400">
        <ele>409.00000</ele>
        <time>2008-10-29T13:12:02Z</time>
      </trkpt>
      <trkpt lat="48.28705790" lon="8.332099900">
        <ele>442.00000</ele>
        <time>2008-10-29T13:12:27Z</time>
      </trkpt>
      <trkpt lat="48.28452590" lon="8.336219800">
        <ele>584.00000</ele>
        <time>2008-10-29T13:14:57Z</time>
      </trkpt>
      <trkpt lat="48.28328130" lon="8.338494300">
        <ele>524.00000</ele>
        <time>2008-10-29T13:16:15Z</time>
      </trkpt>
      <trkpt lat="48.28268050" lon="8.339738800">
        <ele>479.00000</ele>
        <time>2008-10-29T13:16:56Z</time>
      </trkpt>
      <trkpt lat="48.28238010" lon="8.340725900">
        <ele>448.00000</ele>
        <time>2008-10-29T13:17:25Z</time>
      </trkpt>
      <trkpt lat="48.28229430" lon="8.341240900">
        <ele>448.00000</ele>
        <time>2008-10-29T13:17:39Z</time>
      </trkpt>
      <trkpt lat="48.28220840" lon="8.342399600">
        <ele>403.00000</ele>
        <time>2008-10-29T13:18:10Z</time>
      </trkpt>
      <trkpt lat="48.28225140" lon="8.343558300">
        <ele>422.00000</ele>
        <time>2008-10-29T13:18:41Z</time>
      </trkpt>
      <trkpt lat="48.28238010" lon="8.345146200">
        <ele>403.00000</ele>
        <time>2008-10-29T13:19:24Z</time>
      </trkpt>
      <trkpt lat="48.28250890" lon="8.346004500">
        <ele>363.00000</ele>
        <time>2008-10-29T13:19:47Z</time>
      </trkpt>
      <trkpt lat="48.28268050" lon="8.346819900">
        <ele>351.00000</ele>
        <time>2008-10-29T13:20:10Z</time>
      </trkpt>
      <trkpt lat="48.28310970" lon="8.348407700">
        <ele>369.00000</ele>
        <time>2008-10-29T13:20:56Z</time>
      </trkpt>
      <trkpt lat="48.28332420" lon="8.349351900">
        <ele>361.00000</ele>
        <time>2008-10-29T13:21:22Z</time>
      </trkpt>
      <trkpt lat="48.28336720" lon="8.350296000">
        <ele>352.00000</ele>
        <time>2008-10-29T13:21:47Z</time>
      </trkpt>
      <trkpt lat="48.28332420" lon="8.350896800">
        <ele>349.00000</ele>
        <time>2008-10-29T13:22:04Z</time>
      </trkpt>
      <trkpt lat="48.28323840" lon="8.351368900">
        <ele>352.00000</ele>
        <time>2008-10-29T13:22:17Z</time>
      </trkpt>
      <trkpt lat="48.28315260" lon="8.351583500">
        <ele>352.00000</ele>
        <time>2008-10-29T13:22:23Z</time>
      </trkpt>
      <trkpt lat="48.28289510" lon="8.352227200">
        <ele>346.00000</ele>
        <time>2008-10-29T13:22:43Z</time>
      </trkpt>
      <trkpt lat="48.28259470" lon="8.352570500">
        <ele>346.00000</ele>
        <time>2008-10-29T13:22:58Z</time>
      </trkpt>
      <trkpt lat="48.28225140" lon="8.352828000">
        <ele>346.00000</ele>
        <time>2008-10-29T13:23:14Z</time>
      </trkpt>
      <trkpt lat="48.28165050" lon="8.352913900">
        <ele>345.00000</ele>
        <time>2008-10-29T13:23:38Z</time>
      </trkpt>
      <trkpt lat="48.28032020" lon="8.352527600">
        <ele>344.00000</ele>
        <time>2008-10-29T13:24:32Z</time>
      </trkpt>
      <trkpt lat="48.27941890" lon="8.352270100">
        <ele>344.00000</ele>
        <time>2008-10-29T13:25:09Z</time>
      </trkpt>
      <trkpt lat="48.27817440" lon="8.352184300">
        <ele>346.00000</ele>
        <time>2008-10-29T13:25:59Z</time>
      </trkpt>
      <trkpt lat="48.27748780" lon="8.352270100">
        <ele>346.00000</ele>
        <time>2008-10-29T13:26:26Z</time>
      </trkpt>
      <trkpt lat="48.27692990" lon="8.352398900">
        <ele>349.00000</ele>
        <time>2008-10-29T13:26:49Z</time>
      </trkpt>
      <trkpt lat="48.27620030" lon="8.352870900">
        <ele>350.00000</ele>
        <time>2008-10-29T13:27:21Z</time>
      </trkpt>
      <trkpt lat="48.27559950" lon="8.353557600">
        <ele>350.00000</ele>
        <time>2008-10-29T13:27:51Z</time>
      </trkpt>
      <trkpt lat="48.27525620" lon="8.354072600">
        <ele>353.00000</ele>
        <time>2008-10-29T13:28:10Z</time>
      </trkpt>
      <trkpt lat="48.27431200" lon="8.356304200">
        <ele>357.00000</ele>
        <time>2008-10-29T13:29:21Z</time>
      </trkpt>
      <trkpt lat="48.27375410" lon="8.357205400">
        <ele>360.00000</ele>
        <time>2008-10-29T13:29:54Z</time>
      </trkpt>
      <trkpt lat="48.27285290" lon="8.358321200">
        <ele>366.00000</ele>
        <time>2008-10-29T13:30:40Z</time>
      </trkpt>
      <trkpt lat="48.27233790" lon="8.359179500">
        <ele>365.00000</ele>
        <time>2008-10-29T13:31:11Z</time>
      </trkpt>
      <trkpt lat="48.27225210" lon="8.359437000">
        <ele>365.00000</ele>
        <time>2008-10-29T13:31:19Z</time>
      </trkpt>
      <trkpt lat="48.27195170" lon="8.360424000">
        <ele>365.00000</ele>
        <time>2008-10-29T13:31:48Z</time>
      </trkpt>
      <trkpt lat="48.27178000" lon="8.361454000">
        <ele>369.00000</ele>
        <time>2008-10-29T13:32:16Z</time>
      </trkpt>
      <trkpt lat="48.27165130" lon="8.361883200">
        <ele>369.00000</ele>
        <time>2008-10-29T13:32:29Z</time>
      </trkpt>
      <trkpt lat="48.27135090" lon="8.362355200">
        <ele>380.00000</ele>
        <time>2008-10-29T13:32:46Z</time>
      </trkpt>
      <trkpt lat="48.27083590" lon="8.362655600">
        <ele>367.00000</ele>
        <time>2008-10-29T13:33:08Z</time>
      </trkpt>
      <trkpt lat="48.27002050" lon="8.362655600">
        <ele>366.00000</ele>
        <time>2008-10-29T13:33:41Z</time>
      </trkpt>
      <trkpt lat="48.26864720" lon="8.362526900">
        <ele>366.00000</ele>
        <time>2008-10-29T13:34:36Z</time>
      </trkpt>
      <trkpt lat="48.26826100" lon="8.362569800">
        <ele>366.00000</ele>
        <time>2008-10-29T13:34:51Z</time>
      </trkpt>
      <trkpt lat="48.26796050" lon="8.362870200">
        <ele>366.00000</ele>
        <time>2008-10-29T13:35:06Z</time>
      </trkpt>
      <trkpt lat="48.26787470" lon="8.363170600">
        <ele>385.00000</ele>
        <time>2008-10-29T13:35:14Z</time>
      </trkpt>
      <trkpt lat="48.26774600" lon="8.363771400">
        <ele>376.00000</ele>
        <time>2008-10-29T13:35:31Z</time>
      </trkpt>
      <trkpt lat="48.26757430" lon="8.364801400">
        <ele>380.00000</ele>
        <time>2008-10-29T13:36:00Z</time>
      </trkpt>
      <trkpt lat="48.26744560" lon="8.365230600">
        <ele>380.00000</ele>
        <time>2008-10-29T13:36:12Z</time>
      </trkpt>
      <trkpt lat="48.26663020" lon="8.366818400">
        <ele>371.00000</ele>
        <time>2008-10-29T13:37:06Z</time>
      </trkpt>
      <trkpt lat="48.26632980" lon="8.367290500">
        <ele>382.00000</ele>
        <time>2008-10-29T13:37:23Z</time>
      </trkpt>
      <trkpt lat="48.26577190" lon="8.367633800">
        <ele>370.00000</ele>
        <time>2008-10-29T13:37:47Z</time>
      </trkpt>
      <trkpt lat="48.26538560" lon="8.367719700">
        <ele>372.00000</ele>
        <time>2008-10-29T13:38:03Z</time>
      </trkpt>
      <trkpt lat="48.26452730" lon="8.367247600">
        <ele>372.00000</ele>
        <time>2008-10-29T13:38:39Z</time>
      </trkpt>
      <trkpt lat="48.26426980" lon="8.367247600">
        <ele>372.00000</ele>
        <time>2008-10-29T13:38:50Z</time>
      </trkpt>
      <trkpt lat="48.26405530" lon="8.367376300">
        <ele>372.00000</ele>
        <time>2008-10-29T13:38:59Z</time>
      </trkpt>
      <trkpt lat="48.26384070" lon="8.367548000">
        <ele>372.00000</ele>
        <time>2008-10-29T13:39:09Z</time>
      </trkpt>
      <trkpt lat="48.26349740" lon="8.368320500">
        <ele>373.00000</ele>
        <time>2008-10-29T13:39:33Z</time>
      </trkpt>
      <trkpt lat="48.26336860" lon="8.368620900">
        <ele>373.00000</ele>
        <time>2008-10-29T13:39:43Z</time>
      </trkpt>
      <trkpt lat="48.26298240" lon="8.369565000">
        <ele>374.00000</ele>
        <time>2008-10-29T13:40:12Z</time>
      </trkpt>
      <trkpt lat="48.26263900" lon="8.370037100">
        <ele>377.00000</ele>
        <time>2008-10-29T13:40:31Z</time>
      </trkpt>
      <trkpt lat="48.26225280" lon="8.370337500">
        <ele>377.00000</ele>
        <time>2008-10-29T13:40:48Z</time>
      </trkpt>
      <trkpt lat="48.26178070" lon="8.370595000">
        <ele>386.00000</ele>
        <time>2008-10-29T13:41:09Z</time>
      </trkpt>
      <trkpt lat="48.26122280" lon="8.370895400">
        <ele>398.00000</ele>
        <time>2008-10-29T13:41:32Z</time>
      </trkpt>
      <trkpt lat="48.26087950" lon="8.371195800">
        <ele>398.00000</ele>
        <time>2008-10-29T13:41:48Z</time>
      </trkpt>
      <trkpt lat="48.26057910" lon="8.371582000">
        <ele>382.00000</ele>
        <time>2008-10-29T13:42:04Z</time>
      </trkpt>
      <trkpt lat="48.26023580" lon="8.371968300">
        <ele>394.00000</ele>
        <time>2008-10-29T13:42:21Z</time>
      </trkpt>
      <trkpt lat="48.25997830" lon="8.372139900">
        <ele>379.00000</ele>
        <time>2008-10-29T13:42:32Z</time>
      </trkpt>
      <trkpt lat="48.25942040" lon="8.372311600">
        <ele>385.00000</ele>
        <time>2008-10-29T13:42:55Z</time>
      </trkpt>
      <trkpt lat="48.25881960" lon="8.372311600">
        <ele>385.00000</ele>
        <time>2008-10-29T13:43:19Z</time>
      </trkpt>
      <trkpt lat="48.25787540" lon="8.372054100">
        <ele>393.00000</ele>
        <time>2008-10-29T13:43:58Z</time>
      </trkpt>
      <trkpt lat="48.25723170" lon="8.372011200">
        <ele>393.00000</ele>
        <time>2008-10-29T13:44:23Z</time>
      </trkpt>
      <trkpt lat="48.25551510" lon="8.372311600">
        <ele>384.00000</ele>
        <time>2008-10-29T13:45:33Z</time>
      </trkpt>
      <trkpt lat="48.25397010" lon="8.372354500">
        <ele>390.00000</ele>
        <time>2008-10-29T13:46:35Z</time>
      </trkpt>
      <trkpt lat="48.25315480" lon="8.372654900">
        <ele>389.00000</ele>
        <time>2008-10-29T13:47:08Z</time>
      </trkpt>
      <trkpt lat="48.25281140" lon="8.372654900">
        <ele>394.00000</ele>
        <time>2008-10-29T13:47:22Z</time>
      </trkpt>
      <trkpt lat="48.25251100" lon="8.372526200">
        <ele>394.00000</ele>
        <time>2008-10-29T13:47:34Z</time>
      </trkpt>
      <trkpt lat="48.25169560" lon="8.371968300">
        <ele>413.00000</ele>
        <time>2008-10-29T13:48:10Z</time>
      </trkpt>
      <trkpt lat="48.25118060" lon="8.371839500">
        <ele>418.00000</ele>
        <time>2008-10-29T13:48:31Z</time>
      </trkpt>
      <trkpt lat="48.25066570" lon="8.372054100">
        <ele>418.00000</ele>
        <time>2008-10-29T13:48:53Z</time>
      </trkpt>
      <trkpt lat="48.25015070" lon="8.372526200">
        <ele>400.00000</ele>
        <time>2008-10-29T13:49:17Z</time>
      </trkpt>
      <trkpt lat="48.24959280" lon="8.372912400">
        <ele>400.00000</ele>
        <time>2008-10-29T13:49:41Z</time>
      </trkpt>
      <trkpt lat="48.24907780" lon="8.372998200">
        <ele>390.00000</ele>
        <time>2008-10-29T13:50:02Z</time>
      </trkpt>
      <trkpt lat="48.24877740" lon="8.372955300">
        <ele>390.00000</ele>
        <time>2008-10-29T13:50:14Z</time>
      </trkpt>
      <trkpt lat="48.24826240" lon="8.372612000">
        <ele>402.00000</ele>
        <time>2008-10-29T13:50:37Z</time>
      </trkpt>
      <trkpt lat="48.24748990" lon="8.371667900">
        <ele>405.00000</ele>
        <time>2008-10-29T13:51:17Z</time>
      </trkpt>
      <trkpt lat="48.24710370" lon="8.371539100">
        <ele>405.00000</ele>
        <time>2008-10-29T13:51:32Z</time>
      </trkpt>
      <trkpt lat="48.24671750" lon="8.371710800">
        <ele>400.00000</ele>
        <time>2008-10-29T13:51:48Z</time>
      </trkpt>
      <trkpt lat="48.24658870" lon="8.371839500">
        <ele>400.00000</ele>
        <time>2008-10-29T13:51:55Z</time>
      </trkpt>
      <trkpt lat="48.24615960" lon="8.372526200">
        <ele>404.00000</ele>
        <time>2008-10-29T13:52:20Z</time>
      </trkpt>
      <trkpt lat="48.24585910" lon="8.373255700">
        <ele>409.00000</ele>
        <time>2008-10-29T13:52:43Z</time>
      </trkpt>
      <trkpt lat="48.24564460" lon="8.373856500">
        <ele>414.00000</ele>
        <time>2008-10-29T13:53:01Z</time>
      </trkpt>
      <trkpt lat="48.24551580" lon="8.374929400">
        <ele>419.00000</ele>
        <time>2008-10-29T13:53:30Z</time>
      </trkpt>
      <trkpt lat="48.24543000" lon="8.375787700">
        <ele>422.00000</ele>
        <time>2008-10-29T13:53:53Z</time>
      </trkpt>
      <trkpt lat="48.24525830" lon="8.376345600">
        <ele>402.00000</ele>
        <time>2008-10-29T13:54:09Z</time>
      </trkpt>
      <trkpt lat="48.24500080" lon="8.376731900">
        <ele>402.00000</ele>
        <time>2008-10-29T13:54:24Z</time>
      </trkpt>
      <trkpt lat="48.24474330" lon="8.376946400">
        <ele>402.00000</ele>
        <time>2008-10-29T13:54:36Z</time>
      </trkpt>
      <trkpt lat="48.24414250" lon="8.377118100">
        <ele>416.00000</ele>
        <time>2008-10-29T13:55:00Z</time>
      </trkpt>
      <trkpt lat="48.24315550" lon="8.377118100">
        <ele>437.00000</ele>
        <time>2008-10-29T13:55:40Z</time>
      </trkpt>
      <trkpt lat="48.24276920" lon="8.376860600">
        <ele>441.00000</ele>
        <time>2008-10-29T13:55:57Z</time>
      </trkpt>
      <trkpt lat="48.24255470" lon="8.376517300">
        <ele>441.00000</ele>
        <time>2008-10-29T13:56:09Z</time>
      </trkpt>
      <trkpt lat="48.24203970" lon="8.374972300">
        <ele>449.00000</ele>
        <time>2008-10-29T13:56:55Z</time>
      </trkpt>
      <trkpt lat="48.24173930" lon="8.374328600">
        <ele>418.00000</ele>
        <time>2008-10-29T13:57:16Z</time>
      </trkpt>
      <trkpt lat="48.24135300" lon="8.374071100">
        <ele>418.00000</ele>
        <time>2008-10-29T13:57:33Z</time>
      </trkpt>
      <trkpt lat="48.24105260" lon="8.373985300">
        <ele>419.00000</ele>
        <time>2008-10-29T13:57:45Z</time>
      </trkpt>
      <trkpt lat="48.24083810" lon="8.374028200">
        <ele>419.00000</ele>
        <time>2008-10-29T13:57:54Z</time>
      </trkpt>
      <trkpt lat="48.24040890" lon="8.374285700">
        <ele>415.00000</ele>
        <time>2008-10-29T13:58:13Z</time>
      </trkpt>
      <trkpt lat="48.23972230" lon="8.374886500">
        <ele>422.00000</ele>
        <time>2008-10-29T13:58:44Z</time>
      </trkpt>
      <trkpt lat="48.23916440" lon="8.375616100">
        <ele>425.00000</ele>
        <time>2008-10-29T13:59:14Z</time>
      </trkpt>
      <trkpt lat="48.23877810" lon="8.375916500">
        <ele>425.00000</ele>
        <time>2008-10-29T13:59:31Z</time>
      </trkpt>
      <trkpt lat="48.23822020" lon="8.376131100">
        <ele>418.00000</ele>
        <time>2008-10-29T13:59:54Z</time>
      </trkpt>
      <trkpt lat="48.23783400" lon="8.376131100">
        <ele>417.00000</ele>
        <time>2008-10-29T14:00:10Z</time>
      </trkpt>
      <trkpt lat="48.23749070" lon="8.376174000">
        <ele>417.00000</ele>
        <time>2008-10-29T14:00:24Z</time>
      </trkpt>
      <trkpt lat="48.23727610" lon="8.376259800">
        <ele>431.00000</ele>
        <time>2008-10-29T14:00:33Z</time>
      </trkpt>
      <trkpt lat="48.23693280" lon="8.376560200">
        <ele>414.00000</ele>
        <time>2008-10-29T14:00:48Z</time>
      </trkpt>
      <trkpt lat="48.23658940" lon="8.377032300">
        <ele>414.00000</ele>
        <time>2008-10-29T14:01:07Z</time>
      </trkpt>
      <trkpt lat="48.23581700" lon="8.378233900">
        <ele>413.00000</ele>
        <time>2008-10-29T14:01:52Z</time>
      </trkpt>
      <trkpt lat="48.23513030" lon="8.379221000">
        <ele>418.00000</ele>
        <time>2008-10-29T14:02:30Z</time>
      </trkpt>
      <trkpt lat="48.23405740" lon="8.379993400">
        <ele>419.00000</ele>
        <time>2008-10-29T14:03:17Z</time>
      </trkpt>
      <trkpt lat="48.23311330" lon="8.380937600">
        <ele>419.00000</ele>
        <time>2008-10-29T14:04:03Z</time>
      </trkpt>
      <trkpt lat="48.23277000" lon="8.381366700">
        <ele>419.00000</ele>
        <time>2008-10-29T14:04:21Z</time>
      </trkpt>
      <trkpt lat="48.23195460" lon="8.382268000">
        <ele>420.00000</ele>
        <time>2008-10-29T14:05:01Z</time>
      </trkpt>
      <trkpt lat="48.23148250" lon="8.382740000">
        <ele>420.00000</ele>
        <time>2008-10-29T14:05:24Z</time>
      </trkpt>
      <trkpt lat="48.23058130" lon="8.383383800">
        <ele>426.00000</ele>
        <time>2008-10-29T14:06:04Z</time>
      </trkpt>
      <trkpt lat="48.23010920" lon="8.383641200">
        <ele>423.00000</ele>
        <time>2008-10-29T14:06:24Z</time>
      </trkpt>
      <trkpt lat="48.22890760" lon="8.384327900">
        <ele>423.00000</ele>
        <time>2008-10-29T14:07:15Z</time>
      </trkpt>
      <trkpt lat="48.22817800" lon="8.384499500">
        <ele>425.00000</ele>
        <time>2008-10-29T14:07:45Z</time>
      </trkpt>
      <trkpt lat="48.22800640" lon="8.384027500">
        <ele>425.00000</ele>
        <time>2008-10-29T14:07:59Z</time>
      </trkpt>
      <trkpt lat="48.22770600" lon="8.383126300">
        <ele>436.00000</ele>
        <time>2008-10-29T14:08:26Z</time>
      </trkpt>
      <trkpt lat="48.22757720" lon="8.382911700">
        <ele>461.00000</ele>
        <time>2008-10-29T14:08:34Z</time>
      </trkpt>
      <trkpt lat="48.22731970" lon="8.382740000">
        <ele>461.00000</ele>
        <time>2008-10-29T14:08:45Z</time>
      </trkpt>
      <trkpt lat="48.22641850" lon="8.382697100">
        <ele>484.00000</ele>
        <time>2008-10-29T14:09:21Z</time>
      </trkpt>
      <trkpt lat="48.22461610" lon="8.382868800">
        <ele>489.00000</ele>
        <time>2008-10-29T14:10:34Z</time>
      </trkpt>
      <trkpt lat="48.22427270" lon="8.382954600">
        <ele>439.00000</ele>
        <time>2008-10-29T14:10:47Z</time>
      </trkpt>
      <trkpt lat="48.22397230" lon="8.383169200">
        <ele>439.00000</ele>
        <time>2008-10-29T14:11:01Z</time>
      </trkpt>
      <trkpt lat="48.22367190" lon="8.383598300">
        <ele>434.00000</ele>
        <time>2008-10-29T14:11:17Z</time>
      </trkpt>
      <trkpt lat="48.22354320" lon="8.383855800">
        <ele>433.00000</ele>
        <time>2008-10-29T14:11:26Z</time>
      </trkpt>
      <trkpt lat="48.22350030" lon="8.384199100">
        <ele>433.00000</ele>
        <time>2008-10-29T14:11:35Z</time>
      </trkpt>
      <trkpt lat="48.22319980" lon="8.384070400">
        <ele>433.00000</ele>
        <time>2008-10-29T14:11:48Z</time>
      </trkpt>
      <trkpt lat="48.22307110" lon="8.383984600">
        <ele>433.00000</ele>
        <time>2008-10-29T14:11:53Z</time>
      </trkpt>
      <trkpt lat="48.22294240" lon="8.383770000">
        <ele>433.00000</ele>
        <time>2008-10-29T14:12:01Z</time>
      </trkpt>
      <trkpt lat="48.22208400" lon="8.382439600">
        <ele>438.00000</ele>
        <time>2008-10-29T14:12:51Z</time>
      </trkpt>
      <trkpt lat="48.22152610" lon="8.379435500">
        <ele>457.00000</ele>
        <time>2008-10-29T14:14:14Z</time>
      </trkpt>
      <trkpt lat="48.22113990" lon="8.378233900">
        <ele>482.00000</ele>
        <time>2008-10-29T14:14:49Z</time>
      </trkpt>
      <trkpt lat="48.22109700" lon="8.377804800">
        <ele>497.00000</ele>
        <time>2008-10-29T14:15:01Z</time>
      </trkpt>
      <trkpt lat="48.22109700" lon="8.377547300">
        <ele>497.00000</ele>
        <time>2008-10-29T14:15:08Z</time>
      </trkpt>
      <trkpt lat="48.22113990" lon="8.376989400">
        <ele>518.00000</ele>
        <time>2008-10-29T14:15:23Z</time>
      </trkpt>
      <trkpt lat="48.22126870" lon="8.376646000">
        <ele>470.00000</ele>
        <time>2008-10-29T14:15:33Z</time>
      </trkpt>
      <trkpt lat="48.22148320" lon="8.376259800">
        <ele>470.00000</ele>
        <time>2008-10-29T14:15:47Z</time>
      </trkpt>
      <trkpt lat="48.22174070" lon="8.375830700">
        <ele>499.00000</ele>
        <time>2008-10-29T14:16:02Z</time>
      </trkpt>
      <trkpt lat="48.22272780" lon="8.374929400">
        <ele>500.00000</ele>
        <time>2008-10-29T14:16:48Z</time>
      </trkpt>
      <trkpt lat="48.22289940" lon="8.374629000">
        <ele>500.00000</ele>
        <time>2008-10-29T14:16:59Z</time>
      </trkpt>
      <trkpt lat="48.22307110" lon="8.373899500">
        <ele>500.00000</ele>
        <time>2008-10-29T14:17:19Z</time>
      </trkpt>
      <trkpt lat="48.22307110" lon="8.373341600">
        <ele>513.00000</ele>
        <time>2008-10-29T14:17:34Z</time>
      </trkpt>
      <trkpt lat="48.22302820" lon="8.372912400">
        <ele>528.00000</ele>
        <time>2008-10-29T14:17:46Z</time>
      </trkpt>
      <trkpt lat="48.22285650" lon="8.372097000">
        <ele>549.00000</ele>
        <time>2008-10-29T14:18:09Z</time>
      </trkpt>
      <trkpt lat="48.22264190" lon="8.371539100">
        <ele>540.00000</ele>
        <time>2008-10-29T14:18:26Z</time>
      </trkpt>
      <trkpt lat="48.22247030" lon="8.371238700">
        <ele>540.00000</ele>
        <time>2008-10-29T14:18:36Z</time>
      </trkpt>
      <trkpt lat="48.22204110" lon="8.370637900">
        <ele>557.00000</ele>
        <time>2008-10-29T14:19:00Z</time>
      </trkpt>
      <trkpt lat="48.22186950" lon="8.370380400">
        <ele>553.00000</ele>
        <time>2008-10-29T14:19:10Z</time>
      </trkpt>
      <trkpt lat="48.22178360" lon="8.370080000">
        <ele>553.00000</ele>
        <time>2008-10-29T14:19:18Z</time>
      </trkpt>
      <trkpt lat="48.22174070" lon="8.369607900">
        <ele>553.00000</ele>
        <time>2008-10-29T14:19:31Z</time>
      </trkpt>
      <trkpt lat="48.22186950" lon="8.369092900">
        <ele>551.00000</ele>
        <time>2008-10-29T14:19:46Z</time>
      </trkpt>
      <trkpt lat="48.22199820" lon="8.368964200">
        <ele>551.00000</ele>
        <time>2008-10-29T14:19:52Z</time>
      </trkpt>
      <trkpt lat="48.22216990" lon="8.368835400">
        <ele>543.00000</ele>
        <time>2008-10-29T14:20:00Z</time>
      </trkpt>
      <trkpt lat="48.22247030" lon="8.368792500">
        <ele>543.00000</ele>
        <time>2008-10-29T14:20:12Z</time>
      </trkpt>
      <trkpt lat="48.22289940" lon="8.369092900">
        <ele>543.00000</ele>
        <time>2008-10-29T14:20:31Z</time>
      </trkpt>
      <trkpt lat="48.22311400" lon="8.369178800">
        <ele>553.00000</ele>
        <time>2008-10-29T14:20:40Z</time>
      </trkpt>
      <trkpt lat="48.22328570" lon="8.369135900">
        <ele>553.00000</ele>
        <time>2008-10-29T14:20:47Z</time>
      </trkpt>
      <trkpt lat="48.22358610" lon="8.368835400">
        <ele>553.00000</ele>
        <time>2008-10-29T14:21:01Z</time>
      </trkpt>
      <trkpt lat="48.22367190" lon="8.368492100">
        <ele>544.00000</ele>
        <time>2008-10-29T14:21:11Z</time>
      </trkpt>
      <trkpt lat="48.22354320" lon="8.368063000">
        <ele>544.00000</ele>
        <time>2008-10-29T14:21:23Z</time>
      </trkpt>
      <trkpt lat="48.22324280" lon="8.367247600">
        <ele>544.00000</ele>
        <time>2008-10-29T14:21:48Z</time>
      </trkpt>
      <trkpt lat="48.22315690" lon="8.366689700">
        <ele>544.00000</ele>
        <time>2008-10-29T14:22:03Z</time>
      </trkpt>
      <trkpt lat="48.22319980" lon="8.366389300">
        <ele>544.00000</ele>
        <time>2008-10-29T14:22:12Z</time>
      </trkpt>
      <trkpt lat="48.22337150" lon="8.366003000">
        <ele>536.00000</ele>
        <time>2008-10-29T14:22:24Z</time>
      </trkpt>
      <trkpt lat="48.22354320" lon="8.365831400">
        <ele>536.00000</ele>
        <time>2008-10-29T14:22:32Z</time>
      </trkpt>
      <trkpt lat="48.22388650" lon="8.365058900">
        <ele>542.00000</ele>
        <time>2008-10-29T14:22:57Z</time>
      </trkpt>
      <trkpt lat="48.22427270" lon="8.363986000">
        <ele>543.00000</ele>
        <time>2008-10-29T14:23:30Z</time>
      </trkpt>
      <trkpt lat="48.22465900" lon="8.362913100">
        <ele>561.00000</ele>
        <time>2008-10-29T14:24:02Z</time>
      </trkpt>
      <trkpt lat="48.22474480" lon="8.362569800">
        <ele>561.00000</ele>
        <time>2008-10-29T14:24:12Z</time>
      </trkpt>
      <trkpt lat="48.22478770" lon="8.362011900">
        <ele>557.00000</ele>
        <time>2008-10-29T14:24:27Z</time>
      </trkpt>
      <trkpt lat="48.22478770" lon="8.360338200">
        <ele>561.00000</ele>
        <time>2008-10-29T14:25:11Z</time>
      </trkpt>
      <trkpt lat="48.22495940" lon="8.359050800">
        <ele>555.00000</ele>
        <time>2008-10-29T14:25:46Z</time>
      </trkpt>
      <trkpt lat="48.22508810" lon="8.358407000">
        <ele>550.00000</ele>
        <time>2008-10-29T14:26:04Z</time>
      </trkpt>
      <trkpt lat="48.22556020" lon="8.357763300">
        <ele>547.00000</ele>
        <time>2008-10-29T14:26:30Z</time>
      </trkpt>
      <trkpt lat="48.22573180" lon="8.357591600">
        <ele>547.00000</ele>
        <time>2008-10-29T14:26:38Z</time>
      </trkpt>
      <trkpt lat="48.22590350" lon="8.357462900">
        <ele>547.00000</ele>
        <time>2008-10-29T14:26:46Z</time>
      </trkpt>
      <trkpt lat="48.22624680" lon="8.357119600">
        <ele>547.00000</ele>
        <time>2008-10-29T14:27:02Z</time>
      </trkpt>
      <trkpt lat="48.22641850" lon="8.356561700">
        <ele>552.00000</ele>
        <time>2008-10-29T14:27:19Z</time>
      </trkpt>
      <trkpt lat="48.22637560" lon="8.355402900">
        <ele>558.00000</ele>
        <time>2008-10-29T14:27:50Z</time>
      </trkpt>
      <trkpt lat="48.22637560" lon="8.354845000">
        <ele>558.00000</ele>
        <time>2008-10-29T14:28:05Z</time>
      </trkpt>
      <trkpt lat="48.22654720" lon="8.354287100">
        <ele>557.00000</ele>
        <time>2008-10-29T14:28:21Z</time>
      </trkpt>
      <trkpt lat="48.22710510" lon="8.353214300">
        <ele>562.00000</ele>
        <time>2008-10-29T14:28:57Z</time>
      </trkpt>
      <trkpt lat="48.22714810" lon="8.352785100">
        <ele>570.00000</ele>
        <time>2008-10-29T14:29:09Z</time>
      </trkpt>
      <trkpt lat="48.22710510" lon="8.351669300">
        <ele>568.00000</ele>
        <time>2008-10-29T14:29:39Z</time>
      </trkpt>
      <trkpt lat="48.22701930" lon="8.350725200">
        <ele>588.00000</ele>
        <time>2008-10-29T14:30:04Z</time>
      </trkpt>
      <trkpt lat="48.22710510" lon="8.349824000">
        <ele>578.00000</ele>
        <time>2008-10-29T14:30:28Z</time>
      </trkpt>
      <trkpt lat="48.22736260" lon="8.348665200">
        <ele>574.00000</ele>
        <time>2008-10-29T14:31:01Z</time>
      </trkpt>
      <trkpt lat="48.22749140" lon="8.347849800">
        <ele>580.00000</ele>
        <time>2008-10-29T14:31:23Z</time>
      </trkpt>
      <trkpt lat="48.22744850" lon="8.346133200">
        <ele>580.00000</ele>
        <time>2008-10-29T14:32:09Z</time>
      </trkpt>
      <trkpt lat="48.22749140" lon="8.345747000">
        <ele>580.00000</ele>
        <time>2008-10-29T14:32:20Z</time>
      </trkpt>
      <trkpt lat="48.22770600" lon="8.344545400">
        <ele>586.00000</ele>
        <time>2008-10-29T14:32:53Z</time>
      </trkpt>
      <trkpt lat="48.22774890" lon="8.344159100">
        <ele>586.00000</ele>
        <time>2008-10-29T14:33:03Z</time>
      </trkpt>
      <trkpt lat="48.22779180" lon="8.343472500">
        <ele>592.00000</ele>
        <time>2008-10-29T14:33:22Z</time>
      </trkpt>
      <trkpt lat="48.22783470" lon="8.342871700">
        <ele>596.00000</ele>
        <time>2008-10-29T14:33:38Z</time>
      </trkpt>
      <trkpt lat="48.22796340" lon="8.342399600">
        <ele>586.00000</ele>
        <time>2008-10-29T14:33:51Z</time>
      </trkpt>
      <trkpt lat="48.22817800" lon="8.341755900">
        <ele>587.00000</ele>
        <time>2008-10-29T14:34:10Z</time>
      </trkpt>
      <trkpt lat="48.22834970" lon="8.340940500">
        <ele>591.00000</ele>
        <time>2008-10-29T14:34:33Z</time>
      </trkpt>
      <trkpt lat="48.22834970" lon="8.340468400">
        <ele>591.00000</ele>
        <time>2008-10-29T14:34:46Z</time>
      </trkpt>
      <trkpt lat="48.22813510" lon="8.339867600">
        <ele>597.00000</ele>
        <time>2008-10-29T14:35:04Z</time>
      </trkpt>
      <trkpt lat="48.22787760" lon="8.339180900">
        <ele>615.00000</ele>
        <time>2008-10-29T14:35:25Z</time>
      </trkpt>
      <trkpt lat="48.22783470" lon="8.338837600">
        <ele>615.00000</ele>
        <time>2008-10-29T14:35:34Z</time>
      </trkpt>
      <trkpt lat="48.22800640" lon="8.338022200">
        <ele>612.00000</ele>
        <time>2008-10-29T14:35:57Z</time>
      </trkpt>
      <trkpt lat="48.22830680" lon="8.337421400">
        <ele>619.00000</ele>
        <time>2008-10-29T14:36:17Z</time>
      </trkpt>
      <trkpt lat="48.22809220" lon="8.337464300">
        <ele>619.00000</ele>
        <time>2008-10-29T14:36:26Z</time>
      </trkpt>
      <trkpt lat="48.22792050" lon="8.337593100">
        <ele>619.00000</ele>
        <time>2008-10-29T14:36:34Z</time>
      </trkpt>
      <trkpt lat="48.22774890" lon="8.337850600">
        <ele>637.00000</ele>
        <time>2008-10-29T14:36:43Z</time>
      </trkpt>
      <trkpt lat="48.22744850" lon="8.338837600">
        <ele>615.00000</ele>
        <time>2008-10-29T14:37:12Z</time>
      </trkpt>
      <trkpt lat="48.22736260" lon="8.338966400">
        <ele>615.00000</ele>
        <time>2008-10-29T14:37:17Z</time>
      </trkpt>
      <trkpt lat="48.22706220" lon="8.339052200">
        <ele>614.00000</ele>
        <time>2008-10-29T14:37:29Z</time>
      </trkpt>
      <trkpt lat="48.22663310" lon="8.338837600">
        <ele>614.00000</ele>
        <time>2008-10-29T14:37:47Z</time>
      </trkpt>
      <trkpt lat="48.22628970" lon="8.338751800">
        <ele>614.00000</ele>
        <time>2008-10-29T14:38:01Z</time>
      </trkpt>
      <trkpt lat="48.22594640" lon="8.338537200">
        <ele>626.00000</ele>
        <time>2008-10-29T14:38:16Z</time>
      </trkpt>
      <trkpt lat="48.22500230" lon="8.337764700">
        <ele>642.00000</ele>
        <time>2008-10-29T14:38:59Z</time>
      </trkpt>
      <trkpt lat="48.22457310" lon="8.337893500">
        <ele>650.00000</ele>
        <time>2008-10-29T14:39:17Z</time>
      </trkpt>
      <trkpt lat="48.22435860" lon="8.338193900">
        <ele>652.00000</ele>
        <time>2008-10-29T14:39:29Z</time>
      </trkpt>
      <trkpt lat="48.22440150" lon="8.338494300">
        <ele>652.00000</ele>
        <time>2008-10-29T14:39:37Z</time>
      </trkpt>
      <trkpt lat="48.22453020" lon="8.338794700">
        <ele>677.00000</ele>
        <time>2008-10-29T14:39:46Z</time>
      </trkpt>
      <trkpt lat="48.22470190" lon="8.339052200">
        <ele>647.00000</ele>
        <time>2008-10-29T14:39:56Z</time>
      </trkpt>
      <trkpt lat="48.22500230" lon="8.339824700">
        <ele>674.00000</ele>
        <time>2008-10-29T14:40:20Z</time>
      </trkpt>
      <trkpt lat="48.22508810" lon="8.340339700">
        <ele>674.00000</ele>
        <time>2008-10-29T14:40:34Z</time>
      </trkpt>
      <trkpt lat="48.22504520" lon="8.340768800">
        <ele>681.00000</ele>
        <time>2008-10-29T14:40:46Z</time>
      </trkpt>
      <trkpt lat="48.22495940" lon="8.341112100">
        <ele>681.00000</ele>
        <time>2008-10-29T14:40:55Z</time>
      </trkpt>
      <trkpt lat="48.22504520" lon="8.341369600">
        <ele>681.00000</ele>
        <time>2008-10-29T14:41:03Z</time>
      </trkpt>
      <trkpt lat="48.22517400" lon="8.341455500">
        <ele>681.00000</ele>
        <time>2008-10-29T14:41:09Z</time>
      </trkpt>
      <trkpt lat="48.22525980" lon="8.341584200">
        <ele>681.00000</ele>
        <time>2008-10-29T14:41:13Z</time>
      </trkpt>
      <trkpt lat="48.22521690" lon="8.342099200">
        <ele>677.00000</ele>
        <time>2008-10-29T14:41:27Z</time>
      </trkpt>
      <trkpt lat="48.22513100" lon="8.342185000">
        <ele>677.00000</ele>
        <time>2008-10-29T14:41:31Z</time>
      </trkpt>
      <trkpt lat="48.22401520" lon="8.342485400">
        <ele>690.00000</ele>
        <time>2008-10-29T14:42:17Z</time>
      </trkpt>
      <trkpt lat="48.22388650" lon="8.342614200">
        <ele>690.00000</ele>
        <time>2008-10-29T14:42:23Z</time>
      </trkpt>
      <trkpt lat="48.22375770" lon="8.343815800">
        <ele>692.00000</ele>
        <time>2008-10-29T14:42:55Z</time>
      </trkpt>
      <trkpt lat="48.22371480" lon="8.344159100">
        <ele>707.00000</ele>
        <time>2008-10-29T14:43:05Z</time>
      </trkpt>
      <trkpt lat="48.22362900" lon="8.344287900">
        <ele>707.00000</ele>
        <time>2008-10-29T14:43:10Z</time>
      </trkpt>
      <trkpt lat="48.22294240" lon="8.344588300">
        <ele>703.00000</ele>
        <time>2008-10-29T14:43:38Z</time>
      </trkpt>
      <trkpt lat="48.22255610" lon="8.345189100">
        <ele>731.00000</ele>
        <time>2008-10-29T14:44:01Z</time>
      </trkpt>
      <trkpt lat="48.22204110" lon="8.346862800">
        <ele>749.00000</ele>
        <time>2008-10-29T14:44:50Z</time>
      </trkpt>
      <trkpt lat="48.22161200" lon="8.347978600">
        <ele>733.00000</ele>
        <time>2008-10-29T14:45:24Z</time>
      </trkpt>
      <trkpt lat="48.22144030" lon="8.348836900">
        <ele>727.00000</ele>
        <time>2008-10-29T14:45:48Z</time>
      </trkpt>
      <trkpt lat="48.22144030" lon="8.349738100">
        <ele>721.00000</ele>
        <time>2008-10-29T14:46:12Z</time>
      </trkpt>
      <trkpt lat="48.22156910" lon="8.350982700">
        <ele>723.00000</ele>
        <time>2008-10-29T14:46:46Z</time>
      </trkpt>
      <trkpt lat="48.22152610" lon="8.351583500">
        <ele>719.00000</ele>
        <time>2008-10-29T14:47:02Z</time>
      </trkpt>
      <trkpt lat="48.22028160" lon="8.353986700">
        <ele>712.00000</ele>
        <time>2008-10-29T14:48:23Z</time>
      </trkpt>
      <trkpt lat="48.21972370" lon="8.354759200">
        <ele>706.00000</ele>
        <time>2008-10-29T14:48:53Z</time>
      </trkpt>
      <trkpt lat="48.21809290" lon="8.351197200">
        <ele>781.00000</ele>
        <time>2008-10-29T14:50:49Z</time>
      </trkpt>
      <trkpt lat="48.21787830" lon="8.350596400">
        <ele>766.00000</ele>
        <time>2008-10-29T14:51:07Z</time>
      </trkpt>
      <trkpt lat="48.21774960" lon="8.349866900">
        <ele>776.00000</ele>
        <time>2008-10-29T14:51:27Z</time>
      </trkpt>
      <trkpt lat="48.21744920" lon="8.349180200">
        <ele>786.00000</ele>
        <time>2008-10-29T14:51:49Z</time>
      </trkpt>
      <trkpt lat="48.21710590" lon="8.348751100">
        <ele>786.00000</ele>
        <time>2008-10-29T14:52:07Z</time>
      </trkpt>
      <trkpt lat="48.21676250" lon="8.348579400">
        <ele>795.00000</ele>
        <time>2008-10-29T14:52:21Z</time>
      </trkpt>
      <trkpt lat="48.21650510" lon="8.348665200">
        <ele>795.00000</ele>
        <time>2008-10-29T14:52:32Z</time>
      </trkpt>
      <trkpt lat="48.21620460" lon="8.348879800">
        <ele>800.00000</ele>
        <time>2008-10-29T14:52:45Z</time>
      </trkpt>
      <trkpt lat="48.21590420" lon="8.349137300">
        <ele>800.00000</ele>
        <time>2008-10-29T14:52:59Z</time>
      </trkpt>
      <trkpt lat="48.21573260" lon="8.349137300">
        <ele>800.00000</ele>
        <time>2008-10-29T14:53:06Z</time>
      </trkpt>
      <trkpt lat="48.21457390" lon="8.348536500">
        <ele>812.00000</ele>
        <time>2008-10-29T14:53:55Z</time>
      </trkpt>
      <trkpt lat="48.21397300" lon="8.347206100">
        <ele>816.00000</ele>
        <time>2008-10-29T14:54:38Z</time>
      </trkpt>
      <trkpt lat="48.21350100" lon="8.346519500">
        <ele>820.00000</ele>
        <time>2008-10-29T14:55:04Z</time>
      </trkpt>
      <trkpt lat="48.21337220" lon="8.346219100">
        <ele>821.00000</ele>
        <time>2008-10-29T14:55:14Z</time>
      </trkpt>
      <trkpt lat="48.21208480" lon="8.346219100">
        <ele>826.00000</ele>
        <time>2008-10-29T14:56:05Z</time>
      </trkpt>
      <trkpt lat="48.21131230" lon="8.346090300">
        <ele>831.00000</ele>
        <time>2008-10-29T14:56:36Z</time>
      </trkpt>
      <trkpt lat="48.20993900" lon="8.345532400">
        <ele>842.00000</ele>
        <time>2008-10-29T14:57:33Z</time>
      </trkpt>
      <trkpt lat="48.20933820" lon="8.345575300">
        <ele>826.00000</ele>
        <time>2008-10-29T14:57:57Z</time>
      </trkpt>
      <trkpt lat="48.20792200" lon="8.346176100">
        <ele>823.00000</ele>
        <time>2008-10-29T14:58:56Z</time>
      </trkpt>
      <trkpt lat="48.20732120" lon="8.346691100">
        <ele>826.00000</ele>
        <time>2008-10-29T14:59:24Z</time>
      </trkpt>
      <trkpt lat="48.20702080" lon="8.347377800">
        <ele>826.00000</ele>
        <time>2008-10-29T14:59:46Z</time>
      </trkpt>
      <trkpt lat="48.20693490" lon="8.348021500">
        <ele>829.00000</ele>
        <time>2008-10-29T15:00:03Z</time>
      </trkpt>
      <trkpt lat="48.20697780" lon="8.348665200">
        <ele>829.00000</ele>
        <time>2008-10-29T15:00:21Z</time>
      </trkpt>
      <trkpt lat="48.20684910" lon="8.349480600">
        <ele>828.00000</ele>
        <time>2008-10-29T15:00:43Z</time>
      </trkpt>
      <trkpt lat="48.20693490" lon="8.351540600">
        <ele>818.00000</ele>
        <time>2008-10-29T15:01:38Z</time>
      </trkpt>
      <trkpt lat="48.20710660" lon="8.352184300">
        <ele>819.00000</ele>
        <time>2008-10-29T15:01:56Z</time>
      </trkpt>
      <trkpt lat="48.20740700" lon="8.352956800">
        <ele>817.00000</ele>
        <time>2008-10-29T15:02:20Z</time>
      </trkpt>
      <trkpt lat="48.20594790" lon="8.354716300">
        <ele>816.00000</ele>
        <time>2008-10-29T15:03:35Z</time>
      </trkpt>
      <trkpt lat="48.20551870" lon="8.354759200">
        <ele>816.00000</ele>
        <time>2008-10-29T15:03:52Z</time>
      </trkpt>
      <trkpt lat="48.20496080" lon="8.354201300">
        <ele>806.00000</ele>
        <time>2008-10-29T15:04:19Z</time>
      </trkpt>
      <trkpt lat="48.20470330" lon="8.354072600">
        <ele>806.00000</ele>
        <time>2008-10-29T15:04:30Z</time>
      </trkpt>
      <trkpt lat="48.20444580" lon="8.354115500">
        <ele>800.00000</ele>
        <time>2008-10-29T15:04:41Z</time>
      </trkpt>
      <trkpt lat="48.20410250" lon="8.354330100">
        <ele>800.00000</ele>
        <time>2008-10-29T15:04:55Z</time>
      </trkpt>
      <trkpt lat="48.20272920" lon="8.355531700">
        <ele>770.00000</ele>
        <time>2008-10-29T15:05:59Z</time>
      </trkpt>
      <trkpt lat="48.20144180" lon="8.356518700">
        <ele>759.00000</ele>
        <time>2008-10-29T15:06:57Z</time>
      </trkpt>
      <trkpt lat="48.20071220" lon="8.357377100">
        <ele>744.00000</ele>
        <time>2008-10-29T15:07:34Z</time>
      </trkpt>
      <trkpt lat="48.20028310" lon="8.357677500">
        <ele>733.00000</ele>
        <time>2008-10-29T15:07:53Z</time>
      </trkpt>
      <trkpt lat="48.19972520" lon="8.357935000">
        <ele>738.00000</ele>
        <time>2008-10-29T15:08:16Z</time>
      </trkpt>
      <trkpt lat="48.19921020" lon="8.358364100">
        <ele>725.00000</ele>
        <time>2008-10-29T15:08:40Z</time>
      </trkpt>
      <trkpt lat="48.19886680" lon="8.358578700">
        <ele>725.00000</ele>
        <time>2008-10-29T15:08:55Z</time>
      </trkpt>
      <trkpt lat="48.19835190" lon="8.359050800">
        <ele>716.00000</ele>
        <time>2008-10-29T15:09:19Z</time>
      </trkpt>
      <trkpt lat="48.19775100" lon="8.359351200">
        <ele>709.00000</ele>
        <time>2008-10-29T15:09:44Z</time>
      </trkpt>
      <trkpt lat="48.19629190" lon="8.359608700">
        <ele>718.00000</ele>
        <time>2008-10-29T15:10:43Z</time>
      </trkpt>
      <trkpt lat="48.19496150" lon="8.360123600">
        <ele>687.00000</ele>
        <time>2008-10-29T15:11:38Z</time>
      </trkpt>
      <trkpt lat="48.19406030" lon="8.360638600">
        <ele>685.00000</ele>
        <time>2008-10-29T15:12:17Z</time>
      </trkpt>
      <trkpt lat="48.19345950" lon="8.360939000">
        <ele>676.00000</ele>
        <time>2008-10-29T15:12:42Z</time>
      </trkpt>
      <trkpt lat="48.19247250" lon="8.361239400">
        <ele>671.00000</ele>
        <time>2008-10-29T15:13:22Z</time>
      </trkpt>
      <trkpt lat="48.19178580" lon="8.361368200">
        <ele>664.00000</ele>
        <time>2008-10-29T15:13:50Z</time>
      </trkpt>
      <trkpt lat="48.19084170" lon="8.361411100">
        <ele>653.00000</ele>
        <time>2008-10-29T15:14:28Z</time>
      </trkpt>
      <trkpt lat="48.19105630" lon="8.359780300">
        <ele>650.00000</ele>
        <time>2008-10-29T15:15:12Z</time>
      </trkpt>
      <trkpt lat="48.19105630" lon="8.358750300">
        <ele>652.00000</ele>
        <time>2008-10-29T15:15:40Z</time>
      </trkpt>
      <trkpt lat="48.19101330" lon="8.357462900">
        <ele>656.00000</ele>
        <time>2008-10-29T15:16:14Z</time>
      </trkpt>
      <trkpt lat="48.19101330" lon="8.356905000">
        <ele>659.00000</ele>
        <time>2008-10-29T15:16:29Z</time>
      </trkpt>
      <trkpt lat="48.19122790" lon="8.355402900">
        <ele>657.00000</ele>
        <time>2008-10-29T15:17:10Z</time>
      </trkpt>
      <trkpt lat="48.19127080" lon="8.354630500">
        <ele>669.00000</ele>
        <time>2008-10-29T15:17:31Z</time>
      </trkpt>
      <trkpt lat="48.19127080" lon="8.354373000">
        <ele>662.00000</ele>
        <time>2008-10-29T15:17:38Z</time>
      </trkpt>
      <trkpt lat="48.19122790" lon="8.354115500">
        <ele>659.00000</ele>
        <time>2008-10-29T15:17:45Z</time>
      </trkpt>
      <trkpt lat="48.19109920" lon="8.353643400">
        <ele>662.00000</ele>
        <time>2008-10-29T15:17:58Z</time>
      </trkpt>
      <trkpt lat="48.19101330" lon="8.353514700">
        <ele>662.00000</ele>
        <time>2008-10-29T15:18:03Z</time>
      </trkpt>
      <trkpt lat="48.19049840" lon="8.353128400">
        <ele>662.00000</ele>
        <time>2008-10-29T15:18:26Z</time>
      </trkpt>
      <trkpt lat="48.19036960" lon="8.352870900">
        <ele>660.00000</ele>
        <time>2008-10-29T15:18:35Z</time>
      </trkpt>
      <trkpt lat="48.19045540" lon="8.351841000">
        <ele>670.00000</ele>
        <time>2008-10-29T15:19:03Z</time>
      </trkpt>
      <trkpt lat="48.19041250" lon="8.351583500">
        <ele>663.00000</ele>
        <time>2008-10-29T15:19:10Z</time>
      </trkpt>
      <trkpt lat="48.19024090" lon="8.350124400">
        <ele>667.00000</ele>
        <time>2008-10-29T15:19:49Z</time>
      </trkpt>
      <trkpt lat="48.18989750" lon="8.348751100">
        <ele>671.00000</ele>
        <time>2008-10-29T15:20:28Z</time>
      </trkpt>
      <trkpt lat="48.18921090" lon="8.347592400">
        <ele>671.00000</ele>
        <time>2008-10-29T15:21:10Z</time>
      </trkpt>
      <trkpt lat="48.18891050" lon="8.347120300">
        <ele>671.00000</ele>
        <time>2008-10-29T15:21:27Z</time>
      </trkpt>
      <trkpt lat="48.18852420" lon="8.346605300">
        <ele>669.00000</ele>
        <time>2008-10-29T15:21:48Z</time>
      </trkpt>
      <trkpt lat="48.18805220" lon="8.345832800">
        <ele>677.00000</ele>
        <time>2008-10-29T15:22:16Z</time>
      </trkpt>
      <trkpt lat="48.18753720" lon="8.345060300">
        <ele>668.00000</ele>
        <time>2008-10-29T15:22:45Z</time>
      </trkpt>
      <trkpt lat="48.18693640" lon="8.344245000">
        <ele>671.00000</ele>
        <time>2008-10-29T15:23:17Z</time>
      </trkpt>
      <trkpt lat="48.18624970" lon="8.343429600">
        <ele>673.00000</ele>
        <time>2008-10-29T15:23:52Z</time>
      </trkpt>
      <trkpt lat="48.18466190" lon="8.341713000">
        <ele>693.00000</ele>
        <time>2008-10-29T15:25:11Z</time>
      </trkpt>
      <trkpt lat="48.18436150" lon="8.341498400">
        <ele>680.00000</ele>
        <time>2008-10-29T15:25:24Z</time>
      </trkpt>
      <trkpt lat="48.18363190" lon="8.340940500">
        <ele>681.00000</ele>
        <time>2008-10-29T15:25:57Z</time>
      </trkpt>
      <trkpt lat="48.18350320" lon="8.341026300">
        <ele>681.00000</ele>
        <time>2008-10-29T15:26:02Z</time>
      </trkpt>
      <trkpt lat="48.18273070" lon="8.341155100">
        <ele>680.00000</ele>
        <time>2008-10-29T15:26:34Z</time>
      </trkpt>
      <trkpt lat="48.18247320" lon="8.341326700">
        <ele>696.00000</ele>
        <time>2008-10-29T15:26:45Z</time>
      </trkpt>
      <trkpt lat="48.18067070" lon="8.341198000">
        <ele>680.00000</ele>
        <time>2008-10-29T15:27:57Z</time>
      </trkpt>
      <trkpt lat="48.18015580" lon="8.341326700">
        <ele>694.00000</ele>
        <time>2008-10-29T15:28:18Z</time>
      </trkpt>
      <trkpt lat="48.18015120" lon="8.341317600">
        <ele>694.00000</ele>
        <time>2008-10-29T15:28:18Z</time>
      </trkpt>
      <trkpt lat="48.17976950" lon="8.340554200">
        <ele>683.00000</ele>
        <time>2008-10-29T15:28:44Z</time>
      </trkpt>
      <trkpt lat="48.17929740" lon="8.340640100">
        <ele>683.00000</ele>
        <time>2008-10-29T15:29:03Z</time>
      </trkpt>
      <trkpt lat="48.17899700" lon="8.340425500">
        <ele>683.00000</ele>
        <time>2008-10-29T15:29:16Z</time>
      </trkpt>
      <trkpt lat="48.17882540" lon="8.340168000">
        <ele>685.00000</ele>
        <time>2008-10-29T15:29:26Z</time>
      </trkpt>
      <trkpt lat="48.17873950" lon="8.339910500">
        <ele>683.00000</ele>
        <time>2008-10-29T15:29:34Z</time>
      </trkpt>
      <trkpt lat="48.17861080" lon="8.339567200">
        <ele>690.00000</ele>
        <time>2008-10-29T15:29:44Z</time>
      </trkpt>
      <trkpt lat="48.17839620" lon="8.339009300">
        <ele>690.00000</ele>
        <time>2008-10-29T15:30:01Z</time>
      </trkpt>
      <trkpt lat="48.17801000" lon="8.338279700">
        <ele>703.00000</ele>
        <time>2008-10-29T15:30:26Z</time>
      </trkpt>
      <trkpt lat="48.17792420" lon="8.338022200">
        <ele>703.00000</ele>
        <time>2008-10-29T15:30:34Z</time>
      </trkpt>
      <trkpt lat="48.17770960" lon="8.336863500">
        <ele>700.00000</ele>
        <time>2008-10-29T15:31:06Z</time>
      </trkpt>
      <trkpt lat="48.17702290" lon="8.335189800">
        <ele>696.00000</ele>
        <time>2008-10-29T15:31:58Z</time>
      </trkpt>
      <trkpt lat="48.17680840" lon="8.334631900">
        <ele>696.00000</ele>
        <time>2008-10-29T15:32:16Z</time>
      </trkpt>
      <trkpt lat="48.17672250" lon="8.334031100">
        <ele>703.00000</ele>
        <time>2008-10-29T15:32:32Z</time>
      </trkpt>
      <trkpt lat="48.17663670" lon="8.332786600">
        <ele>711.00000</ele>
        <time>2008-10-29T15:33:05Z</time>
      </trkpt>
      <trkpt lat="48.17620750" lon="8.331284500">
        <ele>695.00000</ele>
        <time>2008-10-29T15:33:49Z</time>
      </trkpt>
      <trkpt lat="48.17603590" lon="8.330297500">
        <ele>706.00000</ele>
        <time>2008-10-29T15:34:16Z</time>
      </trkpt>
      <trkpt lat="48.17590710" lon="8.329954100">
        <ele>706.00000</ele>
        <time>2008-10-29T15:34:27Z</time>
      </trkpt>
      <trkpt lat="48.17569260" lon="8.329696700">
        <ele>706.00000</ele>
        <time>2008-10-29T15:34:38Z</time>
      </trkpt>
      <trkpt lat="48.17539220" lon="8.329396200">
        <ele>697.00000</ele>
        <time>2008-10-29T15:34:52Z</time>
      </trkpt>
      <trkpt lat="48.17466260" lon="8.328967100">
        <ele>697.00000</ele>
        <time>2008-10-29T15:35:23Z</time>
      </trkpt>
      <trkpt lat="48.17376140" lon="8.328237500">
        <ele>705.00000</ele>
        <time>2008-10-29T15:36:04Z</time>
      </trkpt>
      <trkpt lat="48.17328930" lon="8.327808400">
        <ele>710.00000</ele>
        <time>2008-10-29T15:36:27Z</time>
      </trkpt>
      <trkpt lat="48.17255970" lon="8.326778400">
        <ele>715.00000</ele>
        <time>2008-10-29T15:37:07Z</time>
      </trkpt>
      <trkpt lat="48.17148690" lon="8.325920100">
        <ele>715.00000</ele>
        <time>2008-10-29T15:37:55Z</time>
      </trkpt>
      <trkpt lat="48.17105770" lon="8.325791400">
        <ele>728.00000</ele>
        <time>2008-10-29T15:38:13Z</time>
      </trkpt>
      <trkpt lat="48.17028520" lon="8.325834300">
        <ele>731.00000</ele>
        <time>2008-10-29T15:38:44Z</time>
      </trkpt>
      <trkpt lat="48.16977020" lon="8.326005900">
        <ele>731.00000</ele>
        <time>2008-10-29T15:39:05Z</time>
      </trkpt>
      <trkpt lat="48.16955570" lon="8.326220500">
        <ele>741.00000</ele>
        <time>2008-10-29T15:39:15Z</time>
      </trkpt>
      <trkpt lat="48.16916940" lon="8.326649700">
        <ele>739.00000</ele>
        <time>2008-10-29T15:39:35Z</time>
      </trkpt>
      <trkpt lat="48.16882610" lon="8.326735500">
        <ele>739.00000</ele>
        <time>2008-10-29T15:39:48Z</time>
      </trkpt>
      <trkpt lat="48.16839690" lon="8.326563800">
        <ele>745.00000</ele>
        <time>2008-10-29T15:40:06Z</time>
      </trkpt>
      <trkpt lat="48.16805360" lon="8.326263400">
        <ele>745.00000</ele>
        <time>2008-10-29T15:40:22Z</time>
      </trkpt>
      <trkpt lat="48.16762450" lon="8.326048900">
        <ele>737.00000</ele>
        <time>2008-10-29T15:40:40Z</time>
      </trkpt>
      <trkpt lat="48.16702370" lon="8.325920100">
        <ele>744.00000</ele>
        <time>2008-10-29T15:41:05Z</time>
      </trkpt>
      <trkpt lat="48.16637990" lon="8.325963000">
        <ele>744.00000</ele>
        <time>2008-10-29T15:41:30Z</time>
      </trkpt>
      <trkpt lat="48.16565040" lon="8.326306300">
        <ele>765.00000</ele>
        <time>2008-10-29T15:42:01Z</time>
      </trkpt>
      <trkpt lat="48.16496370" lon="8.326907200">
        <ele>764.00000</ele>
        <time>2008-10-29T15:42:33Z</time>
      </trkpt>
      <trkpt lat="48.16457750" lon="8.327078800">
        <ele>765.00000</ele>
        <time>2008-10-29T15:42:49Z</time>
      </trkpt>
      <trkpt lat="48.16406250" lon="8.327078800">
        <ele>765.00000</ele>
        <time>2008-10-29T15:43:10Z</time>
      </trkpt>
      <trkpt lat="48.16346170" lon="8.327207600">
        <ele>764.00000</ele>
        <time>2008-10-29T15:43:34Z</time>
      </trkpt>
      <trkpt lat="48.16277500" lon="8.327550900">
        <ele>756.00000</ele>
        <time>2008-10-29T15:44:03Z</time>
      </trkpt>
      <trkpt lat="48.16183090" lon="8.328495000">
        <ele>755.00000</ele>
        <time>2008-10-29T15:44:48Z</time>
      </trkpt>
      <trkpt lat="48.16140170" lon="8.328752500">
        <ele>773.00000</ele>
        <time>2008-10-29T15:45:07Z</time>
      </trkpt>
      <trkpt lat="48.16045760" lon="8.328967100">
        <ele>776.00000</ele>
        <time>2008-10-29T15:45:45Z</time>
      </trkpt>
      <trkpt lat="48.15977100" lon="8.329224600">
        <ele>771.00000</ele>
        <time>2008-10-29T15:46:13Z</time>
      </trkpt>
      <trkpt lat="48.15934180" lon="8.329224600">
        <ele>769.00000</ele>
        <time>2008-10-29T15:46:30Z</time>
      </trkpt>
      <trkpt lat="48.15917020" lon="8.329095800">
        <ele>769.00000</ele>
        <time>2008-10-29T15:46:38Z</time>
      </trkpt>
      <trkpt lat="48.15891270" lon="8.328666700">
        <ele>767.00000</ele>
        <time>2008-10-29T15:46:54Z</time>
      </trkpt>
      <trkpt lat="48.15856930" lon="8.328108800">
        <ele>786.00000</ele>
        <time>2008-10-29T15:47:14Z</time>
      </trkpt>
      <trkpt lat="48.15814020" lon="8.327636700">
        <ele>778.00000</ele>
        <time>2008-10-29T15:47:35Z</time>
      </trkpt>
      <trkpt lat="48.15779690" lon="8.327422100">
        <ele>790.00000</ele>
        <time>2008-10-29T15:47:50Z</time>
      </trkpt>
      <trkpt lat="48.15711020" lon="8.327379200">
        <ele>790.00000</ele>
        <time>2008-10-29T15:48:18Z</time>
      </trkpt>
      <trkpt lat="48.15685270" lon="8.327379200">
        <ele>783.00000</ele>
        <time>2008-10-29T15:48:28Z</time>
      </trkpt>
      <trkpt lat="48.15633770" lon="8.327207600">
        <ele>783.00000</ele>
        <time>2008-10-29T15:48:49Z</time>
      </trkpt>
      <trkpt lat="48.15642360" lon="8.326606800">
        <ele>780.00000</ele>
        <time>2008-10-29T15:49:05Z</time>
      </trkpt>
      <trkpt lat="48.15650940" lon="8.326349300">
        <ele>780.00000</ele>
        <time>2008-10-29T15:49:13Z</time>
      </trkpt>
      <trkpt lat="48.15668110" lon="8.326048900">
        <ele>794.00000</ele>
        <time>2008-10-29T15:49:24Z</time>
      </trkpt>
      <trkpt lat="48.15702440" lon="8.325791400">
        <ele>794.00000</ele>
        <time>2008-10-29T15:49:39Z</time>
      </trkpt>
      <trkpt lat="48.15775390" lon="8.325491000">
        <ele>786.00000</ele>
        <time>2008-10-29T15:50:09Z</time>
      </trkpt>
      <trkpt lat="48.15814020" lon="8.325104700">
        <ele>782.00000</ele>
        <time>2008-10-29T15:50:28Z</time>
      </trkpt>
      <trkpt lat="48.15899850" lon="8.323602700">
        <ele>772.00000</ele>
        <time>2008-10-29T15:51:21Z</time>
      </trkpt>
      <trkpt lat="48.15921310" lon="8.323259400">
        <ele>772.00000</ele>
        <time>2008-10-29T15:51:33Z</time>
      </trkpt>
      <trkpt lat="48.15917020" lon="8.322787300">
        <ele>774.00000</ele>
        <time>2008-10-29T15:51:46Z</time>
      </trkpt>
      <trkpt lat="48.15925600" lon="8.322143600">
        <ele>774.00000</ele>
        <time>2008-10-29T15:52:03Z</time>
      </trkpt>
      <trkpt lat="48.15925600" lon="8.321800200">
        <ele>779.00000</ele>
        <time>2008-10-29T15:52:13Z</time>
      </trkpt>
      <trkpt lat="48.15942760" lon="8.320941900">
        <ele>781.00000</ele>
        <time>2008-10-29T15:52:37Z</time>
      </trkpt>
      <trkpt lat="48.15959930" lon="8.320598600">
        <ele>768.00000</ele>
        <time>2008-10-29T15:52:48Z</time>
      </trkpt>
      <trkpt lat="48.16007140" lon="8.319439900">
        <ele>776.00000</ele>
        <time>2008-10-29T15:53:24Z</time>
      </trkpt>
      <trkpt lat="48.16054340" lon="8.318495800">
        <ele>774.00000</ele>
        <time>2008-10-29T15:53:56Z</time>
      </trkpt>
      <trkpt lat="48.16062930" lon="8.318066600">
        <ele>774.00000</ele>
        <time>2008-10-29T15:54:08Z</time>
      </trkpt>
      <trkpt lat="48.16067220" lon="8.317551600">
        <ele>777.00000</ele>
        <time>2008-10-29T15:54:22Z</time>
      </trkpt>
      <trkpt lat="48.16080090" lon="8.316779100">
        <ele>782.00000</ele>
        <time>2008-10-29T15:54:43Z</time>
      </trkpt>
      <trkpt lat="48.16092970" lon="8.316521600">
        <ele>782.00000</ele>
        <time>2008-10-29T15:54:51Z</time>
      </trkpt>
      <trkpt lat="48.16110130" lon="8.316392900">
        <ele>782.00000</ele>
        <time>2008-10-29T15:54:59Z</time>
      </trkpt>
      <trkpt lat="48.16118720" lon="8.316006700">
        <ele>785.00000</ele>
        <time>2008-10-29T15:55:10Z</time>
      </trkpt>
      <trkpt lat="48.16148760" lon="8.315362900">
        <ele>778.00000</ele>
        <time>2008-10-29T15:55:31Z</time>
      </trkpt>
      <trkpt lat="48.16165920" lon="8.315105400">
        <ele>778.00000</ele>
        <time>2008-10-29T15:55:41Z</time>
      </trkpt>
      <trkpt lat="48.16221710" lon="8.313131300">
        <ele>778.00000</ele>
        <time>2008-10-29T15:56:38Z</time>
      </trkpt>
      <trkpt lat="48.16234590" lon="8.311843900">
        <ele>781.00000</ele>
        <time>2008-10-29T15:57:13Z</time>
      </trkpt>
      <trkpt lat="48.16234590" lon="8.311500500">
        <ele>781.00000</ele>
        <time>2008-10-29T15:57:22Z</time>
      </trkpt>
      <trkpt lat="48.16208840" lon="8.309869800">
        <ele>783.00000</ele>
        <time>2008-10-29T15:58:07Z</time>
      </trkpt>
      <trkpt lat="48.16221710" lon="8.309097300">
        <ele>784.00000</ele>
        <time>2008-10-29T15:58:28Z</time>
      </trkpt>
      <trkpt lat="48.16238880" lon="8.308668100">
        <ele>790.00000</ele>
        <time>2008-10-29T15:58:41Z</time>
      </trkpt>
      <trkpt lat="48.16238880" lon="8.308067300">
        <ele>790.00000</ele>
        <time>2008-10-29T15:58:57Z</time>
      </trkpt>
      <trkpt lat="48.16230300" lon="8.307337800">
        <ele>793.00000</ele>
        <time>2008-10-29T15:59:17Z</time>
      </trkpt>
      <trkpt lat="48.16208840" lon="8.306007400">
        <ele>801.00000</ele>
        <time>2008-10-29T15:59:54Z</time>
      </trkpt>
      <trkpt lat="48.16135880" lon="8.303904500">
        <ele>799.00000</ele>
        <time>2008-10-29T16:00:57Z</time>
      </trkpt>
      <trkpt lat="48.16114430" lon="8.302788700">
        <ele>796.00000</ele>
        <time>2008-10-29T16:01:28Z</time>
      </trkpt>
      <trkpt lat="48.16110130" lon="8.302359600">
        <ele>796.00000</ele>
        <time>2008-10-29T16:01:40Z</time>
      </trkpt>
      <trkpt lat="48.16092970" lon="8.302230800">
        <ele>796.00000</ele>
        <time>2008-10-29T16:01:47Z</time>
      </trkpt>
      <trkpt lat="48.16050050" lon="8.301758800">
        <ele>802.00000</ele>
        <time>2008-10-29T16:02:09Z</time>
      </trkpt>
      <trkpt lat="48.16002850" lon="8.301072100">
        <ele>804.00000</ele>
        <time>2008-10-29T16:02:35Z</time>
      </trkpt>
      <trkpt lat="48.15972810" lon="8.300471300">
        <ele>804.00000</ele>
        <time>2008-10-29T16:02:55Z</time>
      </trkpt>
      <trkpt lat="48.15964220" lon="8.299999200">
        <ele>803.00000</ele>
        <time>2008-10-29T16:03:08Z</time>
      </trkpt>
      <trkpt lat="48.15844060" lon="8.297038100">
        <ele>814.00000</ele>
        <time>2008-10-29T16:04:41Z</time>
      </trkpt>
      <trkpt lat="48.15801140" lon="8.296394300">
        <ele>814.00000</ele>
        <time>2008-10-29T16:05:05Z</time>
      </trkpt>
      <trkpt lat="48.15775390" lon="8.296308500">
        <ele>836.00000</ele>
        <time>2008-10-29T16:05:15Z</time>
      </trkpt>
      <trkpt lat="48.15723900" lon="8.295965200">
        <ele>820.00000</ele>
        <time>2008-10-29T16:05:38Z</time>
      </trkpt>
      <trkpt lat="48.15676690" lon="8.295836400">
        <ele>823.00000</ele>
        <time>2008-10-29T16:05:57Z</time>
      </trkpt>
      <trkpt lat="48.15530780" lon="8.295879400">
        <ele>835.00000</ele>
        <time>2008-10-29T16:06:56Z</time>
      </trkpt>
      <trkpt lat="48.15492150" lon="8.295922300">
        <ele>835.00000</ele>
        <time>2008-10-29T16:07:11Z</time>
      </trkpt>
      <trkpt lat="48.15462110" lon="8.296179800">
        <ele>835.00000</ele>
        <time>2008-10-29T16:07:25Z</time>
      </trkpt>
      <trkpt lat="48.15444950" lon="8.296179800">
        <ele>833.00000</ele>
        <time>2008-10-29T16:07:32Z</time>
      </trkpt>
      <trkpt lat="48.15432070" lon="8.295879400">
        <ele>833.00000</ele>
        <time>2008-10-29T16:07:41Z</time>
      </trkpt>
      <trkpt lat="48.15440650" lon="8.295321500">
        <ele>840.00000</ele>
        <time>2008-10-29T16:07:57Z</time>
      </trkpt>
      <trkpt lat="48.15432070" lon="8.295278500">
        <ele>840.00000</ele>
        <time>2008-10-29T16:08:00Z</time>
      </trkpt>
      <trkpt lat="48.15393450" lon="8.295321500">
        <ele>840.00000</ele>
        <time>2008-10-29T16:08:16Z</time>
      </trkpt>
      <trkpt lat="48.15376280" lon="8.295192700">
        <ele>840.00000</ele>
        <time>2008-10-29T16:08:23Z</time>
      </trkpt>
      <trkpt lat="48.15371990" lon="8.294720600">
        <ele>845.00000</ele>
        <time>2008-10-29T16:08:36Z</time>
      </trkpt>
      <trkpt lat="48.15376280" lon="8.294291500">
        <ele>850.00000</ele>
        <time>2008-10-29T16:08:48Z</time>
      </trkpt>
      <trkpt lat="48.15406320" lon="8.292918200">
        <ele>859.00000</ele>
        <time>2008-10-29T16:09:26Z</time>
      </trkpt>
      <trkpt lat="48.15397740" lon="8.292360300">
        <ele>865.00000</ele>
        <time>2008-10-29T16:09:42Z</time>
      </trkpt>
      <trkpt lat="48.15341950" lon="8.290643700">
        <ele>878.00000</ele>
        <time>2008-10-29T16:10:33Z</time>
      </trkpt>
      <trkpt lat="48.15299030" lon="8.290042900">
        <ele>889.00000</ele>
        <time>2008-10-29T16:10:56Z</time>
      </trkpt>
      <trkpt lat="48.15243240" lon="8.289742500">
        <ele>889.00000</ele>
        <time>2008-10-29T16:11:20Z</time>
      </trkpt>
      <trkpt lat="48.15213200" lon="8.289699600">
        <ele>889.00000</ele>
        <time>2008-10-29T16:11:32Z</time>
      </trkpt>
      <trkpt lat="48.15191750" lon="8.289871200">
        <ele>879.00000</ele>
        <time>2008-10-29T16:11:42Z</time>
      </trkpt>
      <trkpt lat="48.15161710" lon="8.289957000">
        <ele>879.00000</ele>
        <time>2008-10-29T16:11:54Z</time>
      </trkpt>
      <trkpt lat="48.15123080" lon="8.289785400">
        <ele>887.00000</ele>
        <time>2008-10-29T16:12:10Z</time>
      </trkpt>
      <trkpt lat="48.15093040" lon="8.289485000">
        <ele>883.00000</ele>
        <time>2008-10-29T16:12:24Z</time>
      </trkpt>
      <trkpt lat="48.15058710" lon="8.288841200">
        <ele>883.00000</ele>
        <time>2008-10-29T16:12:47Z</time>
      </trkpt>
      <trkpt lat="48.15020080" lon="8.288283300">
        <ele>881.00000</ele>
        <time>2008-10-29T16:13:08Z</time>
      </trkpt>
      <trkpt lat="48.14998630" lon="8.288025900">
        <ele>881.00000</ele>
        <time>2008-10-29T16:13:19Z</time>
      </trkpt>
      <trkpt lat="48.14981460" lon="8.287253400">
        <ele>880.00000</ele>
        <time>2008-10-29T16:13:41Z</time>
      </trkpt>
      <trkpt lat="48.14955710" lon="8.286480900">
        <ele>877.00000</ele>
        <time>2008-10-29T16:14:04Z</time>
      </trkpt>
      <trkpt lat="48.14934250" lon="8.286008800">
        <ele>875.00000</ele>
        <time>2008-10-29T16:14:19Z</time>
      </trkpt>
      <trkpt lat="48.14925670" lon="8.285107600">
        <ele>871.00000</ele>
        <time>2008-10-29T16:14:43Z</time>
      </trkpt>
      <trkpt lat="48.14887050" lon="8.284592600">
        <ele>871.00000</ele>
        <time>2008-10-29T16:15:04Z</time>
      </trkpt>
      <trkpt lat="48.14865590" lon="8.283991800">
        <ele>879.00000</ele>
        <time>2008-10-29T16:15:22Z</time>
      </trkpt>
      <trkpt lat="48.14869880" lon="8.283433900">
        <ele>882.00000</ele>
        <time>2008-10-29T16:15:37Z</time>
      </trkpt>
      <trkpt lat="48.14887050" lon="8.282189400">
        <ele>849.00000</ele>
        <time>2008-10-29T16:16:11Z</time>
      </trkpt>
      <trkpt lat="48.14887050" lon="8.281631500">
        <ele>849.00000</ele>
        <time>2008-10-29T16:16:26Z</time>
      </trkpt>
      <trkpt lat="48.14869880" lon="8.279013600">
        <ele>880.00000</ele>
        <time>2008-10-29T16:17:36Z</time>
      </trkpt>
      <trkpt lat="48.14878460" lon="8.278026600">
        <ele>837.00000</ele>
        <time>2008-10-29T16:18:03Z</time>
      </trkpt>
      <trkpt lat="48.14904210" lon="8.276438700">
        <ele>831.00000</ele>
        <time>2008-10-29T16:18:47Z</time>
      </trkpt>
      <trkpt lat="48.14929960" lon="8.276009600">
        <ele>842.00000</ele>
        <time>2008-10-29T16:19:02Z</time>
      </trkpt>
      <trkpt lat="48.14977170" lon="8.275537500">
        <ele>814.00000</ele>
        <time>2008-10-29T16:19:25Z</time>
      </trkpt>
      <trkpt lat="48.15032960" lon="8.275194200">
        <ele>823.00000</ele>
        <time>2008-10-29T16:19:49Z</time>
      </trkpt>
      <trkpt lat="48.15054420" lon="8.274850800">
        <ele>795.00000</ele>
        <time>2008-10-29T16:20:01Z</time>
      </trkpt>
      <trkpt lat="48.15063000" lon="8.274335900">
        <ele>798.00000</ele>
        <time>2008-10-29T16:20:16Z</time>
      </trkpt>
      <trkpt lat="48.15123080" lon="8.272919700">
        <ele>801.00000</ele>
        <time>2008-10-29T16:21:00Z</time>
      </trkpt>
      <trkpt lat="48.15148830" lon="8.271417600">
        <ele>778.00000</ele>
        <time>2008-10-29T16:21:42Z</time>
      </trkpt>
      <trkpt lat="48.15200330" lon="8.270387600">
        <ele>789.00000</ele>
        <time>2008-10-29T16:22:16Z</time>
      </trkpt>
      <trkpt lat="48.15226080" lon="8.269615200">
        <ele>763.00000</ele>
        <time>2008-10-29T16:22:39Z</time>
      </trkpt>
      <trkpt lat="48.15221790" lon="8.269100200">
        <ele>751.00000</ele>
        <time>2008-10-29T16:22:53Z</time>
      </trkpt>
      <trkpt lat="48.15187450" lon="8.266654000">
        <ele>724.00000</ele>
        <time>2008-10-29T16:24:00Z</time>
      </trkpt>
      <trkpt lat="48.15140250" lon="8.266868600">
        <ele>724.00000</ele>
        <time>2008-10-29T16:24:20Z</time>
      </trkpt>
      <trkpt lat="48.15093040" lon="8.266997300">
        <ele>740.00000</ele>
        <time>2008-10-29T16:24:39Z</time>
      </trkpt>
      <trkpt lat="48.15063000" lon="8.266997300">
        <ele>740.00000</ele>
        <time>2008-10-29T16:24:51Z</time>
      </trkpt>
      <trkpt lat="48.15045830" lon="8.266782800">
        <ele>740.00000</ele>
        <time>2008-10-29T16:25:00Z</time>
      </trkpt>
      <trkpt lat="48.15011500" lon="8.266739800">
        <ele>748.00000</ele>
        <time>2008-10-29T16:25:14Z</time>
      </trkpt>
      <trkpt lat="48.14960000" lon="8.266310700">
        <ele>748.00000</ele>
        <time>2008-10-29T16:25:37Z</time>
      </trkpt>
      <trkpt lat="48.14929960" lon="8.266353600">
        <ele>761.00000</ele>
        <time>2008-10-29T16:25:49Z</time>
      </trkpt>
      <trkpt lat="48.14878460" lon="8.267126100">
        <ele>766.00000</ele>
        <time>2008-10-29T16:26:18Z</time>
      </trkpt>
      <trkpt lat="48.14844130" lon="8.267083200">
        <ele>780.00000</ele>
        <time>2008-10-29T16:26:32Z</time>
      </trkpt>
      <trkpt lat="48.14792630" lon="8.267126100">
        <ele>763.00000</ele>
        <time>2008-10-29T16:26:53Z</time>
      </trkpt>
      <trkpt lat="48.14706800" lon="8.267512300">
        <ele>812.00000</ele>
        <time>2008-10-29T16:27:29Z</time>
      </trkpt>
      <trkpt lat="48.14672470" lon="8.268542300">
        <ele>797.00000</ele>
        <time>2008-10-29T16:27:59Z</time>
      </trkpt>
      <trkpt lat="48.14629550" lon="8.268628100">
        <ele>797.00000</ele>
        <time>2008-10-29T16:28:17Z</time>
      </trkpt>
      <trkpt lat="48.14595220" lon="8.268499400">
        <ele>820.00000</ele>
        <time>2008-10-29T16:28:31Z</time>
      </trkpt>
      <trkpt lat="48.14548020" lon="8.268714000">
        <ele>820.00000</ele>
        <time>2008-10-29T16:28:51Z</time>
      </trkpt>
      <trkpt lat="48.14423560" lon="8.269529300">
        <ele>837.00000</ele>
        <time>2008-10-29T16:29:45Z</time>
      </trkpt>
      <trkpt lat="48.14380650" lon="8.270087200">
        <ele>817.00000</ele>
        <time>2008-10-29T16:30:08Z</time>
      </trkpt>
      <trkpt lat="48.14346310" lon="8.271031400">
        <ele>841.00000</ele>
        <time>2008-10-29T16:30:37Z</time>
      </trkpt>
      <trkpt lat="48.14290520" lon="8.271546400">
        <ele>853.00000</ele>
        <time>2008-10-29T16:31:03Z</time>
      </trkpt>
      <trkpt lat="48.14286230" lon="8.271460500">
        <ele>853.00000</ele>
        <time>2008-10-29T16:31:06Z</time>
      </trkpt>
      <trkpt lat="48.14290520" lon="8.271117200">
        <ele>865.00000</ele>
        <time>2008-10-29T16:31:15Z</time>
      </trkpt>
      <trkpt lat="48.14324860" lon="8.269400600">
        <ele>865.00000</ele>
        <time>2008-10-29T16:32:03Z</time>
      </trkpt>
      <trkpt lat="48.14363480" lon="8.268113100">
        <ele>872.00000</ele>
        <time>2008-10-29T16:32:41Z</time>
      </trkpt>
      <trkpt lat="48.14389230" lon="8.267211900">
        <ele>864.00000</ele>
        <time>2008-10-29T16:33:07Z</time>
      </trkpt>
      <trkpt lat="48.14393520" lon="8.265752800">
        <ele>856.00000</ele>
        <time>2008-10-29T16:33:46Z</time>
      </trkpt>
      <trkpt lat="48.14256190" lon="8.265023200">
        <ele>831.00000</ele>
        <time>2008-10-29T16:34:44Z</time>
      </trkpt>
      <trkpt lat="48.14200400" lon="8.264851600">
        <ele>829.00000</ele>
        <time>2008-10-29T16:35:07Z</time>
      </trkpt>
      <trkpt lat="48.14050200" lon="8.263692900">
        <ele>818.00000</ele>
        <time>2008-10-29T16:36:15Z</time>
      </trkpt>
      <trkpt lat="48.13985820" lon="8.263649900">
        <ele>811.00000</ele>
        <time>2008-10-29T16:36:40Z</time>
      </trkpt>
      <trkpt lat="48.13874240" lon="8.264250800">
        <ele>792.00000</ele>
        <time>2008-10-29T16:37:28Z</time>
      </trkpt>
      <trkpt lat="48.13779830" lon="8.264594100">
        <ele>793.00000</ele>
        <time>2008-10-29T16:38:07Z</time>
      </trkpt>
      <trkpt lat="48.13749790" lon="8.264679900">
        <ele>793.00000</ele>
        <time>2008-10-29T16:38:19Z</time>
      </trkpt>
      <trkpt lat="48.13728330" lon="8.264894500">
        <ele>793.00000</ele>
        <time>2008-10-29T16:38:29Z</time>
      </trkpt>
      <trkpt lat="48.13642500" lon="8.265066100">
        <ele>777.00000</ele>
        <time>2008-10-29T16:39:04Z</time>
      </trkpt>
      <trkpt lat="48.13625340" lon="8.265194900">
        <ele>777.00000</ele>
        <time>2008-10-29T16:39:12Z</time>
      </trkpt>
      <trkpt lat="48.13582420" lon="8.265237800">
        <ele>769.00000</ele>
        <time>2008-10-29T16:39:29Z</time>
      </trkpt>
      <trkpt lat="48.13530920" lon="8.264980300">
        <ele>772.00000</ele>
        <time>2008-10-29T16:39:51Z</time>
      </trkpt>
      <trkpt lat="48.13475130" lon="8.264851600">
        <ele>772.00000</ele>
        <time>2008-10-29T16:40:13Z</time>
      </trkpt>
      <trkpt lat="48.13427930" lon="8.264851600">
        <ele>757.00000</ele>
        <time>2008-10-29T16:40:32Z</time>
      </trkpt>
      <trkpt lat="48.13312050" lon="8.265366600">
        <ele>733.00000</ele>
        <time>2008-10-29T16:41:20Z</time>
      </trkpt>
      <trkpt lat="48.13312050" lon="8.265194900">
        <ele>733.00000</ele>
        <time>2008-10-29T16:41:25Z</time>
      </trkpt>
      <trkpt lat="48.13359260" lon="8.264765700">
        <ele>733.00000</ele>
        <time>2008-10-29T16:41:47Z</time>
      </trkpt>
      <trkpt lat="48.13376430" lon="8.264207800">
        <ele>736.00000</ele>
        <time>2008-10-29T16:42:04Z</time>
      </trkpt>
      <trkpt lat="48.13372140" lon="8.263993300">
        <ele>717.00000</ele>
        <time>2008-10-29T16:42:09Z</time>
      </trkpt>
      <trkpt lat="48.13333510" lon="8.263821600">
        <ele>717.00000</ele>
        <time>2008-10-29T16:42:26Z</time>
      </trkpt>
      <trkpt lat="48.13290600" lon="8.263778700">
        <ele>697.00000</ele>
        <time>2008-10-29T16:42:43Z</time>
      </trkpt>
      <trkpt lat="48.13226220" lon="8.263864500">
        <ele>697.00000</ele>
        <time>2008-10-29T16:43:09Z</time>
      </trkpt>
      <trkpt lat="48.13196180" lon="8.262834500">
        <ele>685.00000</ele>
        <time>2008-10-29T16:43:39Z</time>
      </trkpt>
      <trkpt lat="48.13179020" lon="8.262105000">
        <ele>685.00000</ele>
        <time>2008-10-29T16:43:59Z</time>
      </trkpt>
      <trkpt lat="48.13161850" lon="8.261160900">
        <ele>686.00000</ele>
        <time>2008-10-29T16:44:26Z</time>
      </trkpt>
      <trkpt lat="48.13153270" lon="8.260860400">
        <ele>686.00000</ele>
        <time>2008-10-29T16:44:34Z</time>
      </trkpt>
      <trkpt lat="48.13118930" lon="8.259358400">
        <ele>679.00000</ele>
        <time>2008-10-29T16:45:17Z</time>
      </trkpt>
      <trkpt lat="48.13101770" lon="8.258800500">
        <ele>679.00000</ele>
        <time>2008-10-29T16:45:33Z</time>
      </trkpt>
      <trkpt lat="48.13097480" lon="8.258457200">
        <ele>672.00000</ele>
        <time>2008-10-29T16:45:42Z</time>
      </trkpt>
      <trkpt lat="48.13106060" lon="8.257942200">
        <ele>672.00000</ele>
        <time>2008-10-29T16:45:57Z</time>
      </trkpt>
      <trkpt lat="48.13118930" lon="8.257470100">
        <ele>667.00000</ele>
        <time>2008-10-29T16:46:10Z</time>
      </trkpt>
      <trkpt lat="48.13187600" lon="8.255453100">
        <ele>668.00000</ele>
        <time>2008-10-29T16:47:11Z</time>
      </trkpt>
      <trkpt lat="48.13183310" lon="8.254337300">
        <ele>663.00000</ele>
        <time>2008-10-29T16:47:41Z</time>
      </trkpt>
      <trkpt lat="48.13196180" lon="8.253521900">
        <ele>664.00000</ele>
        <time>2008-10-29T16:48:03Z</time>
      </trkpt>
      <trkpt lat="48.13200470" lon="8.253092800">
        <ele>664.00000</ele>
        <time>2008-10-29T16:48:15Z</time>
      </trkpt>
      <trkpt lat="48.13200470" lon="8.252620700">
        <ele>675.00000</ele>
        <time>2008-10-29T16:48:27Z</time>
      </trkpt>
      <trkpt lat="48.13196180" lon="8.252019900">
        <ele>675.00000</ele>
        <time>2008-10-29T16:48:43Z</time>
      </trkpt>
      <trkpt lat="48.13191890" lon="8.251462000">
        <ele>675.00000</ele>
        <time>2008-10-29T16:48:58Z</time>
      </trkpt>
      <trkpt lat="48.13200470" lon="8.250732400">
        <ele>671.00000</ele>
        <time>2008-10-29T16:49:18Z</time>
      </trkpt>
      <trkpt lat="48.13213350" lon="8.250346200">
        <ele>665.00000</ele>
        <time>2008-10-29T16:49:30Z</time>
      </trkpt>
      <trkpt lat="48.13264850" lon="8.249230400">
        <ele>653.00000</ele>
        <time>2008-10-29T16:50:06Z</time>
      </trkpt>
      <trkpt lat="48.13312050" lon="8.248372100">
        <ele>647.00000</ele>
        <time>2008-10-29T16:50:36Z</time>
      </trkpt>
      <trkpt lat="48.13393590" lon="8.247470900">
        <ele>652.00000</ele>
        <time>2008-10-29T16:51:16Z</time>
      </trkpt>
      <trkpt lat="48.13440800" lon="8.246312100">
        <ele>645.00000</ele>
        <time>2008-10-29T16:51:52Z</time>
      </trkpt>
      <trkpt lat="48.13457970" lon="8.246054600">
        <ele>655.00000</ele>
        <time>2008-10-29T16:52:02Z</time>
      </trkpt>
      <trkpt lat="48.13496590" lon="8.245711300">
        <ele>642.00000</ele>
        <time>2008-10-29T16:52:20Z</time>
      </trkpt>
      <trkpt lat="48.13522340" lon="8.245582600">
        <ele>642.00000</ele>
        <time>2008-10-29T16:52:31Z</time>
      </trkpt>
      <trkpt lat="48.13578130" lon="8.245282200">
        <ele>636.00000</ele>
        <time>2008-10-29T16:52:55Z</time>
      </trkpt>
      <trkpt lat="48.13599590" lon="8.245110500">
        <ele>636.00000</ele>
        <time>2008-10-29T16:53:04Z</time>
      </trkpt>
      <trkpt lat="48.13681130" lon="8.244209300">
        <ele>633.00000</ele>
        <time>2008-10-29T16:53:45Z</time>
      </trkpt>
      <trkpt lat="48.13689710" lon="8.243823100">
        <ele>633.00000</ele>
        <time>2008-10-29T16:53:56Z</time>
      </trkpt>
      <trkpt lat="48.13698290" lon="8.243393900">
        <ele>636.00000</ele>
        <time>2008-10-29T16:54:08Z</time>
      </trkpt>
      <trkpt lat="48.13702580" lon="8.243136400">
        <ele>636.00000</ele>
        <time>2008-10-29T16:54:15Z</time>
      </trkpt>
      <trkpt lat="48.13724040" lon="8.242793100">
        <ele>627.00000</ele>
        <time>2008-10-29T16:54:28Z</time>
      </trkpt>
      <trkpt lat="48.13749790" lon="8.242363900">
        <ele>627.00000</ele>
        <time>2008-10-29T16:54:43Z</time>
      </trkpt>
      <trkpt lat="48.13779830" lon="8.242149400">
        <ele>627.00000</ele>
        <time>2008-10-29T16:54:56Z</time>
      </trkpt>
      <trkpt lat="48.13822750" lon="8.242020600">
        <ele>620.00000</ele>
        <time>2008-10-29T16:55:14Z</time>
      </trkpt>
      <trkpt lat="48.13848500" lon="8.241806000">
        <ele>620.00000</ele>
        <time>2008-10-29T16:55:26Z</time>
      </trkpt>
      <trkpt lat="48.13861370" lon="8.241548500">
        <ele>620.00000</ele>
        <time>2008-10-29T16:55:34Z</time>
      </trkpt>
      <trkpt lat="48.13865660" lon="8.241119400">
        <ele>620.00000</ele>
        <time>2008-10-29T16:55:46Z</time>
      </trkpt>
      <trkpt lat="48.13857080" lon="8.240861900">
        <ele>620.00000</ele>
        <time>2008-10-29T16:55:53Z</time>
      </trkpt>
      <trkpt lat="48.13857080" lon="8.240432700">
        <ele>620.00000</ele>
        <time>2008-10-29T16:56:05Z</time>
      </trkpt>
      <trkpt lat="48.13861370" lon="8.240261100">
        <ele>614.00000</ele>
        <time>2008-10-29T16:56:10Z</time>
      </trkpt>
      <trkpt lat="48.13878540" lon="8.239917800">
        <ele>620.00000</ele>
        <time>2008-10-29T16:56:21Z</time>
      </trkpt>
      <trkpt lat="48.13848500" lon="8.239488600">
        <ele>611.00000</ele>
        <time>2008-10-29T16:56:38Z</time>
      </trkpt>
      <trkpt lat="48.13784120" lon="8.238630300">
        <ele>616.00000</ele>
        <time>2008-10-29T16:57:12Z</time>
      </trkpt>
      <trkpt lat="48.13728330" lon="8.237857800">
        <ele>624.00000</ele>
        <time>2008-10-29T16:57:43Z</time>
      </trkpt>
      <trkpt lat="48.13689710" lon="8.236999500">
        <ele>631.00000</ele>
        <time>2008-10-29T16:58:10Z</time>
      </trkpt>
      <trkpt lat="48.13672540" lon="8.236784900">
        <ele>631.00000</ele>
        <time>2008-10-29T16:58:19Z</time>
      </trkpt>
      <trkpt lat="48.13625340" lon="8.236484500">
        <ele>631.00000</ele>
        <time>2008-10-29T16:58:40Z</time>
      </trkpt>
      <trkpt lat="48.13612460" lon="8.236441600">
        <ele>644.00000</ele>
        <time>2008-10-29T16:58:45Z</time>
      </trkpt>
      <trkpt lat="48.13591000" lon="8.236398700">
        <ele>644.00000</ele>
        <time>2008-10-29T16:58:54Z</time>
      </trkpt>
      <trkpt lat="48.13457970" lon="8.235669100">
        <ele>660.00000</ele>
        <time>2008-10-29T16:59:51Z</time>
      </trkpt>
      <trkpt lat="48.13436510" lon="8.235540400">
        <ele>660.00000</ele>
        <time>2008-10-29T17:00:00Z</time>
      </trkpt>
      <trkpt lat="48.13385010" lon="8.234896700">
        <ele>645.00000</ele>
        <time>2008-10-29T17:00:27Z</time>
      </trkpt>
      <trkpt lat="48.13337800" lon="8.234424600">
        <ele>654.00000</ele>
        <time>2008-10-29T17:00:49Z</time>
      </trkpt>
      <trkpt lat="48.13294890" lon="8.234081300">
        <ele>654.00000</ele>
        <time>2008-10-29T17:01:09Z</time>
      </trkpt>
      <trkpt lat="48.13239100" lon="8.233523400">
        <ele>658.00000</ele>
        <time>2008-10-29T17:01:36Z</time>
      </trkpt>
      <trkpt lat="48.13170430" lon="8.232879600">
        <ele>664.00000</ele>
        <time>2008-10-29T17:02:08Z</time>
      </trkpt>
      <trkpt lat="48.13101770" lon="8.232235900">
        <ele>673.00000</ele>
        <time>2008-10-29T17:02:41Z</time>
      </trkpt>
      <trkpt lat="48.13037400" lon="8.231678000">
        <ele>684.00000</ele>
        <time>2008-10-29T17:03:10Z</time>
      </trkpt>
      <trkpt lat="48.13024520" lon="8.231549300">
        <ele>684.00000</ele>
        <time>2008-10-29T17:03:17Z</time>
      </trkpt>
      <trkpt lat="48.12998770" lon="8.231334700">
        <ele>684.00000</ele>
        <time>2008-10-29T17:03:28Z</time>
      </trkpt>
      <trkpt lat="48.12942980" lon="8.230991400">
        <ele>687.00000</ele>
        <time>2008-10-29T17:03:52Z</time>
      </trkpt>
      <trkpt lat="48.12891480" lon="8.230691000">
        <ele>687.00000</ele>
        <time>2008-10-29T17:04:15Z</time>
      </trkpt>
      <trkpt lat="48.12878610" lon="8.230433500">
        <ele>687.00000</ele>
        <time>2008-10-29T17:04:23Z</time>
      </trkpt>
      <trkpt lat="48.12887190" lon="8.229832600">
        <ele>688.00000</ele>
        <time>2008-10-29T17:04:40Z</time>
      </trkpt>
      <trkpt lat="48.12900070" lon="8.229575200">
        <ele>704.00000</ele>
        <time>2008-10-29T17:04:48Z</time>
      </trkpt>
      <trkpt lat="48.12912940" lon="8.229446400">
        <ele>704.00000</ele>
        <time>2008-10-29T17:04:54Z</time>
      </trkpt>
      <trkpt lat="48.12934400" lon="8.229360600">
        <ele>704.00000</ele>
        <time>2008-10-29T17:05:03Z</time>
      </trkpt>
      <trkpt lat="48.12990190" lon="8.229146000">
        <ele>700.00000</ele>
        <time>2008-10-29T17:05:26Z</time>
      </trkpt>
      <trkpt lat="48.13020230" lon="8.228802700">
        <ele>700.00000</ele>
        <time>2008-10-29T17:05:41Z</time>
      </trkpt>
      <trkpt lat="48.13063140" lon="8.228330600">
        <ele>704.00000</ele>
        <time>2008-10-29T17:06:03Z</time>
      </trkpt>
      <trkpt lat="48.13179020" lon="8.227171900">
        <ele>708.00000</ele>
        <time>2008-10-29T17:06:59Z</time>
      </trkpt>
      <trkpt lat="48.13196180" lon="8.226871500">
        <ele>730.00000</ele>
        <time>2008-10-29T17:07:09Z</time>
      </trkpt>
      <trkpt lat="48.13204770" lon="8.226442300">
        <ele>730.00000</ele>
        <time>2008-10-29T17:07:21Z</time>
      </trkpt>
      <trkpt lat="48.13196180" lon="8.225498200">
        <ele>748.00000</ele>
        <time>2008-10-29T17:07:47Z</time>
      </trkpt>
      <trkpt lat="48.13209060" lon="8.224854500">
        <ele>725.00000</ele>
        <time>2008-10-29T17:08:05Z</time>
      </trkpt>
      <trkpt lat="48.13226220" lon="8.224339500">
        <ele>733.00000</ele>
        <time>2008-10-29T17:08:20Z</time>
      </trkpt>
      <trkpt lat="48.13251970" lon="8.223738700">
        <ele>742.00000</ele>
        <time>2008-10-29T17:08:39Z</time>
      </trkpt>
      <trkpt lat="48.13260560" lon="8.223094900">
        <ele>742.00000</ele>
        <time>2008-10-29T17:08:57Z</time>
      </trkpt>
      <trkpt lat="48.13277720" lon="8.222880400">
        <ele>750.00000</ele>
        <time>2008-10-29T17:09:05Z</time>
      </trkpt>
      <trkpt lat="48.13303470" lon="8.222708700">
        <ele>747.00000</ele>
        <time>2008-10-29T17:09:17Z</time>
      </trkpt>
      <trkpt lat="48.13312050" lon="8.222451200">
        <ele>747.00000</ele>
        <time>2008-10-29T17:09:24Z</time>
      </trkpt>
      <trkpt lat="48.13312050" lon="8.222279500">
        <ele>747.00000</ele>
        <time>2008-10-29T17:09:29Z</time>
      </trkpt>
      <trkpt lat="48.13294890" lon="8.222236600">
        <ele>747.00000</ele>
        <time>2008-10-29T17:09:36Z</time>
      </trkpt>
      <trkpt lat="48.13277720" lon="8.222365400">
        <ele>750.00000</ele>
        <time>2008-10-29T17:09:44Z</time>
      </trkpt>
      <trkpt lat="48.13234810" lon="8.223266600">
        <ele>742.00000</ele>
        <time>2008-10-29T17:10:13Z</time>
      </trkpt>
      <trkpt lat="48.13217640" lon="8.223481200">
        <ele>742.00000</ele>
        <time>2008-10-29T17:10:22Z</time>
      </trkpt>
      <trkpt lat="48.13200470" lon="8.223481200">
        <ele>750.00000</ele>
        <time>2008-10-29T17:10:29Z</time>
      </trkpt>
      <trkpt lat="48.13187600" lon="8.223395300">
        <ele>750.00000</ele>
        <time>2008-10-29T17:10:35Z</time>
      </trkpt>
      <trkpt lat="48.13153270" lon="8.222708700">
        <ele>758.00000</ele>
        <time>2008-10-29T17:10:58Z</time>
      </trkpt>
      <trkpt lat="48.13140390" lon="8.222580000">
        <ele>758.00000</ele>
        <time>2008-10-29T17:11:04Z</time>
      </trkpt>
      <trkpt lat="48.13106060" lon="8.222665800">
        <ele>792.00000</ele>
        <time>2008-10-29T17:11:18Z</time>
      </trkpt>
      <trkpt lat="48.13093190" lon="8.222751600">
        <ele>792.00000</ele>
        <time>2008-10-29T17:11:23Z</time>
      </trkpt>
      <trkpt lat="48.13071730" lon="8.223137900">
        <ele>779.00000</ele>
        <time>2008-10-29T17:11:37Z</time>
      </trkpt>
      <trkpt lat="48.13067440" lon="8.223481200">
        <ele>779.00000</ele>
        <time>2008-10-29T17:11:46Z</time>
      </trkpt>
      <trkpt lat="48.13071730" lon="8.223695800">
        <ele>779.00000</ele>
        <time>2008-10-29T17:11:52Z</time>
      </trkpt>
      <trkpt lat="48.13114640" lon="8.224511100">
        <ele>791.00000</ele>
        <time>2008-10-29T17:12:20Z</time>
      </trkpt>
      <trkpt lat="48.13114640" lon="8.224768600">
        <ele>801.00000</ele>
        <time>2008-10-29T17:12:27Z</time>
      </trkpt>
      <trkpt lat="48.13114640" lon="8.225712800">
        <ele>797.00000</ele>
        <time>2008-10-29T17:12:52Z</time>
      </trkpt>
      <trkpt lat="48.13110350" lon="8.225927400">
        <ele>797.00000</ele>
        <time>2008-10-29T17:12:58Z</time>
      </trkpt>
      <trkpt lat="48.13106060" lon="8.226099000">
        <ele>797.00000</ele>
        <time>2008-10-29T17:13:03Z</time>
      </trkpt>
      <trkpt lat="48.13054560" lon="8.226313600">
        <ele>770.00000</ele>
        <time>2008-10-29T17:13:24Z</time>
      </trkpt>
      <trkpt lat="48.13015940" lon="8.226571100">
        <ele>794.00000</ele>
        <time>2008-10-29T17:13:41Z</time>
      </trkpt>
      <trkpt lat="48.12994480" lon="8.226528200">
        <ele>794.00000</ele>
        <time>2008-10-29T17:13:50Z</time>
      </trkpt>
      <trkpt lat="48.12921520" lon="8.226099000">
        <ele>813.00000</ele>
        <time>2008-10-29T17:14:21Z</time>
      </trkpt>
      <trkpt lat="48.12891480" lon="8.226056100">
        <ele>813.00000</ele>
        <time>2008-10-29T17:14:33Z</time>
      </trkpt>
      <trkpt lat="48.12878610" lon="8.225970300">
        <ele>813.00000</ele>
        <time>2008-10-29T17:14:39Z</time>
      </trkpt>
      <trkpt lat="48.12878610" lon="8.225841500">
        <ele>813.00000</ele>
        <time>2008-10-29T17:14:42Z</time>
      </trkpt>
      <trkpt lat="48.12882900" lon="8.225584000">
        <ele>813.00000</ele>
        <time>2008-10-29T17:14:49Z</time>
      </trkpt>
      <trkpt lat="48.12895770" lon="8.225541100">
        <ele>813.00000</ele>
        <time>2008-10-29T17:14:55Z</time>
      </trkpt>
      <trkpt lat="48.12938690" lon="8.225884400">
        <ele>813.00000</ele>
        <time>2008-10-29T17:15:14Z</time>
      </trkpt>
      <trkpt lat="48.12990190" lon="8.226099000">
        <ele>815.00000</ele>
        <time>2008-10-29T17:15:36Z</time>
      </trkpt>
      <trkpt lat="48.13011650" lon="8.226056100">
        <ele>815.00000</ele>
        <time>2008-10-29T17:15:44Z</time>
      </trkpt>
      <trkpt lat="48.13015940" lon="8.225970300">
        <ele>815.00000</ele>
        <time>2008-10-29T17:15:47Z</time>
      </trkpt>
      <trkpt lat="48.13015940" lon="8.225669900">
        <ele>815.00000</ele>
        <time>2008-10-29T17:15:55Z</time>
      </trkpt>
      <trkpt lat="48.12990190" lon="8.224597000">
        <ele>824.00000</ele>
        <time>2008-10-29T17:16:26Z</time>
      </trkpt>
      <trkpt lat="48.12973020" lon="8.223223700">
        <ele>823.00000</ele>
        <time>2008-10-29T17:17:03Z</time>
      </trkpt>
      <trkpt lat="48.12968730" lon="8.223137900">
        <ele>823.00000</ele>
        <time>2008-10-29T17:17:06Z</time>
      </trkpt>
      <trkpt lat="48.12960150" lon="8.223094900">
        <ele>823.00000</ele>
        <time>2008-10-29T17:17:09Z</time>
      </trkpt>
      <trkpt lat="48.12951560" lon="8.223180800">
        <ele>848.00000</ele>
        <time>2008-10-29T17:17:14Z</time>
      </trkpt>
      <trkpt lat="48.12947270" lon="8.223309500">
        <ele>848.00000</ele>
        <time>2008-10-29T17:17:17Z</time>
      </trkpt>
      <trkpt lat="48.12947270" lon="8.224124900">
        <ele>845.00000</ele>
        <time>2008-10-29T17:17:39Z</time>
      </trkpt>
      <trkpt lat="48.12942980" lon="8.224339500">
        <ele>845.00000</ele>
        <time>2008-10-29T17:17:45Z</time>
      </trkpt>
      <trkpt lat="48.12938690" lon="8.224511100">
        <ele>845.00000</ele>
        <time>2008-10-29T17:17:50Z</time>
      </trkpt>
      <trkpt lat="48.12930110" lon="8.224554100">
        <ele>845.00000</ele>
        <time>2008-10-29T17:17:54Z</time>
      </trkpt>
      <trkpt lat="48.12900070" lon="8.224682800">
        <ele>831.00000</ele>
        <time>2008-10-29T17:18:06Z</time>
      </trkpt>
      <trkpt lat="48.12818530" lon="8.224768600">
        <ele>848.00000</ele>
        <time>2008-10-29T17:18:39Z</time>
      </trkpt>
      <trkpt lat="48.12732700" lon="8.225069000">
        <ele>865.00000</ele>
        <time>2008-10-29T17:19:14Z</time>
      </trkpt>
      <trkpt lat="48.12681200" lon="8.225026100">
        <ele>865.00000</ele>
        <time>2008-10-29T17:19:35Z</time>
      </trkpt>
      <trkpt lat="48.12655450" lon="8.224768600">
        <ele>865.00000</ele>
        <time>2008-10-29T17:19:47Z</time>
      </trkpt>
      <trkpt lat="48.12616830" lon="8.224210700">
        <ele>872.00000</ele>
        <time>2008-10-29T17:20:09Z</time>
      </trkpt>
      <trkpt lat="48.12513830" lon="8.223309500">
        <ele>884.00000</ele>
        <time>2008-10-29T17:20:57Z</time>
      </trkpt>
      <trkpt lat="48.12479500" lon="8.223137900">
        <ele>884.00000</ele>
        <time>2008-10-29T17:21:11Z</time>
      </trkpt>
      <trkpt lat="48.12428000" lon="8.222923300">
        <ele>888.00000</ele>
        <time>2008-10-29T17:21:32Z</time>
      </trkpt>
      <trkpt lat="48.12359330" lon="8.222022100">
        <ele>892.00000</ele>
        <time>2008-10-29T17:22:09Z</time>
      </trkpt>
      <trkpt lat="48.12337880" lon="8.221850400">
        <ele>892.00000</ele>
        <time>2008-10-29T17:22:19Z</time>
      </trkpt>
      <trkpt lat="48.12329290" lon="8.221678700">
        <ele>892.00000</ele>
        <time>2008-10-29T17:22:24Z</time>
      </trkpt>
      <trkpt lat="48.12325000" lon="8.221678700">
        <ele>892.00000</ele>
        <time>2008-10-29T17:22:26Z</time>
      </trkpt>
      <trkpt lat="48.12316420" lon="8.221764600">
        <ele>892.00000</ele>
        <time>2008-10-29T17:22:30Z</time>
      </trkpt>
      <trkpt lat="48.12222000" lon="8.221120800">
        <ele>894.00000</ele>
        <time>2008-10-29T17:23:12Z</time>
      </trkpt>
      <trkpt lat="48.12213420" lon="8.221120800">
        <ele>894.00000</ele>
        <time>2008-10-29T17:23:15Z</time>
      </trkpt>
      <trkpt lat="48.12114720" lon="8.220348400">
        <ele>904.00000</ele>
        <time>2008-10-29T17:24:00Z</time>
      </trkpt>
      <trkpt lat="48.12076090" lon="8.219704600">
        <ele>904.00000</ele>
        <time>2008-10-29T17:24:23Z</time>
      </trkpt>
      <trkpt lat="48.11981680" lon="8.218116800">
        <ele>905.00000</ele>
        <time>2008-10-29T17:25:20Z</time>
      </trkpt>
      <trkpt lat="48.11973090" lon="8.217773400">
        <ele>905.00000</ele>
        <time>2008-10-29T17:25:30Z</time>
      </trkpt>
      <trkpt lat="48.11964510" lon="8.216958000">
        <ele>907.00000</ele>
        <time>2008-10-29T17:25:52Z</time>
      </trkpt>
      <trkpt lat="48.11943050" lon="8.215627700">
        <ele>929.00000</ele>
        <time>2008-10-29T17:26:28Z</time>
      </trkpt>
      <trkpt lat="48.11904430" lon="8.214426000">
        <ele>922.00000</ele>
        <time>2008-10-29T17:27:04Z</time>
      </trkpt>
      <trkpt lat="48.11861520" lon="8.213439000">
        <ele>928.00000</ele>
        <time>2008-10-29T17:27:35Z</time>
      </trkpt>
      <trkpt lat="48.11835770" lon="8.213052700">
        <ele>928.00000</ele>
        <time>2008-10-29T17:27:50Z</time>
      </trkpt>
      <trkpt lat="48.11775680" lon="8.212537800">
        <ele>929.00000</ele>
        <time>2008-10-29T17:28:18Z</time>
      </trkpt>
      <trkpt lat="48.11754230" lon="8.212409000">
        <ele>929.00000</ele>
        <time>2008-10-29T17:28:27Z</time>
      </trkpt>
      <trkpt lat="48.11715600" lon="8.212022800">
        <ele>925.00000</ele>
        <time>2008-10-29T17:28:45Z</time>
      </trkpt>
      <trkpt lat="48.11664100" lon="8.211250300">
        <ele>926.00000</ele>
        <time>2008-10-29T17:29:15Z</time>
      </trkpt>
      <trkpt lat="48.11646940" lon="8.211164500">
        <ele>932.00000</ele>
        <time>2008-10-29T17:29:22Z</time>
      </trkpt>
      <trkpt lat="48.11591150" lon="8.211207400">
        <ele>939.00000</ele>
        <time>2008-10-29T17:29:44Z</time>
      </trkpt>
      <trkpt lat="48.11565400" lon="8.211164500">
        <ele>939.00000</ele>
        <time>2008-10-29T17:29:55Z</time>
      </trkpt>
      <trkpt lat="48.11513900" lon="8.210606600">
        <ele>938.00000</ele>
        <time>2008-10-29T17:30:20Z</time>
      </trkpt>
      <trkpt lat="48.11406610" lon="8.209276200">
        <ele>944.00000</ele>
        <time>2008-10-29T17:31:16Z</time>
      </trkpt>
      <trkpt lat="48.11342240" lon="8.208332100">
        <ele>946.00000</ele>
        <time>2008-10-29T17:31:52Z</time>
      </trkpt>
      <trkpt lat="48.11277870" lon="8.206830000">
        <ele>967.00000</ele>
        <time>2008-10-29T17:32:40Z</time>
      </trkpt>
      <trkpt lat="48.11264990" lon="8.206744200">
        <ele>967.00000</ele>
        <time>2008-10-29T17:32:45Z</time>
      </trkpt>
      <trkpt lat="48.11234950" lon="8.206787100">
        <ele>967.00000</ele>
        <time>2008-10-29T17:32:57Z</time>
      </trkpt>
      <trkpt lat="48.11179160" lon="8.207044600">
        <ele>984.00000</ele>
        <time>2008-10-29T17:33:21Z</time>
      </trkpt>
      <trkpt lat="48.11114790" lon="8.207430800">
        <ele>969.00000</ele>
        <time>2008-10-29T17:33:48Z</time>
      </trkpt>
      <trkpt lat="48.11076160" lon="8.207473800">
        <ele>969.00000</ele>
        <time>2008-10-29T17:34:04Z</time>
      </trkpt>
      <trkpt lat="48.10994630" lon="8.207259200">
        <ele>967.00000</ele>
        <time>2008-10-29T17:34:37Z</time>
      </trkpt>
      <trkpt lat="48.10956000" lon="8.207173300">
        <ele>970.00000</ele>
        <time>2008-10-29T17:34:53Z</time>
      </trkpt>
      <trkpt lat="48.10917380" lon="8.207173300">
        <ele>970.00000</ele>
        <time>2008-10-29T17:35:08Z</time>
      </trkpt>
      <trkpt lat="48.10891630" lon="8.207130400">
        <ele>970.00000</ele>
        <time>2008-10-29T17:35:19Z</time>
      </trkpt>
      <trkpt lat="48.10865880" lon="8.207130400">
        <ele>974.00000</ele>
        <time>2008-10-29T17:35:29Z</time>
      </trkpt>
      <trkpt lat="48.10814380" lon="8.207044600">
        <ele>979.00000</ele>
        <time>2008-10-29T17:35:50Z</time>
      </trkpt>
      <trkpt lat="48.10797210" lon="8.206958800">
        <ele>979.00000</ele>
        <time>2008-10-29T17:35:57Z</time>
      </trkpt>
      <trkpt lat="48.10780050" lon="8.207688300">
        <ele>976.00000</ele>
        <time>2008-10-29T17:36:17Z</time>
      </trkpt>
      <trkpt lat="48.10775760" lon="8.208160400">
        <ele>970.00000</ele>
        <time>2008-10-29T17:36:30Z</time>
      </trkpt>
      <trkpt lat="48.10767170" lon="8.208546600">
        <ele>970.00000</ele>
        <time>2008-10-29T17:36:41Z</time>
      </trkpt>
      <trkpt lat="48.10741420" lon="8.208975800">
        <ele>959.00000</ele>
        <time>2008-10-29T17:36:57Z</time>
      </trkpt>
      <trkpt lat="48.10698510" lon="8.209319100">
        <ele>955.00000</ele>
        <time>2008-10-29T17:37:16Z</time>
      </trkpt>
      <trkpt lat="48.10659890" lon="8.209748300">
        <ele>949.00000</ele>
        <time>2008-10-29T17:37:35Z</time>
      </trkpt>
      <trkpt lat="48.10586930" lon="8.210649500">
        <ele>939.00000</ele>
        <time>2008-10-29T17:38:13Z</time>
      </trkpt>
      <trkpt lat="48.10569760" lon="8.211336100">
        <ele>939.00000</ele>
        <time>2008-10-29T17:38:33Z</time>
      </trkpt>
      <trkpt lat="48.10582640" lon="8.211765300">
        <ele>939.00000</ele>
        <time>2008-10-29T17:38:45Z</time>
      </trkpt>
      <trkpt lat="48.10608390" lon="8.212623600">
        <ele>938.00000</ele>
        <time>2008-10-29T17:39:10Z</time>
      </trkpt>
      <trkpt lat="48.10608390" lon="8.214297300">
        <ele>946.00000</ele>
        <time>2008-10-29T17:39:55Z</time>
      </trkpt>
      <trkpt lat="48.10604100" lon="8.214511900">
        <ele>946.00000</ele>
        <time>2008-10-29T17:40:01Z</time>
      </trkpt>
      <trkpt lat="48.10591220" lon="8.214597700">
        <ele>956.00000</ele>
        <time>2008-10-29T17:40:07Z</time>
      </trkpt>
      <trkpt lat="48.10561180" lon="8.214597700">
        <ele>956.00000</ele>
        <time>2008-10-29T17:40:19Z</time>
      </trkpt>
      <trkpt lat="48.10492520" lon="8.214898100">
        <ele>953.00000</ele>
        <time>2008-10-29T17:40:47Z</time>
      </trkpt>
      <trkpt lat="48.10445310" lon="8.215284300">
        <ele>949.00000</ele>
        <time>2008-10-29T17:41:09Z</time>
      </trkpt>
      <trkpt lat="48.10290810" lon="8.216142700">
        <ele>948.00000</ele>
        <time>2008-10-29T17:42:15Z</time>
      </trkpt>
      <trkpt lat="48.10295100" lon="8.216357200">
        <ele>960.00000</ele>
        <time>2008-10-29T17:42:21Z</time>
      </trkpt>
      <trkpt lat="48.10282230" lon="8.216700600">
        <ele>956.00000</ele>
        <time>2008-10-29T17:42:31Z</time>
      </trkpt>
      <trkpt lat="48.10265060" lon="8.217001000">
        <ele>956.00000</ele>
        <time>2008-10-29T17:42:42Z</time>
      </trkpt>
      <trkpt lat="48.10235020" lon="8.217215500">
        <ele>967.00000</ele>
        <time>2008-10-29T17:42:55Z</time>
      </trkpt>
      <trkpt lat="48.10196400" lon="8.217687600">
        <ele>965.00000</ele>
        <time>2008-10-29T17:43:15Z</time>
      </trkpt>
      <trkpt lat="48.10174940" lon="8.218116800">
        <ele>974.00000</ele>
        <time>2008-10-29T17:43:30Z</time>
      </trkpt>
      <trkpt lat="48.10166360" lon="8.218545900">
        <ele>974.00000</ele>
        <time>2008-10-29T17:43:42Z</time>
      </trkpt>
      <trkpt lat="48.10136320" lon="8.220391300">
        <ele>978.00000</ele>
        <time>2008-10-29T17:44:32Z</time>
      </trkpt>
      <trkpt lat="48.10127740" lon="8.221335400">
        <ele>983.00000</ele>
        <time>2008-10-29T17:44:58Z</time>
      </trkpt>
      <trkpt lat="48.10127740" lon="8.223309500">
        <ele>998.00000</ele>
        <time>2008-10-29T17:45:51Z</time>
      </trkpt>
      <trkpt lat="48.10136320" lon="8.224039100">
        <ele>1013.0000</ele>
        <time>2008-10-29T17:46:10Z</time>
      </trkpt>
      <trkpt lat="48.10162070" lon="8.224725700">
        <ele>1018.0000</ele>
        <time>2008-10-29T17:46:32Z</time>
      </trkpt>
      <trkpt lat="48.10174940" lon="8.225498200">
        <ele>1023.0000</ele>
        <time>2008-10-29T17:46:53Z</time>
      </trkpt>
      <trkpt lat="48.10183530" lon="8.227129000">
        <ele>1021.0000</ele>
        <time>2008-10-29T17:47:37Z</time>
      </trkpt>
      <trkpt lat="48.10226440" lon="8.229103100">
        <ele>1035.0000</ele>
        <time>2008-10-29T17:48:32Z</time>
      </trkpt>
      <trkpt lat="48.10230730" lon="8.229918500">
        <ele>1037.0000</ele>
        <time>2008-10-29T17:48:54Z</time>
      </trkpt>
      <trkpt lat="48.10235020" lon="8.231806800">
        <ele>1037.0000</ele>
        <time>2008-10-29T17:49:44Z</time>
      </trkpt>
      <trkpt lat="48.10256480" lon="8.234295800">
        <ele>1028.0000</ele>
        <time>2008-10-29T17:50:51Z</time>
      </trkpt>
      <trkpt lat="48.10260770" lon="8.235282900">
        <ele>1030.0000</ele>
        <time>2008-10-29T17:51:18Z</time>
      </trkpt>
      <trkpt lat="48.10239320" lon="8.236398700">
        <ele>1035.0000</ele>
        <time>2008-10-29T17:51:49Z</time>
      </trkpt>
      <trkpt lat="48.10239320" lon="8.236827900">
        <ele>1035.0000</ele>
        <time>2008-10-29T17:52:00Z</time>
      </trkpt>
      <trkpt lat="48.10226440" lon="8.237772000">
        <ele>1037.0000</ele>
        <time>2008-10-29T17:52:26Z</time>
      </trkpt>
      <trkpt lat="48.10209270" lon="8.238716100">
        <ele>1039.0000</ele>
        <time>2008-10-29T17:52:52Z</time>
      </trkpt>
      <trkpt lat="48.10162070" lon="8.240218200">
        <ele>1029.0000</ele>
        <time>2008-10-29T17:53:37Z</time>
      </trkpt>
      <trkpt lat="48.10123440" lon="8.242492700">
        <ele>1011.0000</ele>
        <time>2008-10-29T17:54:39Z</time>
      </trkpt>
      <trkpt lat="48.10110570" lon="8.243136400">
        <ele>1013.0000</ele>
        <time>2008-10-29T17:54:57Z</time>
      </trkpt>
      <trkpt lat="48.10003280" lon="8.245925900">
        <ele>1009.0000</ele>
        <time>2008-10-29T17:56:23Z</time>
      </trkpt>
      <trkpt lat="48.09904580" lon="8.247642500">
        <ele>1009.0000</ele>
        <time>2008-10-29T17:57:24Z</time>
      </trkpt>
      <trkpt lat="48.09887410" lon="8.248114600">
        <ele>1016.0000</ele>
        <time>2008-10-29T17:57:38Z</time>
      </trkpt>
      <trkpt lat="48.09883120" lon="8.248372100">
        <ele>1016.0000</ele>
        <time>2008-10-29T17:57:46Z</time>
      </trkpt>
      <trkpt lat="48.09878830" lon="8.248887100">
        <ele>1019.0000</ele>
        <time>2008-10-29T17:57:59Z</time>
      </trkpt>
      <trkpt lat="48.09887410" lon="8.249874100">
        <ele>1019.0000</ele>
        <time>2008-10-29T17:58:26Z</time>
      </trkpt>
      <trkpt lat="48.09874530" lon="8.250646600">
        <ele>1019.0000</ele>
        <time>2008-10-29T17:58:47Z</time>
      </trkpt>
      <trkpt lat="48.09865950" lon="8.250861200">
        <ele>1019.0000</ele>
        <time>2008-10-29T17:58:54Z</time>
      </trkpt>
      <trkpt lat="48.09801580" lon="8.251633600">
        <ele>1022.0000</ele>
        <time>2008-10-29T17:59:27Z</time>
      </trkpt>
      <trkpt lat="48.09750080" lon="8.252105700">
        <ele>1019.0000</ele>
        <time>2008-10-29T17:59:51Z</time>
      </trkpt>
      <trkpt lat="48.09715750" lon="8.252749400">
        <ele>1019.0000</ele>
        <time>2008-10-29T18:00:13Z</time>
      </trkpt>
      <trkpt lat="48.09655670" lon="8.254680600">
        <ele>1028.0000</ele>
        <time>2008-10-29T18:01:10Z</time>
      </trkpt>
      <trkpt lat="48.09647080" lon="8.255281400">
        <ele>1028.0000</ele>
        <time>2008-10-29T18:01:27Z</time>
      </trkpt>
      <trkpt lat="48.09647080" lon="8.255925200">
        <ele>1027.0000</ele>
        <time>2008-10-29T18:01:44Z</time>
      </trkpt>
      <trkpt lat="48.09741500" lon="8.260645900">
        <ele>1025.0000</ele>
        <time>2008-10-29T18:03:56Z</time>
      </trkpt>
      <trkpt lat="48.09835910" lon="8.265194900">
        <ele>1010.0000</ele>
        <time>2008-10-29T18:06:03Z</time>
      </trkpt>
      <trkpt lat="48.09853080" lon="8.266224900">
        <ele>1005.0000</ele>
        <time>2008-10-29T18:06:31Z</time>
      </trkpt>
      <trkpt lat="48.09857370" lon="8.267598200">
        <ele>1000.0000</ele>
        <time>2008-10-29T18:07:08Z</time>
      </trkpt>
      <trkpt lat="48.09861660" lon="8.268027300">
        <ele>998.00000</ele>
        <time>2008-10-29T18:07:20Z</time>
      </trkpt>
      <trkpt lat="48.09857370" lon="8.269143100">
        <ele>1000.0000</ele>
        <time>2008-10-29T18:07:49Z</time>
      </trkpt>
      <trkpt lat="48.09814450" lon="8.274507500">
        <ele>1032.0000</ele>
        <time>2008-10-29T18:10:14Z</time>
      </trkpt>
      <trkpt lat="48.09814450" lon="8.274979600">
        <ele>1028.0000</ele>
        <time>2008-10-29T18:10:27Z</time>
      </trkpt>
      <trkpt lat="48.09827330" lon="8.275966600">
        <ele>1021.0000</ele>
        <time>2008-10-29T18:10:53Z</time>
      </trkpt>
      <trkpt lat="48.09844490" lon="8.276567500">
        <ele>1012.0000</ele>
        <time>2008-10-29T18:11:11Z</time>
      </trkpt>
      <trkpt lat="48.09861660" lon="8.276996600">
        <ele>1012.0000</ele>
        <time>2008-10-29T18:11:24Z</time>
      </trkpt>
      <trkpt lat="48.09883120" lon="8.277425800">
        <ele>1010.0000</ele>
        <time>2008-10-29T18:11:39Z</time>
      </trkpt>
      <trkpt lat="48.09994700" lon="8.278884900">
        <ele>999.00000</ele>
        <time>2008-10-29T18:12:38Z</time>
      </trkpt>
      <trkpt lat="48.10024740" lon="8.279571500">
        <ele>999.00000</ele>
        <time>2008-10-29T18:13:00Z</time>
      </trkpt>
      <trkpt lat="48.10071950" lon="8.281030700">
        <ele>990.00000</ele>
        <time>2008-10-29T18:13:43Z</time>
      </trkpt>
      <trkpt lat="48.10089110" lon="8.281760200">
        <ele>985.00000</ele>
        <time>2008-10-29T18:14:04Z</time>
      </trkpt>
      <trkpt lat="48.10089110" lon="8.282318100">
        <ele>987.00000</ele>
        <time>2008-10-29T18:14:19Z</time>
      </trkpt>
      <trkpt lat="48.10071950" lon="8.284463900">
        <ele>985.00000</ele>
        <time>2008-10-29T18:15:17Z</time>
      </trkpt>
      <trkpt lat="48.09964660" lon="8.283605600">
        <ele>971.00000</ele>
        <time>2008-10-29T18:16:05Z</time>
      </trkpt>
      <trkpt lat="48.09930320" lon="8.283691400">
        <ele>962.00000</ele>
        <time>2008-10-29T18:16:19Z</time>
      </trkpt>
      <trkpt lat="48.09895990" lon="8.284034700">
        <ele>970.00000</ele>
        <time>2008-10-29T18:16:36Z</time>
      </trkpt>
      <trkpt lat="48.09891700" lon="8.285021800">
        <ele>971.00000</ele>
        <time>2008-10-29T18:17:02Z</time>
      </trkpt>
      <trkpt lat="48.09913160" lon="8.285923000">
        <ele>968.00000</ele>
        <time>2008-10-29T18:17:28Z</time>
      </trkpt>
      <trkpt lat="48.09895990" lon="8.286094700">
        <ele>968.00000</ele>
        <time>2008-10-29T18:17:36Z</time>
      </trkpt>
      <trkpt lat="48.09857370" lon="8.286309200">
        <ele>961.00000</ele>
        <time>2008-10-29T18:17:53Z</time>
      </trkpt>
      <trkpt lat="48.09775830" lon="8.286352200">
        <ele>949.00000</ele>
        <time>2008-10-29T18:18:25Z</time>
      </trkpt>
      <trkpt lat="48.09724330" lon="8.286781300">
        <ele>949.00000</ele>
        <time>2008-10-29T18:18:49Z</time>
      </trkpt>
      <trkpt lat="48.09690000" lon="8.287296300">
        <ele>928.00000</ele>
        <time>2008-10-29T18:19:08Z</time>
      </trkpt>
      <trkpt lat="48.09664250" lon="8.288240400">
        <ele>929.00000</ele>
        <time>2008-10-29T18:19:35Z</time>
      </trkpt>
      <trkpt lat="48.09634210" lon="8.288970000">
        <ele>931.00000</ele>
        <time>2008-10-29T18:19:58Z</time>
      </trkpt>
      <trkpt lat="48.09552670" lon="8.290214500">
        <ele>920.00000</ele>
        <time>2008-10-29T18:20:45Z</time>
      </trkpt>
      <trkpt lat="48.09522630" lon="8.291029900">
        <ele>920.00000</ele>
        <time>2008-10-29T18:21:10Z</time>
      </trkpt>
      <trkpt lat="48.09509750" lon="8.291759500">
        <ele>911.00000</ele>
        <time>2008-10-29T18:21:30Z</time>
      </trkpt>
      <trkpt lat="48.09471130" lon="8.292317400">
        <ele>911.00000</ele>
        <time>2008-10-29T18:21:52Z</time>
      </trkpt>
      <trkpt lat="48.09398170" lon="8.293047000">
        <ele>904.00000</ele>
        <time>2008-10-29T18:22:27Z</time>
      </trkpt>
      <trkpt lat="48.09359550" lon="8.293218600">
        <ele>899.00000</ele>
        <time>2008-10-29T18:22:43Z</time>
      </trkpt>
      <trkpt lat="48.09252260" lon="8.293476100">
        <ele>894.00000</ele>
        <time>2008-10-29T18:23:26Z</time>
      </trkpt>
      <trkpt lat="48.09209350" lon="8.293776500">
        <ele>893.00000</ele>
        <time>2008-10-29T18:23:45Z</time>
      </trkpt>
      <trkpt lat="48.09205060" lon="8.295106900">
        <ele>908.00000</ele>
        <time>2008-10-29T18:24:21Z</time>
      </trkpt>
      <trkpt lat="48.09187890" lon="8.295879400">
        <ele>909.00000</ele>
        <time>2008-10-29T18:24:43Z</time>
      </trkpt>
      <trkpt lat="48.09179310" lon="8.297510100">
        <ele>900.00000</ele>
        <time>2008-10-29T18:25:26Z</time>
      </trkpt>
      <trkpt lat="48.09179310" lon="8.298711800">
        <ele>905.00000</ele>
        <time>2008-10-29T18:25:59Z</time>
      </trkpt>
      <trkpt lat="48.09205060" lon="8.300643000">
        <ele>910.00000</ele>
        <time>2008-10-29T18:26:51Z</time>
      </trkpt>
      <trkpt lat="48.09213640" lon="8.302016300">
        <ele>883.00000</ele>
        <time>2008-10-29T18:27:28Z</time>
      </trkpt>
      <trkpt lat="48.09235100" lon="8.302745800">
        <ele>885.00000</ele>
        <time>2008-10-29T18:27:49Z</time>
      </trkpt>
      <trkpt lat="48.09265140" lon="8.303561200">
        <ele>885.00000</ele>
        <time>2008-10-29T18:28:14Z</time>
      </trkpt>
      <trkpt lat="48.09286590" lon="8.304505300">
        <ele>883.00000</ele>
        <time>2008-10-29T18:28:41Z</time>
      </trkpt>
      <trkpt lat="48.09286590" lon="8.305277800">
        <ele>879.00000</ele>
        <time>2008-10-29T18:29:02Z</time>
      </trkpt>
      <trkpt lat="48.09217930" lon="8.307981500">
        <ele>872.00000</ele>
        <time>2008-10-29T18:30:19Z</time>
      </trkpt>
      <trkpt lat="48.09247970" lon="8.308796900">
        <ele>868.00000</ele>
        <time>2008-10-29T18:30:44Z</time>
      </trkpt>
      <trkpt lat="48.09243680" lon="8.309912700">
        <ele>864.00000</ele>
        <time>2008-10-29T18:31:14Z</time>
      </trkpt>
      <trkpt lat="48.09235100" lon="8.311243100">
        <ele>863.00000</ele>
        <time>2008-10-29T18:31:49Z</time>
      </trkpt>
      <trkpt lat="48.09235100" lon="8.312573400">
        <ele>857.00000</ele>
        <time>2008-10-29T18:32:25Z</time>
      </trkpt>
      <trkpt lat="48.09222220" lon="8.313732100">
        <ele>856.00000</ele>
        <time>2008-10-29T18:32:56Z</time>
      </trkpt>
      <trkpt lat="48.09217930" lon="8.314247100">
        <ele>857.00000</ele>
        <time>2008-10-29T18:33:10Z</time>
      </trkpt>
      <trkpt lat="48.09230800" lon="8.314461700">
        <ele>857.00000</ele>
        <time>2008-10-29T18:33:18Z</time>
      </trkpt>
      <trkpt lat="48.09209350" lon="8.314847900">
        <ele>863.00000</ele>
        <time>2008-10-29T18:33:31Z</time>
      </trkpt>
      <trkpt lat="48.09187890" lon="8.315491700">
        <ele>860.00000</ele>
        <time>2008-10-29T18:33:51Z</time>
      </trkpt>
      <trkpt lat="48.09119220" lon="8.318195300">
        <ele>849.00000</ele>
        <time>2008-10-29T18:35:08Z</time>
      </trkpt>
      <trkpt lat="48.09029100" lon="8.320941900">
        <ele>840.00000</ele>
        <time>2008-10-29T18:36:30Z</time>
      </trkpt>
      <trkpt lat="48.08973310" lon="8.323302300">
        <ele>848.00000</ele>
        <time>2008-10-29T18:37:37Z</time>
      </trkpt>
      <trkpt lat="48.08934690" lon="8.324289300">
        <ele>842.00000</ele>
        <time>2008-10-29T18:38:07Z</time>
      </trkpt>
      <trkpt lat="48.08921810" lon="8.324589700">
        <ele>847.00000</ele>
        <time>2008-10-29T18:38:17Z</time>
      </trkpt>
      <trkpt lat="48.08870320" lon="8.326177600">
        <ele>842.00000</ele>
        <time>2008-10-29T18:39:04Z</time>
      </trkpt>
      <trkpt lat="48.08758740" lon="8.330211600">
        <ele>834.00000</ele>
        <time>2008-10-29T18:41:01Z</time>
      </trkpt>
      <trkpt lat="48.08741570" lon="8.331069900">
        <ele>840.00000</ele>
        <time>2008-10-29T18:41:25Z</time>
      </trkpt>
      <trkpt lat="48.08728690" lon="8.331928300">
        <ele>842.00000</ele>
        <time>2008-10-29T18:41:48Z</time>
      </trkpt>
      <trkpt lat="48.08724400" lon="8.333730700">
        <ele>828.00000</ele>
        <time>2008-10-29T18:42:37Z</time>
      </trkpt>
      <trkpt lat="48.08698650" lon="8.334932300">
        <ele>825.00000</ele>
        <time>2008-10-29T18:43:10Z</time>
      </trkpt>
      <trkpt lat="48.08638570" lon="8.336691900">
        <ele>846.00000</ele>
        <time>2008-10-29T18:44:03Z</time>
      </trkpt>
      <trkpt lat="48.08625700" lon="8.337035200">
        <ele>846.00000</ele>
        <time>2008-10-29T18:44:14Z</time>
      </trkpt>
      <trkpt lat="48.08582780" lon="8.339910500">
        <ele>823.00000</ele>
        <time>2008-10-29T18:45:32Z</time>
      </trkpt>
      <trkpt lat="48.08552740" lon="8.341240900">
        <ele>821.00000</ele>
        <time>2008-10-29T18:46:10Z</time>
      </trkpt>
      <trkpt lat="48.08544160" lon="8.342142100">
        <ele>824.00000</ele>
        <time>2008-10-29T18:46:34Z</time>
      </trkpt>
      <trkpt lat="48.08509830" lon="8.343815800">
        <ele>815.00000</ele>
        <time>2008-10-29T18:47:21Z</time>
      </trkpt>
      <trkpt lat="48.08501240" lon="8.344631200">
        <ele>816.00000</ele>
        <time>2008-10-29T18:47:43Z</time>
      </trkpt>
      <trkpt lat="48.08479790" lon="8.345747000">
        <ele>818.00000</ele>
        <time>2008-10-29T18:48:14Z</time>
      </trkpt>
      <trkpt lat="48.08445450" lon="8.346991500">
        <ele>808.00000</ele>
        <time>2008-10-29T18:48:50Z</time>
      </trkpt>
      <trkpt lat="48.08411120" lon="8.348579400">
        <ele>810.00000</ele>
        <time>2008-10-29T18:49:35Z</time>
      </trkpt>
      <trkpt lat="48.08363910" lon="8.350081400">
        <ele>804.00000</ele>
        <time>2008-10-29T18:50:19Z</time>
      </trkpt>
      <trkpt lat="48.08351040" lon="8.350982700">
        <ele>804.00000</ele>
        <time>2008-10-29T18:50:44Z</time>
      </trkpt>
      <trkpt lat="48.08329580" lon="8.352012600">
        <ele>805.00000</ele>
        <time>2008-10-29T18:51:13Z</time>
      </trkpt>
      <trkpt lat="48.08308120" lon="8.353471800">
        <ele>813.00000</ele>
        <time>2008-10-29T18:51:53Z</time>
      </trkpt>
      <trkpt lat="48.08243750" lon="8.355231300">
        <ele>807.00000</ele>
        <time>2008-10-29T18:52:46Z</time>
      </trkpt>
      <trkpt lat="48.08222290" lon="8.355488800">
        <ele>815.00000</ele>
        <time>2008-10-29T18:52:57Z</time>
      </trkpt>
      <trkpt lat="48.08162210" lon="8.357162500">
        <ele>806.00000</ele>
        <time>2008-10-29T18:53:48Z</time>
      </trkpt>
      <trkpt lat="48.08097840" lon="8.359308200">
        <ele>800.00000</ele>
        <time>2008-10-29T18:54:51Z</time>
      </trkpt>
      <trkpt lat="48.08072090" lon="8.359994900">
        <ele>804.00000</ele>
        <time>2008-10-29T18:55:12Z</time>
      </trkpt>
      <trkpt lat="48.08012010" lon="8.361754400">
        <ele>802.00000</ele>
        <time>2008-10-29T18:56:05Z</time>
      </trkpt>
      <trkpt lat="48.07990550" lon="8.362698600">
        <ele>805.00000</ele>
        <time>2008-10-29T18:56:32Z</time>
      </trkpt>
      <trkpt lat="48.07977680" lon="8.363170600">
        <ele>809.00000</ele>
        <time>2008-10-29T18:56:45Z</time>
      </trkpt>
      <trkpt lat="48.07934760" lon="8.363986000">
        <ele>797.00000</ele>
        <time>2008-10-29T18:57:13Z</time>
      </trkpt>
      <trkpt lat="48.07870390" lon="8.365745500">
        <ele>792.00000</ele>
        <time>2008-10-29T18:58:07Z</time>
      </trkpt>
      <trkpt lat="48.07866100" lon="8.365960100">
        <ele>792.00000</ele>
        <time>2008-10-29T18:58:13Z</time>
      </trkpt>
      <trkpt lat="48.07853220" lon="8.366174700">
        <ele>792.00000</ele>
        <time>2008-10-29T18:58:20Z</time>
      </trkpt>
      <trkpt lat="48.07823180" lon="8.366603900">
        <ele>792.00000</ele>
        <time>2008-10-29T18:58:37Z</time>
      </trkpt>
      <trkpt lat="48.07831760" lon="8.367290500">
        <ele>793.00000</ele>
        <time>2008-10-29T18:58:56Z</time>
      </trkpt>
      <trkpt lat="48.07810310" lon="8.369479200">
        <ele>798.00000</ele>
        <time>2008-10-29T18:59:55Z</time>
      </trkpt>
      <trkpt lat="48.07784560" lon="8.370337500">
        <ele>790.00000</ele>
        <time>2008-10-29T19:00:20Z</time>
      </trkpt>
      <trkpt lat="48.07771680" lon="8.370766600">
        <ele>793.00000</ele>
        <time>2008-10-29T19:00:33Z</time>
      </trkpt>
      <trkpt lat="48.07763100" lon="8.370938300">
        <ele>793.00000</ele>
        <time>2008-10-29T19:00:38Z</time>
      </trkpt>
      <trkpt lat="48.07741640" lon="8.371110000">
        <ele>793.00000</ele>
        <time>2008-10-29T19:00:48Z</time>
      </trkpt>
      <trkpt lat="48.07733060" lon="8.370809600">
        <ele>793.00000</ele>
        <time>2008-10-29T19:00:57Z</time>
      </trkpt>
      <trkpt lat="48.07711600" lon="8.370080000">
        <ele>790.00000</ele>
        <time>2008-10-29T19:01:18Z</time>
      </trkpt>
      <trkpt lat="48.07681560" lon="8.369479200">
        <ele>797.00000</ele>
        <time>2008-10-29T19:01:38Z</time>
      </trkpt>
      <trkpt lat="48.07638650" lon="8.368663800">
        <ele>795.00000</ele>
        <time>2008-10-29T19:02:06Z</time>
      </trkpt>
      <trkpt lat="48.07539940" lon="8.365659700">
        <ele>804.00000</ele>
        <time>2008-10-29T19:03:36Z</time>
      </trkpt>
      <trkpt lat="48.07505610" lon="8.364329300">
        <ele>799.00000</ele>
        <time>2008-10-29T19:04:14Z</time>
      </trkpt>
      <trkpt lat="48.07462690" lon="8.363084800">
        <ele>797.00000</ele>
        <time>2008-10-29T19:04:51Z</time>
      </trkpt>
      <trkpt lat="48.07436940" lon="8.362140700">
        <ele>803.00000</ele>
        <time>2008-10-29T19:05:18Z</time>
      </trkpt>
      <trkpt lat="48.07432650" lon="8.361926100">
        <ele>804.00000</ele>
        <time>2008-10-29T19:05:24Z</time>
      </trkpt>
      <trkpt lat="48.07411190" lon="8.359909100">
        <ele>808.00000</ele>
        <time>2008-10-29T19:06:19Z</time>
      </trkpt>
      <trkpt lat="48.07385440" lon="8.358836200">
        <ele>807.00000</ele>
        <time>2008-10-29T19:06:50Z</time>
      </trkpt>
      <trkpt lat="48.07346820" lon="8.357677500">
        <ele>814.00000</ele>
        <time>2008-10-29T19:07:24Z</time>
      </trkpt>
      <trkpt lat="48.07286740" lon="8.355917900">
        <ele>826.00000</ele>
        <time>2008-10-29T19:08:17Z</time>
      </trkpt>
      <trkpt lat="48.07205200" lon="8.353772200">
        <ele>834.00000</ele>
        <time>2008-10-29T19:09:23Z</time>
      </trkpt>
      <trkpt lat="48.07166580" lon="8.353128400">
        <ele>824.00000</ele>
        <time>2008-10-29T19:09:46Z</time>
      </trkpt>
      <trkpt lat="48.07033540" lon="8.350939800">
        <ele>834.00000</ele>
        <time>2008-10-29T19:11:05Z</time>
      </trkpt>
      <trkpt lat="48.06990620" lon="8.350210200">
        <ele>829.00000</ele>
        <time>2008-10-29T19:11:31Z</time>
      </trkpt>
      <trkpt lat="48.06887630" lon="8.348493600">
        <ele>834.00000</ele>
        <time>2008-10-29T19:12:33Z</time>
      </trkpt>
      <trkpt lat="48.06866170" lon="8.348107300">
        <ele>839.00000</ele>
        <time>2008-10-29T19:12:47Z</time>
      </trkpt>
      <trkpt lat="48.06853290" lon="8.347334900">
        <ele>838.00000</ele>
        <time>2008-10-29T19:13:08Z</time>
      </trkpt>
      <trkpt lat="48.06840420" lon="8.346004500">
        <ele>847.00000</ele>
        <time>2008-10-29T19:13:44Z</time>
      </trkpt>
      <trkpt lat="48.06810380" lon="8.344974500">
        <ele>845.00000</ele>
        <time>2008-10-29T19:14:14Z</time>
      </trkpt>
      <trkpt lat="48.06780340" lon="8.344245000">
        <ele>849.00000</ele>
        <time>2008-10-29T19:14:37Z</time>
      </trkpt>
      <trkpt lat="48.06733130" lon="8.343129200">
        <ele>845.00000</ele>
        <time>2008-10-29T19:15:12Z</time>
      </trkpt>
      <trkpt lat="48.06664470" lon="8.341713000">
        <ele>870.00000</ele>
        <time>2008-10-29T19:15:59Z</time>
      </trkpt>
      <trkpt lat="48.06651590" lon="8.341412500">
        <ele>870.00000</ele>
        <time>2008-10-29T19:16:08Z</time>
      </trkpt>
      <trkpt lat="48.06561470" lon="8.338537200">
        <ele>883.00000</ele>
        <time>2008-10-29T19:17:33Z</time>
      </trkpt>
      <trkpt lat="48.06540010" lon="8.338022200">
        <ele>913.00000</ele>
        <time>2008-10-29T19:17:50Z</time>
      </trkpt>
      <trkpt lat="48.06454180" lon="8.336391400">
        <ele>916.00000</ele>
        <time>2008-10-29T19:18:45Z</time>
      </trkpt>
      <trkpt lat="48.06415560" lon="8.335919400">
        <ele>900.00000</ele>
        <time>2008-10-29T19:19:05Z</time>
      </trkpt>
      <trkpt lat="48.06342600" lon="8.335533100">
        <ele>913.00000</ele>
        <time>2008-10-29T19:19:36Z</time>
      </trkpt>
      <trkpt lat="48.06209560" lon="8.335018200">
        <ele>910.00000</ele>
        <time>2008-10-29T19:20:31Z</time>
      </trkpt>
      <trkpt lat="48.06046490" lon="8.334031100">
        <ele>922.00000</ele>
        <time>2008-10-29T19:21:42Z</time>
      </trkpt>
      <trkpt lat="48.05797580" lon="8.332700700">
        <ele>914.00000</ele>
        <time>2008-10-29T19:23:27Z</time>
      </trkpt>
      <trkpt lat="48.05758950" lon="8.332400300">
        <ele>930.00000</ele>
        <time>2008-10-29T19:23:45Z</time>
      </trkpt>
      <trkpt lat="48.05681710" lon="8.331241600">
        <ele>922.00000</ele>
        <time>2008-10-29T19:24:29Z</time>
      </trkpt>
      <trkpt lat="48.05608750" lon="8.330555000">
        <ele>948.00000</ele>
        <time>2008-10-29T19:25:03Z</time>
      </trkpt>
      <trkpt lat="48.05578710" lon="8.330082900">
        <ele>934.00000</ele>
        <time>2008-10-29T19:25:20Z</time>
      </trkpt>
      <trkpt lat="48.05544380" lon="8.329224600">
        <ele>929.00000</ele>
        <time>2008-10-29T19:25:47Z</time>
      </trkpt>
      <trkpt lat="48.05497170" lon="8.327593800">
        <ele>944.00000</ele>
        <time>2008-10-29T19:26:35Z</time>
      </trkpt>
      <trkpt lat="48.05471420" lon="8.326306300">
        <ele>948.00000</ele>
        <time>2008-10-29T19:27:11Z</time>
      </trkpt>
      <trkpt lat="48.05471420" lon="8.325920100">
        <ele>956.00000</ele>
        <time>2008-10-29T19:27:21Z</time>
      </trkpt>
      <trkpt lat="48.05480000" lon="8.325147600">
        <ele>967.00000</ele>
        <time>2008-10-29T19:27:42Z</time>
      </trkpt>
      <trkpt lat="48.05561540" lon="8.323731400">
        <ele>968.00000</ele>
        <time>2008-10-29T19:28:32Z</time>
      </trkpt>
      <trkpt lat="48.05634500" lon="8.322572700">
        <ele>962.00000</ele>
        <time>2008-10-29T19:29:15Z</time>
      </trkpt>
      <trkpt lat="48.05677410" lon="8.322014800">
        <ele>963.00000</ele>
        <time>2008-10-29T19:29:37Z</time>
      </trkpt>
      <trkpt lat="48.05707450" lon="8.321714400">
        <ele>963.00000</ele>
        <time>2008-10-29T19:29:52Z</time>
      </trkpt>
      <trkpt lat="48.05758950" lon="8.321285200">
        <ele>967.00000</ele>
        <time>2008-10-29T19:30:15Z</time>
      </trkpt>
      <trkpt lat="48.05819030" lon="8.320941900">
        <ele>956.00000</ele>
        <time>2008-10-29T19:30:41Z</time>
      </trkpt>
      <trkpt lat="48.05939200" lon="8.320341100">
        <ele>943.00000</ele>
        <time>2008-10-29T19:31:32Z</time>
      </trkpt>
      <trkpt lat="48.05964950" lon="8.320126500">
        <ele>949.00000</ele>
        <time>2008-10-29T19:31:44Z</time>
      </trkpt>
      <trkpt lat="48.05994990" lon="8.319611500">
        <ele>949.00000</ele>
        <time>2008-10-29T19:32:02Z</time>
      </trkpt>
      <trkpt lat="48.06007860" lon="8.319010700">
        <ele>943.00000</ele>
        <time>2008-10-29T19:32:19Z</time>
      </trkpt>
      <trkpt lat="48.06003570" lon="8.318581600">
        <ele>942.00000</ele>
        <time>2008-10-29T19:32:31Z</time>
      </trkpt>
      <trkpt lat="48.05986400" lon="8.317980800">
        <ele>942.00000</ele>
        <time>2008-10-29T19:32:48Z</time>
      </trkpt>
      <trkpt lat="48.05904870" lon="8.316478700">
        <ele>938.00000</ele>
        <time>2008-10-29T19:33:40Z</time>
      </trkpt>
      <trkpt lat="48.05831910" lon="8.314805000">
        <ele>936.00000</ele>
        <time>2008-10-29T19:34:33Z</time>
      </trkpt>
      <trkpt lat="48.05819030" lon="8.314161300">
        <ele>940.00000</ele>
        <time>2008-10-29T19:34:51Z</time>
      </trkpt>
      <trkpt lat="48.05819030" lon="8.313689200">
        <ele>933.00000</ele>
        <time>2008-10-29T19:35:04Z</time>
      </trkpt>
      <trkpt lat="48.05819030" lon="8.313431700">
        <ele>933.00000</ele>
        <time>2008-10-29T19:35:11Z</time>
      </trkpt>
      <trkpt lat="48.05836200" lon="8.313045500">
        <ele>933.00000</ele>
        <time>2008-10-29T19:35:23Z</time>
      </trkpt>
      <trkpt lat="48.05849080" lon="8.312873800">
        <ele>915.00000</ele>
        <time>2008-10-29T19:35:30Z</time>
      </trkpt>
      <trkpt lat="48.05896280" lon="8.312659300">
        <ele>919.00000</ele>
        <time>2008-10-29T19:35:50Z</time>
      </trkpt>
      <trkpt lat="48.05982110" lon="8.312659300">
        <ele>911.00000</ele>
        <time>2008-10-29T19:36:24Z</time>
      </trkpt>
      <trkpt lat="48.06085110" lon="8.312830900">
        <ele>907.00000</ele>
        <time>2008-10-29T19:37:06Z</time>
      </trkpt>
      <trkpt lat="48.06166650" lon="8.313260100">
        <ele>921.00000</ele>
        <time>2008-10-29T19:37:40Z</time>
      </trkpt>
      <trkpt lat="48.06183820" lon="8.313045500">
        <ele>921.00000</ele>
        <time>2008-10-29T19:37:49Z</time>
      </trkpt>
      <trkpt lat="48.06192400" lon="8.312830900">
        <ele>906.00000</ele>
        <time>2008-10-29T19:37:56Z</time>
      </trkpt>
      <trkpt lat="48.06183820" lon="8.312573400">
        <ele>906.00000</ele>
        <time>2008-10-29T19:38:04Z</time>
      </trkpt>
      <trkpt lat="48.06170940" lon="8.312444700">
        <ele>906.00000</ele>
        <time>2008-10-29T19:38:10Z</time>
      </trkpt>
      <trkpt lat="48.06097980" lon="8.312358900">
        <ele>907.00000</ele>
        <time>2008-10-29T19:38:39Z</time>
      </trkpt>
      <trkpt lat="48.05913450" lon="8.311457600">
        <ele>900.00000</ele>
        <time>2008-10-29T19:39:57Z</time>
      </trkpt>
      <trkpt lat="48.05797580" lon="8.311157200">
        <ele>877.00000</ele>
        <time>2008-10-29T19:40:44Z</time>
      </trkpt>
      <trkpt lat="48.05767540" lon="8.311286000">
        <ele>880.00000</ele>
        <time>2008-10-29T19:40:56Z</time>
      </trkpt>
      <trkpt lat="48.05750370" lon="8.311543500">
        <ele>880.00000</ele>
        <time>2008-10-29T19:41:06Z</time>
      </trkpt>
      <trkpt lat="48.05686000" lon="8.314290000">
        <ele>876.00000</ele>
        <time>2008-10-29T19:42:24Z</time>
      </trkpt>
      <trkpt lat="48.05673120" lon="8.314547500">
        <ele>876.00000</ele>
        <time>2008-10-29T19:42:33Z</time>
      </trkpt>
      <trkpt lat="48.05664540" lon="8.314590500">
        <ele>878.00000</ele>
        <time>2008-10-29T19:42:36Z</time>
      </trkpt>
      <trkpt lat="48.05651660" lon="8.314590500">
        <ele>878.00000</ele>
        <time>2008-10-29T19:42:41Z</time>
      </trkpt>
      <trkpt lat="48.05634500" lon="8.314375900">
        <ele>876.00000</ele>
        <time>2008-10-29T19:42:50Z</time>
      </trkpt>
      <trkpt lat="48.05630210" lon="8.314032600">
        <ele>876.00000</ele>
        <time>2008-10-29T19:43:00Z</time>
      </trkpt>
      <trkpt lat="48.05621620" lon="8.312487600">
        <ele>873.00000</ele>
        <time>2008-10-29T19:43:41Z</time>
      </trkpt>
      <trkpt lat="48.05608750" lon="8.311500500">
        <ele>872.00000</ele>
        <time>2008-10-29T19:44:08Z</time>
      </trkpt>
      <trkpt lat="48.05613040" lon="8.310084300">
        <ele>871.00000</ele>
        <time>2008-10-29T19:44:46Z</time>
      </trkpt>
      <trkpt lat="48.05608750" lon="8.309483500">
        <ele>861.00000</ele>
        <time>2008-10-29T19:45:02Z</time>
      </trkpt>
      <trkpt lat="48.05591580" lon="8.308968500">
        <ele>861.00000</ele>
        <time>2008-10-29T19:45:18Z</time>
      </trkpt>
      <trkpt lat="48.05570130" lon="8.308496500">
        <ele>848.00000</ele>
        <time>2008-10-29T19:45:33Z</time>
      </trkpt>
      <trkpt lat="48.05540080" lon="8.308153200">
        <ele>877.00000</ele>
        <time>2008-10-29T19:45:48Z</time>
      </trkpt>
      <trkpt lat="48.05505750" lon="8.307509400">
        <ele>859.00000</ele>
        <time>2008-10-29T19:46:10Z</time>
      </trkpt>
      <trkpt lat="48.05402760" lon="8.306050300">
        <ele>832.00000</ele>
        <time>2008-10-29T19:47:07Z</time>
      </trkpt>
      <trkpt lat="48.05355550" lon="8.305578200">
        <ele>852.00000</ele>
        <time>2008-10-29T19:47:29Z</time>
      </trkpt>
      <trkpt lat="48.05261140" lon="8.304848700">
        <ele>838.00000</ele>
        <time>2008-10-29T19:48:12Z</time>
      </trkpt>
      <trkpt lat="48.05213930" lon="8.304677000">
        <ele>838.00000</ele>
        <time>2008-10-29T19:48:31Z</time>
      </trkpt>
      <trkpt lat="48.05080890" lon="8.304719900">
        <ele>827.00000</ele>
        <time>2008-10-29T19:49:25Z</time>
      </trkpt>
      <trkpt lat="48.05025100" lon="8.304848700">
        <ele>815.00000</ele>
        <time>2008-10-29T19:49:47Z</time>
      </trkpt>
      <trkpt lat="48.04939270" lon="8.305449500">
        <ele>822.00000</ele>
        <time>2008-10-29T19:50:25Z</time>
      </trkpt>
      <trkpt lat="48.04887770" lon="8.305535300">
        <ele>822.00000</ele>
        <time>2008-10-29T19:50:46Z</time>
      </trkpt>
      <trkpt lat="48.04750440" lon="8.305363700">
        <ele>802.00000</ele>
        <time>2008-10-29T19:51:41Z</time>
      </trkpt>
      <trkpt lat="48.04746150" lon="8.305621100">
        <ele>813.00000</ele>
        <time>2008-10-29T19:51:48Z</time>
      </trkpt>
      <trkpt lat="48.04746150" lon="8.305878600">
        <ele>813.00000</ele>
        <time>2008-10-29T19:51:55Z</time>
      </trkpt>
      <trkpt lat="48.04741860" lon="8.305921600">
        <ele>813.00000</ele>
        <time>2008-10-29T19:51:57Z</time>
      </trkpt>
      <trkpt lat="48.04716110" lon="8.305835700">
        <ele>813.00000</ele>
        <time>2008-10-29T19:52:08Z</time>
      </trkpt>
      <trkpt lat="48.04677490" lon="8.305921600">
        <ele>811.00000</ele>
        <time>2008-10-29T19:52:23Z</time>
      </trkpt>
      <trkpt lat="48.04647450" lon="8.306222000">
        <ele>811.00000</ele>
        <time>2008-10-29T19:52:38Z</time>
      </trkpt>
      <trkpt lat="48.04621700" lon="8.306779900">
        <ele>820.00000</ele>
        <time>2008-10-29T19:52:56Z</time>
      </trkpt>
      <trkpt lat="48.04565910" lon="8.306822800">
        <ele>820.00000</ele>
        <time>2008-10-29T19:53:18Z</time>
      </trkpt>
      <trkpt lat="48.04437160" lon="8.308453600">
        <ele>813.00000</ele>
        <time>2008-10-29T19:54:26Z</time>
      </trkpt>
      <trkpt lat="48.04394250" lon="8.308796900">
        <ele>825.00000</ele>
        <time>2008-10-29T19:54:45Z</time>
      </trkpt>
      <trkpt lat="48.04377080" lon="8.308839800">
        <ele>825.00000</ele>
        <time>2008-10-29T19:54:52Z</time>
      </trkpt>
      <trkpt lat="48.04334160" lon="8.309526400">
        <ele>813.00000</ele>
        <time>2008-10-29T19:55:18Z</time>
      </trkpt>
      <trkpt lat="48.04317000" lon="8.309698100">
        <ele>823.00000</ele>
        <time>2008-10-29T19:55:26Z</time>
      </trkpt>
      <trkpt lat="48.04038050" lon="8.311758000">
        <ele>804.00000</ele>
        <time>2008-10-29T19:57:30Z</time>
      </trkpt>
      <trkpt lat="48.04008010" lon="8.311801000">
        <ele>804.00000</ele>
        <time>2008-10-29T19:57:42Z</time>
      </trkpt>
      <trkpt lat="48.03960800" lon="8.311586400">
        <ele>804.00000</ele>
        <time>2008-10-29T19:58:02Z</time>
      </trkpt>
      <trkpt lat="48.03917880" lon="8.311672200">
        <ele>808.00000</ele>
        <time>2008-10-29T19:58:20Z</time>
      </trkpt>
      <trkpt lat="48.03763390" lon="8.311972600">
        <ele>808.00000</ele>
        <time>2008-10-29T19:59:22Z</time>
      </trkpt>
      <trkpt lat="48.03716180" lon="8.312144300">
        <ele>824.00000</ele>
        <time>2008-10-29T19:59:41Z</time>
      </trkpt>
      <trkpt lat="48.03596020" lon="8.312659300">
        <ele>812.00000</ele>
        <time>2008-10-29T20:00:31Z</time>
      </trkpt>
      <trkpt lat="48.03557400" lon="8.312745100">
        <ele>812.00000</ele>
        <time>2008-10-29T20:00:47Z</time>
      </trkpt>
      <trkpt lat="48.03437230" lon="8.312788000">
        <ele>812.00000</ele>
        <time>2008-10-29T20:01:35Z</time>
      </trkpt>
      <trkpt lat="48.03355690" lon="8.312659300">
        <ele>811.00000</ele>
        <time>2008-10-29T20:02:08Z</time>
      </trkpt>
      <trkpt lat="48.03299900" lon="8.312788000">
        <ele>811.00000</ele>
        <time>2008-10-29T20:02:31Z</time>
      </trkpt>
      <trkpt lat="48.03278450" lon="8.313088400">
        <ele>808.00000</ele>
        <time>2008-10-29T20:02:42Z</time>
      </trkpt>
      <trkpt lat="48.03239820" lon="8.313818000">
        <ele>826.00000</ele>
        <time>2008-10-29T20:03:07Z</time>
      </trkpt>
      <trkpt lat="48.03179740" lon="8.314847900">
        <ele>800.00000</ele>
        <time>2008-10-29T20:03:44Z</time>
      </trkpt>
      <trkpt lat="48.03081040" lon="8.317294100">
        <ele>807.00000</ele>
        <time>2008-10-29T20:05:00Z</time>
      </trkpt>
      <trkpt lat="48.03068160" lon="8.317465800">
        <ele>807.00000</ele>
        <time>2008-10-29T20:05:07Z</time>
      </trkpt>
      <trkpt lat="48.03042410" lon="8.317380000">
        <ele>807.00000</ele>
        <time>2008-10-29T20:05:18Z</time>
      </trkpt>
      <trkpt lat="48.03020950" lon="8.317680400">
        <ele>783.00000</ele>
        <time>2008-10-29T20:05:29Z</time>
      </trkpt>
      <trkpt lat="48.02999500" lon="8.317852000">
        <ele>783.00000</ele>
        <time>2008-10-29T20:05:39Z</time>
      </trkpt>
      <trkpt lat="48.02956580" lon="8.318066600">
        <ele>796.00000</ele>
        <time>2008-10-29T20:05:57Z</time>
      </trkpt>
      <trkpt lat="48.02879330" lon="8.317894900">
        <ele>783.00000</ele>
        <time>2008-10-29T20:06:29Z</time>
      </trkpt>
      <trkpt lat="48.02664760" lon="8.316993700">
        <ele>782.00000</ele>
        <time>2008-10-29T20:07:58Z</time>
      </trkpt>
      <trkpt lat="48.02587510" lon="8.316779100">
        <ele>783.00000</ele>
        <time>2008-10-29T20:08:29Z</time>
      </trkpt>
      <trkpt lat="48.02544590" lon="8.316736200">
        <ele>783.00000</ele>
        <time>2008-10-29T20:08:46Z</time>
      </trkpt>
      <trkpt lat="48.02450180" lon="8.316779100">
        <ele>778.00000</ele>
        <time>2008-10-29T20:09:24Z</time>
      </trkpt>
      <trkpt lat="48.02325730" lon="8.317122500">
        <ele>791.00000</ele>
        <time>2008-10-29T20:10:15Z</time>
      </trkpt>
      <trkpt lat="48.02175520" lon="8.317809100">
        <ele>778.00000</ele>
        <time>2008-10-29T20:11:18Z</time>
      </trkpt>
      <trkpt lat="48.02154060" lon="8.317852000">
        <ele>778.00000</ele>
        <time>2008-10-29T20:11:27Z</time>
      </trkpt>
      <trkpt lat="48.02111150" lon="8.317894900">
        <ele>779.00000</ele>
        <time>2008-10-29T20:11:44Z</time>
      </trkpt>
      <trkpt lat="48.01965240" lon="8.317766200">
        <ele>788.00000</ele>
        <time>2008-10-29T20:12:42Z</time>
      </trkpt>
      <trkpt lat="48.01909450" lon="8.317809100">
        <ele>779.00000</ele>
        <time>2008-10-29T20:13:05Z</time>
      </trkpt>
      <trkpt lat="48.01875110" lon="8.317980800">
        <ele>789.00000</ele>
        <time>2008-10-29T20:13:19Z</time>
      </trkpt>
      <trkpt lat="48.01729200" lon="8.319482800">
        <ele>790.00000</ele>
        <time>2008-10-29T20:14:30Z</time>
      </trkpt>
      <trkpt lat="48.01686290" lon="8.319740300">
        <ele>790.00000</ele>
        <time>2008-10-29T20:14:49Z</time>
      </trkpt>
      <trkpt lat="48.01457990" lon="8.320036300">
        <ele>774.00000</ele>
        <time>2008-10-29T20:16:20Z</time>
      </trkpt>
      <trkpt lat="48.01454540" lon="8.320040700">
        <ele>774.00000</ele>
        <time>2008-10-29T20:16:22Z</time>
      </trkpt>
      <trkpt lat="48.01433090" lon="8.315706300">
        <ele>790.00000</ele>
        <time>2008-10-29T20:18:18Z</time>
      </trkpt>
      <trkpt lat="48.01433090" lon="8.314805000">
        <ele>793.00000</ele>
        <time>2008-10-29T20:18:42Z</time>
      </trkpt>
      <trkpt lat="48.01467420" lon="8.313646300">
        <ele>811.00000</ele>
        <time>2008-10-29T20:19:16Z</time>
      </trkpt>
      <trkpt lat="48.01480290" lon="8.312702200">
        <ele>808.00000</ele>
        <time>2008-10-29T20:19:42Z</time>
      </trkpt>
      <trkpt lat="48.01480290" lon="8.311500500">
        <ele>801.00000</ele>
        <time>2008-10-29T20:20:14Z</time>
      </trkpt>
      <trkpt lat="48.01510330" lon="8.309869800">
        <ele>803.00000</ele>
        <time>2008-10-29T20:20:59Z</time>
      </trkpt>
      <trkpt lat="48.01557540" lon="8.308796900">
        <ele>823.00000</ele>
        <time>2008-10-29T20:21:34Z</time>
      </trkpt>
      <trkpt lat="48.01579000" lon="8.307852700">
        <ele>807.00000</ele>
        <time>2008-10-29T20:22:00Z</time>
      </trkpt>
      <trkpt lat="48.01596160" lon="8.307509400">
        <ele>807.00000</ele>
        <time>2008-10-29T20:22:12Z</time>
      </trkpt>
      <trkpt lat="48.01617620" lon="8.306865700">
        <ele>816.00000</ele>
        <time>2008-10-29T20:22:31Z</time>
      </trkpt>
      <trkpt lat="48.01630500" lon="8.305878600">
        <ele>822.00000</ele>
        <time>2008-10-29T20:22:58Z</time>
      </trkpt>
      <trkpt lat="48.01634790" lon="8.304677000">
        <ele>822.00000</ele>
        <time>2008-10-29T20:23:30Z</time>
      </trkpt>
      <trkpt lat="48.01647660" lon="8.304076200">
        <ele>821.00000</ele>
        <time>2008-10-29T20:23:47Z</time>
      </trkpt>
      <trkpt lat="48.01703450" lon="8.302273800">
        <ele>811.00000</ele>
        <time>2008-10-29T20:24:40Z</time>
      </trkpt>
      <trkpt lat="48.01784990" lon="8.300428400">
        <ele>812.00000</ele>
        <time>2008-10-29T20:25:40Z</time>
      </trkpt>
      <trkpt lat="48.01802160" lon="8.299913400">
        <ele>846.00000</ele>
        <time>2008-10-29T20:25:55Z</time>
      </trkpt>
      <trkpt lat="48.01815030" lon="8.298797600">
        <ele>843.00000</ele>
        <time>2008-10-29T20:26:25Z</time>
      </trkpt>
      <trkpt lat="48.01827910" lon="8.298325500">
        <ele>839.00000</ele>
        <time>2008-10-29T20:26:39Z</time>
      </trkpt>
      <trkpt lat="48.01853660" lon="8.297510100">
        <ele>838.00000</ele>
        <time>2008-10-29T20:27:03Z</time>
      </trkpt>
      <trkpt lat="48.01862240" lon="8.296995200">
        <ele>834.00000</ele>
        <time>2008-10-29T20:27:17Z</time>
      </trkpt>
      <trkpt lat="48.01870820" lon="8.295192700">
        <ele>834.00000</ele>
        <time>2008-10-29T20:28:06Z</time>
      </trkpt>
      <trkpt lat="48.01879410" lon="8.294935200">
        <ele>855.00000</ele>
        <time>2008-10-29T20:28:13Z</time>
      </trkpt>
      <trkpt lat="48.01892280" lon="8.294763600">
        <ele>855.00000</ele>
        <time>2008-10-29T20:28:20Z</time>
      </trkpt>
      <trkpt lat="48.01930900" lon="8.294720600">
        <ele>855.00000</ele>
        <time>2008-10-29T20:28:36Z</time>
      </trkpt>
      <trkpt lat="48.01948070" lon="8.294463200">
        <ele>845.00000</ele>
        <time>2008-10-29T20:28:46Z</time>
      </trkpt>
      <trkpt lat="48.01948070" lon="8.294291500">
        <ele>845.00000</ele>
        <time>2008-10-29T20:28:50Z</time>
      </trkpt>
      <trkpt lat="48.01948070" lon="8.294162800">
        <ele>845.00000</ele>
        <time>2008-10-29T20:28:54Z</time>
      </trkpt>
      <trkpt lat="48.01935200" lon="8.293862300">
        <ele>845.00000</ele>
        <time>2008-10-29T20:29:03Z</time>
      </trkpt>
      <trkpt lat="48.01892280" lon="8.293561900">
        <ele>867.00000</ele>
        <time>2008-10-29T20:29:22Z</time>
      </trkpt>
      <trkpt lat="48.01870820" lon="8.293175700">
        <ele>839.00000</ele>
        <time>2008-10-29T20:29:36Z</time>
      </trkpt>
      <trkpt lat="48.01862240" lon="8.292617800">
        <ele>847.00000</ele>
        <time>2008-10-29T20:29:51Z</time>
      </trkpt>
      <trkpt lat="48.01866530" lon="8.291931200">
        <ele>847.00000</ele>
        <time>2008-10-29T20:30:09Z</time>
      </trkpt>
      <trkpt lat="48.01892280" lon="8.290643700">
        <ele>879.00000</ele>
        <time>2008-10-29T20:30:45Z</time>
      </trkpt>
      <trkpt lat="48.01969530" lon="8.288025900">
        <ele>885.00000</ele>
        <time>2008-10-29T20:32:02Z</time>
      </trkpt>
      <trkpt lat="48.02008150" lon="8.286609600">
        <ele>856.00000</ele>
        <time>2008-10-29T20:32:43Z</time>
      </trkpt>
      <trkpt lat="48.02055360" lon="8.285021800">
        <ele>880.00000</ele>
        <time>2008-10-29T20:33:29Z</time>
      </trkpt>
      <trkpt lat="48.02076820" lon="8.283691400">
        <ele>869.00000</ele>
        <time>2008-10-29T20:34:06Z</time>
      </trkpt>
      <trkpt lat="48.02093980" lon="8.281674400">
        <ele>862.00000</ele>
        <time>2008-10-29T20:35:01Z</time>
      </trkpt>
      <trkpt lat="48.02111150" lon="8.280730200">
        <ele>859.00000</ele>
        <time>2008-10-29T20:35:27Z</time>
      </trkpt>
      <trkpt lat="48.02141190" lon="8.280000700">
        <ele>872.00000</ele>
        <time>2008-10-29T20:35:50Z</time>
      </trkpt>
      <trkpt lat="48.02209850" lon="8.278756100">
        <ele>891.00000</ele>
        <time>2008-10-29T20:36:33Z</time>
      </trkpt>
      <trkpt lat="48.02214150" lon="8.278584500">
        <ele>887.00000</ele>
        <time>2008-10-29T20:36:38Z</time>
      </trkpt>
      <trkpt lat="48.02218440" lon="8.277425800">
        <ele>887.00000</ele>
        <time>2008-10-29T20:37:09Z</time>
      </trkpt>
      <trkpt lat="48.02244190" lon="8.275580400">
        <ele>870.00000</ele>
        <time>2008-10-29T20:37:59Z</time>
      </trkpt>
      <trkpt lat="48.02239890" lon="8.274979600">
        <ele>866.00000</ele>
        <time>2008-10-29T20:38:15Z</time>
      </trkpt>
      <trkpt lat="48.02231310" lon="8.274593400">
        <ele>866.00000</ele>
        <time>2008-10-29T20:38:26Z</time>
      </trkpt>
      <trkpt lat="48.02231310" lon="8.274378800">
        <ele>875.00000</ele>
        <time>2008-10-29T20:38:32Z</time>
      </trkpt>
      <trkpt lat="48.02239890" lon="8.273992500">
        <ele>875.00000</ele>
        <time>2008-10-29T20:38:43Z</time>
      </trkpt>
      <trkpt lat="48.02269940" lon="8.270258900">
        <ele>884.00000</ele>
        <time>2008-10-29T20:40:24Z</time>
      </trkpt>
      <trkpt lat="48.02269940" lon="8.269486400">
        <ele>888.00000</ele>
        <time>2008-10-29T20:40:44Z</time>
      </trkpt>
      <trkpt lat="48.02274230" lon="8.269100200">
        <ele>888.00000</ele>
        <time>2008-10-29T20:40:55Z</time>
      </trkpt>
      <trkpt lat="48.02299980" lon="8.268070200">
        <ele>887.00000</ele>
        <time>2008-10-29T20:41:24Z</time>
      </trkpt>
      <trkpt lat="48.02330020" lon="8.267383600">
        <ele>881.00000</ele>
        <time>2008-10-29T20:41:46Z</time>
      </trkpt>
      <trkpt lat="48.02351470" lon="8.266954400">
        <ele>879.00000</ele>
        <time>2008-10-29T20:42:01Z</time>
      </trkpt>
      <trkpt lat="48.02390100" lon="8.266482400">
        <ele>884.00000</ele>
        <time>2008-10-29T20:42:21Z</time>
      </trkpt>
      <trkpt lat="48.02402970" lon="8.266224900">
        <ele>881.00000</ele>
        <time>2008-10-29T20:42:29Z</time>
      </trkpt>
      <trkpt lat="48.02407260" lon="8.265967400">
        <ele>881.00000</ele>
        <time>2008-10-29T20:42:36Z</time>
      </trkpt>
      <trkpt lat="48.02428720" lon="8.264079100">
        <ele>880.00000</ele>
        <time>2008-10-29T20:43:28Z</time>
      </trkpt>
      <trkpt lat="48.02445890" lon="8.263392400">
        <ele>880.00000</ele>
        <time>2008-10-29T20:43:47Z</time>
      </trkpt>
      <trkpt lat="48.02445890" lon="8.262577100">
        <ele>879.00000</ele>
        <time>2008-10-29T20:44:09Z</time>
      </trkpt>
      <trkpt lat="48.02458760" lon="8.261590000">
        <ele>900.00000</ele>
        <time>2008-10-29T20:44:36Z</time>
      </trkpt>
      <trkpt lat="48.02454470" lon="8.260259600">
        <ele>881.00000</ele>
        <time>2008-10-29T20:45:12Z</time>
      </trkpt>
      <trkpt lat="48.02467350" lon="8.259530100">
        <ele>894.00000</ele>
        <time>2008-10-29T20:45:32Z</time>
      </trkpt>
      <trkpt lat="48.02493100" lon="8.258671800">
        <ele>891.00000</ele>
        <time>2008-10-29T20:45:57Z</time>
      </trkpt>
      <trkpt lat="48.02488800" lon="8.257942200">
        <ele>891.00000</ele>
        <time>2008-10-29T20:46:17Z</time>
      </trkpt>
      <trkpt lat="48.02475930" lon="8.257169700">
        <ele>891.00000</ele>
        <time>2008-10-29T20:46:38Z</time>
      </trkpt>
      <trkpt lat="48.02471640" lon="8.256912200">
        <ele>897.00000</ele>
        <time>2008-10-29T20:46:45Z</time>
      </trkpt>
      <trkpt lat="48.02454470" lon="8.256397200">
        <ele>889.00000</ele>
        <time>2008-10-29T20:47:00Z</time>
      </trkpt>
      <trkpt lat="48.02441600" lon="8.256096800">
        <ele>890.00000</ele>
        <time>2008-10-29T20:47:10Z</time>
      </trkpt>
      <trkpt lat="48.02437310" lon="8.255925200">
        <ele>890.00000</ele>
        <time>2008-10-29T20:47:15Z</time>
      </trkpt>
      <trkpt lat="48.02411560" lon="8.253650700">
        <ele>904.00000</ele>
        <time>2008-10-29T20:48:17Z</time>
      </trkpt>
      <trkpt lat="48.02428720" lon="8.251762400">
        <ele>903.00000</ele>
        <time>2008-10-29T20:49:08Z</time>
      </trkpt>
      <trkpt lat="48.02415850" lon="8.250131600">
        <ele>912.00000</ele>
        <time>2008-10-29T20:49:52Z</time>
      </trkpt>
      <trkpt lat="48.02411560" lon="8.248887100">
        <ele>912.00000</ele>
        <time>2008-10-29T20:50:25Z</time>
      </trkpt>
      <trkpt lat="48.02424430" lon="8.247170400">
        <ele>910.00000</ele>
        <time>2008-10-29T20:51:11Z</time>
      </trkpt>
      <trkpt lat="48.02433010" lon="8.246269200">
        <ele>911.00000</ele>
        <time>2008-10-29T20:51:36Z</time>
      </trkpt>
      <trkpt lat="48.02471640" lon="8.245325100">
        <ele>922.00000</ele>
        <time>2008-10-29T20:52:05Z</time>
      </trkpt>
      <trkpt lat="48.02480220" lon="8.244938900">
        <ele>922.00000</ele>
        <time>2008-10-29T20:52:16Z</time>
      </trkpt>
      <trkpt lat="48.02488800" lon="8.244080500">
        <ele>919.00000</ele>
        <time>2008-10-29T20:52:39Z</time>
      </trkpt>
      <trkpt lat="48.02493100" lon="8.243093500">
        <ele>918.00000</ele>
        <time>2008-10-29T20:53:06Z</time>
      </trkpt>
      <trkpt lat="48.02484510" lon="8.241634400">
        <ele>919.00000</ele>
        <time>2008-10-29T20:53:45Z</time>
      </trkpt>
      <trkpt lat="48.02484510" lon="8.240518600">
        <ele>921.00000</ele>
        <time>2008-10-29T20:54:15Z</time>
      </trkpt>
      <trkpt lat="48.02480220" lon="8.240261100">
        <ele>933.00000</ele>
        <time>2008-10-29T20:54:22Z</time>
      </trkpt>
      <trkpt lat="48.02441600" lon="8.239188200">
        <ele>921.00000</ele>
        <time>2008-10-29T20:54:55Z</time>
      </trkpt>
      <trkpt lat="48.02428720" lon="8.238630300">
        <ele>922.00000</ele>
        <time>2008-10-29T20:55:10Z</time>
      </trkpt>
      <trkpt lat="48.02424430" lon="8.237686200">
        <ele>927.00000</ele>
        <time>2008-10-29T20:55:36Z</time>
      </trkpt>
      <trkpt lat="48.02407260" lon="8.236355800">
        <ele>934.00000</ele>
        <time>2008-10-29T20:56:12Z</time>
      </trkpt>
      <trkpt lat="48.02402970" lon="8.235926600">
        <ele>937.00000</ele>
        <time>2008-10-29T20:56:24Z</time>
      </trkpt>
      <trkpt lat="48.02411560" lon="8.235282900">
        <ele>934.00000</ele>
        <time>2008-10-29T20:56:41Z</time>
      </trkpt>
      <trkpt lat="48.02450180" lon="8.233223000">
        <ele>930.00000</ele>
        <time>2008-10-29T20:57:39Z</time>
      </trkpt>
      <trkpt lat="48.02458760" lon="8.231806800">
        <ele>950.00000</ele>
        <time>2008-10-29T20:58:17Z</time>
      </trkpt>
      <trkpt lat="48.02471640" lon="8.231291800">
        <ele>950.00000</ele>
        <time>2008-10-29T20:58:31Z</time>
      </trkpt>
      <trkpt lat="48.02497390" lon="8.230691000">
        <ele>945.00000</ele>
        <time>2008-10-29T20:58:50Z</time>
      </trkpt>
      <trkpt lat="48.02548890" lon="8.229317700">
        <ele>956.00000</ele>
        <time>2008-10-29T20:59:33Z</time>
      </trkpt>
      <trkpt lat="48.02600380" lon="8.228330600">
        <ele>944.00000</ele>
        <time>2008-10-29T21:00:06Z</time>
      </trkpt>
      <trkpt lat="48.02643300" lon="8.227858500">
        <ele>955.00000</ele>
        <time>2008-10-29T21:00:27Z</time>
      </trkpt>
      <trkpt lat="48.02664760" lon="8.227515200">
        <ele>955.00000</ele>
        <time>2008-10-29T21:00:40Z</time>
      </trkpt>
      <trkpt lat="48.02677630" lon="8.226871500">
        <ele>956.00000</ele>
        <time>2008-10-29T21:00:58Z</time>
      </trkpt>
      <trkpt lat="48.02716260" lon="8.225541100">
        <ele>987.00000</ele>
        <time>2008-10-29T21:01:37Z</time>
      </trkpt>
      <trkpt lat="48.02716260" lon="8.225197800">
        <ele>973.00000</ele>
        <time>2008-10-29T21:01:46Z</time>
      </trkpt>
      <trkpt lat="48.02703380" lon="8.224940300">
        <ele>957.00000</ele>
        <time>2008-10-29T21:01:55Z</time>
      </trkpt>
      <trkpt lat="48.02681920" lon="8.224768600">
        <ele>957.00000</ele>
        <time>2008-10-29T21:02:04Z</time>
      </trkpt>
      <trkpt lat="48.02669050" lon="8.224768600">
        <ele>957.00000</ele>
        <time>2008-10-29T21:02:10Z</time>
      </trkpt>
      <trkpt lat="48.02647590" lon="8.224897400">
        <ele>957.00000</ele>
        <time>2008-10-29T21:02:19Z</time>
      </trkpt>
      <trkpt lat="48.02626130" lon="8.225455300">
        <ele>953.00000</ele>
        <time>2008-10-29T21:02:36Z</time>
      </trkpt>
      <trkpt lat="48.02608970" lon="8.225798600">
        <ele>951.00000</ele>
        <time>2008-10-29T21:02:48Z</time>
      </trkpt>
      <trkpt lat="48.02566050" lon="8.225927400">
        <ele>951.00000</ele>
        <time>2008-10-29T21:03:05Z</time>
      </trkpt>
      <trkpt lat="48.02518840" lon="8.226356500">
        <ele>957.00000</ele>
        <time>2008-10-29T21:03:27Z</time>
      </trkpt>
      <trkpt lat="48.02505970" lon="8.226356500">
        <ele>957.00000</ele>
        <time>2008-10-29T21:03:32Z</time>
      </trkpt>
      <trkpt lat="48.02424430" lon="8.226013200">
        <ele>960.00000</ele>
        <time>2008-10-29T21:04:06Z</time>
      </trkpt>
      <trkpt lat="48.02402970" lon="8.225755700">
        <ele>960.00000</ele>
        <time>2008-10-29T21:04:17Z</time>
      </trkpt>
      <trkpt lat="48.02338600" lon="8.224167800">
        <ele>969.00000</ele>
        <time>2008-10-29T21:05:07Z</time>
      </trkpt>
      <trkpt lat="48.02317140" lon="8.223524100">
        <ele>978.00000</ele>
        <time>2008-10-29T21:05:26Z</time>
      </trkpt>
      <trkpt lat="48.02287100" lon="8.222322500">
        <ele>970.00000</ele>
        <time>2008-10-29T21:06:01Z</time>
      </trkpt>
      <trkpt lat="48.02274230" lon="8.221249600">
        <ele>980.00000</ele>
        <time>2008-10-29T21:06:30Z</time>
      </trkpt>
      <trkpt lat="48.02274230" lon="8.220477100">
        <ele>980.00000</ele>
        <time>2008-10-29T21:06:50Z</time>
      </trkpt>
      <trkpt lat="48.02299980" lon="8.219318400">
        <ele>998.00000</ele>
        <time>2008-10-29T21:07:23Z</time>
      </trkpt>
      <trkpt lat="48.02308560" lon="8.218545900">
        <ele>997.00000</ele>
        <time>2008-10-29T21:07:44Z</time>
      </trkpt>
      <trkpt lat="48.02317140" lon="8.218030900">
        <ele>997.00000</ele>
        <time>2008-10-29T21:07:58Z</time>
      </trkpt>
      <trkpt lat="48.02347180" lon="8.216829300">
        <ele>1000.0000</ele>
        <time>2008-10-29T21:08:33Z</time>
      </trkpt>
      <trkpt lat="48.02381520" lon="8.215971000">
        <ele>1015.0000</ele>
        <time>2008-10-29T21:08:59Z</time>
      </trkpt>
      <trkpt lat="48.02398680" lon="8.215284300">
        <ele>1014.0000</ele>
        <time>2008-10-29T21:09:19Z</time>
      </trkpt>
      <trkpt lat="48.02441600" lon="8.212580700">
        <ele>1018.0000</ele>
        <time>2008-10-29T21:10:33Z</time>
      </trkpt>
      <trkpt lat="48.02450180" lon="8.211336100">
        <ele>1021.0000</ele>
        <time>2008-10-29T21:11:07Z</time>
      </trkpt>
      <trkpt lat="48.02433010" lon="8.210392000">
        <ele>1025.0000</ele>
        <time>2008-10-29T21:11:33Z</time>
      </trkpt>
      <trkpt lat="48.02420140" lon="8.209919900">
        <ele>1025.0000</ele>
        <time>2008-10-29T21:11:47Z</time>
      </trkpt>
      <trkpt lat="48.02317140" lon="8.206400900">
        <ele>1001.0000</ele>
        <time>2008-10-29T21:13:30Z</time>
      </trkpt>
      <trkpt lat="48.02308560" lon="8.205843000">
        <ele>998.00000</ele>
        <time>2008-10-29T21:13:45Z</time>
      </trkpt>
      <trkpt lat="48.02308560" lon="8.205542600">
        <ele>998.00000</ele>
        <time>2008-10-29T21:13:53Z</time>
      </trkpt>
      <trkpt lat="48.02317140" lon="8.204898800">
        <ele>988.00000</ele>
        <time>2008-10-29T21:14:11Z</time>
      </trkpt>
      <trkpt lat="48.02347180" lon="8.204169300">
        <ele>975.00000</ele>
        <time>2008-10-29T21:14:33Z</time>
      </trkpt>
      <trkpt lat="48.02385810" lon="8.203568500">
        <ele>966.00000</ele>
        <time>2008-10-29T21:14:56Z</time>
      </trkpt>
      <trkpt lat="48.02450180" lon="8.202967600">
        <ele>966.00000</ele>
        <time>2008-10-29T21:15:26Z</time>
      </trkpt>
      <trkpt lat="48.02510260" lon="8.202152300">
        <ele>959.00000</ele>
        <time>2008-10-29T21:15:59Z</time>
      </trkpt>
      <trkpt lat="48.02639010" lon="8.200693100">
        <ele>958.00000</ele>
        <time>2008-10-29T21:17:03Z</time>
      </trkpt>
      <trkpt lat="48.02724840" lon="8.200049400">
        <ele>955.00000</ele>
        <time>2008-10-29T21:17:42Z</time>
      </trkpt>
      <trkpt lat="48.02793500" lon="8.199491500">
        <ele>938.00000</ele>
        <time>2008-10-29T21:18:13Z</time>
      </trkpt>
      <trkpt lat="48.02823540" lon="8.199362800">
        <ele>938.00000</ele>
        <time>2008-10-29T21:18:26Z</time>
      </trkpt>
      <trkpt lat="48.02922250" lon="8.199234000">
        <ele>938.00000</ele>
        <time>2008-10-29T21:19:05Z</time>
      </trkpt>
      <trkpt lat="48.03038120" lon="8.198847800">
        <ele>936.00000</ele>
        <time>2008-10-29T21:19:53Z</time>
      </trkpt>
      <trkpt lat="48.03141120" lon="8.198118200">
        <ele>931.00000</ele>
        <time>2008-10-29T21:20:38Z</time>
      </trkpt>
      <trkpt lat="48.03359990" lon="8.196015400">
        <ele>907.00000</ele>
        <time>2008-10-29T21:22:22Z</time>
      </trkpt>
      <trkpt lat="48.03398610" lon="8.195757900">
        <ele>911.00000</ele>
        <time>2008-10-29T21:22:39Z</time>
      </trkpt>
      <trkpt lat="48.03497310" lon="8.195457500">
        <ele>897.00000</ele>
        <time>2008-10-29T21:23:20Z</time>
      </trkpt>
      <trkpt lat="48.03531650" lon="8.195242900">
        <ele>890.00000</ele>
        <time>2008-10-29T21:23:35Z</time>
      </trkpt>
      <trkpt lat="48.03600310" lon="8.194556200">
        <ele>893.00000</ele>
        <time>2008-10-29T21:24:08Z</time>
      </trkpt>
      <trkpt lat="48.03724770" lon="8.193140000">
        <ele>902.00000</ele>
        <time>2008-10-29T21:25:10Z</time>
      </trkpt>
      <trkpt lat="48.03836350" lon="8.192110100">
        <ele>898.00000</ele>
        <time>2008-10-29T21:26:03Z</time>
      </trkpt>
      <trkpt lat="48.03913590" lon="8.191037200">
        <ele>884.00000</ele>
        <time>2008-10-29T21:26:45Z</time>
      </trkpt>
      <trkpt lat="48.03935050" lon="8.190822600">
        <ele>884.00000</ele>
        <time>2008-10-29T21:26:55Z</time>
      </trkpt>
      <trkpt lat="48.03982260" lon="8.190608000">
        <ele>883.00000</ele>
        <time>2008-10-29T21:27:15Z</time>
      </trkpt>
      <trkpt lat="48.04158210" lon="8.190736800">
        <ele>890.00000</ele>
        <time>2008-10-29T21:28:26Z</time>
      </trkpt>
      <trkpt lat="48.04209710" lon="8.190865500">
        <ele>899.00000</ele>
        <time>2008-10-29T21:28:46Z</time>
      </trkpt>
      <trkpt lat="48.04256920" lon="8.191080100">
        <ele>899.00000</ele>
        <time>2008-10-29T21:29:06Z</time>
      </trkpt>
      <trkpt lat="48.04355620" lon="8.191766700">
        <ele>884.00000</ele>
        <time>2008-10-29T21:29:50Z</time>
      </trkpt>
      <trkpt lat="48.04381370" lon="8.191852600">
        <ele>882.00000</ele>
        <time>2008-10-29T21:30:00Z</time>
      </trkpt>
      <trkpt lat="48.04407120" lon="8.191809700">
        <ele>882.00000</ele>
        <time>2008-10-29T21:30:11Z</time>
      </trkpt>
      <trkpt lat="48.04428580" lon="8.191723800">
        <ele>882.00000</ele>
        <time>2008-10-29T21:30:20Z</time>
      </trkpt>
      <trkpt lat="48.04492950" lon="8.191466300">
        <ele>883.00000</ele>
        <time>2008-10-29T21:30:46Z</time>
      </trkpt>
      <trkpt lat="48.04475780" lon="8.190393400">
        <ele>890.00000</ele>
        <time>2008-10-29T21:31:16Z</time>
      </trkpt>
      <trkpt lat="48.04450040" lon="8.189578100">
        <ele>890.00000</ele>
        <time>2008-10-29T21:31:40Z</time>
      </trkpt>
      <trkpt lat="48.04419990" lon="8.186659800">
        <ele>900.00000</ele>
        <time>2008-10-29T21:32:59Z</time>
      </trkpt>
      <trkpt lat="48.04407120" lon="8.186359400">
        <ele>900.00000</ele>
        <time>2008-10-29T21:33:09Z</time>
      </trkpt>
      <trkpt lat="48.04381370" lon="8.186187700">
        <ele>901.00000</ele>
        <time>2008-10-29T21:33:20Z</time>
      </trkpt>
      <trkpt lat="48.04355620" lon="8.186273600">
        <ele>903.00000</ele>
        <time>2008-10-29T21:33:30Z</time>
      </trkpt>
      <trkpt lat="48.04342750" lon="8.186574000">
        <ele>903.00000</ele>
        <time>2008-10-29T21:33:40Z</time>
      </trkpt>
      <trkpt lat="48.04338460" lon="8.187689800">
        <ele>905.00000</ele>
        <time>2008-10-29T21:34:10Z</time>
      </trkpt>
      <trkpt lat="48.04342750" lon="8.189621000">
        <ele>907.00000</ele>
        <time>2008-10-29T21:35:02Z</time>
      </trkpt>
      <trkpt lat="48.04329870" lon="8.190050100">
        <ele>907.00000</ele>
        <time>2008-10-29T21:35:14Z</time>
      </trkpt>
      <trkpt lat="48.04312710" lon="8.190221800">
        <ele>907.00000</ele>
        <time>2008-10-29T21:35:22Z</time>
      </trkpt>
      <trkpt lat="48.04291250" lon="8.190221800">
        <ele>922.00000</ele>
        <time>2008-10-29T21:35:31Z</time>
      </trkpt>
      <trkpt lat="48.04209710" lon="8.189706800">
        <ele>922.00000</ele>
        <time>2008-10-29T21:36:06Z</time>
      </trkpt>
      <trkpt lat="48.04149630" lon="8.189449300">
        <ele>939.00000</ele>
        <time>2008-10-29T21:36:31Z</time>
      </trkpt>
      <trkpt lat="48.04111000" lon="8.189234700">
        <ele>924.00000</ele>
        <time>2008-10-29T21:36:48Z</time>
      </trkpt>
      <trkpt lat="48.04080960" lon="8.188805600">
        <ele>924.00000</ele>
        <time>2008-10-29T21:37:05Z</time>
      </trkpt>
      <trkpt lat="48.04016590" lon="8.187174800">
        <ele>938.00000</ele>
        <time>2008-10-29T21:37:55Z</time>
      </trkpt>
      <trkpt lat="48.04012300" lon="8.187089000">
        <ele>938.00000</ele>
        <time>2008-10-29T21:37:58Z</time>
      </trkpt>
      <trkpt lat="48.03982260" lon="8.186531100">
        <ele>942.00000</ele>
        <time>2008-10-29T21:38:17Z</time>
      </trkpt>
      <trkpt lat="48.03879260" lon="8.185029000">
        <ele>964.00000</ele>
        <time>2008-10-29T21:39:15Z</time>
      </trkpt>
      <trkpt lat="48.03857800" lon="8.184642800">
        <ele>945.00000</ele>
        <time>2008-10-29T21:39:28Z</time>
      </trkpt>
      <trkpt lat="48.03836350" lon="8.184299500">
        <ele>962.00000</ele>
        <time>2008-10-29T21:39:41Z</time>
      </trkpt>
      <trkpt lat="48.03819180" lon="8.183741600">
        <ele>974.00000</ele>
        <time>2008-10-29T21:39:57Z</time>
      </trkpt>
      <trkpt lat="48.03806300" lon="8.182067900">
        <ele>981.00000</ele>
        <time>2008-10-29T21:40:42Z</time>
      </trkpt>
      <trkpt lat="48.03814890" lon="8.178892100">
        <ele>987.00000</ele>
        <time>2008-10-29T21:42:08Z</time>
      </trkpt>
      <trkpt lat="48.03819180" lon="8.178119700">
        <ele>985.00000</ele>
        <time>2008-10-29T21:42:28Z</time>
      </trkpt>
      <trkpt lat="48.03832050" lon="8.176960900">
        <ele>988.00000</ele>
        <time>2008-10-29T21:43:00Z</time>
      </trkpt>
      <trkpt lat="48.03857800" lon="8.175973900">
        <ele>988.00000</ele>
        <time>2008-10-29T21:43:28Z</time>
      </trkpt>
      <trkpt lat="48.03900720" lon="8.174729300">
        <ele>987.00000</ele>
        <time>2008-10-29T21:44:06Z</time>
      </trkpt>
      <trkpt lat="48.03874970" lon="8.174600600">
        <ele>983.00000</ele>
        <time>2008-10-29T21:44:16Z</time>
      </trkpt>
      <trkpt lat="48.03853510" lon="8.174643500">
        <ele>983.00000</ele>
        <time>2008-10-29T21:44:25Z</time>
      </trkpt>
      <trkpt lat="48.03737640" lon="8.175416000">
        <ele>976.00000</ele>
        <time>2008-10-29T21:45:16Z</time>
      </trkpt>
      <trkpt lat="48.03660390" lon="8.175845100">
        <ele>985.00000</ele>
        <time>2008-10-29T21:45:49Z</time>
      </trkpt>
      <trkpt lat="48.03600310" lon="8.175973900">
        <ele>988.00000</ele>
        <time>2008-10-29T21:46:13Z</time>
      </trkpt>
      <trkpt lat="48.03596020" lon="8.175673500">
        <ele>988.00000</ele>
        <time>2008-10-29T21:46:21Z</time>
      </trkpt>
      <trkpt lat="48.03574560" lon="8.175416000">
        <ele>984.00000</ele>
        <time>2008-10-29T21:46:32Z</time>
      </trkpt>
      <trkpt lat="48.03518770" lon="8.175201400">
        <ele>992.00000</ele>
        <time>2008-10-29T21:46:55Z</time>
      </trkpt>
      <trkpt lat="48.03484440" lon="8.175158500">
        <ele>992.00000</ele>
        <time>2008-10-29T21:47:09Z</time>
      </trkpt>
      <trkpt lat="48.03359990" lon="8.175373100">
        <ele>988.00000</ele>
        <time>2008-10-29T21:47:59Z</time>
      </trkpt>
      <trkpt lat="48.03201200" lon="8.175287200">
        <ele>980.00000</ele>
        <time>2008-10-29T21:49:03Z</time>
      </trkpt>
      <trkpt lat="48.03171160" lon="8.175373100">
        <ele>980.00000</ele>
        <time>2008-10-29T21:49:15Z</time>
      </trkpt>
      <trkpt lat="48.03149700" lon="8.175501800">
        <ele>989.00000</ele>
        <time>2008-10-29T21:49:24Z</time>
      </trkpt>
      <trkpt lat="48.03102490" lon="8.175888100">
        <ele>974.00000</ele>
        <time>2008-10-29T21:49:46Z</time>
      </trkpt>
      <trkpt lat="48.03033830" lon="8.176960900">
        <ele>961.00000</ele>
        <time>2008-10-29T21:50:26Z</time>
      </trkpt>
      <trkpt lat="48.03016660" lon="8.177132600">
        <ele>980.00000</ele>
        <time>2008-10-29T21:50:34Z</time>
      </trkpt>
      <trkpt lat="48.02986620" lon="8.177218400">
        <ele>980.00000</ele>
        <time>2008-10-29T21:50:46Z</time>
      </trkpt>
      <trkpt lat="48.02879330" lon="8.176360100">
        <ele>974.00000</ele>
        <time>2008-10-29T21:51:35Z</time>
      </trkpt>
      <trkpt lat="48.02814960" lon="8.175888100">
        <ele>961.00000</ele>
        <time>2008-10-29T21:52:04Z</time>
      </trkpt>
      <trkpt lat="48.02772050" lon="8.175029800">
        <ele>971.00000</ele>
        <time>2008-10-29T21:52:32Z</time>
      </trkpt>
      <trkpt lat="48.02729130" lon="8.174557700">
        <ele>962.00000</ele>
        <time>2008-10-29T21:52:54Z</time>
      </trkpt>
      <trkpt lat="48.02669050" lon="8.174085600">
        <ele>969.00000</ele>
        <time>2008-10-29T21:53:21Z</time>
      </trkpt>
      <trkpt lat="48.02608970" lon="8.173613500">
        <ele>962.00000</ele>
        <time>2008-10-29T21:53:48Z</time>
      </trkpt>
      <trkpt lat="48.02570340" lon="8.173399000">
        <ele>962.00000</ele>
        <time>2008-10-29T21:54:05Z</time>
      </trkpt>
      <trkpt lat="48.02518840" lon="8.173356100">
        <ele>962.00000</ele>
        <time>2008-10-29T21:54:25Z</time>
      </trkpt>
      <trkpt lat="48.02501680" lon="8.173399000">
        <ele>962.00000</ele>
        <time>2008-10-29T21:54:32Z</time>
      </trkpt>
      <trkpt lat="48.02458760" lon="8.173699400">
        <ele>962.00000</ele>
        <time>2008-10-29T21:54:51Z</time>
      </trkpt>
      <trkpt lat="48.02441600" lon="8.173914000">
        <ele>960.00000</ele>
        <time>2008-10-29T21:55:00Z</time>
      </trkpt>
      <trkpt lat="48.02394390" lon="8.174686400">
        <ele>965.00000</ele>
        <time>2008-10-29T21:55:28Z</time>
      </trkpt>
      <trkpt lat="48.02351470" lon="8.175201400">
        <ele>958.00000</ele>
        <time>2008-10-29T21:55:50Z</time>
      </trkpt>
      <trkpt lat="48.02287100" lon="8.175373100">
        <ele>952.00000</ele>
        <time>2008-10-29T21:56:16Z</time>
      </trkpt>
      <trkpt lat="48.02192690" lon="8.175716400">
        <ele>953.00000</ele>
        <time>2008-10-29T21:56:55Z</time>
      </trkpt>
      <trkpt lat="48.02081110" lon="8.176274300">
        <ele>954.00000</ele>
        <time>2008-10-29T21:57:42Z</time>
      </trkpt>
      <trkpt lat="48.02051070" lon="8.176446000">
        <ele>954.00000</ele>
        <time>2008-10-29T21:57:55Z</time>
      </trkpt>
      <trkpt lat="48.01990990" lon="8.176531800">
        <ele>946.00000</ele>
        <time>2008-10-29T21:58:19Z</time>
      </trkpt>
      <trkpt lat="48.01956650" lon="8.176617600">
        <ele>941.00000</ele>
        <time>2008-10-29T21:58:33Z</time>
      </trkpt>
      <trkpt lat="48.01896570" lon="8.176918000">
        <ele>941.00000</ele>
        <time>2008-10-29T21:58:59Z</time>
      </trkpt>
      <trkpt lat="48.01789280" lon="8.177690500">
        <ele>926.00000</ele>
        <time>2008-10-29T21:59:46Z</time>
      </trkpt>
      <trkpt lat="48.01746370" lon="8.177948000">
        <ele>932.00000</ele>
        <time>2008-10-29T22:00:05Z</time>
      </trkpt>
      <trkpt lat="48.01716330" lon="8.178334200">
        <ele>932.00000</ele>
        <time>2008-10-29T22:00:21Z</time>
      </trkpt>
      <trkpt lat="48.01694870" lon="8.178978000">
        <ele>917.00000</ele>
        <time>2008-10-29T22:00:40Z</time>
      </trkpt>
      <trkpt lat="48.01682000" lon="8.179621700">
        <ele>917.00000</ele>
        <time>2008-10-29T22:00:58Z</time>
      </trkpt>
      <trkpt lat="48.01669120" lon="8.180694600">
        <ele>912.00000</ele>
        <time>2008-10-29T22:01:27Z</time>
      </trkpt>
      <trkpt lat="48.01682000" lon="8.181037900">
        <ele>912.00000</ele>
        <time>2008-10-29T22:01:38Z</time>
      </trkpt>
      <trkpt lat="48.01712040" lon="8.181510000">
        <ele>921.00000</ele>
        <time>2008-10-29T22:01:55Z</time>
      </trkpt>
      <trkpt lat="48.01712040" lon="8.181810400">
        <ele>921.00000</ele>
        <time>2008-10-29T22:02:03Z</time>
      </trkpt>
      <trkpt lat="48.01703450" lon="8.181939100">
        <ele>911.00000</ele>
        <time>2008-10-29T22:02:08Z</time>
      </trkpt>
      <trkpt lat="48.01686290" lon="8.181982000">
        <ele>911.00000</ele>
        <time>2008-10-29T22:02:15Z</time>
      </trkpt>
      <trkpt lat="48.01643370" lon="8.181810400">
        <ele>911.00000</ele>
        <time>2008-10-29T22:02:33Z</time>
      </trkpt>
      <trkpt lat="48.01591870" lon="8.181767500">
        <ele>903.00000</ele>
        <time>2008-10-29T22:02:53Z</time>
      </trkpt>
      <trkpt lat="48.01531790" lon="8.181939100">
        <ele>902.00000</ele>
        <time>2008-10-29T22:03:18Z</time>
      </trkpt>
      <trkpt lat="48.01454540" lon="8.182411200">
        <ele>904.00000</ele>
        <time>2008-10-29T22:03:51Z</time>
      </trkpt>
      <trkpt lat="48.01415920" lon="8.182539900">
        <ele>904.00000</ele>
        <time>2008-10-29T22:04:07Z</time>
      </trkpt>
      <trkpt lat="48.01373000" lon="8.182539900">
        <ele>887.00000</ele>
        <time>2008-10-29T22:04:24Z</time>
      </trkpt>
      <trkpt lat="48.01351550" lon="8.182582900">
        <ele>887.00000</ele>
        <time>2008-10-29T22:04:33Z</time>
      </trkpt>
      <trkpt lat="48.01330090" lon="8.182840300">
        <ele>887.00000</ele>
        <time>2008-10-29T22:04:44Z</time>
      </trkpt>
      <trkpt lat="48.01287170" lon="8.183655700">
        <ele>903.00000</ele>
        <time>2008-10-29T22:05:12Z</time>
      </trkpt>
      <trkpt lat="48.01270010" lon="8.184084900">
        <ele>899.00000</ele>
        <time>2008-10-29T22:05:25Z</time>
      </trkpt>
      <trkpt lat="48.01261430" lon="8.184170700">
        <ele>899.00000</ele>
        <time>2008-10-29T22:05:29Z</time>
      </trkpt>
      <trkpt lat="48.01257130" lon="8.184127800">
        <ele>899.00000</ele>
        <time>2008-10-29T22:05:31Z</time>
      </trkpt>
      <trkpt lat="48.01261430" lon="8.184299500">
        <ele>899.00000</ele>
        <time>2008-10-29T22:05:36Z</time>
      </trkpt>
      <trkpt lat="48.01231380" lon="8.185329400">
        <ele>898.00000</ele>
        <time>2008-10-29T22:06:06Z</time>
      </trkpt>
      <trkpt lat="48.01188470" lon="8.185501100">
        <ele>898.00000</ele>
        <time>2008-10-29T22:06:24Z</time>
      </trkpt>
      <trkpt lat="48.01149850" lon="8.185801500">
        <ele>898.00000</ele>
        <time>2008-10-29T22:06:42Z</time>
      </trkpt>
      <trkpt lat="48.01124100" lon="8.186574000">
        <ele>906.00000</ele>
        <time>2008-10-29T22:07:05Z</time>
      </trkpt>
      <trkpt lat="48.01111220" lon="8.186745600">
        <ele>906.00000</ele>
        <time>2008-10-29T22:07:12Z</time>
      </trkpt>
      <trkpt lat="48.00986770" lon="8.187003100">
        <ele>920.00000</ele>
        <time>2008-10-29T22:08:02Z</time>
      </trkpt>
      <trkpt lat="48.00961020" lon="8.187260600">
        <ele>918.00000</ele>
        <time>2008-10-29T22:08:14Z</time>
      </trkpt>
      <trkpt lat="48.00888060" lon="8.187775600">
        <ele>919.00000</ele>
        <time>2008-10-29T22:08:47Z</time>
      </trkpt>
      <trkpt lat="48.00772190" lon="8.188033100">
        <ele>925.00000</ele>
        <time>2008-10-29T22:09:33Z</time>
      </trkpt>
      <trkpt lat="48.00720690" lon="8.188676800">
        <ele>925.00000</ele>
        <time>2008-10-29T22:10:00Z</time>
      </trkpt>
      <trkpt lat="48.00613400" lon="8.189449300">
        <ele>943.00000</ele>
        <time>2008-10-29T22:10:48Z</time>
      </trkpt>
      <trkpt lat="48.00596240" lon="8.189706800">
        <ele>938.00000</ele>
        <time>2008-10-29T22:10:58Z</time>
      </trkpt>
      <trkpt lat="48.00583360" lon="8.190093000">
        <ele>938.00000</ele>
        <time>2008-10-29T22:11:09Z</time>
      </trkpt>
      <trkpt lat="48.00506110" lon="8.193440400">
        <ele>945.00000</ele>
        <time>2008-10-29T22:12:44Z</time>
      </trkpt>
      <trkpt lat="48.00480370" lon="8.194127100">
        <ele>952.00000</ele>
        <time>2008-10-29T22:13:05Z</time>
      </trkpt>
      <trkpt lat="48.00454620" lon="8.194642100">
        <ele>947.00000</ele>
        <time>2008-10-29T22:13:22Z</time>
      </trkpt>
      <trkpt lat="48.00433160" lon="8.194899600">
        <ele>947.00000</ele>
        <time>2008-10-29T22:13:33Z</time>
      </trkpt>
      <trkpt lat="48.00403120" lon="8.195071200">
        <ele>947.00000</ele>
        <time>2008-10-29T22:13:46Z</time>
      </trkpt>
      <trkpt lat="48.00373080" lon="8.195114100">
        <ele>951.00000</ele>
        <time>2008-10-29T22:13:58Z</time>
      </trkpt>
      <trkpt lat="48.00343040" lon="8.194985400">
        <ele>951.00000</ele>
        <time>2008-10-29T22:14:11Z</time>
      </trkpt>
      <trkpt lat="48.00282960" lon="8.194470400">
        <ele>947.00000</ele>
        <time>2008-10-29T22:14:39Z</time>
      </trkpt>
      <trkpt lat="48.00188540" lon="8.193912500">
        <ele>965.00000</ele>
        <time>2008-10-29T22:15:19Z</time>
      </trkpt>
      <trkpt lat="48.00111290" lon="8.193140000">
        <ele>970.00000</ele>
        <time>2008-10-29T22:15:56Z</time>
      </trkpt>
      <trkpt lat="48.00098420" lon="8.193225900">
        <ele>970.00000</ele>
        <time>2008-10-29T22:16:02Z</time>
      </trkpt>
      <trkpt lat="48.00094130" lon="8.193440400">
        <ele>970.00000</ele>
        <time>2008-10-29T22:16:08Z</time>
      </trkpt>
      <trkpt lat="48.00107000" lon="8.193697900">
        <ele>970.00000</ele>
        <time>2008-10-29T22:16:17Z</time>
      </trkpt>
      <trkpt lat="48.00179960" lon="8.194642100">
        <ele>993.00000</ele>
        <time>2008-10-29T22:16:55Z</time>
      </trkpt>
      <trkpt lat="48.00317290" lon="8.195843700">
        <ele>988.00000</ele>
        <time>2008-10-29T22:17:59Z</time>
      </trkpt>
      <trkpt lat="48.00364490" lon="8.196401600">
        <ele>1013.0000</ele>
        <time>2008-10-29T22:18:23Z</time>
      </trkpt>
      <trkpt lat="48.00411700" lon="8.196616200">
        <ele>1005.0000</ele>
        <time>2008-10-29T22:18:43Z</time>
      </trkpt>
      <trkpt lat="48.00523280" lon="8.196659100">
        <ele>1003.0000</ele>
        <time>2008-10-29T22:19:28Z</time>
      </trkpt>
      <trkpt lat="48.00557610" lon="8.196744900">
        <ele>1012.0000</ele>
        <time>2008-10-29T22:19:42Z</time>
      </trkpt>
      <trkpt lat="48.00566200" lon="8.196830700">
        <ele>1012.0000</ele>
        <time>2008-10-29T22:19:46Z</time>
      </trkpt>
      <trkpt lat="48.00561900" lon="8.196916600">
        <ele>1012.0000</ele>
        <time>2008-10-29T22:19:49Z</time>
      </trkpt>
      <trkpt lat="48.00484660" lon="8.196830700">
        <ele>1003.0000</ele>
        <time>2008-10-29T22:20:20Z</time>
      </trkpt>
      <trkpt lat="48.00343040" lon="8.197217000">
        <ele>1029.0000</ele>
        <time>2008-10-29T22:21:17Z</time>
      </trkpt>
      <trkpt lat="48.00287250" lon="8.196744900">
        <ele>1029.0000</ele>
        <time>2008-10-29T22:21:43Z</time>
      </trkpt>
      <trkpt lat="48.00257210" lon="8.196530300">
        <ele>1029.0000</ele>
        <time>2008-10-29T22:21:56Z</time>
      </trkpt>
      <trkpt lat="48.00210000" lon="8.196358700">
        <ele>1029.0000</ele>
        <time>2008-10-29T22:22:16Z</time>
      </trkpt>
      <trkpt lat="48.00175670" lon="8.196315800">
        <ele>1027.0000</ele>
        <time>2008-10-29T22:22:29Z</time>
      </trkpt>
      <trkpt lat="48.00154210" lon="8.196401600">
        <ele>1027.0000</ele>
        <time>2008-10-29T22:22:38Z</time>
      </trkpt>
      <trkpt lat="48.00124170" lon="8.196787800">
        <ele>1024.0000</ele>
        <time>2008-10-29T22:22:54Z</time>
      </trkpt>
      <trkpt lat="48.00107000" lon="8.196487400">
        <ele>1024.0000</ele>
        <time>2008-10-29T22:23:05Z</time>
      </trkpt>
      <trkpt lat="48.00076960" lon="8.196444500">
        <ele>1024.0000</ele>
        <time>2008-10-29T22:23:17Z</time>
      </trkpt>
      <trkpt lat="48.00008300" lon="8.196530300">
        <ele>1024.0000</ele>
        <time>2008-10-29T22:23:44Z</time>
      </trkpt>
      <trkpt lat="47.99986840" lon="8.196315800">
        <ele>1024.0000</ele>
        <time>2008-10-29T22:23:55Z</time>
      </trkpt>
      <trkpt lat="47.99982550" lon="8.196229900">
        <ele>1027.0000</ele>
        <time>2008-10-29T22:23:58Z</time>
      </trkpt>
      <trkpt lat="47.99956800" lon="8.195929500">
        <ele>1023.0000</ele>
        <time>2008-10-29T22:24:11Z</time>
      </trkpt>
      <trkpt lat="47.99883840" lon="8.195242900">
        <ele>1022.0000</ele>
        <time>2008-10-29T22:24:45Z</time>
      </trkpt>
      <trkpt lat="47.99823760" lon="8.194642100">
        <ele>1031.0000</ele>
        <time>2008-10-29T22:25:14Z</time>
      </trkpt>
      <trkpt lat="47.99806590" lon="8.193998300">
        <ele>1033.0000</ele>
        <time>2008-10-29T22:25:33Z</time>
      </trkpt>
      <trkpt lat="47.99810890" lon="8.193311700">
        <ele>1041.0000</ele>
        <time>2008-10-29T22:25:51Z</time>
      </trkpt>
      <trkpt lat="47.99828050" lon="8.192281700">
        <ele>1056.0000</ele>
        <time>2008-10-29T22:26:20Z</time>
      </trkpt>
      <trkpt lat="47.99823760" lon="8.191895500">
        <ele>1055.0000</ele>
        <time>2008-10-29T22:26:30Z</time>
      </trkpt>
      <trkpt lat="47.99815180" lon="8.191509200">
        <ele>1055.0000</ele>
        <time>2008-10-29T22:26:41Z</time>
      </trkpt>
      <trkpt lat="47.99643520" lon="8.188161800">
        <ele>1078.0000</ele>
        <time>2008-10-29T22:28:34Z</time>
      </trkpt>
      <trkpt lat="47.99489020" lon="8.186187700">
        <ele>1085.0000</ele>
        <time>2008-10-29T22:29:55Z</time>
      </trkpt>
      <trkpt lat="47.99471860" lon="8.185930300">
        <ele>1085.0000</ele>
        <time>2008-10-29T22:30:05Z</time>
      </trkpt>
      <trkpt lat="47.99446110" lon="8.185329400">
        <ele>1101.0000</ele>
        <time>2008-10-29T22:30:24Z</time>
      </trkpt>
      <trkpt lat="47.99420360" lon="8.184428200">
        <ele>1096.0000</ele>
        <time>2008-10-29T22:30:50Z</time>
      </trkpt>
      <trkpt lat="47.99377440" lon="8.182067900">
        <ele>1081.0000</ele>
        <time>2008-10-29T22:31:56Z</time>
      </trkpt>
      <trkpt lat="47.99364570" lon="8.181037900">
        <ele>1099.0000</ele>
        <time>2008-10-29T22:32:24Z</time>
      </trkpt>
      <trkpt lat="47.99364570" lon="8.179664600">
        <ele>1097.0000</ele>
        <time>2008-10-29T22:33:01Z</time>
      </trkpt>
      <trkpt lat="47.99394610" lon="8.176488900">
        <ele>1101.0000</ele>
        <time>2008-10-29T22:34:27Z</time>
      </trkpt>
      <trkpt lat="47.99394610" lon="8.175201400">
        <ele>1104.0000</ele>
        <time>2008-10-29T22:35:01Z</time>
      </trkpt>
      <trkpt lat="47.99390320" lon="8.174128500">
        <ele>1107.0000</ele>
        <time>2008-10-29T22:35:30Z</time>
      </trkpt>
      <trkpt lat="47.99325940" lon="8.170523600">
        <ele>1105.0000</ele>
        <time>2008-10-29T22:37:10Z</time>
      </trkpt>
      <trkpt lat="47.99313070" lon="8.168678300">
        <ele>1092.0000</ele>
        <time>2008-10-29T22:38:00Z</time>
      </trkpt>
      <trkpt lat="47.99291610" lon="8.167948700">
        <ele>1075.0000</ele>
        <time>2008-10-29T22:38:21Z</time>
      </trkpt>
      <trkpt lat="47.99270150" lon="8.167605400">
        <ele>1081.0000</ele>
        <time>2008-10-29T22:38:34Z</time>
      </trkpt>
      <trkpt lat="47.99162860" lon="8.165931700">
        <ele>1077.0000</ele>
        <time>2008-10-29T22:39:36Z</time>
      </trkpt>
      <trkpt lat="47.99098490" lon="8.164901700">
        <ele>1087.0000</ele>
        <time>2008-10-29T22:40:13Z</time>
      </trkpt>
      <trkpt lat="47.99059870" lon="8.164343800">
        <ele>1072.0000</ele>
        <time>2008-10-29T22:40:35Z</time>
      </trkpt>
      <trkpt lat="47.99012660" lon="8.163528400">
        <ele>1089.0000</ele>
        <time>2008-10-29T22:41:04Z</time>
      </trkpt>
      <trkpt lat="47.99008370" lon="8.163228000">
        <ele>1089.0000</ele>
        <time>2008-10-29T22:41:12Z</time>
      </trkpt>
      <trkpt lat="47.99008370" lon="8.162756000">
        <ele>1088.0000</ele>
        <time>2008-10-29T22:41:25Z</time>
      </trkpt>
      <trkpt lat="47.99016950" lon="8.162326800">
        <ele>1088.0000</ele>
        <time>2008-10-29T22:41:37Z</time>
      </trkpt>
      <trkpt lat="47.99042700" lon="8.161382700">
        <ele>1065.0000</ele>
        <time>2008-10-29T22:42:04Z</time>
      </trkpt>
      <trkpt lat="47.99064160" lon="8.160395600">
        <ele>1071.0000</ele>
        <time>2008-10-29T22:42:32Z</time>
      </trkpt>
      <trkpt lat="47.99098490" lon="8.159065200">
        <ele>1069.0000</ele>
        <time>2008-10-29T22:43:10Z</time>
      </trkpt>
      <trkpt lat="47.99175740" lon="8.157005300">
        <ele>1060.0000</ele>
        <time>2008-10-29T22:44:13Z</time>
      </trkpt>
      <trkpt lat="47.99184320" lon="8.156447400">
        <ele>1060.0000</ele>
        <time>2008-10-29T22:44:29Z</time>
      </trkpt>
      <trkpt lat="47.99180030" lon="8.155717800">
        <ele>1054.0000</ele>
        <time>2008-10-29T22:44:48Z</time>
      </trkpt>
      <trkpt lat="47.99171450" lon="8.155288700">
        <ele>1045.0000</ele>
        <time>2008-10-29T22:45:00Z</time>
      </trkpt>
      <trkpt lat="47.99137120" lon="8.154559100">
        <ele>1041.0000</ele>
        <time>2008-10-29T22:45:24Z</time>
      </trkpt>
      <trkpt lat="47.99115660" lon="8.153786700">
        <ele>1044.0000</ele>
        <time>2008-10-29T22:45:47Z</time>
      </trkpt>
      <trkpt lat="47.99085620" lon="8.153443300">
        <ele>1042.0000</ele>
        <time>2008-10-29T22:46:02Z</time>
      </trkpt>
      <trkpt lat="47.98999790" lon="8.152198800">
        <ele>1050.0000</ele>
        <time>2008-10-29T22:46:50Z</time>
      </trkpt>
      <trkpt lat="47.98952580" lon="8.151683800">
        <ele>1052.0000</ele>
        <time>2008-10-29T22:47:13Z</time>
      </trkpt>
      <trkpt lat="47.98810960" lon="8.151598000">
        <ele>1040.0000</ele>
        <time>2008-10-29T22:48:10Z</time>
      </trkpt>
      <trkpt lat="47.98776630" lon="8.151769600">
        <ele>1027.0000</ele>
        <time>2008-10-29T22:48:24Z</time>
      </trkpt>
      <trkpt lat="47.98738000" lon="8.152113000">
        <ele>1030.0000</ele>
        <time>2008-10-29T22:48:42Z</time>
      </trkpt>
      <trkpt lat="47.98682210" lon="8.153014200">
        <ele>1014.0000</ele>
        <time>2008-10-29T22:49:15Z</time>
      </trkpt>
      <trkpt lat="47.98609260" lon="8.152885400">
        <ele>1006.0000</ele>
        <time>2008-10-29T22:49:44Z</time>
      </trkpt>
      <trkpt lat="47.98549180" lon="8.152542100">
        <ele>1006.0000</ele>
        <time>2008-10-29T22:50:10Z</time>
      </trkpt>
      <trkpt lat="47.98493390" lon="8.152155900">
        <ele>1006.0000</ele>
        <time>2008-10-29T22:50:35Z</time>
      </trkpt>
      <trkpt lat="47.98476220" lon="8.152928400">
        <ele>999.00000</ele>
        <time>2008-10-29T22:50:57Z</time>
      </trkpt>
      <trkpt lat="47.98471930" lon="8.153271700">
        <ele>999.00000</ele>
        <time>2008-10-29T22:51:06Z</time>
      </trkpt>
      <trkpt lat="47.98476220" lon="8.153700800">
        <ele>999.00000</ele>
        <time>2008-10-29T22:51:18Z</time>
      </trkpt>
      <trkpt lat="47.98510550" lon="8.154730800">
        <ele>991.00000</ele>
        <time>2008-10-29T22:51:48Z</time>
      </trkpt>
      <trkpt lat="47.98510550" lon="8.155245800">
        <ele>991.00000</ele>
        <time>2008-10-29T22:52:02Z</time>
      </trkpt>
      <trkpt lat="47.98506260" lon="8.155503300">
        <ele>987.00000</ele>
        <time>2008-10-29T22:52:09Z</time>
      </trkpt>
      <trkpt lat="47.98489090" lon="8.155932400">
        <ele>987.00000</ele>
        <time>2008-10-29T22:52:23Z</time>
      </trkpt>
      <trkpt lat="47.98463340" lon="8.156275700">
        <ele>987.00000</ele>
        <time>2008-10-29T22:52:37Z</time>
      </trkpt>
      <trkpt lat="47.98398970" lon="8.156619100">
        <ele>988.00000</ele>
        <time>2008-10-29T22:53:04Z</time>
      </trkpt>
      <trkpt lat="47.98364640" lon="8.156962400">
        <ele>980.00000</ele>
        <time>2008-10-29T22:53:20Z</time>
      </trkpt>
      <trkpt lat="47.98338890" lon="8.157391500">
        <ele>987.00000</ele>
        <time>2008-10-29T22:53:36Z</time>
      </trkpt>
      <trkpt lat="47.98295970" lon="8.158464400">
        <ele>990.00000</ele>
        <time>2008-10-29T22:54:09Z</time>
      </trkpt>
      <trkpt lat="47.98287390" lon="8.158936500">
        <ele>976.00000</ele>
        <time>2008-10-29T22:54:23Z</time>
      </trkpt>
      <trkpt lat="47.98283100" lon="8.159194000">
        <ele>976.00000</ele>
        <time>2008-10-29T22:54:30Z</time>
      </trkpt>
      <trkpt lat="47.98283100" lon="8.159451500">
        <ele>976.00000</ele>
        <time>2008-10-29T22:54:37Z</time>
      </trkpt>
      <trkpt lat="47.98295970" lon="8.159880600">
        <ele>984.00000</ele>
        <time>2008-10-29T22:54:49Z</time>
      </trkpt>
      <trkpt lat="47.98330310" lon="8.160395600">
        <ele>984.00000</ele>
        <time>2008-10-29T22:55:09Z</time>
      </trkpt>
      <trkpt lat="47.98347470" lon="8.160781900">
        <ele>975.00000</ele>
        <time>2008-10-29T22:55:21Z</time>
      </trkpt>
      <trkpt lat="47.98356060" lon="8.161253900">
        <ele>972.00000</ele>
        <time>2008-10-29T22:55:34Z</time>
      </trkpt>
      <trkpt lat="47.98347470" lon="8.161683100">
        <ele>972.00000</ele>
        <time>2008-10-29T22:55:46Z</time>
      </trkpt>
      <trkpt lat="47.98330310" lon="8.162069300">
        <ele>972.00000</ele>
        <time>2008-10-29T22:55:59Z</time>
      </trkpt>
      <trkpt lat="47.98313140" lon="8.162155200">
        <ele>977.00000</ele>
        <time>2008-10-29T22:56:06Z</time>
      </trkpt>
      <trkpt lat="47.98244480" lon="8.162541400">
        <ele>972.00000</ele>
        <time>2008-10-29T22:56:35Z</time>
      </trkpt>
      <trkpt lat="47.98201560" lon="8.162884700">
        <ele>961.00000</ele>
        <time>2008-10-29T22:56:55Z</time>
      </trkpt>
      <trkpt lat="47.98171520" lon="8.163356800">
        <ele>963.00000</ele>
        <time>2008-10-29T22:57:12Z</time>
      </trkpt>
      <trkpt lat="47.98150060" lon="8.163871800">
        <ele>966.00000</ele>
        <time>2008-10-29T22:57:28Z</time>
      </trkpt>
      <trkpt lat="47.98141480" lon="8.164215100">
        <ele>966.00000</ele>
        <time>2008-10-29T22:57:38Z</time>
      </trkpt>
      <trkpt lat="47.98137190" lon="8.164730100">
        <ele>961.00000</ele>
        <time>2008-10-29T22:57:52Z</time>
      </trkpt>
      <trkpt lat="47.98141480" lon="8.165373800">
        <ele>961.00000</ele>
        <time>2008-10-29T22:58:09Z</time>
      </trkpt>
      <trkpt lat="47.98167230" lon="8.165931700">
        <ele>955.00000</ele>
        <time>2008-10-29T22:58:28Z</time>
      </trkpt>
      <trkpt lat="47.98188690" lon="8.166232100">
        <ele>955.00000</ele>
        <time>2008-10-29T22:58:39Z</time>
      </trkpt>
      <trkpt lat="47.98162940" lon="8.166618300">
        <ele>949.00000</ele>
        <time>2008-10-29T22:58:54Z</time>
      </trkpt>
      <trkpt lat="47.98137190" lon="8.166704200">
        <ele>949.00000</ele>
        <time>2008-10-29T22:59:05Z</time>
      </trkpt>
      <trkpt lat="47.98107150" lon="8.166747100">
        <ele>936.00000</ele>
        <time>2008-10-29T22:59:17Z</time>
      </trkpt>
      <trkpt lat="47.98085690" lon="8.166661300">
        <ele>936.00000</ele>
        <time>2008-10-29T22:59:25Z</time>
      </trkpt>
      <trkpt lat="47.98059940" lon="8.166446700">
        <ele>936.00000</ele>
        <time>2008-10-29T22:59:37Z</time>
      </trkpt>
      <trkpt lat="47.98042770" lon="8.166403800">
        <ele>936.00000</ele>
        <time>2008-10-29T22:59:44Z</time>
      </trkpt>
      <trkpt lat="47.98021320" lon="8.166446700">
        <ele>936.00000</ele>
        <time>2008-10-29T22:59:53Z</time>
      </trkpt>
      <trkpt lat="47.98017020" lon="8.167004600">
        <ele>936.00000</ele>
        <time>2008-10-29T23:00:08Z</time>
      </trkpt>
      <trkpt lat="47.97974110" lon="8.169236200">
        <ele>928.00000</ele>
        <time>2008-10-29T23:01:10Z</time>
      </trkpt>
      <trkpt lat="47.97956940" lon="8.169708300">
        <ele>932.00000</ele>
        <time>2008-10-29T23:01:25Z</time>
      </trkpt>
      <trkpt lat="47.97939780" lon="8.170094500">
        <ele>932.00000</ele>
        <time>2008-10-29T23:01:37Z</time>
      </trkpt>
      <trkpt lat="47.97901150" lon="8.170609500">
        <ele>925.00000</ele>
        <time>2008-10-29T23:01:58Z</time>
      </trkpt>
      <trkpt lat="47.97858240" lon="8.171081500">
        <ele>927.00000</ele>
        <time>2008-10-29T23:02:19Z</time>
      </trkpt>
      <trkpt lat="47.97862530" lon="8.173570600">
        <ele>915.00000</ele>
        <time>2008-10-29T23:03:26Z</time>
      </trkpt>
      <trkpt lat="47.97849660" lon="8.174085600">
        <ele>918.00000</ele>
        <time>2008-10-29T23:03:41Z</time>
      </trkpt>
      <trkpt lat="47.97823910" lon="8.174514800">
        <ele>918.00000</ele>
        <time>2008-10-29T23:03:56Z</time>
      </trkpt>
      <trkpt lat="47.97815320" lon="8.174729300">
        <ele>924.00000</ele>
        <time>2008-10-29T23:04:03Z</time>
      </trkpt>
      <trkpt lat="47.97819610" lon="8.174986800">
        <ele>924.00000</ele>
        <time>2008-10-29T23:04:10Z</time>
      </trkpt>
      <trkpt lat="47.97793870" lon="8.175115600">
        <ele>924.00000</ele>
        <time>2008-10-29T23:04:21Z</time>
      </trkpt>
      <trkpt lat="47.97733780" lon="8.175630600">
        <ele>924.00000</ele>
        <time>2008-10-29T23:04:48Z</time>
      </trkpt>
      <trkpt lat="47.97575000" lon="8.177390100">
        <ele>924.00000</ele>
        <time>2008-10-29T23:06:07Z</time>
      </trkpt>
      <trkpt lat="47.97347550" lon="8.179278400">
        <ele>907.00000</ele>
        <time>2008-10-29T23:07:52Z</time>
      </trkpt>
      <trkpt lat="47.97278880" lon="8.179836300">
        <ele>908.00000</ele>
        <time>2008-10-29T23:08:23Z</time>
      </trkpt>
      <trkpt lat="47.97227380" lon="8.180050800">
        <ele>908.00000</ele>
        <time>2008-10-29T23:08:44Z</time>
      </trkpt>
      <trkpt lat="47.97141550" lon="8.180351300">
        <ele>901.00000</ele>
        <time>2008-10-29T23:09:20Z</time>
      </trkpt>
      <trkpt lat="47.97064300" lon="8.180952100">
        <ele>904.00000</ele>
        <time>2008-10-29T23:09:55Z</time>
      </trkpt>
      <trkpt lat="47.97038560" lon="8.181295400">
        <ele>903.00000</ele>
        <time>2008-10-29T23:10:08Z</time>
      </trkpt>
      <trkpt lat="47.96978470" lon="8.181982000">
        <ele>903.00000</ele>
        <time>2008-10-29T23:10:39Z</time>
      </trkpt>
      <trkpt lat="47.96922680" lon="8.182797400">
        <ele>898.00000</ele>
        <time>2008-10-29T23:11:10Z</time>
      </trkpt>
      <trkpt lat="47.96828270" lon="8.184042000">
        <ele>904.00000</ele>
        <time>2008-10-29T23:12:00Z</time>
      </trkpt>
      <trkpt lat="47.96798230" lon="8.184642800">
        <ele>911.00000</ele>
        <time>2008-10-29T23:12:20Z</time>
      </trkpt>
      <trkpt lat="47.96759610" lon="8.185157800">
        <ele>897.00000</ele>
        <time>2008-10-29T23:12:41Z</time>
      </trkpt>
      <trkpt lat="47.96562190" lon="8.187303500">
        <ele>896.00000</ele>
        <time>2008-10-29T23:14:19Z</time>
      </trkpt>
      <trkpt lat="47.96523570" lon="8.187775600">
        <ele>891.00000</ele>
        <time>2008-10-29T23:14:39Z</time>
      </trkpt>
      <trkpt lat="47.96493530" lon="8.188290600">
        <ele>895.00000</ele>
        <time>2008-10-29T23:14:57Z</time>
      </trkpt>
      <trkpt lat="47.96476360" lon="8.188676800">
        <ele>895.00000</ele>
        <time>2008-10-29T23:15:10Z</time>
      </trkpt>
      <trkpt lat="47.96373370" lon="8.191080100">
        <ele>884.00000</ele>
        <time>2008-10-29T23:16:26Z</time>
      </trkpt>
      <trkpt lat="47.96197410" lon="8.193783800">
        <ele>880.00000</ele>
        <time>2008-10-29T23:18:07Z</time>
      </trkpt>
      <trkpt lat="47.96103000" lon="8.195371600">
        <ele>878.00000</ele>
        <time>2008-10-29T23:19:04Z</time>
      </trkpt>
      <trkpt lat="47.96051500" lon="8.196272900">
        <ele>889.00000</ele>
        <time>2008-10-29T23:19:36Z</time>
      </trkpt>
      <trkpt lat="47.96021460" lon="8.196659100">
        <ele>879.00000</ele>
        <time>2008-10-29T23:19:52Z</time>
      </trkpt>
      <trkpt lat="47.95991420" lon="8.196830700">
        <ele>879.00000</ele>
        <time>2008-10-29T23:20:05Z</time>
      </trkpt>
      <trkpt lat="47.95948510" lon="8.196916600">
        <ele>877.00000</ele>
        <time>2008-10-29T23:20:22Z</time>
      </trkpt>
      <trkpt lat="47.95854090" lon="8.196873700">
        <ele>876.00000</ele>
        <time>2008-10-29T23:21:00Z</time>
      </trkpt>
      <trkpt lat="47.95794010" lon="8.197045300">
        <ele>876.00000</ele>
        <time>2008-10-29T23:21:24Z</time>
      </trkpt>
      <trkpt lat="47.95725350" lon="8.197431600">
        <ele>880.00000</ele>
        <time>2008-10-29T23:21:54Z</time>
      </trkpt>
      <trkpt lat="47.95643810" lon="8.197946500">
        <ele>882.00000</ele>
        <time>2008-10-29T23:22:29Z</time>
      </trkpt>
      <trkpt lat="47.95583720" lon="8.198032400">
        <ele>878.00000</ele>
        <time>2008-10-29T23:22:53Z</time>
      </trkpt>
      <trkpt lat="47.95532230" lon="8.197903600">
        <ele>869.00000</ele>
        <time>2008-10-29T23:23:14Z</time>
      </trkpt>
      <trkpt lat="47.95497890" lon="8.197646100">
        <ele>869.00000</ele>
        <time>2008-10-29T23:23:29Z</time>
      </trkpt>
      <trkpt lat="47.95459270" lon="8.197217000">
        <ele>869.00000</ele>
        <time>2008-10-29T23:23:49Z</time>
      </trkpt>
      <trkpt lat="47.95407770" lon="8.196315800">
        <ele>867.00000</ele>
        <time>2008-10-29T23:24:20Z</time>
      </trkpt>
      <trkpt lat="47.95377730" lon="8.195972400">
        <ele>871.00000</ele>
        <time>2008-10-29T23:24:36Z</time>
      </trkpt>
      <trkpt lat="47.95343400" lon="8.195757900">
        <ele>871.00000</ele>
        <time>2008-10-29T23:24:50Z</time>
      </trkpt>
      <trkpt lat="47.95309070" lon="8.195715000">
        <ele>871.00000</ele>
        <time>2008-10-29T23:25:04Z</time>
      </trkpt>
      <trkpt lat="47.95270440" lon="8.195886600">
        <ele>870.00000</ele>
        <time>2008-10-29T23:25:20Z</time>
      </trkpt>
      <trkpt lat="47.95163150" lon="8.197088200">
        <ele>866.00000</ele>
        <time>2008-10-29T23:26:14Z</time>
      </trkpt>
      <trkpt lat="47.95085910" lon="8.197560300">
        <ele>865.00000</ele>
        <time>2008-10-29T23:26:47Z</time>
      </trkpt>
      <trkpt lat="47.95012950" lon="8.197646100">
        <ele>866.00000</ele>
        <time>2008-10-29T23:27:17Z</time>
      </trkpt>
      <trkpt lat="47.94909950" lon="8.197431600">
        <ele>865.00000</ele>
        <time>2008-10-29T23:27:58Z</time>
      </trkpt>
      <trkpt lat="47.94867040" lon="8.197431600">
        <ele>864.00000</ele>
        <time>2008-10-29T23:28:16Z</time>
      </trkpt>
      <trkpt lat="47.94824120" lon="8.197560300">
        <ele>864.00000</ele>
        <time>2008-10-29T23:28:33Z</time>
      </trkpt>
      <trkpt lat="47.94686790" lon="8.198204000">
        <ele>866.00000</ele>
        <time>2008-10-29T23:29:31Z</time>
      </trkpt>
      <trkpt lat="47.94592380" lon="8.198761900">
        <ele>864.00000</ele>
        <time>2008-10-29T23:30:11Z</time>
      </trkpt>
      <trkpt lat="47.94523720" lon="8.199319800">
        <ele>865.00000</ele>
        <time>2008-10-29T23:30:43Z</time>
      </trkpt>
      <trkpt lat="47.94463630" lon="8.199448600">
        <ele>865.00000</ele>
        <time>2008-10-29T23:31:07Z</time>
      </trkpt>
      <trkpt lat="47.94442180" lon="8.199577300">
        <ele>869.00000</ele>
        <time>2008-10-29T23:31:16Z</time>
      </trkpt>
      <trkpt lat="47.94399260" lon="8.200135200">
        <ele>860.00000</ele>
        <time>2008-10-29T23:31:39Z</time>
      </trkpt>
      <trkpt lat="47.94369220" lon="8.200392700">
        <ele>867.00000</ele>
        <time>2008-10-29T23:31:53Z</time>
      </trkpt>
      <trkpt lat="47.94339180" lon="8.200564400">
        <ele>857.00000</ele>
        <time>2008-10-29T23:32:06Z</time>
      </trkpt>
      <trkpt lat="47.94197560" lon="8.201036500">
        <ele>862.00000</ele>
        <time>2008-10-29T23:33:04Z</time>
      </trkpt>
      <trkpt lat="47.94171810" lon="8.201079400">
        <ele>862.00000</ele>
        <time>2008-10-29T23:33:14Z</time>
      </trkpt>
      <trkpt lat="47.94124600" lon="8.200907700">
        <ele>853.00000</ele>
        <time>2008-10-29T23:33:34Z</time>
      </trkpt>
      <trkpt lat="47.94051650" lon="8.200650200">
        <ele>853.00000</ele>
        <time>2008-10-29T23:34:04Z</time>
      </trkpt>
      <trkpt lat="47.94021610" lon="8.200435600">
        <ele>848.00000</ele>
        <time>2008-10-29T23:34:17Z</time>
      </trkpt>
      <trkpt lat="47.93995860" lon="8.200092300">
        <ele>858.00000</ele>
        <time>2008-10-29T23:34:31Z</time>
      </trkpt>
      <trkpt lat="47.93952940" lon="8.199276900">
        <ele>849.00000</ele>
        <time>2008-10-29T23:34:59Z</time>
      </trkpt>
      <trkpt lat="47.93910030" lon="8.198804900">
        <ele>849.00000</ele>
        <time>2008-10-29T23:35:20Z</time>
      </trkpt>
      <trkpt lat="47.93849950" lon="8.198418600">
        <ele>849.00000</ele>
        <time>2008-10-29T23:35:46Z</time>
      </trkpt>
      <trkpt lat="47.93789860" lon="8.198204000">
        <ele>847.00000</ele>
        <time>2008-10-29T23:36:11Z</time>
      </trkpt>
      <trkpt lat="47.93583870" lon="8.197946500">
        <ele>845.00000</ele>
        <time>2008-10-29T23:37:34Z</time>
      </trkpt>
      <trkpt lat="47.93450830" lon="8.197774900">
        <ele>843.00000</ele>
        <time>2008-10-29T23:38:27Z</time>
      </trkpt>
      <trkpt lat="47.93395040" lon="8.197603200">
        <ele>843.00000</ele>
        <time>2008-10-29T23:38:50Z</time>
      </trkpt>
      <trkpt lat="47.93322090" lon="8.197088200">
        <ele>856.00000</ele>
        <time>2008-10-29T23:39:22Z</time>
      </trkpt>
      <trkpt lat="47.93283460" lon="8.196573300">
        <ele>860.00000</ele>
        <time>2008-10-29T23:39:43Z</time>
      </trkpt>
      <trkpt lat="47.93257710" lon="8.196015400">
        <ele>849.00000</ele>
        <time>2008-10-29T23:40:01Z</time>
      </trkpt>
      <trkpt lat="47.93231960" lon="8.194599200">
        <ele>847.00000</ele>
        <time>2008-10-29T23:40:40Z</time>
      </trkpt>
      <trkpt lat="47.93210510" lon="8.194127100">
        <ele>844.00000</ele>
        <time>2008-10-29T23:40:56Z</time>
      </trkpt>
      <trkpt lat="47.93116090" lon="8.192882500">
        <ele>844.00000</ele>
        <time>2008-10-29T23:41:46Z</time>
      </trkpt>
      <trkpt lat="47.93051720" lon="8.192539200">
        <ele>844.00000</ele>
        <time>2008-10-29T23:42:14Z</time>
      </trkpt>
      <trkpt lat="47.93017390" lon="8.192410500">
        <ele>866.00000</ele>
        <time>2008-10-29T23:42:28Z</time>
      </trkpt>
      <trkpt lat="47.92897220" lon="8.191938400">
        <ele>847.00000</ele>
        <time>2008-10-29T23:43:17Z</time>
      </trkpt>
      <trkpt lat="47.92841430" lon="8.191895500">
        <ele>856.00000</ele>
        <time>2008-10-29T23:43:40Z</time>
      </trkpt>
      <trkpt lat="47.92807100" lon="8.192024200">
        <ele>856.00000</ele>
        <time>2008-10-29T23:43:54Z</time>
      </trkpt>
      <trkpt lat="47.92712690" lon="8.192496300">
        <ele>866.00000</ele>
        <time>2008-10-29T23:44:34Z</time>
      </trkpt>
      <trkpt lat="47.92579650" lon="8.192839600">
        <ele>853.00000</ele>
        <time>2008-10-29T23:45:28Z</time>
      </trkpt>
      <trkpt lat="47.92545320" lon="8.193011300">
        <ele>869.00000</ele>
        <time>2008-10-29T23:45:42Z</time>
      </trkpt>
      <trkpt lat="47.92506690" lon="8.193397500">
        <ele>843.00000</ele>
        <time>2008-10-29T23:46:01Z</time>
      </trkpt>
      <trkpt lat="47.92463780" lon="8.193869600">
        <ele>856.00000</ele>
        <time>2008-10-29T23:46:22Z</time>
      </trkpt>
      <trkpt lat="47.92420860" lon="8.194212900">
        <ele>834.00000</ele>
        <time>2008-10-29T23:46:42Z</time>
      </trkpt>
      <trkpt lat="47.92403700" lon="8.194255800">
        <ele>834.00000</ele>
        <time>2008-10-29T23:46:49Z</time>
      </trkpt>
      <trkpt lat="47.92360780" lon="8.194170000">
        <ele>825.00000</ele>
        <time>2008-10-29T23:47:06Z</time>
      </trkpt>
      <trkpt lat="47.92335030" lon="8.195586200">
        <ele>831.00000</ele>
        <time>2008-10-29T23:47:45Z</time>
      </trkpt>
      <trkpt lat="47.92330740" lon="8.196101200">
        <ele>831.00000</ele>
        <time>2008-10-29T23:47:59Z</time>
      </trkpt>
      <trkpt lat="47.92296410" lon="8.198418600">
        <ele>834.00000</ele>
        <time>2008-10-29T23:49:03Z</time>
      </trkpt>
      <trkpt lat="47.92210580" lon="8.200478600">
        <ele>832.00000</ele>
        <time>2008-10-29T23:50:08Z</time>
      </trkpt>
      <trkpt lat="47.92043210" lon="8.203740100">
        <ele>834.00000</ele>
        <time>2008-10-29T23:51:58Z</time>
      </trkpt>
      <trkpt lat="47.92038920" lon="8.203911800">
        <ele>827.00000</ele>
        <time>2008-10-29T23:52:03Z</time>
      </trkpt>
      <trkpt lat="47.92008880" lon="8.204426800">
        <ele>827.00000</ele>
        <time>2008-10-29T23:52:22Z</time>
      </trkpt>
      <trkpt lat="47.91970250" lon="8.204941700">
        <ele>830.00000</ele>
        <time>2008-10-29T23:52:42Z</time>
      </trkpt>
      <trkpt lat="47.91798590" lon="8.206958800">
        <ele>826.00000</ele>
        <time>2008-10-29T23:54:10Z</time>
      </trkpt>
      <trkpt lat="47.91721340" lon="8.207731200">
        <ele>824.00000</ele>
        <time>2008-10-29T23:54:47Z</time>
      </trkpt>
      <trkpt lat="47.91652680" lon="8.208417900">
        <ele>825.00000</ele>
        <time>2008-10-29T23:55:20Z</time>
      </trkpt>
      <trkpt lat="47.91626930" lon="8.208546600">
        <ele>825.00000</ele>
        <time>2008-10-29T23:55:31Z</time>
      </trkpt>
      <trkpt lat="47.91601180" lon="8.208589600">
        <ele>819.00000</ele>
        <time>2008-10-29T23:55:41Z</time>
      </trkpt>
      <trkpt lat="47.91498180" lon="8.208589600">
        <ele>815.00000</ele>
        <time>2008-10-29T23:56:23Z</time>
      </trkpt>
      <trkpt lat="47.91476730" lon="8.208675400">
        <ele>815.00000</ele>
        <time>2008-10-29T23:56:31Z</time>
      </trkpt>
      <trkpt lat="47.91459560" lon="8.208847000">
        <ele>833.00000</ele>
        <time>2008-10-29T23:56:40Z</time>
      </trkpt>
      <trkpt lat="47.91382310" lon="8.210005800">
        <ele>828.00000</ele>
        <time>2008-10-29T23:57:24Z</time>
      </trkpt>
      <trkpt lat="47.91339400" lon="8.210778200">
        <ele>820.00000</ele>
        <time>2008-10-29T23:57:50Z</time>
      </trkpt>
      <trkpt lat="47.91275020" lon="8.212752300">
        <ele>818.00000</ele>
        <time>2008-10-29T23:58:49Z</time>
      </trkpt>
      <trkpt lat="47.91249280" lon="8.213396100">
        <ele>824.00000</ele>
        <time>2008-10-29T23:59:10Z</time>
      </trkpt>
      <trkpt lat="47.91240690" lon="8.213524800">
        <ele>824.00000</ele>
        <time>2008-10-29T23:59:14Z</time>
      </trkpt>
      <trkpt lat="47.91193490" lon="8.214039800">
        <ele>820.00000</ele>
        <time>2008-10-29T23:59:38Z</time>
      </trkpt>
      <trkpt lat="47.91180610" lon="8.214211500">
        <ele>820.00000</ele>
        <time>2008-10-29T23:59:45Z</time>
      </trkpt>
      <trkpt lat="47.91111950" lon="8.214941000">
        <ele>807.00000</ele>
        <time>2008-10-30T00:00:18Z</time>
      </trkpt>
      <trkpt lat="47.91064740" lon="8.215885200">
        <ele>805.00000</ele>
        <time>2008-10-30T00:00:50Z</time>
      </trkpt>
      <trkpt lat="47.91034700" lon="8.216614700">
        <ele>804.00000</ele>
        <time>2008-10-30T00:01:13Z</time>
      </trkpt>
      <trkpt lat="47.91017530" lon="8.217129700">
        <ele>806.00000</ele>
        <time>2008-10-30T00:01:28Z</time>
      </trkpt>
      <trkpt lat="47.90888790" lon="8.220176700">
        <ele>813.00000</ele>
        <time>2008-10-30T00:03:05Z</time>
      </trkpt>
      <trkpt lat="47.90867330" lon="8.221464200">
        <ele>804.00000</ele>
        <time>2008-10-30T00:03:41Z</time>
      </trkpt>
      <trkpt lat="47.90824410" lon="8.223009100">
        <ele>815.00000</ele>
        <time>2008-10-30T00:04:26Z</time>
      </trkpt>
      <trkpt lat="47.90807250" lon="8.223867400">
        <ele>817.00000</ele>
        <time>2008-10-30T00:04:50Z</time>
      </trkpt>
      <trkpt lat="47.90781500" lon="8.224854500">
        <ele>806.00000</ele>
        <time>2008-10-30T00:05:18Z</time>
      </trkpt>
      <trkpt lat="47.90730000" lon="8.226141900">
        <ele>811.00000</ele>
        <time>2008-10-30T00:05:58Z</time>
      </trkpt>
      <trkpt lat="47.90691380" lon="8.227515200">
        <ele>805.00000</ele>
        <time>2008-10-30T00:06:38Z</time>
      </trkpt>
      <trkpt lat="47.90669920" lon="8.228030200">
        <ele>808.00000</ele>
        <time>2008-10-30T00:06:54Z</time>
      </trkpt>
      <trkpt lat="47.90635590" lon="8.228373500">
        <ele>808.00000</ele>
        <time>2008-10-30T00:07:11Z</time>
      </trkpt>
      <trkpt lat="47.90618420" lon="8.228416400">
        <ele>800.00000</ele>
        <time>2008-10-30T00:07:18Z</time>
      </trkpt>
      <trkpt lat="47.90596960" lon="8.228631000">
        <ele>800.00000</ele>
        <time>2008-10-30T00:07:28Z</time>
      </trkpt>
      <trkpt lat="47.90584090" lon="8.229746800">
        <ele>805.00000</ele>
        <time>2008-10-30T00:07:59Z</time>
      </trkpt>
      <trkpt lat="47.90571210" lon="8.230347600">
        <ele>805.00000</ele>
        <time>2008-10-30T00:08:16Z</time>
      </trkpt>
      <trkpt lat="47.90528300" lon="8.231506300">
        <ele>794.00000</ele>
        <time>2008-10-30T00:08:51Z</time>
      </trkpt>
      <trkpt lat="47.90519710" lon="8.231935500">
        <ele>794.00000</ele>
        <time>2008-10-30T00:09:03Z</time>
      </trkpt>
      <trkpt lat="47.90511130" lon="8.232665100">
        <ele>796.00000</ele>
        <time>2008-10-30T00:09:23Z</time>
      </trkpt>
      <trkpt lat="47.90493970" lon="8.234810800">
        <ele>808.00000</ele>
        <time>2008-10-30T00:10:21Z</time>
      </trkpt>
      <trkpt lat="47.90476800" lon="8.235454600">
        <ele>822.00000</ele>
        <time>2008-10-30T00:10:40Z</time>
      </trkpt>
      <trkpt lat="47.90322300" lon="8.238115300">
        <ele>810.00000</ele>
        <time>2008-10-30T00:12:14Z</time>
      </trkpt>
      <trkpt lat="47.90287970" lon="8.238329900">
        <ele>800.00000</ele>
        <time>2008-10-30T00:12:29Z</time>
      </trkpt>
      <trkpt lat="47.90215020" lon="8.239402800">
        <ele>809.00000</ele>
        <time>2008-10-30T00:13:10Z</time>
      </trkpt>
      <trkpt lat="47.90172100" lon="8.239917800">
        <ele>801.00000</ele>
        <time>2008-10-30T00:13:32Z</time>
      </trkpt>
      <trkpt lat="47.90073390" lon="8.240819000">
        <ele>797.00000</ele>
        <time>2008-10-30T00:14:18Z</time>
      </trkpt>
      <trkpt lat="47.89858820" lon="8.242535600">
        <ele>801.00000</ele>
        <time>2008-10-30T00:15:56Z</time>
      </trkpt>
      <trkpt lat="47.89794450" lon="8.243308100">
        <ele>810.00000</ele>
        <time>2008-10-30T00:16:29Z</time>
      </trkpt>
      <trkpt lat="47.89760110" lon="8.243565600">
        <ele>801.00000</ele>
        <time>2008-10-30T00:16:44Z</time>
      </trkpt>
      <trkpt lat="47.89687160" lon="8.243951800">
        <ele>802.00000</ele>
        <time>2008-10-30T00:17:15Z</time>
      </trkpt>
      <trkpt lat="47.89622780" lon="8.244466800">
        <ele>799.00000</ele>
        <time>2008-10-30T00:17:45Z</time>
      </trkpt>
      <trkpt lat="47.89588450" lon="8.244681400">
        <ele>806.00000</ele>
        <time>2008-10-30T00:17:59Z</time>
      </trkpt>
      <trkpt lat="47.89545540" lon="8.244767200">
        <ele>806.00000</ele>
        <time>2008-10-30T00:18:17Z</time>
      </trkpt>
      <trkpt lat="47.89489750" lon="8.244724300">
        <ele>794.00000</ele>
        <time>2008-10-30T00:18:39Z</time>
      </trkpt>
      <trkpt lat="47.89459710" lon="8.244681400">
        <ele>794.00000</ele>
        <time>2008-10-30T00:18:51Z</time>
      </trkpt>
      <trkpt lat="47.89399620" lon="8.244209300">
        <ele>794.00000</ele>
        <time>2008-10-30T00:19:18Z</time>
      </trkpt>
      <trkpt lat="47.89361000" lon="8.243994700">
        <ele>793.00000</ele>
        <time>2008-10-30T00:19:35Z</time>
      </trkpt>
      <trkpt lat="47.89227960" lon="8.243694300">
        <ele>808.00000</ele>
        <time>2008-10-30T00:20:29Z</time>
      </trkpt>
      <trkpt lat="47.89124970" lon="8.243608500">
        <ele>797.00000</ele>
        <time>2008-10-30T00:21:10Z</time>
      </trkpt>
      <trkpt lat="47.89064880" lon="8.243780100">
        <ele>792.00000</ele>
        <time>2008-10-30T00:21:35Z</time>
      </trkpt>
      <trkpt lat="47.89000510" lon="8.243823100">
        <ele>790.00000</ele>
        <time>2008-10-30T00:22:00Z</time>
      </trkpt>
      <trkpt lat="47.88953300" lon="8.243951800">
        <ele>798.00000</ele>
        <time>2008-10-30T00:22:20Z</time>
      </trkpt>
      <trkpt lat="47.88910390" lon="8.244295100">
        <ele>798.00000</ele>
        <time>2008-10-30T00:22:39Z</time>
      </trkpt>
      <trkpt lat="47.88850310" lon="8.245024700">
        <ele>798.00000</ele>
        <time>2008-10-30T00:23:10Z</time>
      </trkpt>
      <trkpt lat="47.88811680" lon="8.245496700">
        <ele>795.00000</ele>
        <time>2008-10-30T00:23:30Z</time>
      </trkpt>
      <trkpt lat="47.88760190" lon="8.246269200">
        <ele>789.00000</ele>
        <time>2008-10-30T00:23:59Z</time>
      </trkpt>
      <trkpt lat="47.88627150" lon="8.249101600">
        <ele>782.00000</ele>
        <time>2008-10-30T00:25:32Z</time>
      </trkpt>
      <trkpt lat="47.88524150" lon="8.250303300">
        <ele>805.00000</ele>
        <time>2008-10-30T00:26:24Z</time>
      </trkpt>
      <trkpt lat="47.88455490" lon="8.251161600">
        <ele>804.00000</ele>
        <time>2008-10-30T00:27:00Z</time>
      </trkpt>
      <trkpt lat="47.88442610" lon="8.251376200">
        <ele>790.00000</ele>
        <time>2008-10-30T00:27:08Z</time>
      </trkpt>
      <trkpt lat="47.88416860" lon="8.251547800">
        <ele>790.00000</ele>
        <time>2008-10-30T00:27:19Z</time>
      </trkpt>
      <trkpt lat="47.88391110" lon="8.251547800">
        <ele>790.00000</ele>
        <time>2008-10-30T00:27:30Z</time>
      </trkpt>
      <trkpt lat="47.88356780" lon="8.251504900">
        <ele>785.00000</ele>
        <time>2008-10-30T00:27:43Z</time>
      </trkpt>
      <trkpt lat="47.88318160" lon="8.251333200">
        <ele>785.00000</ele>
        <time>2008-10-30T00:28:00Z</time>
      </trkpt>
      <trkpt lat="47.88262370" lon="8.250904100">
        <ele>801.00000</ele>
        <time>2008-10-30T00:28:25Z</time>
      </trkpt>
      <trkpt lat="47.88249490" lon="8.251032800">
        <ele>801.00000</ele>
        <time>2008-10-30T00:28:31Z</time>
      </trkpt>
      <trkpt lat="47.88232330" lon="8.250947000">
        <ele>801.00000</ele>
        <time>2008-10-30T00:28:38Z</time>
      </trkpt>
      <trkpt lat="47.88052080" lon="8.249745400">
        <ele>788.00000</ele>
        <time>2008-10-30T00:29:57Z</time>
      </trkpt>
      <trkpt lat="47.88013460" lon="8.249616600">
        <ele>780.00000</ele>
        <time>2008-10-30T00:30:13Z</time>
      </trkpt>
      <trkpt lat="47.87970540" lon="8.249573700">
        <ele>800.00000</ele>
        <time>2008-10-30T00:30:30Z</time>
      </trkpt>
      <trkpt lat="47.87906170" lon="8.249745400">
        <ele>783.00000</ele>
        <time>2008-10-30T00:30:56Z</time>
      </trkpt>
      <trkpt lat="47.87854670" lon="8.249788300">
        <ele>789.00000</ele>
        <time>2008-10-30T00:31:17Z</time>
      </trkpt>
      <trkpt lat="47.87811760" lon="8.249959900">
        <ele>789.00000</ele>
        <time>2008-10-30T00:31:35Z</time>
      </trkpt>
      <trkpt lat="47.87730220" lon="8.249831200">
        <ele>793.00000</ele>
        <time>2008-10-30T00:32:08Z</time>
      </trkpt>
      <trkpt lat="47.87670140" lon="8.249917000">
        <ele>794.00000</ele>
        <time>2008-10-30T00:32:32Z</time>
      </trkpt>
      <trkpt lat="47.87631510" lon="8.249659500">
        <ele>794.00000</ele>
        <time>2008-10-30T00:32:49Z</time>
      </trkpt>
      <trkpt lat="47.87592890" lon="8.249616600">
        <ele>797.00000</ele>
        <time>2008-10-30T00:33:04Z</time>
      </trkpt>
      <trkpt lat="47.87575720" lon="8.249487900">
        <ele>804.00000</ele>
        <time>2008-10-30T00:33:12Z</time>
      </trkpt>
      <trkpt lat="47.87571430" lon="8.249187500">
        <ele>804.00000</ele>
        <time>2008-10-30T00:33:20Z</time>
      </trkpt>
      <trkpt lat="47.87562850" lon="8.248415000">
        <ele>811.00000</ele>
        <time>2008-10-30T00:33:41Z</time>
      </trkpt>
      <trkpt lat="47.87541390" lon="8.247385000">
        <ele>803.00000</ele>
        <time>2008-10-30T00:34:10Z</time>
      </trkpt>
      <trkpt lat="47.87524220" lon="8.247170400">
        <ele>803.00000</ele>
        <time>2008-10-30T00:34:19Z</time>
      </trkpt>
      <trkpt lat="47.87507060" lon="8.247385000">
        <ele>803.00000</ele>
        <time>2008-10-30T00:34:28Z</time>
      </trkpt>
      <trkpt lat="47.87481310" lon="8.248200400">
        <ele>805.00000</ele>
        <time>2008-10-30T00:34:52Z</time>
      </trkpt>
      <trkpt lat="47.87459850" lon="8.249101600">
        <ele>805.00000</ele>
        <time>2008-10-30T00:35:18Z</time>
      </trkpt>
      <trkpt lat="47.87446980" lon="8.249530800">
        <ele>820.00000</ele>
        <time>2008-10-30T00:35:31Z</time>
      </trkpt>
      <trkpt lat="47.87438390" lon="8.249659500">
        <ele>807.00000</ele>
        <time>2008-10-30T00:35:36Z</time>
      </trkpt>
      <trkpt lat="47.87425520" lon="8.249702500">
        <ele>807.00000</ele>
        <time>2008-10-30T00:35:41Z</time>
      </trkpt>
      <trkpt lat="47.87404060" lon="8.249530800">
        <ele>820.00000</ele>
        <time>2008-10-30T00:35:51Z</time>
      </trkpt>
      <trkpt lat="47.87404060" lon="8.249273300">
        <ele>820.00000</ele>
        <time>2008-10-30T00:35:57Z</time>
      </trkpt>
      <trkpt lat="47.87404060" lon="8.248500800">
        <ele>825.00000</ele>
        <time>2008-10-30T00:36:18Z</time>
      </trkpt>
      <trkpt lat="47.87395480" lon="8.247728300">
        <ele>824.00000</ele>
        <time>2008-10-30T00:36:39Z</time>
      </trkpt>
      <trkpt lat="47.87343980" lon="8.245968800">
        <ele>851.00000</ele>
        <time>2008-10-30T00:37:31Z</time>
      </trkpt>
      <trkpt lat="47.87331100" lon="8.245282200">
        <ele>850.00000</ele>
        <time>2008-10-30T00:37:50Z</time>
      </trkpt>
      <trkpt lat="47.87331100" lon="8.244810100">
        <ele>850.00000</ele>
        <time>2008-10-30T00:38:03Z</time>
      </trkpt>
      <trkpt lat="47.87343980" lon="8.244209300">
        <ele>854.00000</ele>
        <time>2008-10-30T00:38:20Z</time>
      </trkpt>
      <trkpt lat="47.87399770" lon="8.242621400">
        <ele>854.00000</ele>
        <time>2008-10-30T00:39:08Z</time>
      </trkpt>
      <trkpt lat="47.87404060" lon="8.241934800">
        <ele>855.00000</ele>
        <time>2008-10-30T00:39:26Z</time>
      </trkpt>
      <trkpt lat="47.87395480" lon="8.241419800">
        <ele>855.00000</ele>
        <time>2008-10-30T00:39:40Z</time>
      </trkpt>
      <trkpt lat="47.87343980" lon="8.239960700">
        <ele>873.00000</ele>
        <time>2008-10-30T00:40:25Z</time>
      </trkpt>
      <trkpt lat="47.87331100" lon="8.238887800">
        <ele>874.00000</ele>
        <time>2008-10-30T00:40:54Z</time>
      </trkpt>
      <trkpt lat="47.87313940" lon="8.238458600">
        <ele>874.00000</ele>
        <time>2008-10-30T00:41:07Z</time>
      </trkpt>
      <trkpt lat="47.87240980" lon="8.237428700">
        <ele>885.00000</ele>
        <time>2008-10-30T00:41:48Z</time>
      </trkpt>
      <trkpt lat="47.87253860" lon="8.237085300">
        <ele>885.00000</ele>
        <time>2008-10-30T00:41:58Z</time>
      </trkpt>
      <trkpt lat="47.87258150" lon="8.236742000">
        <ele>885.00000</ele>
        <time>2008-10-30T00:42:08Z</time>
      </trkpt>
      <trkpt lat="47.87253860" lon="8.236141200">
        <ele>887.00000</ele>
        <time>2008-10-30T00:42:24Z</time>
      </trkpt>
      <trkpt lat="47.87266730" lon="8.235840800">
        <ele>887.00000</ele>
        <time>2008-10-30T00:42:33Z</time>
      </trkpt>
      <trkpt lat="47.87266730" lon="8.235583300">
        <ele>887.00000</ele>
        <time>2008-10-30T00:42:40Z</time>
      </trkpt>
      <trkpt lat="47.87271020" lon="8.234939600">
        <ele>887.00000</ele>
        <time>2008-10-30T00:42:58Z</time>
      </trkpt>
      <trkpt lat="47.87283900" lon="8.234167100">
        <ele>884.00000</ele>
        <time>2008-10-30T00:43:19Z</time>
      </trkpt>
      <trkpt lat="47.87288190" lon="8.234081300">
        <ele>884.00000</ele>
        <time>2008-10-30T00:43:22Z</time>
      </trkpt>
      <trkpt lat="47.87331100" lon="8.232793800">
        <ele>881.00000</ele>
        <time>2008-10-30T00:44:00Z</time>
      </trkpt>
      <trkpt lat="47.87365440" lon="8.231849700">
        <ele>876.00000</ele>
        <time>2008-10-30T00:44:29Z</time>
      </trkpt>
      <trkpt lat="47.87395480" lon="8.230862600">
        <ele>885.00000</ele>
        <time>2008-10-30T00:44:58Z</time>
      </trkpt>
      <trkpt lat="47.87404060" lon="8.230004300">
        <ele>879.00000</ele>
        <time>2008-10-30T00:45:22Z</time>
      </trkpt>
      <trkpt lat="47.87425520" lon="8.228931400">
        <ele>875.00000</ele>
        <time>2008-10-30T00:45:52Z</time>
      </trkpt>
      <trkpt lat="47.87489890" lon="8.227472300">
        <ele>880.00000</ele>
        <time>2008-10-30T00:46:39Z</time>
      </trkpt>
      <trkpt lat="47.87502770" lon="8.226828600">
        <ele>879.00000</ele>
        <time>2008-10-30T00:46:57Z</time>
      </trkpt>
      <trkpt lat="47.87502770" lon="8.225841500">
        <ele>880.00000</ele>
        <time>2008-10-30T00:47:23Z</time>
      </trkpt>
      <trkpt lat="47.87511350" lon="8.224597000">
        <ele>880.00000</ele>
        <time>2008-10-30T00:47:57Z</time>
      </trkpt>
      <trkpt lat="47.87519930" lon="8.223867400">
        <ele>875.00000</ele>
        <time>2008-10-30T00:48:17Z</time>
      </trkpt>
      <trkpt lat="47.87545680" lon="8.222622900">
        <ele>876.00000</ele>
        <time>2008-10-30T00:48:52Z</time>
      </trkpt>
      <trkpt lat="47.87562850" lon="8.222065000">
        <ele>870.00000</ele>
        <time>2008-10-30T00:49:08Z</time>
      </trkpt>
      <trkpt lat="47.87592890" lon="8.221206700">
        <ele>863.00000</ele>
        <time>2008-10-30T00:49:34Z</time>
      </trkpt>
      <trkpt lat="47.87661550" lon="8.219490100">
        <ele>869.00000</ele>
        <time>2008-10-30T00:50:28Z</time>
      </trkpt>
      <trkpt lat="47.87670140" lon="8.219103800">
        <ele>869.00000</ele>
        <time>2008-10-30T00:50:39Z</time>
      </trkpt>
      <trkpt lat="47.87661550" lon="8.218674700">
        <ele>867.00000</ele>
        <time>2008-10-30T00:50:51Z</time>
      </trkpt>
      <trkpt lat="47.87652970" lon="8.218545900">
        <ele>867.00000</ele>
        <time>2008-10-30T00:50:56Z</time>
      </trkpt>
      <trkpt lat="47.87631510" lon="8.218331300">
        <ele>867.00000</ele>
        <time>2008-10-30T00:51:06Z</time>
      </trkpt>
      <trkpt lat="47.87494180" lon="8.217644700">
        <ele>866.00000</ele>
        <time>2008-10-30T00:52:04Z</time>
      </trkpt>
      <trkpt lat="47.87391190" lon="8.216958000">
        <ele>867.00000</ele>
        <time>2008-10-30T00:52:49Z</time>
      </trkpt>
      <trkpt lat="47.87352560" lon="8.216571800">
        <ele>859.00000</ele>
        <time>2008-10-30T00:53:08Z</time>
      </trkpt>
      <trkpt lat="47.87271020" lon="8.215584800">
        <ele>858.00000</ele>
        <time>2008-10-30T00:53:50Z</time>
      </trkpt>
      <trkpt lat="47.87223820" lon="8.214898100">
        <ele>863.00000</ele>
        <time>2008-10-30T00:54:16Z</time>
      </trkpt>
      <trkpt lat="47.87095070" lon="8.212537800">
        <ele>860.00000</ele>
        <time>2008-10-30T00:55:38Z</time>
      </trkpt>
      <trkpt lat="47.87039280" lon="8.211979900">
        <ele>849.00000</ele>
        <time>2008-10-30T00:56:05Z</time>
      </trkpt>
      <trkpt lat="47.86987780" lon="8.211765300">
        <ele>849.00000</ele>
        <time>2008-10-30T00:56:26Z</time>
      </trkpt>
      <trkpt lat="47.86906240" lon="8.211765300">
        <ele>846.00000</ele>
        <time>2008-10-30T00:56:59Z</time>
      </trkpt>
      <trkpt lat="47.86884780" lon="8.211636500">
        <ele>846.00000</ele>
        <time>2008-10-30T00:57:08Z</time>
      </trkpt>
      <trkpt lat="47.86876200" lon="8.211507800">
        <ele>846.00000</ele>
        <time>2008-10-30T00:57:13Z</time>
      </trkpt>
      <trkpt lat="47.86867620" lon="8.211164500">
        <ele>824.00000</ele>
        <time>2008-10-30T00:57:23Z</time>
      </trkpt>
      <trkpt lat="47.86876200" lon="8.210821200">
        <ele>837.00000</ele>
        <time>2008-10-30T00:57:33Z</time>
      </trkpt>
      <trkpt lat="47.86880490" lon="8.210692400">
        <ele>837.00000</ele>
        <time>2008-10-30T00:57:36Z</time>
      </trkpt>
      <trkpt lat="47.86940570" lon="8.210220300">
        <ele>827.00000</ele>
        <time>2008-10-30T00:58:04Z</time>
      </trkpt>
      <trkpt lat="47.86949160" lon="8.210005800">
        <ele>827.00000</ele>
        <time>2008-10-30T00:58:10Z</time>
      </trkpt>
      <trkpt lat="47.86953450" lon="8.209705400">
        <ele>827.00000</ele>
        <time>2008-10-30T00:58:19Z</time>
      </trkpt>
      <trkpt lat="47.86931990" lon="8.207559600">
        <ele>820.00000</ele>
        <time>2008-10-30T00:59:17Z</time>
      </trkpt>
      <trkpt lat="47.86923410" lon="8.206014600">
        <ele>815.00000</ele>
        <time>2008-10-30T00:59:59Z</time>
      </trkpt>
      <trkpt lat="47.86923410" lon="8.204941700">
        <ele>814.00000</ele>
        <time>2008-10-30T01:00:27Z</time>
      </trkpt>
      <trkpt lat="47.86944870" lon="8.203439700">
        <ele>809.00000</ele>
        <time>2008-10-30T01:01:09Z</time>
      </trkpt>
      <trkpt lat="47.86940570" lon="8.203182200">
        <ele>809.00000</ele>
        <time>2008-10-30T01:01:16Z</time>
      </trkpt>
      <trkpt lat="47.86927700" lon="8.202838900">
        <ele>811.00000</ele>
        <time>2008-10-30T01:01:26Z</time>
      </trkpt>
      <trkpt lat="47.86914830" lon="8.202581400">
        <ele>811.00000</ele>
        <time>2008-10-30T01:01:35Z</time>
      </trkpt>
      <trkpt lat="47.86901950" lon="8.202495600">
        <ele>811.00000</ele>
        <time>2008-10-30T01:01:41Z</time>
      </trkpt>
      <trkpt lat="47.86867620" lon="8.202152300">
        <ele>810.00000</ele>
        <time>2008-10-30T01:01:57Z</time>
      </trkpt>
      <trkpt lat="47.86859040" lon="8.202066400">
        <ele>814.00000</ele>
        <time>2008-10-30T01:02:01Z</time>
      </trkpt>
      <trkpt lat="47.86850450" lon="8.201723100">
        <ele>814.00000</ele>
        <time>2008-10-30T01:02:11Z</time>
      </trkpt>
      <trkpt lat="47.86871910" lon="8.201422700">
        <ele>814.00000</ele>
        <time>2008-10-30T01:02:23Z</time>
      </trkpt>
      <trkpt lat="47.86878310" lon="8.201273400">
        <ele>813.00000</ele>
        <time>2008-10-30T01:02:28Z</time>
      </trkpt>
      <trkpt lat="47.86884780" lon="8.201122300">
        <ele>816.00000</ele>
        <time>2008-10-30T01:02:32Z</time>
      </trkpt>
      <trkpt lat="47.86889080" lon="8.200907700">
        <ele>816.00000</ele>
        <time>2008-10-30T01:02:38Z</time>
      </trkpt>
      <trkpt lat="47.86876200" lon="8.200821900">
        <ele>816.00000</ele>
        <time>2008-10-30T01:02:44Z</time>
      </trkpt>
      <trkpt lat="47.86850450" lon="8.200264000">
        <ele>817.00000</ele>
        <time>2008-10-30T01:03:02Z</time>
      </trkpt>
      <trkpt lat="47.86833290" lon="8.199620200">
        <ele>817.00000</ele>
        <time>2008-10-30T01:03:21Z</time>
      </trkpt>
      <trkpt lat="47.86824700" lon="8.199191100">
        <ele>819.00000</ele>
        <time>2008-10-30T01:03:33Z</time>
      </trkpt>
      <trkpt lat="47.86824700" lon="8.198847800">
        <ele>819.00000</ele>
        <time>2008-10-30T01:03:42Z</time>
      </trkpt>
      <trkpt lat="47.86828990" lon="8.197217000">
        <ele>819.00000</ele>
        <time>2008-10-30T01:04:26Z</time>
      </trkpt>
      <trkpt lat="47.86820410" lon="8.196144100">
        <ele>821.00000</ele>
        <time>2008-10-30T01:04:55Z</time>
      </trkpt>
      <trkpt lat="47.86811830" lon="8.195800800">
        <ele>821.00000</ele>
        <time>2008-10-30T01:05:05Z</time>
      </trkpt>
      <trkpt lat="47.86794660" lon="8.195285800">
        <ele>823.00000</ele>
        <time>2008-10-30T01:05:20Z</time>
      </trkpt>
      <trkpt lat="47.86734580" lon="8.194041300">
        <ele>817.00000</ele>
        <time>2008-10-30T01:06:01Z</time>
      </trkpt>
      <trkpt lat="47.86713120" lon="8.193182900">
        <ele>819.00000</ele>
        <time>2008-10-30T01:06:26Z</time>
      </trkpt>
      <trkpt lat="47.86704540" lon="8.192410500">
        <ele>856.00000</ele>
        <time>2008-10-30T01:06:47Z</time>
      </trkpt>
      <trkpt lat="47.86691670" lon="8.190650900">
        <ele>857.00000</ele>
        <time>2008-10-30T01:07:35Z</time>
      </trkpt>
      <trkpt lat="47.86657330" lon="8.188934300">
        <ele>839.00000</ele>
        <time>2008-10-30T01:08:23Z</time>
      </trkpt>
      <trkpt lat="47.86631580" lon="8.188118900">
        <ele>827.00000</ele>
        <time>2008-10-30T01:08:47Z</time>
      </trkpt>
      <trkpt lat="47.86567210" lon="8.186574000">
        <ele>839.00000</ele>
        <time>2008-10-30T01:09:36Z</time>
      </trkpt>
      <trkpt lat="47.86489960" lon="8.185415300">
        <ele>838.00000</ele>
        <time>2008-10-30T01:10:20Z</time>
      </trkpt>
      <trkpt lat="47.86429880" lon="8.184771500">
        <ele>862.00000</ele>
        <time>2008-10-30T01:10:49Z</time>
      </trkpt>
      <trkpt lat="47.86395550" lon="8.184557000">
        <ele>858.00000</ele>
        <time>2008-10-30T01:11:04Z</time>
      </trkpt>
      <trkpt lat="47.86271100" lon="8.184042000">
        <ele>869.00000</ele>
        <time>2008-10-30T01:11:56Z</time>
      </trkpt>
      <trkpt lat="47.86236760" lon="8.183827400">
        <ele>869.00000</ele>
        <time>2008-10-30T01:12:11Z</time>
      </trkpt>
      <trkpt lat="47.86193850" lon="8.183355300">
        <ele>862.00000</ele>
        <time>2008-10-30T01:12:32Z</time>
      </trkpt>
      <trkpt lat="47.86172390" lon="8.182969100">
        <ele>862.00000</ele>
        <time>2008-10-30T01:12:46Z</time>
      </trkpt>
      <trkpt lat="47.86150930" lon="8.182539900">
        <ele>868.00000</ele>
        <time>2008-10-30T01:13:00Z</time>
      </trkpt>
      <trkpt lat="47.86112310" lon="8.181467100">
        <ele>869.00000</ele>
        <time>2008-10-30T01:13:33Z</time>
      </trkpt>
      <trkpt lat="47.86086560" lon="8.181123700">
        <ele>874.00000</ele>
        <time>2008-10-30T01:13:46Z</time>
      </trkpt>
      <trkpt lat="47.86026480" lon="8.180522900">
        <ele>881.00000</ele>
        <time>2008-10-30T01:14:15Z</time>
      </trkpt>
      <trkpt lat="47.86013600" lon="8.180222500">
        <ele>880.00000</ele>
        <time>2008-10-30T01:14:25Z</time>
      </trkpt>
      <trkpt lat="47.86013600" lon="8.180050800">
        <ele>880.00000</ele>
        <time>2008-10-30T01:14:30Z</time>
      </trkpt>
      <trkpt lat="47.86022190" lon="8.179707500">
        <ele>880.00000</ele>
        <time>2008-10-30T01:14:39Z</time>
      </trkpt>
      <trkpt lat="47.86043640" lon="8.179364200">
        <ele>903.00000</ele>
        <time>2008-10-30T01:14:52Z</time>
      </trkpt>
      <trkpt lat="47.86069390" lon="8.179321300">
        <ele>903.00000</ele>
        <time>2008-10-30T01:15:02Z</time>
      </trkpt>
      <trkpt lat="47.86082270" lon="8.179407100">
        <ele>903.00000</ele>
        <time>2008-10-30T01:15:08Z</time>
      </trkpt>
      <trkpt lat="47.86133770" lon="8.179922100">
        <ele>910.00000</ele>
        <time>2008-10-30T01:15:33Z</time>
      </trkpt>
      <trkpt lat="47.86223890" lon="8.180565800">
        <ele>913.00000</ele>
        <time>2008-10-30T01:16:13Z</time>
      </trkpt>
      <trkpt lat="47.86271100" lon="8.181209600">
        <ele>913.00000</ele>
        <time>2008-10-30T01:16:38Z</time>
      </trkpt>
      <trkpt lat="47.86296840" lon="8.181467100">
        <ele>913.00000</ele>
        <time>2008-10-30T01:16:51Z</time>
      </trkpt>
      <trkpt lat="47.86339760" lon="8.181467100">
        <ele>913.00000</ele>
        <time>2008-10-30T01:17:08Z</time>
      </trkpt>
      <trkpt lat="47.86361220" lon="8.181209600">
        <ele>923.00000</ele>
        <time>2008-10-30T01:17:19Z</time>
      </trkpt>
      <trkpt lat="47.86374090" lon="8.180780400">
        <ele>923.00000</ele>
        <time>2008-10-30T01:17:32Z</time>
      </trkpt>
      <trkpt lat="47.86374090" lon="8.179879200">
        <ele>936.00000</ele>
        <time>2008-10-30T01:17:56Z</time>
      </trkpt>
      <trkpt lat="47.86352630" lon="8.177347200">
        <ele>943.00000</ele>
        <time>2008-10-30T01:19:04Z</time>
      </trkpt>
      <trkpt lat="47.86314010" lon="8.174343100">
        <ele>945.00000</ele>
        <time>2008-10-30T01:20:27Z</time>
      </trkpt>
      <trkpt lat="47.86309720" lon="8.173184400">
        <ele>943.00000</ele>
        <time>2008-10-30T01:20:58Z</time>
      </trkpt>
      <trkpt lat="47.86301140" lon="8.172626500">
        <ele>936.00000</ele>
        <time>2008-10-30T01:21:13Z</time>
      </trkpt>
      <trkpt lat="47.86279680" lon="8.172197300">
        <ele>970.00000</ele>
        <time>2008-10-30T01:21:28Z</time>
      </trkpt>
      <trkpt lat="47.86249640" lon="8.171854000">
        <ele>958.00000</ele>
        <time>2008-10-30T01:21:43Z</time>
      </trkpt>
      <trkpt lat="47.86211010" lon="8.171768200">
        <ele>958.00000</ele>
        <time>2008-10-30T01:21:58Z</time>
      </trkpt>
      <trkpt lat="47.86150930" lon="8.171725300">
        <ele>965.00000</ele>
        <time>2008-10-30T01:22:22Z</time>
      </trkpt>
      <trkpt lat="47.86108020" lon="8.171682400">
        <ele>968.00000</ele>
        <time>2008-10-30T01:22:40Z</time>
      </trkpt>
      <trkpt lat="47.86069390" lon="8.171467800">
        <ele>968.00000</ele>
        <time>2008-10-30T01:22:56Z</time>
      </trkpt>
      <trkpt lat="47.86035060" lon="8.171124500">
        <ele>977.00000</ele>
        <time>2008-10-30T01:23:13Z</time>
      </trkpt>
      <trkpt lat="47.86009310" lon="8.170652400">
        <ele>977.00000</ele>
        <time>2008-10-30T01:23:29Z</time>
      </trkpt>
      <trkpt lat="47.85987850" lon="8.170094500">
        <ele>981.00000</ele>
        <time>2008-10-30T01:23:46Z</time>
      </trkpt>
      <trkpt lat="47.85953520" lon="8.168592500">
        <ele>991.00000</ele>
        <time>2008-10-30T01:24:29Z</time>
      </trkpt>
      <trkpt lat="47.85871980" lon="8.166618300">
        <ele>1008.0000</ele>
        <time>2008-10-30T01:25:31Z</time>
      </trkpt>
      <trkpt lat="47.85833360" lon="8.165073400">
        <ele>1000.0000</ele>
        <time>2008-10-30T01:26:15Z</time>
      </trkpt>
      <trkpt lat="47.85790440" lon="8.163957600">
        <ele>1024.0000</ele>
        <time>2008-10-30T01:26:50Z</time>
      </trkpt>
      <trkpt lat="47.85734650" lon="8.162970500">
        <ele>1011.0000</ele>
        <time>2008-10-30T01:27:25Z</time>
      </trkpt>
      <trkpt lat="47.85700320" lon="8.162498500">
        <ele>1024.0000</ele>
        <time>2008-10-30T01:27:43Z</time>
      </trkpt>
      <trkpt lat="47.85648820" lon="8.161940600">
        <ele>1008.0000</ele>
        <time>2008-10-30T01:28:09Z</time>
      </trkpt>
      <trkpt lat="47.85485740" lon="8.160653100">
        <ele>1035.0000</ele>
        <time>2008-10-30T01:29:23Z</time>
      </trkpt>
      <trkpt lat="47.85245420" lon="8.158593200">
        <ele>1049.0000</ele>
        <time>2008-10-30T01:31:14Z</time>
      </trkpt>
      <trkpt lat="47.85172460" lon="8.158292800">
        <ele>1060.0000</ele>
        <time>2008-10-30T01:31:44Z</time>
      </trkpt>
      <trkpt lat="47.85138130" lon="8.158206900">
        <ele>1060.0000</ele>
        <time>2008-10-30T01:31:58Z</time>
      </trkpt>
      <trkpt lat="47.85090920" lon="8.158206900">
        <ele>1062.0000</ele>
        <time>2008-10-30T01:32:17Z</time>
      </trkpt>
      <trkpt lat="47.85022260" lon="8.158378600">
        <ele>1061.0000</ele>
        <time>2008-10-30T01:32:45Z</time>
      </trkpt>
      <trkpt lat="47.84906390" lon="8.159108200">
        <ele>1061.0000</ele>
        <time>2008-10-30T01:33:35Z</time>
      </trkpt>
      <trkpt lat="47.84850600" lon="8.159451500">
        <ele>1049.0000</ele>
        <time>2008-10-30T01:33:59Z</time>
      </trkpt>
      <trkpt lat="47.84820560" lon="8.159580200">
        <ele>1049.0000</ele>
        <time>2008-10-30T01:34:12Z</time>
      </trkpt>
      <trkpt lat="47.84773350" lon="8.159666100">
        <ele>1067.0000</ele>
        <time>2008-10-30T01:34:31Z</time>
      </trkpt>
      <trkpt lat="47.84730430" lon="8.159666100">
        <ele>1067.0000</ele>
        <time>2008-10-30T01:34:48Z</time>
      </trkpt>
      <trkpt lat="47.84618850" lon="8.159279800">
        <ele>1042.0000</ele>
        <time>2008-10-30T01:35:34Z</time>
      </trkpt>
      <trkpt lat="47.84563060" lon="8.159279800">
        <ele>1042.0000</ele>
        <time>2008-10-30T01:35:56Z</time>
      </trkpt>
      <trkpt lat="47.84520150" lon="8.159451500">
        <ele>1041.0000</ele>
        <time>2008-10-30T01:36:14Z</time>
      </trkpt>
      <trkpt lat="47.84494400" lon="8.159709000">
        <ele>1043.0000</ele>
        <time>2008-10-30T01:36:26Z</time>
      </trkpt>
      <trkpt lat="47.84434320" lon="8.160438500">
        <ele>1037.0000</ele>
        <time>2008-10-30T01:36:57Z</time>
      </trkpt>
      <trkpt lat="47.84399990" lon="8.160910600">
        <ele>1037.0000</ele>
        <time>2008-10-30T01:37:16Z</time>
      </trkpt>
      <trkpt lat="47.84374240" lon="8.161296800">
        <ele>1026.0000</ele>
        <time>2008-10-30T01:37:31Z</time>
      </trkpt>
      <trkpt lat="47.84344200" lon="8.162112200">
        <ele>1027.0000</ele>
        <time>2008-10-30T01:37:56Z</time>
      </trkpt>
      <trkpt lat="47.84309860" lon="8.163743000">
        <ele>1030.0000</ele>
        <time>2008-10-30T01:38:42Z</time>
      </trkpt>
      <trkpt lat="47.84292700" lon="8.164300900">
        <ele>1032.0000</ele>
        <time>2008-10-30T01:38:58Z</time>
      </trkpt>
      <trkpt lat="47.84266950" lon="8.164730100">
        <ele>1021.0000</ele>
        <time>2008-10-30T01:39:14Z</time>
      </trkpt>
      <trkpt lat="47.84245490" lon="8.165030500">
        <ele>1021.0000</ele>
        <time>2008-10-30T01:39:25Z</time>
      </trkpt>
      <trkpt lat="47.84224030" lon="8.165245100">
        <ele>1021.0000</ele>
        <time>2008-10-30T01:39:36Z</time>
      </trkpt>
      <trkpt lat="47.84172530" lon="8.165545500">
        <ele>1026.0000</ele>
        <time>2008-10-30T01:39:58Z</time>
      </trkpt>
      <trkpt lat="47.84103870" lon="8.165760000">
        <ele>1018.0000</ele>
        <time>2008-10-30T01:40:26Z</time>
      </trkpt>
      <trkpt lat="47.84060960" lon="8.166103400">
        <ele>1018.0000</ele>
        <time>2008-10-30T01:40:45Z</time>
      </trkpt>
      <trkpt lat="47.84035210" lon="8.166489600">
        <ele>1009.0000</ele>
        <time>2008-10-30T01:41:00Z</time>
      </trkpt>
      <trkpt lat="47.83975120" lon="8.167562500">
        <ele>1021.0000</ele>
        <time>2008-10-30T01:41:38Z</time>
      </trkpt>
      <trkpt lat="47.83910750" lon="8.168635400">
        <ele>1006.0000</ele>
        <time>2008-10-30T01:42:16Z</time>
      </trkpt>
      <trkpt lat="47.83837800" lon="8.169708300">
        <ele>1011.0000</ele>
        <time>2008-10-30T01:42:57Z</time>
      </trkpt>
      <trkpt lat="47.83794880" lon="8.170180300">
        <ele>1011.0000</ele>
        <time>2008-10-30T01:43:19Z</time>
      </trkpt>
      <trkpt lat="47.83751960" lon="8.170523600">
        <ele>1007.0000</ele>
        <time>2008-10-30T01:43:38Z</time>
      </trkpt>
      <trkpt lat="47.83674720" lon="8.170909900">
        <ele>999.00000</ele>
        <time>2008-10-30T01:44:11Z</time>
      </trkpt>
      <trkpt lat="47.83610340" lon="8.171124500">
        <ele>993.00000</ele>
        <time>2008-10-30T01:44:37Z</time>
      </trkpt>
      <trkpt lat="47.83545970" lon="8.171553600">
        <ele>1002.0000</ele>
        <time>2008-10-30T01:45:05Z</time>
      </trkpt>
      <trkpt lat="47.83498760" lon="8.172154400">
        <ele>999.00000</ele>
        <time>2008-10-30T01:45:30Z</time>
      </trkpt>
      <trkpt lat="47.83473010" lon="8.172626500">
        <ele>999.00000</ele>
        <time>2008-10-30T01:45:47Z</time>
      </trkpt>
      <trkpt lat="47.83417220" lon="8.173785200">
        <ele>991.00000</ele>
        <time>2008-10-30T01:46:25Z</time>
      </trkpt>
      <trkpt lat="47.83395770" lon="8.174214400">
        <ele>991.00000</ele>
        <time>2008-10-30T01:46:39Z</time>
      </trkpt>
      <trkpt lat="47.83335690" lon="8.174815200">
        <ele>988.00000</ele>
        <time>2008-10-30T01:47:08Z</time>
      </trkpt>
      <trkpt lat="47.83318520" lon="8.174943900">
        <ele>988.00000</ele>
        <time>2008-10-30T01:47:16Z</time>
      </trkpt>
      <trkpt lat="47.83258440" lon="8.175330200">
        <ele>983.00000</ele>
        <time>2008-10-30T01:47:42Z</time>
      </trkpt>
      <trkpt lat="47.83215520" lon="8.175416000">
        <ele>983.00000</ele>
        <time>2008-10-30T01:47:59Z</time>
      </trkpt>
      <trkpt lat="47.83181190" lon="8.175330200">
        <ele>981.00000</ele>
        <time>2008-10-30T01:48:13Z</time>
      </trkpt>
      <trkpt lat="47.83125400" lon="8.175072700">
        <ele>981.00000</ele>
        <time>2008-10-30T01:48:37Z</time>
      </trkpt>
      <trkpt lat="47.83052440" lon="8.174815200">
        <ele>985.00000</ele>
        <time>2008-10-30T01:49:07Z</time>
      </trkpt>
      <trkpt lat="47.82936570" lon="8.174729300">
        <ele>982.00000</ele>
        <time>2008-10-30T01:49:53Z</time>
      </trkpt>
      <trkpt lat="47.82820700" lon="8.174471900">
        <ele>967.00000</ele>
        <time>2008-10-30T01:50:40Z</time>
      </trkpt>
      <trkpt lat="47.82606120" lon="8.174128500">
        <ele>961.00000</ele>
        <time>2008-10-30T01:52:07Z</time>
      </trkpt>
      <trkpt lat="47.82464500" lon="8.174085600">
        <ele>959.00000</ele>
        <time>2008-10-30T01:53:03Z</time>
      </trkpt>
      <trkpt lat="47.82357220" lon="8.174171400">
        <ele>943.00000</ele>
        <time>2008-10-30T01:53:46Z</time>
      </trkpt>
      <trkpt lat="47.82292840" lon="8.174042700">
        <ele>943.00000</ele>
        <time>2008-10-30T01:54:12Z</time>
      </trkpt>
      <trkpt lat="47.82245640" lon="8.173699400">
        <ele>935.00000</ele>
        <time>2008-10-30T01:54:33Z</time>
      </trkpt>
      <trkpt lat="47.82219890" lon="8.173441900">
        <ele>935.00000</ele>
        <time>2008-10-30T01:54:46Z</time>
      </trkpt>
      <trkpt lat="47.82176970" lon="8.172669400">
        <ele>932.00000</ele>
        <time>2008-10-30T01:55:13Z</time>
      </trkpt>
      <trkpt lat="47.82125470" lon="8.173098600">
        <ele>931.00000</ele>
        <time>2008-10-30T01:55:36Z</time>
      </trkpt>
      <trkpt lat="47.82104020" lon="8.173227300">
        <ele>933.00000</ele>
        <time>2008-10-30T01:55:45Z</time>
      </trkpt>
      <trkpt lat="47.82001020" lon="8.173828100">
        <ele>937.00000</ele>
        <time>2008-10-30T01:56:30Z</time>
      </trkpt>
      <trkpt lat="47.81962390" lon="8.174085600">
        <ele>937.00000</ele>
        <time>2008-10-30T01:56:47Z</time>
      </trkpt>
      <trkpt lat="47.82001020" lon="8.173828100">
        <ele>937.00000</ele>
        <time>2008-10-30T01:57:04Z</time>
      </trkpt>
      <trkpt lat="47.82104020" lon="8.173227300">
        <ele>933.00000</ele>
        <time>2008-10-30T01:57:48Z</time>
      </trkpt>
      <trkpt lat="47.82125470" lon="8.173098600">
        <ele>931.00000</ele>
        <time>2008-10-30T01:57:57Z</time>
      </trkpt>
      <trkpt lat="47.82176970" lon="8.172669400">
        <ele>932.00000</ele>
        <time>2008-10-30T01:58:21Z</time>
      </trkpt>
      <trkpt lat="47.82202720" lon="8.172411900">
        <ele>932.00000</ele>
        <time>2008-10-30T01:58:33Z</time>
      </trkpt>
      <trkpt lat="47.82237050" lon="8.171854000">
        <ele>937.00000</ele>
        <time>2008-10-30T01:58:54Z</time>
      </trkpt>
      <trkpt lat="47.82267090" lon="8.170995700">
        <ele>939.00000</ele>
        <time>2008-10-30T01:59:20Z</time>
      </trkpt>
      <trkpt lat="47.82284260" lon="8.170137400">
        <ele>941.00000</ele>
        <time>2008-10-30T01:59:44Z</time>
      </trkpt>
      <trkpt lat="47.82292840" lon="8.168678300">
        <ele>959.00000</ele>
        <time>2008-10-30T02:00:23Z</time>
      </trkpt>
      <trkpt lat="47.82292840" lon="8.166575400">
        <ele>962.00000</ele>
        <time>2008-10-30T02:01:20Z</time>
      </trkpt>
      <trkpt lat="47.82292840" lon="8.165631300">
        <ele>968.00000</ele>
        <time>2008-10-30T02:01:45Z</time>
      </trkpt>
      <trkpt lat="47.82292840" lon="8.165288000">
        <ele>973.00000</ele>
        <time>2008-10-30T02:01:54Z</time>
      </trkpt>
      <trkpt lat="47.82292840" lon="8.164815900">
        <ele>973.00000</ele>
        <time>2008-10-30T02:02:07Z</time>
      </trkpt>
      <trkpt lat="47.82292840" lon="8.161811800">
        <ele>979.00000</ele>
        <time>2008-10-30T02:03:28Z</time>
      </trkpt>
      <trkpt lat="47.82292840" lon="8.159751900">
        <ele>974.00000</ele>
        <time>2008-10-30T02:04:23Z</time>
      </trkpt>
      <trkpt lat="47.82305720" lon="8.158464400">
        <ele>971.00000</ele>
        <time>2008-10-30T02:04:58Z</time>
      </trkpt>
      <trkpt lat="47.82331470" lon="8.156919500">
        <ele>963.00000</ele>
        <time>2008-10-30T02:05:41Z</time>
      </trkpt>
      <trkpt lat="47.82374380" lon="8.155460400">
        <ele>956.00000</ele>
        <time>2008-10-30T02:06:24Z</time>
      </trkpt>
      <trkpt lat="47.82400130" lon="8.154730800">
        <ele>970.00000</ele>
        <time>2008-10-30T02:06:46Z</time>
      </trkpt>
      <trkpt lat="47.82473090" lon="8.153100000">
        <ele>975.00000</ele>
        <time>2008-10-30T02:07:38Z</time>
      </trkpt>
      <trkpt lat="47.82524590" lon="8.151941300">
        <ele>951.00000</ele>
        <time>2008-10-30T02:08:16Z</time>
      </trkpt>
      <trkpt lat="47.82580380" lon="8.150653800">
        <ele>964.00000</ele>
        <time>2008-10-30T02:08:57Z</time>
      </trkpt>
      <trkpt lat="47.82610420" lon="8.149967200">
        <ele>951.00000</ele>
        <time>2008-10-30T02:09:19Z</time>
      </trkpt>
      <trkpt lat="47.82670500" lon="8.148593900">
        <ele>951.00000</ele>
        <time>2008-10-30T02:10:03Z</time>
      </trkpt>
      <trkpt lat="47.82803540" lon="8.145675700">
        <ele>959.00000</ele>
        <time>2008-10-30T02:11:38Z</time>
      </trkpt>
      <trkpt lat="47.82872200" lon="8.144559900">
        <ele>941.00000</ele>
        <time>2008-10-30T02:12:18Z</time>
      </trkpt>
      <trkpt lat="47.82936570" lon="8.143529900">
        <ele>944.00000</ele>
        <time>2008-10-30T02:12:56Z</time>
      </trkpt>
      <trkpt lat="47.82988070" lon="8.142757400">
        <ele>948.00000</ele>
        <time>2008-10-30T02:13:26Z</time>
      </trkpt>
      <trkpt lat="47.83030990" lon="8.141942000">
        <ele>945.00000</ele>
        <time>2008-10-30T02:13:53Z</time>
      </trkpt>
      <trkpt lat="47.83091070" lon="8.139882100">
        <ele>953.00000</ele>
        <time>2008-10-30T02:14:54Z</time>
      </trkpt>
      <trkpt lat="47.83099650" lon="8.139195400">
        <ele>945.00000</ele>
        <time>2008-10-30T02:15:12Z</time>
      </trkpt>
      <trkpt lat="47.83095360" lon="8.138294200">
        <ele>939.00000</ele>
        <time>2008-10-30T02:15:37Z</time>
      </trkpt>
      <trkpt lat="47.83103940" lon="8.137822200">
        <ele>937.00000</ele>
        <time>2008-10-30T02:15:50Z</time>
      </trkpt>
      <trkpt lat="47.83168320" lon="8.136620500">
        <ele>940.00000</ele>
        <time>2008-10-30T02:16:31Z</time>
      </trkpt>
      <trkpt lat="47.83232690" lon="8.135118500">
        <ele>935.00000</ele>
        <time>2008-10-30T02:17:19Z</time>
      </trkpt>
      <trkpt lat="47.83284190" lon="8.133788100">
        <ele>931.00000</ele>
        <time>2008-10-30T02:18:00Z</time>
      </trkpt>
      <trkpt lat="47.83322810" lon="8.133015600">
        <ele>936.00000</ele>
        <time>2008-10-30T02:18:26Z</time>
      </trkpt>
      <trkpt lat="47.83361430" lon="8.132500600">
        <ele>932.00000</ele>
        <time>2008-10-30T02:18:47Z</time>
      </trkpt>
      <trkpt lat="47.83438680" lon="8.131899800">
        <ele>931.00000</ele>
        <time>2008-10-30T02:19:22Z</time>
      </trkpt>
      <trkpt lat="47.83541680" lon="8.131256100">
        <ele>941.00000</ele>
        <time>2008-10-30T02:20:07Z</time>
      </trkpt>
      <trkpt lat="47.83580300" lon="8.130869900">
        <ele>936.00000</ele>
        <time>2008-10-30T02:20:25Z</time>
      </trkpt>
      <trkpt lat="47.83631800" lon="8.130269100">
        <ele>945.00000</ele>
        <time>2008-10-30T02:20:51Z</time>
      </trkpt>
      <trkpt lat="47.83644680" lon="8.130054500">
        <ele>945.00000</ele>
        <time>2008-10-30T02:20:59Z</time>
      </trkpt>
      <trkpt lat="47.83661840" lon="8.129754100">
        <ele>945.00000</ele>
        <time>2008-10-30T02:21:10Z</time>
      </trkpt>
      <trkpt lat="47.83704760" lon="8.128938700">
        <ele>949.00000</ele>
        <time>2008-10-30T02:21:38Z</time>
      </trkpt>
      <trkpt lat="47.83734800" lon="8.128638300">
        <ele>949.00000</ele>
        <time>2008-10-30T02:21:52Z</time>
      </trkpt>
      <trkpt lat="47.83782010" lon="8.128466600">
        <ele>949.00000</ele>
        <time>2008-10-30T02:22:12Z</time>
      </trkpt>
      <trkpt lat="47.83803460" lon="8.128509500">
        <ele>952.00000</ele>
        <time>2008-10-30T02:22:20Z</time>
      </trkpt>
      <trkpt lat="47.83842090" lon="8.128638300">
        <ele>952.00000</ele>
        <time>2008-10-30T02:22:36Z</time>
      </trkpt>
      <trkpt lat="47.83919330" lon="8.129067400">
        <ele>956.00000</ele>
        <time>2008-10-30T02:23:09Z</time>
      </trkpt>
      <trkpt lat="47.83970830" lon="8.129110300">
        <ele>960.00000</ele>
        <time>2008-10-30T02:23:30Z</time>
      </trkpt>
      <trkpt lat="47.83983710" lon="8.129067400">
        <ele>960.00000</ele>
        <time>2008-10-30T02:23:35Z</time>
      </trkpt>
      <trkpt lat="47.84108160" lon="8.128166200">
        <ele>963.00000</ele>
        <time>2008-10-30T02:24:30Z</time>
      </trkpt>
      <trkpt lat="47.84129620" lon="8.128037500">
        <ele>967.00000</ele>
        <time>2008-10-30T02:24:40Z</time>
      </trkpt>
      <trkpt lat="47.84271240" lon="8.127350800">
        <ele>977.00000</ele>
        <time>2008-10-30T02:25:39Z</time>
      </trkpt>
      <trkpt lat="47.84365650" lon="8.127007500">
        <ele>985.00000</ele>
        <time>2008-10-30T02:26:18Z</time>
      </trkpt>
      <trkpt lat="47.84485820" lon="8.126277900">
        <ele>978.00000</ele>
        <time>2008-10-30T02:27:10Z</time>
      </trkpt>
      <trkpt lat="47.84593110" lon="8.125376700">
        <ele>988.00000</ele>
        <time>2008-10-30T02:27:59Z</time>
      </trkpt>
      <trkpt lat="47.84644600" lon="8.124775900">
        <ele>978.00000</ele>
        <time>2008-10-30T02:28:26Z</time>
      </trkpt>
      <trkpt lat="47.84704690" lon="8.123960500">
        <ele>977.00000</ele>
        <time>2008-10-30T02:28:58Z</time>
      </trkpt>
      <trkpt lat="47.84739020" lon="8.123745900">
        <ele>981.00000</ele>
        <time>2008-10-30T02:29:13Z</time>
      </trkpt>
      <trkpt lat="47.84803390" lon="8.123660100">
        <ele>989.00000</ele>
        <time>2008-10-30T02:29:39Z</time>
      </trkpt>
      <trkpt lat="47.84880640" lon="8.123745900">
        <ele>994.00000</ele>
        <time>2008-10-30T02:30:10Z</time>
      </trkpt>
      <trkpt lat="47.85030840" lon="8.123874700">
        <ele>981.00000</ele>
        <time>2008-10-30T02:31:10Z</time>
      </trkpt>
      <trkpt lat="47.85060880" lon="8.123788800">
        <ele>983.00000</ele>
        <time>2008-10-30T02:31:22Z</time>
      </trkpt>
      <trkpt lat="47.85090920" lon="8.123574300">
        <ele>993.00000</ele>
        <time>2008-10-30T02:31:36Z</time>
      </trkpt>
      <trkpt lat="47.85125260" lon="8.123059300">
        <ele>977.00000</ele>
        <time>2008-10-30T02:31:55Z</time>
      </trkpt>
      <trkpt lat="47.85172460" lon="8.122630100">
        <ele>982.00000</ele>
        <time>2008-10-30T02:32:17Z</time>
      </trkpt>
      <trkpt lat="47.85292630" lon="8.121943500">
        <ele>985.00000</ele>
        <time>2008-10-30T02:33:09Z</time>
      </trkpt>
      <trkpt lat="47.85357000" lon="8.121428500">
        <ele>985.00000</ele>
        <time>2008-10-30T02:33:38Z</time>
      </trkpt>
      <trkpt lat="47.85399910" lon="8.120956400">
        <ele>978.00000</ele>
        <time>2008-10-30T02:33:59Z</time>
      </trkpt>
      <trkpt lat="47.85545830" lon="8.118810700">
        <ele>978.00000</ele>
        <time>2008-10-30T02:35:21Z</time>
      </trkpt>
      <trkpt lat="47.85571580" lon="8.118338600">
        <ele>981.00000</ele>
        <time>2008-10-30T02:35:38Z</time>
      </trkpt>
      <trkpt lat="47.85584450" lon="8.117952300">
        <ele>981.00000</ele>
        <time>2008-10-30T02:35:49Z</time>
      </trkpt>
      <trkpt lat="47.85601620" lon="8.116579100">
        <ele>988.00000</ele>
        <time>2008-10-30T02:36:27Z</time>
      </trkpt>
      <trkpt lat="47.85597320" lon="8.115806600">
        <ele>989.00000</ele>
        <time>2008-10-30T02:36:48Z</time>
      </trkpt>
      <trkpt lat="47.85571580" lon="8.114819500">
        <ele>985.00000</ele>
        <time>2008-10-30T02:37:16Z</time>
      </trkpt>
      <trkpt lat="47.85554410" lon="8.114304500">
        <ele>982.00000</ele>
        <time>2008-10-30T02:37:32Z</time>
      </trkpt>
      <trkpt lat="47.85545830" lon="8.114090000">
        <ele>982.00000</ele>
        <time>2008-10-30T02:37:38Z</time>
      </trkpt>
      <trkpt lat="47.85494330" lon="8.112673800">
        <ele>990.00000</ele>
        <time>2008-10-30T02:38:22Z</time>
      </trkpt>
      <trkpt lat="47.85455700" lon="8.111729600">
        <ele>998.00000</ele>
        <time>2008-10-30T02:38:51Z</time>
      </trkpt>
      <trkpt lat="47.85442830" lon="8.111515000">
        <ele>998.00000</ele>
        <time>2008-10-30T02:38:59Z</time>
      </trkpt>
      <trkpt lat="47.85404210" lon="8.110613800">
        <ele>994.00000</ele>
        <time>2008-10-30T02:39:28Z</time>
      </trkpt>
      <trkpt lat="47.85395620" lon="8.110013000">
        <ele>988.00000</ele>
        <time>2008-10-30T02:39:44Z</time>
      </trkpt>
      <trkpt lat="47.85399910" lon="8.109540900">
        <ele>988.00000</ele>
        <time>2008-10-30T02:39:57Z</time>
      </trkpt>
      <trkpt lat="47.85408500" lon="8.109326400">
        <ele>988.00000</ele>
        <time>2008-10-30T02:40:04Z</time>
      </trkpt>
      <trkpt lat="47.85425660" lon="8.109068900">
        <ele>988.00000</ele>
        <time>2008-10-30T02:40:14Z</time>
      </trkpt>
      <trkpt lat="47.85447120" lon="8.108897200">
        <ele>988.00000</ele>
        <time>2008-10-30T02:40:23Z</time>
      </trkpt>
      <trkpt lat="47.85464290" lon="8.108854300">
        <ele>992.00000</ele>
        <time>2008-10-30T02:40:30Z</time>
      </trkpt>
      <trkpt lat="47.85498620" lon="8.108940100">
        <ele>992.00000</ele>
        <time>2008-10-30T02:40:44Z</time>
      </trkpt>
      <trkpt lat="47.85562990" lon="8.109455100">
        <ele>1004.0000</ele>
        <time>2008-10-30T02:41:13Z</time>
      </trkpt>
      <trkpt lat="47.85696030" lon="8.110141800">
        <ele>995.00000</ele>
        <time>2008-10-30T02:42:10Z</time>
      </trkpt>
      <trkpt lat="47.85704610" lon="8.110184700">
        <ele>995.00000</ele>
        <time>2008-10-30T02:42:13Z</time>
      </trkpt>
      <trkpt lat="47.85764690" lon="8.110442200">
        <ele>984.00000</ele>
        <time>2008-10-30T02:42:38Z</time>
      </trkpt>
      <trkpt lat="47.85807610" lon="8.110485100">
        <ele>984.00000</ele>
        <time>2008-10-30T02:42:56Z</time>
      </trkpt>
      <trkpt lat="47.85837650" lon="8.110313400">
        <ele>990.00000</ele>
        <time>2008-10-30T02:43:09Z</time>
      </trkpt>
      <trkpt lat="47.85867690" lon="8.109884300">
        <ele>990.00000</ele>
        <time>2008-10-30T02:43:25Z</time>
      </trkpt>
      <trkpt lat="47.85902020" lon="8.108983000">
        <ele>981.00000</ele>
        <time>2008-10-30T02:43:53Z</time>
      </trkpt>
      <trkpt lat="47.85974980" lon="8.107051800">
        <ele>973.00000</ele>
        <time>2008-10-30T02:44:53Z</time>
      </trkpt>
      <trkpt lat="47.86000730" lon="8.106064800">
        <ele>973.00000</ele>
        <time>2008-10-30T02:45:21Z</time>
      </trkpt>
      <trkpt lat="47.86009310" lon="8.105506900">
        <ele>973.00000</ele>
        <time>2008-10-30T02:45:36Z</time>
      </trkpt>
      <trkpt lat="47.86013600" lon="8.103146600">
        <ele>972.00000</ele>
        <time>2008-10-30T02:46:40Z</time>
      </trkpt>
      <trkpt lat="47.86026480" lon="8.102459900">
        <ele>968.00000</ele>
        <time>2008-10-30T02:46:59Z</time>
      </trkpt>
      <trkpt lat="47.86052230" lon="8.101730300">
        <ele>965.00000</ele>
        <time>2008-10-30T02:47:21Z</time>
      </trkpt>
      <trkpt lat="47.86073680" lon="8.101429900">
        <ele>965.00000</ele>
        <time>2008-10-30T02:47:33Z</time>
      </trkpt>
      <trkpt lat="47.86120890" lon="8.101000800">
        <ele>969.00000</ele>
        <time>2008-10-30T02:47:55Z</time>
      </trkpt>
      <trkpt lat="47.86159520" lon="8.100829100">
        <ele>969.00000</ele>
        <time>2008-10-30T02:48:11Z</time>
      </trkpt>
      <trkpt lat="47.86258220" lon="8.100700400">
        <ele>976.00000</ele>
        <time>2008-10-30T02:48:51Z</time>
      </trkpt>
      <trkpt lat="47.86314010" lon="8.100400000">
        <ele>981.00000</ele>
        <time>2008-10-30T02:49:15Z</time>
      </trkpt>
      <trkpt lat="47.86348340" lon="8.099970800">
        <ele>981.00000</ele>
        <time>2008-10-30T02:49:32Z</time>
      </trkpt>
      <trkpt lat="47.86352630" lon="8.099842100">
        <ele>981.00000</ele>
        <time>2008-10-30T02:49:36Z</time>
      </trkpt>
      <trkpt lat="47.86361220" lon="8.099670400">
        <ele>981.00000</ele>
        <time>2008-10-30T02:49:42Z</time>
      </trkpt>
      <trkpt lat="47.86455630" lon="8.097567600">
        <ele>996.00000</ele>
        <time>2008-10-30T02:50:50Z</time>
      </trkpt>
      <trkpt lat="47.86494260" lon="8.096923800">
        <ele>995.00000</ele>
        <time>2008-10-30T02:51:13Z</time>
      </trkpt>
      <trkpt lat="47.86528590" lon="8.096623400">
        <ele>995.00000</ele>
        <time>2008-10-30T02:51:29Z</time>
      </trkpt>
      <trkpt lat="47.86588670" lon="8.096323000">
        <ele>986.00000</ele>
        <time>2008-10-30T02:51:55Z</time>
      </trkpt>
      <trkpt lat="47.86635880" lon="8.096194300">
        <ele>989.00000</ele>
        <time>2008-10-30T02:52:14Z</time>
      </trkpt>
      <trkpt lat="47.86816120" lon="8.095979700">
        <ele>986.00000</ele>
        <time>2008-10-30T02:53:26Z</time>
      </trkpt>
      <trkpt lat="47.86828990" lon="8.095979700">
        <ele>986.00000</ele>
        <time>2008-10-30T02:53:31Z</time>
      </trkpt>
      <trkpt lat="47.86880490" lon="8.095850900">
        <ele>976.00000</ele>
        <time>2008-10-30T02:53:52Z</time>
      </trkpt>
      <trkpt lat="47.86923410" lon="8.095679300">
        <ele>976.00000</ele>
        <time>2008-10-30T02:54:10Z</time>
      </trkpt>
      <trkpt lat="47.86966320" lon="8.095550500">
        <ele>973.00000</ele>
        <time>2008-10-30T02:54:27Z</time>
      </trkpt>
      <trkpt lat="47.86980900" lon="8.095084200">
        <ele>975.00000</ele>
        <time>2008-10-30T02:54:41Z</time>
      </trkpt>
      <trkpt lat="47.86987780" lon="8.094863900">
        <ele>975.00000</ele>
        <time>2008-10-30T02:54:48Z</time>
      </trkpt>
      <trkpt lat="47.87000660" lon="8.094263100">
        <ele>979.00000</ele>
        <time>2008-10-30T02:55:05Z</time>
      </trkpt>
      <trkpt lat="47.87026410" lon="8.094348900">
        <ele>979.00000</ele>
        <time>2008-10-30T02:55:15Z</time>
      </trkpt>
      <trkpt lat="47.87034990" lon="8.094306000">
        <ele>979.00000</ele>
        <time>2008-10-30T02:55:19Z</time>
      </trkpt>
      <trkpt lat="47.87069320" lon="8.093833900">
        <ele>974.00000</ele>
        <time>2008-10-30T02:55:38Z</time>
      </trkpt>
      <trkpt lat="47.87107940" lon="8.093147300">
        <ele>972.00000</ele>
        <time>2008-10-30T02:56:02Z</time>
      </trkpt>
      <trkpt lat="47.87120820" lon="8.092846900">
        <ele>975.00000</ele>
        <time>2008-10-30T02:56:11Z</time>
      </trkpt>
      <trkpt lat="47.87125110" lon="8.092374800">
        <ele>959.00000</ele>
        <time>2008-10-30T02:56:24Z</time>
      </trkpt>
      <trkpt lat="47.87125110" lon="8.091816900">
        <ele>959.00000</ele>
        <time>2008-10-30T02:56:39Z</time>
      </trkpt>
      <trkpt lat="47.87137990" lon="8.091731100">
        <ele>959.00000</ele>
        <time>2008-10-30T02:56:45Z</time>
      </trkpt>
      <trkpt lat="47.87146570" lon="8.091774000">
        <ele>959.00000</ele>
        <time>2008-10-30T02:56:48Z</time>
      </trkpt>
      <trkpt lat="47.87155150" lon="8.091988600">
        <ele>959.00000</ele>
        <time>2008-10-30T02:56:55Z</time>
      </trkpt>
      <trkpt lat="47.87159440" lon="8.093061400">
        <ele>957.00000</ele>
        <time>2008-10-30T02:57:24Z</time>
      </trkpt>
      <trkpt lat="47.87180900" lon="8.094692200">
        <ele>958.00000</ele>
        <time>2008-10-30T02:58:09Z</time>
      </trkpt>
      <trkpt lat="47.87198070" lon="8.095078500">
        <ele>958.00000</ele>
        <time>2008-10-30T02:58:21Z</time>
      </trkpt>
      <trkpt lat="47.87219520" lon="8.095464700">
        <ele>946.00000</ele>
        <time>2008-10-30T02:58:34Z</time>
      </trkpt>
      <trkpt lat="47.87228110" lon="8.095808000">
        <ele>946.00000</ele>
        <time>2008-10-30T02:58:44Z</time>
      </trkpt>
      <trkpt lat="47.87223820" lon="8.096752200">
        <ele>945.00000</ele>
        <time>2008-10-30T02:59:10Z</time>
      </trkpt>
      <trkpt lat="47.87210940" lon="8.097481700">
        <ele>940.00000</ele>
        <time>2008-10-30T02:59:30Z</time>
      </trkpt>
      <trkpt lat="47.87223820" lon="8.097910900">
        <ele>940.00000</ele>
        <time>2008-10-30T02:59:43Z</time>
      </trkpt>
      <trkpt lat="47.87356850" lon="8.099541700">
        <ele>923.00000</ele>
        <time>2008-10-30T03:00:52Z</time>
      </trkpt>
      <trkpt lat="47.87391190" lon="8.099670400">
        <ele>917.00000</ele>
        <time>2008-10-30T03:01:06Z</time>
      </trkpt>
      <trkpt lat="47.87408350" lon="8.099627500">
        <ele>917.00000</ele>
        <time>2008-10-30T03:01:13Z</time>
      </trkpt>
      <trkpt lat="47.87455560" lon="8.099327100">
        <ele>907.00000</ele>
        <time>2008-10-30T03:01:33Z</time>
      </trkpt>
      <trkpt lat="47.87472720" lon="8.099284200">
        <ele>900.00000</ele>
        <time>2008-10-30T03:01:40Z</time>
      </trkpt>
      <trkpt lat="47.87610050" lon="8.100142500">
        <ele>908.00000</ele>
        <time>2008-10-30T03:02:40Z</time>
      </trkpt>
      <trkpt lat="47.87644390" lon="8.100400000">
        <ele>902.00000</ele>
        <time>2008-10-30T03:02:55Z</time>
      </trkpt>
      <trkpt lat="47.87652970" lon="8.100657500">
        <ele>904.00000</ele>
        <time>2008-10-30T03:03:03Z</time>
      </trkpt>
      <trkpt lat="47.87661550" lon="8.101215400">
        <ele>904.00000</ele>
        <time>2008-10-30T03:03:18Z</time>
      </trkpt>
      <trkpt lat="47.87674430" lon="8.101773300">
        <ele>909.00000</ele>
        <time>2008-10-30T03:03:34Z</time>
      </trkpt>
      <trkpt lat="47.87738800" lon="8.103146600">
        <ele>894.00000</ele>
        <time>2008-10-30T03:04:19Z</time>
      </trkpt>
      <trkpt lat="47.87760260" lon="8.103961900">
        <ele>896.00000</ele>
        <time>2008-10-30T03:04:43Z</time>
      </trkpt>
      <trkpt lat="47.87773130" lon="8.104734400">
        <ele>889.00000</ele>
        <time>2008-10-30T03:05:04Z</time>
      </trkpt>
      <trkpt lat="47.87773130" lon="8.105077700">
        <ele>889.00000</ele>
        <time>2008-10-30T03:05:13Z</time>
      </trkpt>
      <trkpt lat="47.87755970" lon="8.105592700">
        <ele>878.00000</ele>
        <time>2008-10-30T03:05:29Z</time>
      </trkpt>
      <trkpt lat="47.87747380" lon="8.106150600">
        <ele>878.00000</ele>
        <time>2008-10-30T03:05:44Z</time>
      </trkpt>
      <trkpt lat="47.87751670" lon="8.106451000">
        <ele>870.00000</ele>
        <time>2008-10-30T03:05:52Z</time>
      </trkpt>
      <trkpt lat="47.87764550" lon="8.106708500">
        <ele>870.00000</ele>
        <time>2008-10-30T03:06:01Z</time>
      </trkpt>
      <trkpt lat="47.87811760" lon="8.107352300">
        <ele>867.00000</ele>
        <time>2008-10-30T03:06:26Z</time>
      </trkpt>
      <trkpt lat="47.87949090" lon="8.108854300">
        <ele>863.00000</ele>
        <time>2008-10-30T03:07:35Z</time>
      </trkpt>
      <trkpt lat="47.87983420" lon="8.109326400">
        <ele>893.00000</ele>
        <time>2008-10-30T03:07:53Z</time>
      </trkpt>
      <trkpt lat="47.87996290" lon="8.109669700">
        <ele>872.00000</ele>
        <time>2008-10-30T03:08:04Z</time>
      </trkpt>
      <trkpt lat="47.88022040" lon="8.110227600">
        <ele>872.00000</ele>
        <time>2008-10-30T03:08:22Z</time>
      </trkpt>
      <trkpt lat="47.88082120" lon="8.111386300">
        <ele>868.00000</ele>
        <time>2008-10-30T03:09:01Z</time>
      </trkpt>
      <trkpt lat="47.88107870" lon="8.111729600">
        <ele>868.00000</ele>
        <time>2008-10-30T03:09:15Z</time>
      </trkpt>
      <trkpt lat="47.88193700" lon="8.112673800">
        <ele>867.00000</ele>
        <time>2008-10-30T03:09:58Z</time>
      </trkpt>
      <trkpt lat="47.88258080" lon="8.113617900">
        <ele>873.00000</ele>
        <time>2008-10-30T03:10:34Z</time>
      </trkpt>
      <trkpt lat="47.88322450" lon="8.115248700">
        <ele>880.00000</ele>
        <time>2008-10-30T03:11:25Z</time>
      </trkpt>
      <trkpt lat="47.88356780" lon="8.115806600">
        <ele>865.00000</ele>
        <time>2008-10-30T03:11:45Z</time>
      </trkpt>
      <trkpt lat="47.88399700" lon="8.116192800">
        <ele>892.00000</ele>
        <time>2008-10-30T03:12:05Z</time>
      </trkpt>
      <trkpt lat="47.88434030" lon="8.116364500">
        <ele>860.00000</ele>
        <time>2008-10-30T03:12:20Z</time>
      </trkpt>
      <trkpt lat="47.88537030" lon="8.116579100">
        <ele>868.00000</ele>
        <time>2008-10-30T03:13:01Z</time>
      </trkpt>
      <trkpt lat="47.88588520" lon="8.116750700">
        <ele>865.00000</ele>
        <time>2008-10-30T03:13:23Z</time>
      </trkpt>
      <trkpt lat="47.88635730" lon="8.117051100">
        <ele>874.00000</ele>
        <time>2008-10-30T03:13:43Z</time>
      </trkpt>
      <trkpt lat="47.88712980" lon="8.117737800">
        <ele>878.00000</ele>
        <time>2008-10-30T03:14:19Z</time>
      </trkpt>
      <trkpt lat="47.88751600" lon="8.118295700">
        <ele>863.00000</ele>
        <time>2008-10-30T03:14:41Z</time>
      </trkpt>
      <trkpt lat="47.88768770" lon="8.118724800">
        <ele>863.00000</ele>
        <time>2008-10-30T03:14:54Z</time>
      </trkpt>
      <trkpt lat="47.88798810" lon="8.119969400">
        <ele>867.00000</ele>
        <time>2008-10-30T03:15:29Z</time>
      </trkpt>
      <trkpt lat="47.88811680" lon="8.120827700">
        <ele>870.00000</ele>
        <time>2008-10-30T03:15:53Z</time>
      </trkpt>
      <trkpt lat="47.88820270" lon="8.121857600">
        <ele>869.00000</ele>
        <time>2008-10-30T03:16:21Z</time>
      </trkpt>
      <trkpt lat="47.88820270" lon="8.122372600">
        <ele>872.00000</ele>
        <time>2008-10-30T03:16:35Z</time>
      </trkpt>
      <trkpt lat="47.88815980" lon="8.123359700">
        <ele>874.00000</ele>
        <time>2008-10-30T03:17:01Z</time>
      </trkpt>
      <trkpt lat="47.88820270" lon="8.124904600">
        <ele>874.00000</ele>
        <time>2008-10-30T03:17:43Z</time>
      </trkpt>
      <trkpt lat="47.88837430" lon="8.127694100">
        <ele>865.00000</ele>
        <time>2008-10-30T03:18:58Z</time>
      </trkpt>
      <trkpt lat="47.88871770" lon="8.128724100">
        <ele>863.00000</ele>
        <time>2008-10-30T03:19:29Z</time>
      </trkpt>
      <trkpt lat="47.88876060" lon="8.129410700">
        <ele>876.00000</ele>
        <time>2008-10-30T03:19:47Z</time>
      </trkpt>
      <trkpt lat="47.88880350" lon="8.129839900">
        <ele>876.00000</ele>
        <time>2008-10-30T03:19:59Z</time>
      </trkpt>
      <trkpt lat="47.88931850" lon="8.131384800">
        <ele>872.00000</ele>
        <time>2008-10-30T03:20:45Z</time>
      </trkpt>
      <trkpt lat="47.88944720" lon="8.131642300">
        <ele>872.00000</ele>
        <time>2008-10-30T03:20:54Z</time>
      </trkpt>
      <trkpt lat="47.88970470" lon="8.131856900">
        <ele>890.00000</ele>
        <time>2008-10-30T03:21:06Z</time>
      </trkpt>
      <trkpt lat="47.88991930" lon="8.132157300">
        <ele>882.00000</ele>
        <time>2008-10-30T03:21:18Z</time>
      </trkpt>
      <trkpt lat="47.89013390" lon="8.132715200">
        <ele>882.00000</ele>
        <time>2008-10-30T03:21:35Z</time>
      </trkpt>
      <trkpt lat="47.89034840" lon="8.133015600">
        <ele>869.00000</ele>
        <time>2008-10-30T03:21:47Z</time>
      </trkpt>
      <trkpt lat="47.89082050" lon="8.133401900">
        <ele>889.00000</ele>
        <time>2008-10-30T03:22:08Z</time>
      </trkpt>
      <trkpt lat="47.89094920" lon="8.133530600">
        <ele>889.00000</ele>
        <time>2008-10-30T03:22:14Z</time>
      </trkpt>
      <trkpt lat="47.89120670" lon="8.134474800">
        <ele>881.00000</ele>
        <time>2008-10-30T03:22:42Z</time>
      </trkpt>
      <trkpt lat="47.89189340" lon="8.135290100">
        <ele>887.00000</ele>
        <time>2008-10-30T03:23:17Z</time>
      </trkpt>
      <trkpt lat="47.89223670" lon="8.136062600">
        <ele>886.00000</ele>
        <time>2008-10-30T03:23:42Z</time>
      </trkpt>
      <trkpt lat="47.89249420" lon="8.136405900">
        <ele>875.00000</ele>
        <time>2008-10-30T03:23:56Z</time>
      </trkpt>
      <trkpt lat="47.89292340" lon="8.136878000">
        <ele>893.00000</ele>
        <time>2008-10-30T03:24:17Z</time>
      </trkpt>
      <trkpt lat="47.89300920" lon="8.137135500">
        <ele>883.00000</ele>
        <time>2008-10-30T03:24:25Z</time>
      </trkpt>
      <trkpt lat="47.89309500" lon="8.138165500">
        <ele>880.00000</ele>
        <time>2008-10-30T03:24:53Z</time>
      </trkpt>
      <trkpt lat="47.89322380" lon="8.138594600">
        <ele>880.00000</ele>
        <time>2008-10-30T03:25:05Z</time>
      </trkpt>
      <trkpt lat="47.89361000" lon="8.139452900">
        <ele>868.00000</ele>
        <time>2008-10-30T03:25:33Z</time>
      </trkpt>
      <trkpt lat="47.89429660" lon="8.140225400">
        <ele>872.00000</ele>
        <time>2008-10-30T03:26:07Z</time>
      </trkpt>
      <trkpt lat="47.89468290" lon="8.140525800">
        <ele>871.00000</ele>
        <time>2008-10-30T03:26:25Z</time>
      </trkpt>
      <trkpt lat="47.89502620" lon="8.140826200">
        <ele>871.00000</ele>
        <time>2008-10-30T03:26:41Z</time>
      </trkpt>
      <trkpt lat="47.89558410" lon="8.141598700">
        <ele>875.00000</ele>
        <time>2008-10-30T03:27:11Z</time>
      </trkpt>
      <trkpt lat="47.89631370" lon="8.142671600">
        <ele>870.00000</ele>
        <time>2008-10-30T03:27:52Z</time>
      </trkpt>
      <trkpt lat="47.89661410" lon="8.142972000">
        <ele>856.00000</ele>
        <time>2008-10-30T03:28:07Z</time>
      </trkpt>
      <trkpt lat="47.89798740" lon="8.143529900">
        <ele>862.00000</ele>
        <time>2008-10-30T03:29:04Z</time>
      </trkpt>
      <trkpt lat="47.89828780" lon="8.143701600">
        <ele>862.00000</ele>
        <time>2008-10-30T03:29:17Z</time>
      </trkpt>
      <trkpt lat="47.89854530" lon="8.144002000">
        <ele>851.00000</ele>
        <time>2008-10-30T03:29:30Z</time>
      </trkpt>
      <trkpt lat="47.89910320" lon="8.144860300">
        <ele>850.00000</ele>
        <time>2008-10-30T03:30:02Z</time>
      </trkpt>
      <trkpt lat="47.89966110" lon="8.146019000">
        <ele>854.00000</ele>
        <time>2008-10-30T03:30:40Z</time>
      </trkpt>
      <trkpt lat="47.89978980" lon="8.146276500">
        <ele>853.00000</ele>
        <time>2008-10-30T03:30:49Z</time>
      </trkpt>
      <trkpt lat="47.90000440" lon="8.147521000">
        <ele>851.00000</ele>
        <time>2008-10-30T03:31:23Z</time>
      </trkpt>
      <trkpt lat="47.90021900" lon="8.148250600">
        <ele>850.00000</ele>
        <time>2008-10-30T03:31:44Z</time>
      </trkpt>
      <trkpt lat="47.90047650" lon="8.148851400">
        <ele>857.00000</ele>
        <time>2008-10-30T03:32:04Z</time>
      </trkpt>
      <trkpt lat="47.90051940" lon="8.149023100">
        <ele>857.00000</ele>
        <time>2008-10-30T03:32:09Z</time>
      </trkpt>
      <trkpt lat="47.90077690" lon="8.149795500">
        <ele>856.00000</ele>
        <time>2008-10-30T03:32:32Z</time>
      </trkpt>
      <trkpt lat="47.90116310" lon="8.151683800">
        <ele>854.00000</ele>
        <time>2008-10-30T03:33:25Z</time>
      </trkpt>
      <trkpt lat="47.90133480" lon="8.151769600">
        <ele>856.00000</ele>
        <time>2008-10-30T03:33:32Z</time>
      </trkpt>
      <trkpt lat="47.90176390" lon="8.151555100">
        <ele>856.00000</ele>
        <time>2008-10-30T03:33:50Z</time>
      </trkpt>
      <trkpt lat="47.90184970" lon="8.151340500">
        <ele>856.00000</ele>
        <time>2008-10-30T03:33:57Z</time>
      </trkpt>
      <trkpt lat="47.90176390" lon="8.150696800">
        <ele>857.00000</ele>
        <time>2008-10-30T03:34:14Z</time>
      </trkpt>
      <trkpt lat="47.90172100" lon="8.149881400">
        <ele>859.00000</ele>
        <time>2008-10-30T03:34:36Z</time>
      </trkpt>
      <trkpt lat="47.90184970" lon="8.149323500">
        <ele>864.00000</ele>
        <time>2008-10-30T03:34:52Z</time>
      </trkpt>
      <trkpt lat="47.90206430" lon="8.148808500">
        <ele>864.00000</ele>
        <time>2008-10-30T03:35:08Z</time>
      </trkpt>
      <trkpt lat="47.90240760" lon="8.148250600">
        <ele>863.00000</ele>
        <time>2008-10-30T03:35:29Z</time>
      </trkpt>
      <trkpt lat="47.90262220" lon="8.146319400">
        <ele>863.00000</ele>
        <time>2008-10-30T03:36:21Z</time>
      </trkpt>
      <trkpt lat="47.90266510" lon="8.146233600">
        <ele>865.00000</ele>
        <time>2008-10-30T03:36:24Z</time>
      </trkpt>
      <trkpt lat="47.90275100" lon="8.146233600">
        <ele>865.00000</ele>
        <time>2008-10-30T03:36:28Z</time>
      </trkpt>
      <trkpt lat="47.90292260" lon="8.145418200">
        <ele>868.00000</ele>
        <time>2008-10-30T03:36:50Z</time>
      </trkpt>
      <trkpt lat="47.90305140" lon="8.144817400">
        <ele>868.00000</ele>
        <time>2008-10-30T03:37:07Z</time>
      </trkpt>
      <trkpt lat="47.90326600" lon="8.144216500">
        <ele>870.00000</ele>
        <time>2008-10-30T03:37:26Z</time>
      </trkpt>
      <trkpt lat="47.90352340" lon="8.143658600">
        <ele>874.00000</ele>
        <time>2008-10-30T03:37:44Z</time>
      </trkpt>
      <trkpt lat="47.90390970" lon="8.143186600">
        <ele>870.00000</ele>
        <time>2008-10-30T03:38:04Z</time>
      </trkpt>
      <trkpt lat="47.90463920" lon="8.142499900">
        <ele>869.00000</ele>
        <time>2008-10-30T03:38:38Z</time>
      </trkpt>
      <trkpt lat="47.90515420" lon="8.142070800">
        <ele>868.00000</ele>
        <time>2008-10-30T03:39:02Z</time>
      </trkpt>
      <trkpt lat="47.90545460" lon="8.141770400">
        <ele>870.00000</ele>
        <time>2008-10-30T03:39:16Z</time>
      </trkpt>
      <trkpt lat="47.90592670" lon="8.141298300">
        <ele>870.00000</ele>
        <time>2008-10-30T03:39:39Z</time>
      </trkpt>
      <trkpt lat="47.90631290" lon="8.140654600">
        <ele>865.00000</ele>
        <time>2008-10-30T03:40:02Z</time>
      </trkpt>
      <trkpt lat="47.90652750" lon="8.140010800">
        <ele>868.00000</ele>
        <time>2008-10-30T03:40:22Z</time>
      </trkpt>
      <trkpt lat="47.90657040" lon="8.139538800">
        <ele>872.00000</ele>
        <time>2008-10-30T03:40:34Z</time>
      </trkpt>
      <trkpt lat="47.90652750" lon="8.138594600">
        <ele>873.00000</ele>
        <time>2008-10-30T03:41:00Z</time>
      </trkpt>
      <trkpt lat="47.90657040" lon="8.137865100">
        <ele>874.00000</ele>
        <time>2008-10-30T03:41:20Z</time>
      </trkpt>
      <trkpt lat="47.90639880" lon="8.137564700">
        <ele>874.00000</ele>
        <time>2008-10-30T03:41:30Z</time>
      </trkpt>
      <trkpt lat="47.90631290" lon="8.137006800">
        <ele>876.00000</ele>
        <time>2008-10-30T03:41:45Z</time>
      </trkpt>
      <trkpt lat="47.90635590" lon="8.136062600">
        <ele>878.00000</ele>
        <time>2008-10-30T03:42:11Z</time>
      </trkpt>
      <trkpt lat="47.90644170" lon="8.135676400">
        <ele>878.00000</ele>
        <time>2008-10-30T03:42:22Z</time>
      </trkpt>
      <trkpt lat="47.90708540" lon="8.135247200">
        <ele>878.00000</ele>
        <time>2008-10-30T03:42:50Z</time>
      </trkpt>
      <trkpt lat="47.90751460" lon="8.135075600">
        <ele>878.00000</ele>
        <time>2008-10-30T03:43:08Z</time>
      </trkpt>
      <trkpt lat="47.90802960" lon="8.134946800">
        <ele>887.00000</ele>
        <time>2008-10-30T03:43:29Z</time>
      </trkpt>
      <trkpt lat="47.90815830" lon="8.134818100">
        <ele>887.00000</ele>
        <time>2008-10-30T03:43:35Z</time>
      </trkpt>
      <trkpt lat="47.90893080" lon="8.133573500">
        <ele>886.00000</ele>
        <time>2008-10-30T03:44:20Z</time>
      </trkpt>
      <trkpt lat="47.90918830" lon="8.133444800">
        <ele>886.00000</ele>
        <time>2008-10-30T03:44:31Z</time>
      </trkpt>
      <trkpt lat="47.90966030" lon="8.133444800">
        <ele>903.00000</ele>
        <time>2008-10-30T03:44:50Z</time>
      </trkpt>
      <trkpt lat="47.90978910" lon="8.133401900">
        <ele>903.00000</ele>
        <time>2008-10-30T03:44:55Z</time>
      </trkpt>
      <trkpt lat="47.90987490" lon="8.133273100">
        <ele>903.00000</ele>
        <time>2008-10-30T03:45:00Z</time>
      </trkpt>
      <trkpt lat="47.91017530" lon="8.132371900">
        <ele>897.00000</ele>
        <time>2008-10-30T03:45:27Z</time>
      </trkpt>
      <trkpt lat="47.91069030" lon="8.131814000">
        <ele>912.00000</ele>
        <time>2008-10-30T03:45:53Z</time>
      </trkpt>
      <trkpt lat="47.91120530" lon="8.130998600">
        <ele>898.00000</ele>
        <time>2008-10-30T03:46:23Z</time>
      </trkpt>
      <trkpt lat="47.91159150" lon="8.130569500">
        <ele>907.00000</ele>
        <time>2008-10-30T03:46:42Z</time>
      </trkpt>
      <trkpt lat="47.91176320" lon="8.130440700">
        <ele>907.00000</ele>
        <time>2008-10-30T03:46:50Z</time>
      </trkpt>
      <trkpt lat="47.91249280" lon="8.130054500">
        <ele>906.00000</ele>
        <time>2008-10-30T03:47:21Z</time>
      </trkpt>
      <trkpt lat="47.91287900" lon="8.129925700">
        <ele>906.00000</ele>
        <time>2008-10-30T03:47:37Z</time>
      </trkpt>
      <trkpt lat="47.91309360" lon="8.129754100">
        <ele>905.00000</ele>
        <time>2008-10-30T03:47:46Z</time>
      </trkpt>
      <trkpt lat="47.91313650" lon="8.129496600">
        <ele>906.00000</ele>
        <time>2008-10-30T03:47:54Z</time>
      </trkpt>
      <trkpt lat="47.91305070" lon="8.129239100">
        <ele>906.00000</ele>
        <time>2008-10-30T03:48:01Z</time>
      </trkpt>
      <trkpt lat="47.91305070" lon="8.128552400">
        <ele>909.00000</ele>
        <time>2008-10-30T03:48:20Z</time>
      </trkpt>
      <trkpt lat="47.91300770" lon="8.128080400">
        <ele>909.00000</ele>
        <time>2008-10-30T03:48:32Z</time>
      </trkpt>
      <trkpt lat="47.91287900" lon="8.127479600">
        <ele>894.00000</ele>
        <time>2008-10-30T03:48:49Z</time>
      </trkpt>
      <trkpt lat="47.91292190" lon="8.126835800">
        <ele>913.00000</ele>
        <time>2008-10-30T03:49:07Z</time>
      </trkpt>
      <trkpt lat="47.91305070" lon="8.125977500">
        <ele>904.00000</ele>
        <time>2008-10-30T03:49:30Z</time>
      </trkpt>
      <trkpt lat="47.91317940" lon="8.125634200">
        <ele>904.00000</ele>
        <time>2008-10-30T03:49:41Z</time>
      </trkpt>
      <trkpt lat="47.91352270" lon="8.125076300">
        <ele>898.00000</ele>
        <time>2008-10-30T03:50:01Z</time>
      </trkpt>
      <trkpt lat="47.91378020" lon="8.124475500">
        <ele>901.00000</ele>
        <time>2008-10-30T03:50:20Z</time>
      </trkpt>
      <trkpt lat="47.91356560" lon="8.122716000">
        <ele>898.00000</ele>
        <time>2008-10-30T03:51:08Z</time>
      </trkpt>
      <trkpt lat="47.91347980" lon="8.121342700">
        <ele>900.00000</ele>
        <time>2008-10-30T03:51:45Z</time>
      </trkpt>
      <trkpt lat="47.91378020" lon="8.120269800">
        <ele>913.00000</ele>
        <time>2008-10-30T03:52:17Z</time>
      </trkpt>
      <trkpt lat="47.91408060" lon="8.119883500">
        <ele>913.00000</ele>
        <time>2008-10-30T03:52:32Z</time>
      </trkpt>
      <trkpt lat="47.91420940" lon="8.119583100">
        <ele>908.00000</ele>
        <time>2008-10-30T03:52:42Z</time>
      </trkpt>
      <trkpt lat="47.91476730" lon="8.117780700">
        <ele>911.00000</ele>
        <time>2008-10-30T03:53:35Z</time>
      </trkpt>
      <trkpt lat="47.91528220" lon="8.116836500">
        <ele>908.00000</ele>
        <time>2008-10-30T03:54:08Z</time>
      </trkpt>
      <trkpt lat="47.91558270" lon="8.116364500">
        <ele>921.00000</ele>
        <time>2008-10-30T03:54:25Z</time>
      </trkpt>
      <trkpt lat="47.91566850" lon="8.115935300">
        <ele>912.00000</ele>
        <time>2008-10-30T03:54:37Z</time>
      </trkpt>
      <trkpt lat="47.91584010" lon="8.114733700">
        <ele>911.00000</ele>
        <time>2008-10-30T03:55:10Z</time>
      </trkpt>
      <trkpt lat="47.91592600" lon="8.114261600">
        <ele>916.00000</ele>
        <time>2008-10-30T03:55:23Z</time>
      </trkpt>
      <trkpt lat="47.91622640" lon="8.113575000">
        <ele>922.00000</ele>
        <time>2008-10-30T03:55:45Z</time>
      </trkpt>
      <trkpt lat="47.91687010" lon="8.114948300">
        <ele>918.00000</ele>
        <time>2008-10-30T03:56:30Z</time>
      </trkpt>
      <trkpt lat="47.91729930" lon="8.115334500">
        <ele>918.00000</ele>
        <time>2008-10-30T03:56:50Z</time>
      </trkpt>
      <trkpt lat="47.91759970" lon="8.115549100">
        <ele>924.00000</ele>
        <time>2008-10-30T03:57:04Z</time>
      </trkpt>
      <trkpt lat="47.91948800" lon="8.116364500">
        <ele>947.00000</ele>
        <time>2008-10-30T03:58:23Z</time>
      </trkpt>
      <trkpt lat="47.92064670" lon="8.116707800">
        <ele>946.00000</ele>
        <time>2008-10-30T03:59:10Z</time>
      </trkpt>
      <trkpt lat="47.92081830" lon="8.116793600">
        <ele>946.00000</ele>
        <time>2008-10-30T03:59:17Z</time>
      </trkpt>
      <trkpt lat="47.92150500" lon="8.117523200">
        <ele>959.00000</ele>
        <time>2008-10-30T03:59:51Z</time>
      </trkpt>
      <trkpt lat="47.92262080" lon="8.118209800">
        <ele>976.00000</ele>
        <time>2008-10-30T04:00:39Z</time>
      </trkpt>
      <trkpt lat="47.92373660" lon="8.119068100">
        <ele>982.00000</ele>
        <time>2008-10-30T04:01:29Z</time>
      </trkpt>
      <trkpt lat="47.92412280" lon="8.119497300">
        <ele>1000.0000</ele>
        <time>2008-10-30T04:01:49Z</time>
      </trkpt>
      <trkpt lat="47.92438030" lon="8.119711900">
        <ele>1000.0000</ele>
        <time>2008-10-30T04:02:00Z</time>
      </trkpt>
      <trkpt lat="47.92523860" lon="8.120141000">
        <ele>994.00000</ele>
        <time>2008-10-30T04:02:37Z</time>
      </trkpt>
      <trkpt lat="47.92626860" lon="8.120484400">
        <ele>1007.0000</ele>
        <time>2008-10-30T04:03:19Z</time>
      </trkpt>
      <trkpt lat="47.92768480" lon="8.121428500">
        <ele>1024.0000</ele>
        <time>2008-10-30T04:04:21Z</time>
      </trkpt>
      <trkpt lat="47.92798520" lon="8.121514300">
        <ele>1026.0000</ele>
        <time>2008-10-30T04:04:33Z</time>
      </trkpt>
      <trkpt lat="47.92862890" lon="8.122072200">
        <ele>1026.0000</ele>
        <time>2008-10-30T04:05:03Z</time>
      </trkpt>
      <trkpt lat="47.92940140" lon="8.123188000">
        <ele>1028.0000</ele>
        <time>2008-10-30T04:05:46Z</time>
      </trkpt>
      <trkpt lat="47.92978760" lon="8.123574300">
        <ele>1015.0000</ele>
        <time>2008-10-30T04:06:05Z</time>
      </trkpt>
      <trkpt lat="47.93004510" lon="8.124260900">
        <ele>1025.0000</ele>
        <time>2008-10-30T04:06:26Z</time>
      </trkpt>
      <trkpt lat="47.93034550" lon="8.124690100">
        <ele>1036.0000</ele>
        <time>2008-10-30T04:06:42Z</time>
      </trkpt>
      <trkpt lat="47.93081760" lon="8.125033400">
        <ele>1037.0000</ele>
        <time>2008-10-30T04:07:03Z</time>
      </trkpt>
      <trkpt lat="47.93163300" lon="8.124904600">
        <ele>1042.0000</ele>
        <time>2008-10-30T04:07:36Z</time>
      </trkpt>
      <trkpt lat="47.93197630" lon="8.124947500">
        <ele>1042.0000</ele>
        <time>2008-10-30T04:07:50Z</time>
      </trkpt>
      <trkpt lat="47.93219090" lon="8.124647100">
        <ele>1046.0000</ele>
        <time>2008-10-30T04:08:02Z</time>
      </trkpt>
      <trkpt lat="47.93244840" lon="8.124518400">
        <ele>1032.0000</ele>
        <time>2008-10-30T04:08:13Z</time>
      </trkpt>
      <trkpt lat="47.93317790" lon="8.124132200">
        <ele>1033.0000</ele>
        <time>2008-10-30T04:08:44Z</time>
      </trkpt>
      <trkpt lat="47.93352130" lon="8.124003400">
        <ele>1033.0000</ele>
        <time>2008-10-30T04:08:58Z</time>
      </trkpt>
      <trkpt lat="47.93395040" lon="8.123960500">
        <ele>1037.0000</ele>
        <time>2008-10-30T04:09:15Z</time>
      </trkpt>
      <trkpt lat="47.93412210" lon="8.123874700">
        <ele>1037.0000</ele>
        <time>2008-10-30T04:09:22Z</time>
      </trkpt>
      <trkpt lat="47.93425080" lon="8.123703000">
        <ele>1028.0000</ele>
        <time>2008-10-30T04:09:29Z</time>
      </trkpt>
      <trkpt lat="47.93446540" lon="8.122973400">
        <ele>1028.0000</ele>
        <time>2008-10-30T04:09:51Z</time>
      </trkpt>
      <trkpt lat="47.93463710" lon="8.122758900">
        <ele>1040.0000</ele>
        <time>2008-10-30T04:10:00Z</time>
      </trkpt>
      <trkpt lat="47.93476580" lon="8.122458500">
        <ele>1040.0000</ele>
        <time>2008-10-30T04:10:09Z</time>
      </trkpt>
      <trkpt lat="47.93502330" lon="8.121600200">
        <ele>1036.0000</ele>
        <time>2008-10-30T04:10:34Z</time>
      </trkpt>
      <trkpt lat="47.93523790" lon="8.120570200">
        <ele>1035.0000</ele>
        <time>2008-10-30T04:11:03Z</time>
      </trkpt>
      <trkpt lat="47.93523790" lon="8.120269800">
        <ele>1035.0000</ele>
        <time>2008-10-30T04:11:11Z</time>
      </trkpt>
      <trkpt lat="47.93515210" lon="8.119626000">
        <ele>1035.0000</ele>
        <time>2008-10-30T04:11:29Z</time>
      </trkpt>
      <trkpt lat="47.93510910" lon="8.118810700">
        <ele>1039.0000</ele>
        <time>2008-10-30T04:11:51Z</time>
      </trkpt>
      <trkpt lat="47.93498040" lon="8.117308600">
        <ele>1043.0000</ele>
        <time>2008-10-30T04:12:32Z</time>
      </trkpt>
      <trkpt lat="47.93476580" lon="8.116536100">
        <ele>1040.0000</ele>
        <time>2008-10-30T04:12:54Z</time>
      </trkpt>
      <trkpt lat="47.93468000" lon="8.115720700">
        <ele>1039.0000</ele>
        <time>2008-10-30T04:13:16Z</time>
      </trkpt>
      <trkpt lat="47.93468000" lon="8.114132900">
        <ele>1032.0000</ele>
        <time>2008-10-30T04:13:59Z</time>
      </trkpt>
      <trkpt lat="47.93506620" lon="8.112845400">
        <ele>1018.0000</ele>
        <time>2008-10-30T04:14:36Z</time>
      </trkpt>
      <trkpt lat="47.93558120" lon="8.111772500">
        <ele>1024.0000</ele>
        <time>2008-10-30T04:15:12Z</time>
      </trkpt>
      <trkpt lat="47.93588160" lon="8.110227600">
        <ele>1002.0000</ele>
        <time>2008-10-30T04:15:55Z</time>
      </trkpt>
      <trkpt lat="47.93631080" lon="8.108596800">
        <ele>1002.0000</ele>
        <time>2008-10-30T04:16:42Z</time>
      </trkpt>
      <trkpt lat="47.93669700" lon="8.107652700">
        <ele>998.00000</ele>
        <time>2008-10-30T04:17:12Z</time>
      </trkpt>
      <trkpt lat="47.93669700" lon="8.107352300">
        <ele>998.00000</ele>
        <time>2008-10-30T04:17:20Z</time>
      </trkpt>
      <trkpt lat="47.93656830" lon="8.106751400">
        <ele>995.00000</ele>
        <time>2008-10-30T04:17:37Z</time>
      </trkpt>
      <trkpt lat="47.93661120" lon="8.106493900">
        <ele>995.00000</ele>
        <time>2008-10-30T04:17:44Z</time>
      </trkpt>
      <trkpt lat="47.93678280" lon="8.105764400">
        <ele>992.00000</ele>
        <time>2008-10-30T04:18:05Z</time>
      </trkpt>
      <trkpt lat="47.93669700" lon="8.105120700">
        <ele>990.00000</ele>
        <time>2008-10-30T04:18:22Z</time>
      </trkpt>
      <trkpt lat="47.93626790" lon="8.103790300">
        <ele>987.00000</ele>
        <time>2008-10-30T04:19:02Z</time>
      </trkpt>
      <trkpt lat="47.93643950" lon="8.102974900">
        <ele>985.00000</ele>
        <time>2008-10-30T04:19:25Z</time>
      </trkpt>
      <trkpt lat="47.93656830" lon="8.102417000">
        <ele>983.00000</ele>
        <time>2008-10-30T04:19:40Z</time>
      </trkpt>
      <trkpt lat="47.93678280" lon="8.101515800">
        <ele>978.00000</ele>
        <time>2008-10-30T04:20:06Z</time>
      </trkpt>
      <trkpt lat="47.93691160" lon="8.101215400">
        <ele>969.00000</ele>
        <time>2008-10-30T04:20:16Z</time>
      </trkpt>
      <trkpt lat="47.93721200" lon="8.100700400">
        <ele>979.00000</ele>
        <time>2008-10-30T04:20:34Z</time>
      </trkpt>
      <trkpt lat="47.93759820" lon="8.100271200">
        <ele>962.00000</ele>
        <time>2008-10-30T04:20:53Z</time>
      </trkpt>
      <trkpt lat="47.93828490" lon="8.098425900">
        <ele>967.00000</ele>
        <time>2008-10-30T04:21:50Z</time>
      </trkpt>
      <trkpt lat="47.93871400" lon="8.097910900">
        <ele>978.00000</ele>
        <time>2008-10-30T04:22:12Z</time>
      </trkpt>
      <trkpt lat="47.93879990" lon="8.097739200">
        <ele>968.00000</ele>
        <time>2008-10-30T04:22:18Z</time>
      </trkpt>
      <trkpt lat="47.93892860" lon="8.097353000">
        <ele>968.00000</ele>
        <time>2008-10-30T04:22:29Z</time>
      </trkpt>
      <trkpt lat="47.93905740" lon="8.096795100">
        <ele>974.00000</ele>
        <time>2008-10-30T04:22:45Z</time>
      </trkpt>
      <trkpt lat="47.93914320" lon="8.094949700">
        <ele>983.00000</ele>
        <time>2008-10-30T04:23:35Z</time>
      </trkpt>
      <trkpt lat="47.93875690" lon="8.094434700">
        <ele>992.00000</ele>
        <time>2008-10-30T04:23:55Z</time>
      </trkpt>
      <trkpt lat="47.93922900" lon="8.094348900">
        <ele>992.00000</ele>
        <time>2008-10-30T04:24:14Z</time>
      </trkpt>
      <trkpt lat="47.93957230" lon="8.094348900">
        <ele>992.00000</ele>
        <time>2008-10-30T04:24:28Z</time>
      </trkpt>
      <trkpt lat="47.94051650" lon="8.094306000">
        <ele>997.00000</ele>
        <time>2008-10-30T04:25:06Z</time>
      </trkpt>
      <trkpt lat="47.94094560" lon="8.094220200">
        <ele>997.00000</ele>
        <time>2008-10-30T04:25:23Z</time>
      </trkpt>
      <trkpt lat="47.94227600" lon="8.093619300">
        <ele>1002.0000</ele>
        <time>2008-10-30T04:26:19Z</time>
      </trkpt>
      <trkpt lat="47.94249060" lon="8.093447700">
        <ele>1002.0000</ele>
        <time>2008-10-30T04:26:29Z</time>
      </trkpt>
      <trkpt lat="47.94300560" lon="8.092804000">
        <ele>993.00000</ele>
        <time>2008-10-30T04:26:56Z</time>
      </trkpt>
      <trkpt lat="47.94386390" lon="8.091688200">
        <ele>989.00000</ele>
        <time>2008-10-30T04:27:41Z</time>
      </trkpt>
      <trkpt lat="47.94407840" lon="8.091387700">
        <ele>989.00000</ele>
        <time>2008-10-30T04:27:53Z</time>
      </trkpt>
      <trkpt lat="47.94459340" lon="8.091001500">
        <ele>993.00000</ele>
        <time>2008-10-30T04:28:16Z</time>
      </trkpt>
      <trkpt lat="47.94502260" lon="8.090786900">
        <ele>993.00000</ele>
        <time>2008-10-30T04:28:34Z</time>
      </trkpt>
      <trkpt lat="47.94540880" lon="8.090786900">
        <ele>993.00000</ele>
        <time>2008-10-30T04:28:50Z</time>
      </trkpt>
      <trkpt lat="47.94626710" lon="8.091044400">
        <ele>992.00000</ele>
        <time>2008-10-30T04:29:25Z</time>
      </trkpt>
      <trkpt lat="47.94703960" lon="8.091559400">
        <ele>990.00000</ele>
        <time>2008-10-30T04:29:58Z</time>
      </trkpt>
      <trkpt lat="47.94819830" lon="8.092460600">
        <ele>1007.0000</ele>
        <time>2008-10-30T04:30:51Z</time>
      </trkpt>
      <trkpt lat="47.94944290" lon="8.093147300">
        <ele>1012.0000</ele>
        <time>2008-10-30T04:31:44Z</time>
      </trkpt>
      <trkpt lat="47.95090200" lon="8.093705200">
        <ele>1025.0000</ele>
        <time>2008-10-30T04:32:44Z</time>
      </trkpt>
      <trkpt lat="47.95163150" lon="8.094306000">
        <ele>1026.0000</ele>
        <time>2008-10-30T04:33:18Z</time>
      </trkpt>
      <trkpt lat="47.95218940" lon="8.095121400">
        <ele>1032.0000</ele>
        <time>2008-10-30T04:33:49Z</time>
      </trkpt>
      <trkpt lat="47.95248990" lon="8.095593500">
        <ele>1029.0000</ele>
        <time>2008-10-30T04:34:06Z</time>
      </trkpt>
      <trkpt lat="47.95347690" lon="8.097138400">
        <ele>1040.0000</ele>
        <time>2008-10-30T04:35:03Z</time>
      </trkpt>
      <trkpt lat="47.95360570" lon="8.097310100">
        <ele>1040.0000</ele>
        <time>2008-10-30T04:35:10Z</time>
      </trkpt>
      <trkpt lat="47.95407770" lon="8.097868000">
        <ele>1034.0000</ele>
        <time>2008-10-30T04:35:35Z</time>
      </trkpt>
      <trkpt lat="47.95442100" lon="8.098211300">
        <ele>1047.0000</ele>
        <time>2008-10-30T04:35:51Z</time>
      </trkpt>
      <trkpt lat="47.95497890" lon="8.098640400">
        <ele>1042.0000</ele>
        <time>2008-10-30T04:36:16Z</time>
      </trkpt>
      <trkpt lat="47.95575140" lon="8.099069600">
        <ele>1046.0000</ele>
        <time>2008-10-30T04:36:49Z</time>
      </trkpt>
      <trkpt lat="47.95656680" lon="8.099284200">
        <ele>1038.0000</ele>
        <time>2008-10-30T04:37:22Z</time>
      </trkpt>
      <trkpt lat="47.95742510" lon="8.099327100">
        <ele>1034.0000</ele>
        <time>2008-10-30T04:37:57Z</time>
      </trkpt>
      <trkpt lat="47.95845510" lon="8.099327100">
        <ele>1035.0000</ele>
        <time>2008-10-30T04:38:38Z</time>
      </trkpt>
      <trkpt lat="47.95866970" lon="8.099455800">
        <ele>1035.0000</ele>
        <time>2008-10-30T04:38:47Z</time>
      </trkpt>
      <trkpt lat="47.95879840" lon="8.099713300">
        <ele>1038.0000</ele>
        <time>2008-10-30T04:38:56Z</time>
      </trkpt>
      <trkpt lat="47.95875550" lon="8.100142500">
        <ele>1038.0000</ele>
        <time>2008-10-30T04:39:07Z</time>
      </trkpt>
      <trkpt lat="47.95854090" lon="8.101043700">
        <ele>1053.0000</ele>
        <time>2008-10-30T04:39:33Z</time>
      </trkpt>
      <trkpt lat="47.95854090" lon="8.101258300">
        <ele>1042.0000</ele>
        <time>2008-10-30T04:39:39Z</time>
      </trkpt>
      <trkpt lat="47.95866970" lon="8.101816200">
        <ele>1042.0000</ele>
        <time>2008-10-30T04:39:55Z</time>
      </trkpt>
      <trkpt lat="47.95888420" lon="8.102245300">
        <ele>1038.0000</ele>
        <time>2008-10-30T04:40:09Z</time>
      </trkpt>
      <trkpt lat="47.95914170" lon="8.102459900">
        <ele>1038.0000</ele>
        <time>2008-10-30T04:40:21Z</time>
      </trkpt>
      <trkpt lat="47.96000000" lon="8.102631600">
        <ele>1030.0000</ele>
        <time>2008-10-30T04:40:55Z</time>
      </trkpt>
      <trkpt lat="47.96064380" lon="8.102760300">
        <ele>1023.0000</ele>
        <time>2008-10-30T04:41:21Z</time>
      </trkpt>
      <trkpt lat="47.96124460" lon="8.102932000">
        <ele>1044.0000</ele>
        <time>2008-10-30T04:41:46Z</time>
      </trkpt>
      <trkpt lat="47.96158790" lon="8.103146600">
        <ele>1031.0000</ele>
        <time>2008-10-30T04:42:01Z</time>
      </trkpt>
      <trkpt lat="47.96236040" lon="8.104090700">
        <ele>1019.0000</ele>
        <time>2008-10-30T04:42:41Z</time>
      </trkpt>
      <trkpt lat="47.96278950" lon="8.104305300">
        <ele>1019.0000</ele>
        <time>2008-10-30T04:42:59Z</time>
      </trkpt>
      <trkpt lat="47.96291830" lon="8.104348200">
        <ele>1026.0000</ele>
        <time>2008-10-30T04:43:04Z</time>
      </trkpt>
      <trkpt lat="47.96369080" lon="8.104004900">
        <ele>1026.0000</ele>
        <time>2008-10-30T04:43:36Z</time>
      </trkpt>
      <trkpt lat="47.96394820" lon="8.103961900">
        <ele>1032.0000</ele>
        <time>2008-10-30T04:43:47Z</time>
      </trkpt>
      <trkpt lat="47.96446320" lon="8.104090700">
        <ele>1032.0000</ele>
        <time>2008-10-30T04:44:08Z</time>
      </trkpt>
      <trkpt lat="47.96489240" lon="8.104476900">
        <ele>1015.0000</ele>
        <time>2008-10-30T04:44:28Z</time>
      </trkpt>
      <trkpt lat="47.96566490" lon="8.105549800">
        <ele>1022.0000</ele>
        <time>2008-10-30T04:45:10Z</time>
      </trkpt>
      <trkpt lat="47.96583650" lon="8.105678600">
        <ele>1022.0000</ele>
        <time>2008-10-30T04:45:18Z</time>
      </trkpt>
      <trkpt lat="47.96613690" lon="8.105807300">
        <ele>1022.0000</ele>
        <time>2008-10-30T04:45:30Z</time>
      </trkpt>
      <trkpt lat="47.96686650" lon="8.105807300">
        <ele>1017.0000</ele>
        <time>2008-10-30T04:45:59Z</time>
      </trkpt>
      <trkpt lat="47.96712400" lon="8.105893100">
        <ele>1014.0000</ele>
        <time>2008-10-30T04:46:10Z</time>
      </trkpt>
      <trkpt lat="47.96742440" lon="8.106193500">
        <ele>1014.0000</ele>
        <time>2008-10-30T04:46:24Z</time>
      </trkpt>
      <trkpt lat="47.96759610" lon="8.106451000">
        <ele>1017.0000</ele>
        <time>2008-10-30T04:46:34Z</time>
      </trkpt>
      <trkpt lat="47.96772480" lon="8.106837300">
        <ele>1017.0000</ele>
        <time>2008-10-30T04:46:46Z</time>
      </trkpt>
      <trkpt lat="47.96789650" lon="8.107609700">
        <ele>1018.0000</ele>
        <time>2008-10-30T04:47:08Z</time>
      </trkpt>
      <trkpt lat="47.96806810" lon="8.108854300">
        <ele>1007.0000</ele>
        <time>2008-10-30T04:47:42Z</time>
      </trkpt>
      <trkpt lat="47.96819690" lon="8.109283400">
        <ele>1007.0000</ele>
        <time>2008-10-30T04:47:54Z</time>
      </trkpt>
      <trkpt lat="47.96845440" lon="8.109841300">
        <ele>1009.0000</ele>
        <time>2008-10-30T04:48:12Z</time>
      </trkpt>
      <trkpt lat="47.96888350" lon="8.110399200">
        <ele>1005.0000</ele>
        <time>2008-10-30T04:48:35Z</time>
      </trkpt>
      <trkpt lat="47.96961310" lon="8.111085900">
        <ele>1004.0000</ele>
        <time>2008-10-30T04:49:10Z</time>
      </trkpt>
      <trkpt lat="47.96982770" lon="8.111558000">
        <ele>1008.0000</ele>
        <time>2008-10-30T04:49:25Z</time>
      </trkpt>
      <trkpt lat="47.96987060" lon="8.111944200">
        <ele>1008.0000</ele>
        <time>2008-10-30T04:49:35Z</time>
      </trkpt>
      <trkpt lat="47.96987060" lon="8.112373400">
        <ele>1009.0000</ele>
        <time>2008-10-30T04:49:47Z</time>
      </trkpt>
      <trkpt lat="47.96957020" lon="8.113231700">
        <ele>1028.0000</ele>
        <time>2008-10-30T04:50:13Z</time>
      </trkpt>
      <trkpt lat="47.96948430" lon="8.113789600">
        <ele>1031.0000</ele>
        <time>2008-10-30T04:50:28Z</time>
      </trkpt>
      <trkpt lat="47.96957020" lon="8.114476200">
        <ele>1031.0000</ele>
        <time>2008-10-30T04:50:47Z</time>
      </trkpt>
      <trkpt lat="47.96965600" lon="8.114776600">
        <ele>1011.0000</ele>
        <time>2008-10-30T04:50:56Z</time>
      </trkpt>
      <trkpt lat="47.97047140" lon="8.117137000">
        <ele>1011.0000</ele>
        <time>2008-10-30T04:52:07Z</time>
      </trkpt>
      <trkpt lat="47.97077180" lon="8.118467300">
        <ele>1019.0000</ele>
        <time>2008-10-30T04:52:45Z</time>
      </trkpt>
      <trkpt lat="47.97098640" lon="8.119239800">
        <ele>1025.0000</ele>
        <time>2008-10-30T04:53:07Z</time>
      </trkpt>
      <trkpt lat="47.97124390" lon="8.119754800">
        <ele>1026.0000</ele>
        <time>2008-10-30T04:53:24Z</time>
      </trkpt>
      <trkpt lat="47.97167300" lon="8.120441400">
        <ele>1026.0000</ele>
        <time>2008-10-30T04:53:49Z</time>
      </trkpt>
      <trkpt lat="47.97180180" lon="8.120741800">
        <ele>1026.0000</ele>
        <time>2008-10-30T04:53:59Z</time>
      </trkpt>
      <trkpt lat="47.97201630" lon="8.120527300">
        <ele>1026.0000</ele>
        <time>2008-10-30T04:54:09Z</time>
      </trkpt>
      <trkpt lat="47.97218800" lon="8.120312700">
        <ele>1021.0000</ele>
        <time>2008-10-30T04:54:18Z</time>
      </trkpt>
      <trkpt lat="47.97240260" lon="8.119754800">
        <ele>1021.0000</ele>
        <time>2008-10-30T04:54:35Z</time>
      </trkpt>
      <trkpt lat="47.97330380" lon="8.116536100">
        <ele>1012.0000</ele>
        <time>2008-10-30T04:56:09Z</time>
      </trkpt>
      <trkpt lat="47.97386170" lon="8.114218700">
        <ele>989.00000</ele>
        <time>2008-10-30T04:57:15Z</time>
      </trkpt>
      <trkpt lat="47.97394750" lon="8.113617900">
        <ele>987.00000</ele>
        <time>2008-10-30T04:57:31Z</time>
      </trkpt>
      <trkpt lat="47.97403340" lon="8.112416300">
        <ele>982.00000</ele>
        <time>2008-10-30T04:58:04Z</time>
      </trkpt>
      <trkpt lat="47.97403340" lon="8.109026000">
        <ele>966.00000</ele>
        <time>2008-10-30T04:59:35Z</time>
      </trkpt>
      <trkpt lat="47.97416210" lon="8.107781400">
        <ele>963.00000</ele>
        <time>2008-10-30T05:00:08Z</time>
      </trkpt>
      <trkpt lat="47.97446250" lon="8.106536900">
        <ele>963.00000</ele>
        <time>2008-10-30T05:00:44Z</time>
      </trkpt>
      <trkpt lat="47.97484870" lon="8.105549800">
        <ele>948.00000</ele>
        <time>2008-10-30T05:01:15Z</time>
      </trkpt>
      <trkpt lat="47.97566410" lon="8.104004900">
        <ele>938.00000</ele>
        <time>2008-10-30T05:02:07Z</time>
      </trkpt>
      <trkpt lat="47.97587870" lon="8.103275300">
        <ele>935.00000</ele>
        <time>2008-10-30T05:02:29Z</time>
      </trkpt>
      <trkpt lat="47.97600750" lon="8.102502800">
        <ele>930.00000</ele>
        <time>2008-10-30T05:02:50Z</time>
      </trkpt>
      <trkpt lat="47.97600750" lon="8.100872000">
        <ele>913.00000</ele>
        <time>2008-10-30T05:03:34Z</time>
      </trkpt>
      <trkpt lat="47.97613620" lon="8.100357100">
        <ele>908.00000</ele>
        <time>2008-10-30T05:03:48Z</time>
      </trkpt>
      <trkpt lat="47.97630790" lon="8.099970800">
        <ele>903.00000</ele>
        <time>2008-10-30T05:04:01Z</time>
      </trkpt>
      <trkpt lat="47.97660830" lon="8.099455800">
        <ele>903.00000</ele>
        <time>2008-10-30T05:04:19Z</time>
      </trkpt>
      <trkpt lat="47.97763820" lon="8.098211300">
        <ele>900.00000</ele>
        <time>2008-10-30T05:05:12Z</time>
      </trkpt>
      <trkpt lat="47.97776700" lon="8.097996700">
        <ele>900.00000</ele>
        <time>2008-10-30T05:05:20Z</time>
      </trkpt>
      <trkpt lat="47.97789570" lon="8.097567600">
        <ele>902.00000</ele>
        <time>2008-10-30T05:05:32Z</time>
      </trkpt>
      <trkpt lat="47.97811030" lon="8.096709300">
        <ele>885.00000</ele>
        <time>2008-10-30T05:05:57Z</time>
      </trkpt>
      <trkpt lat="47.97853950" lon="8.095893900">
        <ele>882.00000</ele>
        <time>2008-10-30T05:06:25Z</time>
      </trkpt>
      <trkpt lat="47.97858240" lon="8.095679300">
        <ele>882.00000</ele>
        <time>2008-10-30T05:06:31Z</time>
      </trkpt>
      <trkpt lat="47.97853950" lon="8.095507600">
        <ele>882.00000</ele>
        <time>2008-10-30T05:06:36Z</time>
      </trkpt>
      <trkpt lat="47.97841070" lon="8.095378900">
        <ele>892.00000</ele>
        <time>2008-10-30T05:06:42Z</time>
      </trkpt>
      <trkpt lat="47.97828200" lon="8.095378900">
        <ele>892.00000</ele>
        <time>2008-10-30T05:06:47Z</time>
      </trkpt>
      <trkpt lat="47.97785280" lon="8.095893900">
        <ele>868.00000</ele>
        <time>2008-10-30T05:07:09Z</time>
      </trkpt>
      <trkpt lat="47.97750950" lon="8.096108400">
        <ele>868.00000</ele>
        <time>2008-10-30T05:07:24Z</time>
      </trkpt>
      <trkpt lat="47.97725200" lon="8.096151400">
        <ele>868.00000</ele>
        <time>2008-10-30T05:07:34Z</time>
      </trkpt>
      <trkpt lat="47.97656540" lon="8.096108400">
        <ele>858.00000</ele>
        <time>2008-10-30T05:08:02Z</time>
      </trkpt>
      <trkpt lat="47.97626500" lon="8.096237200">
        <ele>858.00000</ele>
        <time>2008-10-30T05:08:14Z</time>
      </trkpt>
      <trkpt lat="47.97600750" lon="8.096451800">
        <ele>864.00000</ele>
        <time>2008-10-30T05:08:26Z</time>
      </trkpt>
      <trkpt lat="47.97579290" lon="8.096752200">
        <ele>864.00000</ele>
        <time>2008-10-30T05:08:38Z</time>
      </trkpt>
      <trkpt lat="47.97514920" lon="8.097825100">
        <ele>844.00000</ele>
        <time>2008-10-30T05:09:17Z</time>
      </trkpt>
      <trkpt lat="47.97484870" lon="8.098082500">
        <ele>864.00000</ele>
        <time>2008-10-30T05:09:30Z</time>
      </trkpt>
      <trkpt lat="47.97394750" lon="8.098554600">
        <ele>838.00000</ele>
        <time>2008-10-30T05:10:09Z</time>
      </trkpt>
      <trkpt lat="47.97334670" lon="8.099069600">
        <ele>845.00000</ele>
        <time>2008-10-30T05:10:36Z</time>
      </trkpt>
      <trkpt lat="47.97308920" lon="8.099069600">
        <ele>845.00000</ele>
        <time>2008-10-30T05:10:47Z</time>
      </trkpt>
      <trkpt lat="47.97300340" lon="8.098983800">
        <ele>845.00000</ele>
        <time>2008-10-30T05:10:51Z</time>
      </trkpt>
      <trkpt lat="47.97291760" lon="8.098726300">
        <ele>824.00000</ele>
        <time>2008-10-30T05:10:59Z</time>
      </trkpt>
      <trkpt lat="47.97296050" lon="8.098382900">
        <ele>824.00000</ele>
        <time>2008-10-30T05:11:08Z</time>
      </trkpt>
      <trkpt lat="47.97308920" lon="8.097567600">
        <ele>817.00000</ele>
        <time>2008-10-30T05:11:30Z</time>
      </trkpt>
      <trkpt lat="47.97330380" lon="8.096966700">
        <ele>814.00000</ele>
        <time>2008-10-30T05:11:49Z</time>
      </trkpt>
      <trkpt lat="47.97373290" lon="8.096580500">
        <ele>814.00000</ele>
        <time>2008-10-30T05:12:09Z</time>
      </trkpt>
      <trkpt lat="47.97480580" lon="8.095893900">
        <ele>806.00000</ele>
        <time>2008-10-30T05:12:55Z</time>
      </trkpt>
      <trkpt lat="47.97502040" lon="8.095593500">
        <ele>806.00000</ele>
        <time>2008-10-30T05:13:07Z</time>
      </trkpt>
      <trkpt lat="47.97519210" lon="8.095207200">
        <ele>790.00000</ele>
        <time>2008-10-30T05:13:20Z</time>
      </trkpt>
      <trkpt lat="47.97523500" lon="8.094778100">
        <ele>790.00000</ele>
        <time>2008-10-30T05:13:31Z</time>
      </trkpt>
      <trkpt lat="47.97514920" lon="8.094091400">
        <ele>782.00000</ele>
        <time>2008-10-30T05:13:50Z</time>
      </trkpt>
      <trkpt lat="47.97489170" lon="8.093447700">
        <ele>799.00000</ele>
        <time>2008-10-30T05:14:10Z</time>
      </trkpt>
      <trkpt lat="47.97446250" lon="8.092589400">
        <ele>770.00000</ele>
        <time>2008-10-30T05:14:39Z</time>
      </trkpt>
      <trkpt lat="47.97308920" lon="8.089585300">
        <ele>774.00000</ele>
        <time>2008-10-30T05:16:16Z</time>
      </trkpt>
      <trkpt lat="47.97283170" lon="8.089327800">
        <ele>759.00000</ele>
        <time>2008-10-30T05:16:29Z</time>
      </trkpt>
      <trkpt lat="47.97253130" lon="8.089156200">
        <ele>759.00000</ele>
        <time>2008-10-30T05:16:41Z</time>
      </trkpt>
      <trkpt lat="47.97167300" lon="8.088898700">
        <ele>742.00000</ele>
        <time>2008-10-30T05:17:17Z</time>
      </trkpt>
      <trkpt lat="47.97094350" lon="8.088083300">
        <ele>730.00000</ele>
        <time>2008-10-30T05:17:53Z</time>
      </trkpt>
      <trkpt lat="47.97081470" lon="8.087868700">
        <ele>733.00000</ele>
        <time>2008-10-30T05:18:01Z</time>
      </trkpt>
      <trkpt lat="47.97060010" lon="8.087310800">
        <ele>733.00000</ele>
        <time>2008-10-30T05:18:18Z</time>
      </trkpt>
      <trkpt lat="47.96974180" lon="8.085851700">
        <ele>730.00000</ele>
        <time>2008-10-30T05:19:10Z</time>
      </trkpt>
      <trkpt lat="47.96884060" lon="8.084135100">
        <ele>722.00000</ele>
        <time>2008-10-30T05:20:08Z</time>
      </trkpt>
      <trkpt lat="47.96845440" lon="8.083019300">
        <ele>697.00000</ele>
        <time>2008-10-30T05:20:42Z</time>
      </trkpt>
      <trkpt lat="47.96811100" lon="8.081903500">
        <ele>711.00000</ele>
        <time>2008-10-30T05:21:15Z</time>
      </trkpt>
      <trkpt lat="47.96793940" lon="8.080916400">
        <ele>704.00000</ele>
        <time>2008-10-30T05:21:42Z</time>
      </trkpt>
      <trkpt lat="47.96815400" lon="8.079543100">
        <ele>671.00000</ele>
        <time>2008-10-30T05:22:20Z</time>
      </trkpt>
      <trkpt lat="47.96841140" lon="8.078942300">
        <ele>671.00000</ele>
        <time>2008-10-30T05:22:39Z</time>
      </trkpt>
      <trkpt lat="47.96858310" lon="8.077955200">
        <ele>663.00000</ele>
        <time>2008-10-30T05:23:07Z</time>
      </trkpt>
      <trkpt lat="47.96858310" lon="8.077268600">
        <ele>671.00000</ele>
        <time>2008-10-30T05:23:25Z</time>
      </trkpt>
      <trkpt lat="47.96854020" lon="8.075981100">
        <ele>674.00000</ele>
        <time>2008-10-30T05:24:00Z</time>
      </trkpt>
      <trkpt lat="47.96854020" lon="8.075594900">
        <ele>674.00000</ele>
        <time>2008-10-30T05:24:10Z</time>
      </trkpt>
      <trkpt lat="47.96862600" lon="8.075294500">
        <ele>670.00000</ele>
        <time>2008-10-30T05:24:19Z</time>
      </trkpt>
      <trkpt lat="47.96879770" lon="8.074994100">
        <ele>666.00000</ele>
        <time>2008-10-30T05:24:29Z</time>
      </trkpt>
      <trkpt lat="47.96935560" lon="8.073363300">
        <ele>659.00000</ele>
        <time>2008-10-30T05:25:18Z</time>
      </trkpt>
      <trkpt lat="47.96965600" lon="8.072805400">
        <ele>643.00000</ele>
        <time>2008-10-30T05:25:38Z</time>
      </trkpt>
      <trkpt lat="47.96999930" lon="8.072376300">
        <ele>643.00000</ele>
        <time>2008-10-30T05:25:55Z</time>
      </trkpt>
      <trkpt lat="47.97051430" lon="8.071904200">
        <ele>648.00000</ele>
        <time>2008-10-30T05:26:20Z</time>
      </trkpt>
      <trkpt lat="47.97064300" lon="8.071646700">
        <ele>648.00000</ele>
        <time>2008-10-30T05:26:28Z</time>
      </trkpt>
      <trkpt lat="47.97072890" lon="8.070402100">
        <ele>638.00000</ele>
        <time>2008-10-30T05:27:02Z</time>
      </trkpt>
      <trkpt lat="47.97077180" lon="8.069415100">
        <ele>634.00000</ele>
        <time>2008-10-30T05:27:28Z</time>
      </trkpt>
      <trkpt lat="47.97064300" lon="8.068513900">
        <ele>626.00000</ele>
        <time>2008-10-30T05:27:53Z</time>
      </trkpt>
      <trkpt lat="47.97029970" lon="8.067011800">
        <ele>633.00000</ele>
        <time>2008-10-30T05:28:36Z</time>
      </trkpt>
      <trkpt lat="47.97034260" lon="8.065295200">
        <ele>628.00000</ele>
        <time>2008-10-30T05:29:22Z</time>
      </trkpt>
      <trkpt lat="47.97034260" lon="8.061776200">
        <ele>616.00000</ele>
        <time>2008-10-30T05:30:56Z</time>
      </trkpt>
      <trkpt lat="47.97029970" lon="8.060789100">
        <ele>623.00000</ele>
        <time>2008-10-30T05:31:22Z</time>
      </trkpt>
      <trkpt lat="47.97029970" lon="8.059372900">
        <ele>604.00000</ele>
        <time>2008-10-30T05:32:00Z</time>
      </trkpt>
      <trkpt lat="47.97004220" lon="8.058686300">
        <ele>600.00000</ele>
        <time>2008-10-30T05:32:21Z</time>
      </trkpt>
      <trkpt lat="47.97004220" lon="8.058171300">
        <ele>600.00000</ele>
        <time>2008-10-30T05:32:35Z</time>
      </trkpt>
      <trkpt lat="47.97008510" lon="8.057827900">
        <ele>619.00000</ele>
        <time>2008-10-30T05:32:45Z</time>
      </trkpt>
      <trkpt lat="47.97021390" lon="8.057484600">
        <ele>619.00000</ele>
        <time>2008-10-30T05:32:55Z</time>
      </trkpt>
      <trkpt lat="47.97115800" lon="8.056497600">
        <ele>583.00000</ele>
        <time>2008-10-30T05:33:41Z</time>
      </trkpt>
      <trkpt lat="47.97132970" lon="8.056025500">
        <ele>584.00000</ele>
        <time>2008-10-30T05:33:56Z</time>
      </trkpt>
      <trkpt lat="47.97137260" lon="8.055553400">
        <ele>584.00000</ele>
        <time>2008-10-30T05:34:08Z</time>
      </trkpt>
      <trkpt lat="47.97132970" lon="8.055210100">
        <ele>586.00000</ele>
        <time>2008-10-30T05:34:18Z</time>
      </trkpt>
      <trkpt lat="47.97132970" lon="8.054695100">
        <ele>586.00000</ele>
        <time>2008-10-30T05:34:32Z</time>
      </trkpt>
      <trkpt lat="47.97145840" lon="8.054223100">
        <ele>576.00000</ele>
        <time>2008-10-30T05:34:45Z</time>
      </trkpt>
      <trkpt lat="47.97167300" lon="8.053021400">
        <ele>568.00000</ele>
        <time>2008-10-30T05:35:19Z</time>
      </trkpt>
      <trkpt lat="47.97180180" lon="8.051648100">
        <ele>556.00000</ele>
        <time>2008-10-30T05:35:56Z</time>
      </trkpt>
      <trkpt lat="47.97214510" lon="8.050618200">
        <ele>563.00000</ele>
        <time>2008-10-30T05:36:27Z</time>
      </trkpt>
      <trkpt lat="47.97227380" lon="8.049802800">
        <ele>558.00000</ele>
        <time>2008-10-30T05:36:49Z</time>
      </trkpt>
      <trkpt lat="47.97227380" lon="8.049502400">
        <ele>562.00000</ele>
        <time>2008-10-30T05:36:57Z</time>
      </trkpt>
      <trkpt lat="47.97197340" lon="8.047914500">
        <ele>563.00000</ele>
        <time>2008-10-30T05:37:41Z</time>
      </trkpt>
      <trkpt lat="47.97240260" lon="8.046197900">
        <ele>542.00000</ele>
        <time>2008-10-30T05:38:30Z</time>
      </trkpt>
      <trkpt lat="47.97244550" lon="8.044652900">
        <ele>542.00000</ele>
        <time>2008-10-30T05:39:12Z</time>
      </trkpt>
      <trkpt lat="47.97253130" lon="8.044052100">
        <ele>541.00000</ele>
        <time>2008-10-30T05:39:28Z</time>
      </trkpt>
      <trkpt lat="47.97253130" lon="8.043279600">
        <ele>534.00000</ele>
        <time>2008-10-30T05:39:49Z</time>
      </trkpt>
      <trkpt lat="47.97244550" lon="8.042378400">
        <ele>527.00000</ele>
        <time>2008-10-30T05:40:13Z</time>
      </trkpt>
      <trkpt lat="47.97248840" lon="8.040361400">
        <ele>527.00000</ele>
        <time>2008-10-30T05:41:08Z</time>
      </trkpt>
      <trkpt lat="47.97244550" lon="8.039889300">
        <ele>527.00000</ele>
        <time>2008-10-30T05:41:20Z</time>
      </trkpt>
      <trkpt lat="47.97205920" lon="8.038129800">
        <ele>505.00000</ele>
        <time>2008-10-30T05:42:10Z</time>
      </trkpt>
      <trkpt lat="47.97184470" lon="8.036499000">
        <ele>506.00000</ele>
        <time>2008-10-30T05:42:54Z</time>
      </trkpt>
      <trkpt lat="47.97193050" lon="8.035683600">
        <ele>499.00000</ele>
        <time>2008-10-30T05:43:17Z</time>
      </trkpt>
      <trkpt lat="47.97201630" lon="8.035426100">
        <ele>499.00000</ele>
        <time>2008-10-30T05:43:24Z</time>
      </trkpt>
      <trkpt lat="47.97214510" lon="8.035082800">
        <ele>491.00000</ele>
        <time>2008-10-30T05:43:35Z</time>
      </trkpt>
      <trkpt lat="47.97283170" lon="8.034310300">
        <ele>488.00000</ele>
        <time>2008-10-30T05:44:09Z</time>
      </trkpt>
      <trkpt lat="47.97257420" lon="8.033623700">
        <ele>486.00000</ele>
        <time>2008-10-30T05:44:30Z</time>
      </trkpt>
      <trkpt lat="47.97223090" lon="8.032808300">
        <ele>485.00000</ele>
        <time>2008-10-30T05:44:56Z</time>
      </trkpt>
      <trkpt lat="47.97175880" lon="8.032164600">
        <ele>482.00000</ele>
        <time>2008-10-30T05:45:22Z</time>
      </trkpt>
      <trkpt lat="47.97150140" lon="8.031907100">
        <ele>480.00000</ele>
        <time>2008-10-30T05:45:34Z</time>
      </trkpt>
      <trkpt lat="47.97081470" lon="8.031520800">
        <ele>486.00000</ele>
        <time>2008-10-30T05:46:04Z</time>
      </trkpt>
      <trkpt lat="47.97047140" lon="8.031220400">
        <ele>480.00000</ele>
        <time>2008-10-30T05:46:19Z</time>
      </trkpt>
      <trkpt lat="47.96974180" lon="8.030276300">
        <ele>483.00000</ele>
        <time>2008-10-30T05:46:58Z</time>
      </trkpt>
      <trkpt lat="47.96914100" lon="8.029460900">
        <ele>486.00000</ele>
        <time>2008-10-30T05:47:31Z</time>
      </trkpt>
      <trkpt lat="47.96879770" lon="8.028988800">
        <ele>486.00000</ele>
        <time>2008-10-30T05:47:49Z</time>
      </trkpt>
      <trkpt lat="47.96854020" lon="8.028688400">
        <ele>484.00000</ele>
        <time>2008-10-30T05:48:02Z</time>
      </trkpt>
      <trkpt lat="47.96772480" lon="8.027830100">
        <ele>479.00000</ele>
        <time>2008-10-30T05:48:42Z</time>
      </trkpt>
      <trkpt lat="47.96686650" lon="8.027014700">
        <ele>474.00000</ele>
        <time>2008-10-30T05:49:23Z</time>
      </trkpt>
      <trkpt lat="47.96665190" lon="8.026714300">
        <ele>474.00000</ele>
        <time>2008-10-30T05:49:35Z</time>
      </trkpt>
      <trkpt lat="47.96605110" lon="8.025856000">
        <ele>469.00000</ele>
        <time>2008-10-30T05:50:08Z</time>
      </trkpt>
      <trkpt lat="47.96459200" lon="8.023238200">
        <ele>465.00000</ele>
        <time>2008-10-30T05:51:39Z</time>
      </trkpt>
      <trkpt lat="47.96442030" lon="8.022809000">
        <ele>459.00000</ele>
        <time>2008-10-30T05:51:53Z</time>
      </trkpt>
      <trkpt lat="47.96407700" lon="8.021607400">
        <ele>460.00000</ele>
        <time>2008-10-30T05:52:28Z</time>
      </trkpt>
      <trkpt lat="47.96386240" lon="8.020448700">
        <ele>461.00000</ele>
        <time>2008-10-30T05:53:00Z</time>
      </trkpt>
      <trkpt lat="47.96377660" lon="8.019461600">
        <ele>459.00000</ele>
        <time>2008-10-30T05:53:27Z</time>
      </trkpt>
      <trkpt lat="47.96360490" lon="8.018131300">
        <ele>459.00000</ele>
        <time>2008-10-30T05:54:03Z</time>
      </trkpt>
      <trkpt lat="47.96330450" lon="8.016843800">
        <ele>455.00000</ele>
        <time>2008-10-30T05:54:40Z</time>
      </trkpt>
      <trkpt lat="47.96278950" lon="8.015298800">
        <ele>454.00000</ele>
        <time>2008-10-30T05:55:26Z</time>
      </trkpt>
      <trkpt lat="47.96231750" lon="8.014097200">
        <ele>454.00000</ele>
        <time>2008-10-30T05:56:03Z</time>
      </trkpt>
      <trkpt lat="47.96184540" lon="8.012895600">
        <ele>453.00000</ele>
        <time>2008-10-30T05:56:40Z</time>
      </trkpt>
      <trkpt lat="47.96158790" lon="8.012380600">
        <ele>453.00000</ele>
        <time>2008-10-30T05:56:58Z</time>
      </trkpt>
      <trkpt lat="47.96137330" lon="8.011736900">
        <ele>448.00000</ele>
        <time>2008-10-30T05:57:17Z</time>
      </trkpt>
      <trkpt lat="47.96128750" lon="8.011221900">
        <ele>447.00000</ele>
        <time>2008-10-30T05:57:31Z</time>
      </trkpt>
      <trkpt lat="47.96115880" lon="8.010363600">
        <ele>452.00000</ele>
        <time>2008-10-30T05:57:55Z</time>
      </trkpt>
      <trkpt lat="47.96090130" lon="8.009333600">
        <ele>451.00000</ele>
        <time>2008-10-30T05:58:24Z</time>
      </trkpt>
      <trkpt lat="47.96094420" lon="8.008775700">
        <ele>451.00000</ele>
        <time>2008-10-30T05:58:39Z</time>
      </trkpt>
      <trkpt lat="47.96111580" lon="8.008303600">
        <ele>449.00000</ele>
        <time>2008-10-30T05:58:54Z</time>
      </trkpt>
      <trkpt lat="47.96158790" lon="8.007144900">
        <ele>446.00000</ele>
        <time>2008-10-30T05:59:30Z</time>
      </trkpt>
      <trkpt lat="47.96223160" lon="8.005685800">
        <ele>445.00000</ele>
        <time>2008-10-30T06:00:17Z</time>
      </trkpt>
      <trkpt lat="47.96231750" lon="8.005342500">
        <ele>444.00000</ele>
        <time>2008-10-30T06:00:27Z</time>
      </trkpt>
      <trkpt lat="47.96248910" lon="8.004527100">
        <ele>445.00000</ele>
        <time>2008-10-30T06:00:50Z</time>
      </trkpt>
      <trkpt lat="47.96253200" lon="8.003454200">
        <ele>443.00000</ele>
        <time>2008-10-30T06:01:18Z</time>
      </trkpt>
      <trkpt lat="47.96253200" lon="8.002553000">
        <ele>442.00000</ele>
        <time>2008-10-30T06:01:43Z</time>
      </trkpt>
      <trkpt lat="47.96253200" lon="8.001780500">
        <ele>442.00000</ele>
        <time>2008-10-30T06:02:03Z</time>
      </trkpt>
      <trkpt lat="47.96240330" lon="8.000836400">
        <ele>443.00000</ele>
        <time>2008-10-30T06:02:29Z</time>
      </trkpt>
      <trkpt lat="47.96231750" lon="8.000407200">
        <ele>444.00000</ele>
        <time>2008-10-30T06:02:41Z</time>
      </trkpt>
      <trkpt lat="47.96231750" lon="8.000364300">
        <ele>444.00000</ele>
        <time>2008-10-30T06:02:42Z</time>
      </trkpt>
      <trkpt lat="47.96296120" lon="7.998948100">
        <ele>440.00000</ele>
        <time>2008-10-30T06:03:28Z</time>
      </trkpt>
      <trkpt lat="47.96407700" lon="7.996072800">
        <ele>441.00000</ele>
        <time>2008-10-30T06:04:57Z</time>
      </trkpt>
      <trkpt lat="47.96429160" lon="7.995858200">
        <ele>441.00000</ele>
        <time>2008-10-30T06:05:08Z</time>
      </trkpt>
      <trkpt lat="47.96454910" lon="7.995729400">
        <ele>441.00000</ele>
        <time>2008-10-30T06:05:18Z</time>
      </trkpt>
      <trkpt lat="47.96467780" lon="7.995600700">
        <ele>439.00000</ele>
        <time>2008-10-30T06:05:25Z</time>
      </trkpt>
      <trkpt lat="47.96506400" lon="7.995085700">
        <ele>436.00000</ele>
        <time>2008-10-30T06:05:45Z</time>
      </trkpt>
      <trkpt lat="47.96540740" lon="7.994527800">
        <ele>436.00000</ele>
        <time>2008-10-30T06:06:06Z</time>
      </trkpt>
      <trkpt lat="47.96583650" lon="7.994012800">
        <ele>438.00000</ele>
        <time>2008-10-30T06:06:28Z</time>
      </trkpt>
      <trkpt lat="47.96596530" lon="7.993712400">
        <ele>436.00000</ele>
        <time>2008-10-30T06:06:37Z</time>
      </trkpt>
      <trkpt lat="47.96630860" lon="7.992467900">
        <ele>435.00000</ele>
        <time>2008-10-30T06:07:13Z</time>
      </trkpt>
      <trkpt lat="47.96665190" lon="7.991695400">
        <ele>434.00000</ele>
        <time>2008-10-30T06:07:38Z</time>
      </trkpt>
      <trkpt lat="47.96759610" lon="7.992038700">
        <ele>433.00000</ele>
        <time>2008-10-30T06:08:17Z</time>
      </trkpt>
      <trkpt lat="47.96858310" lon="7.992639500">
        <ele>432.00000</ele>
        <time>2008-10-30T06:09:00Z</time>
      </trkpt>
      <trkpt lat="47.96879770" lon="7.992553700">
        <ele>428.00000</ele>
        <time>2008-10-30T06:09:09Z</time>
      </trkpt>
      <trkpt lat="47.96944140" lon="7.992081600">
        <ele>429.00000</ele>
        <time>2008-10-30T06:09:37Z</time>
      </trkpt>
      <trkpt lat="47.97017100" lon="7.992038700">
        <ele>427.00000</ele>
        <time>2008-10-30T06:10:07Z</time>
      </trkpt>
      <trkpt lat="47.97094350" lon="7.991695400">
        <ele>424.00000</ele>
        <time>2008-10-30T06:10:39Z</time>
      </trkpt>
      <trkpt lat="47.97193050" lon="7.991094600">
        <ele>422.00000</ele>
        <time>2008-10-30T06:11:22Z</time>
      </trkpt>
      <trkpt lat="47.97240260" lon="7.993240400">
        <ele>426.00000</ele>
        <time>2008-10-30T06:12:22Z</time>
      </trkpt>
      <trkpt lat="47.97278880" lon="7.994527800">
        <ele>427.00000</ele>
        <time>2008-10-30T06:13:00Z</time>
      </trkpt>
      <trkpt lat="47.97308920" lon="7.995729400">
        <ele>426.00000</ele>
        <time>2008-10-30T06:13:34Z</time>
      </trkpt>
      <trkpt lat="47.97317500" lon="7.995944000">
        <ele>426.00000</ele>
        <time>2008-10-30T06:13:41Z</time>
      </trkpt>
      <trkpt lat="47.97343250" lon="7.996673600">
        <ele>427.00000</ele>
        <time>2008-10-30T06:14:03Z</time>
      </trkpt>
      <trkpt lat="47.97356130" lon="7.996931100">
        <ele>427.00000</ele>
        <time>2008-10-30T06:14:12Z</time>
      </trkpt>
      <trkpt lat="47.97399040" lon="7.997746500">
        <ele>421.00000</ele>
        <time>2008-10-30T06:14:39Z</time>
      </trkpt>
      <trkpt lat="47.97437670" lon="7.999334300">
        <ele>422.00000</ele>
        <time>2008-10-30T06:15:25Z</time>
      </trkpt>
      <trkpt lat="47.97467710" lon="8.001351400">
        <ele>427.00000</ele>
        <time>2008-10-30T06:16:20Z</time>
      </trkpt>
      <trkpt lat="47.97463420" lon="8.001780500">
        <ele>427.00000</ele>
        <time>2008-10-30T06:16:32Z</time>
      </trkpt>
      <trkpt lat="47.97463420" lon="8.003668800">
        <ele>428.00000</ele>
        <time>2008-10-30T06:17:22Z</time>
      </trkpt>
      <trkpt lat="47.97484870" lon="8.004612900">
        <ele>430.00000</ele>
        <time>2008-10-30T06:17:49Z</time>
      </trkpt>
      <trkpt lat="47.97519210" lon="8.005428300">
        <ele>431.00000</ele>
        <time>2008-10-30T06:18:15Z</time>
      </trkpt>
      <trkpt lat="47.97566410" lon="8.005900400">
        <ele>434.00000</ele>
        <time>2008-10-30T06:18:38Z</time>
      </trkpt>
      <trkpt lat="47.97695160" lon="8.006587000">
        <ele>434.00000</ele>
        <time>2008-10-30T06:19:32Z</time>
      </trkpt>
      <trkpt lat="47.97725200" lon="8.006587000">
        <ele>435.00000</ele>
        <time>2008-10-30T06:19:44Z</time>
      </trkpt>
      <trkpt lat="47.97785280" lon="8.006544100">
        <ele>435.00000</ele>
        <time>2008-10-30T06:20:08Z</time>
      </trkpt>
      <trkpt lat="47.97841070" lon="8.006329500">
        <ele>437.00000</ele>
        <time>2008-10-30T06:20:32Z</time>
      </trkpt>
      <trkpt lat="47.97866820" lon="8.006243700">
        <ele>443.00000</ele>
        <time>2008-10-30T06:20:42Z</time>
      </trkpt>
      <trkpt lat="47.97918320" lon="8.006200800">
        <ele>442.00000</ele>
        <time>2008-10-30T06:21:03Z</time>
      </trkpt>
      <trkpt lat="47.97961240" lon="8.006329500">
        <ele>441.00000</ele>
        <time>2008-10-30T06:21:20Z</time>
      </trkpt>
      <trkpt lat="47.98004150" lon="8.006501200">
        <ele>441.00000</ele>
        <time>2008-10-30T06:21:38Z</time>
      </trkpt>
      <trkpt lat="47.98017020" lon="8.006544100">
        <ele>441.00000</ele>
        <time>2008-10-30T06:21:43Z</time>
      </trkpt>
      <trkpt lat="47.98192980" lon="8.006415400">
        <ele>442.00000</ele>
        <time>2008-10-30T06:22:54Z</time>
      </trkpt>
      <trkpt lat="47.98235890" lon="8.006501200">
        <ele>442.00000</ele>
        <time>2008-10-30T06:23:11Z</time>
      </trkpt>
      <trkpt lat="47.98368930" lon="8.006973300">
        <ele>443.00000</ele>
        <time>2008-10-30T06:24:06Z</time>
      </trkpt>
      <trkpt lat="47.98489090" lon="8.007059100">
        <ele>446.00000</ele>
        <time>2008-10-30T06:24:54Z</time>
      </trkpt>
      <trkpt lat="47.98596380" lon="8.007230800">
        <ele>445.00000</ele>
        <time>2008-10-30T06:25:37Z</time>
      </trkpt>
      <trkpt lat="47.98742290" lon="8.007831600">
        <ele>451.00000</ele>
        <time>2008-10-30T06:26:38Z</time>
      </trkpt>
      <trkpt lat="47.98798080" lon="8.007960300">
        <ele>454.00000</ele>
        <time>2008-10-30T06:27:00Z</time>
      </trkpt>
      <trkpt lat="47.98862460" lon="8.008046200">
        <ele>454.00000</ele>
        <time>2008-10-30T06:27:26Z</time>
      </trkpt>
      <trkpt lat="47.98901080" lon="8.008174900">
        <ele>454.00000</ele>
        <time>2008-10-30T06:27:42Z</time>
      </trkpt>
      <trkpt lat="47.98952580" lon="8.008475300">
        <ele>454.00000</ele>
        <time>2008-10-30T06:28:04Z</time>
      </trkpt>
      <trkpt lat="47.99068450" lon="8.009419400">
        <ele>458.00000</ele>
        <time>2008-10-30T06:28:57Z</time>
      </trkpt>
      <trkpt lat="47.99149990" lon="8.010277700">
        <ele>463.00000</ele>
        <time>2008-10-30T06:29:37Z</time>
      </trkpt>
      <trkpt lat="47.99222950" lon="8.010449400">
        <ele>467.00000</ele>
        <time>2008-10-30T06:30:07Z</time>
      </trkpt>
      <trkpt lat="47.99235820" lon="8.010664000">
        <ele>467.00000</ele>
        <time>2008-10-30T06:30:14Z</time>
      </trkpt>
      <trkpt lat="47.99300190" lon="8.012423500">
        <ele>467.00000</ele>
        <time>2008-10-30T06:31:08Z</time>
      </trkpt>
      <trkpt lat="47.99347400" lon="8.012981400">
        <ele>468.00000</ele>
        <time>2008-10-30T06:31:32Z</time>
      </trkpt>
      <trkpt lat="47.99386020" lon="8.013410600">
        <ele>478.00000</ele>
        <time>2008-10-30T06:31:51Z</time>
      </trkpt>
      <trkpt lat="47.99433230" lon="8.014826800">
        <ele>475.00000</ele>
        <time>2008-10-30T06:32:34Z</time>
      </trkpt>
      <trkpt lat="47.99450400" lon="8.015556300">
        <ele>486.00000</ele>
        <time>2008-10-30T06:32:55Z</time>
      </trkpt>
      <trkpt lat="47.99480440" lon="8.017959600">
        <ele>486.00000</ele>
        <time>2008-10-30T06:34:00Z</time>
      </trkpt>
      <trkpt lat="47.99506190" lon="8.018603300">
        <ele>486.00000</ele>
        <time>2008-10-30T06:34:20Z</time>
      </trkpt>
      <trkpt lat="47.99484730" lon="8.019890800">
        <ele>491.00000</ele>
        <time>2008-10-30T06:34:56Z</time>
      </trkpt>
      <trkpt lat="47.99484730" lon="8.020362900">
        <ele>491.00000</ele>
        <time>2008-10-30T06:35:08Z</time>
      </trkpt>
      <trkpt lat="47.99510480" lon="8.023495700">
        <ele>500.00000</ele>
        <time>2008-10-30T06:36:33Z</time>
      </trkpt>
      <trkpt lat="47.99523350" lon="8.024225200">
        <ele>508.00000</ele>
        <time>2008-10-30T06:36:53Z</time>
      </trkpt>
      <trkpt lat="47.99540520" lon="8.024783100">
        <ele>522.00000</ele>
        <time>2008-10-30T06:37:09Z</time>
      </trkpt>
      <trkpt lat="47.99596310" lon="8.025598500">
        <ele>518.00000</ele>
        <time>2008-10-30T06:37:41Z</time>
      </trkpt>
      <trkpt lat="47.99613480" lon="8.026070600">
        <ele>518.00000</ele>
        <time>2008-10-30T06:37:55Z</time>
      </trkpt>
      <trkpt lat="47.99669270" lon="8.028988800">
        <ele>521.00000</ele>
        <time>2008-10-30T06:39:16Z</time>
      </trkpt>
      <trkpt lat="47.99737930" lon="8.030576700">
        <ele>521.00000</ele>
        <time>2008-10-30T06:40:07Z</time>
      </trkpt>
      <trkpt lat="47.99763680" lon="8.031606700">
        <ele>537.00000</ele>
        <time>2008-10-30T06:40:37Z</time>
      </trkpt>
      <trkpt lat="47.99810890" lon="8.031950000">
        <ele>526.00000</ele>
        <time>2008-10-30T06:40:58Z</time>
      </trkpt>
      <trkpt lat="47.99840930" lon="8.032379200">
        <ele>538.00000</ele>
        <time>2008-10-30T06:41:14Z</time>
      </trkpt>
      <trkpt lat="47.99896720" lon="8.033409100">
        <ele>531.00000</ele>
        <time>2008-10-30T06:41:50Z</time>
      </trkpt>
      <trkpt lat="47.99926760" lon="8.033709500">
        <ele>531.00000</ele>
        <time>2008-10-30T06:42:04Z</time>
      </trkpt>
      <trkpt lat="47.99956800" lon="8.033924100">
        <ele>535.00000</ele>
        <time>2008-10-30T06:42:17Z</time>
      </trkpt>
      <trkpt lat="47.99999710" lon="8.034009900">
        <ele>536.00000</ele>
        <time>2008-10-30T06:42:35Z</time>
      </trkpt>
      <trkpt lat="48.00008300" lon="8.034009900">
        <ele>536.00000</ele>
        <time>2008-10-30T06:42:38Z</time>
      </trkpt>
      <trkpt lat="48.00046920" lon="8.033838300">
        <ele>549.00000</ele>
        <time>2008-10-30T06:42:54Z</time>
      </trkpt>
      <trkpt lat="48.00055500" lon="8.033838300">
        <ele>549.00000</ele>
        <time>2008-10-30T06:42:58Z</time>
      </trkpt>
      <trkpt lat="48.00171380" lon="8.034653700">
        <ele>548.00000</ele>
        <time>2008-10-30T06:43:49Z</time>
      </trkpt>
      <trkpt lat="48.00278660" lon="8.034911200">
        <ele>558.00000</ele>
        <time>2008-10-30T06:44:33Z</time>
      </trkpt>
      <trkpt lat="48.00304410" lon="8.034997000">
        <ele>576.00000</ele>
        <time>2008-10-30T06:44:43Z</time>
      </trkpt>
      <trkpt lat="48.00403120" lon="8.036069900">
        <ele>585.00000</ele>
        <time>2008-10-30T06:45:32Z</time>
      </trkpt>
      <trkpt lat="48.00458910" lon="8.036842300">
        <ele>590.00000</ele>
        <time>2008-10-30T06:46:02Z</time>
      </trkpt>
      <trkpt lat="48.00476070" lon="8.037400200">
        <ele>585.00000</ele>
        <time>2008-10-30T06:46:19Z</time>
      </trkpt>
      <trkpt lat="48.00493240" lon="8.037571900">
        <ele>585.00000</ele>
        <time>2008-10-30T06:46:27Z</time>
      </trkpt>
      <trkpt lat="48.00506110" lon="8.037915200">
        <ele>585.00000</ele>
        <time>2008-10-30T06:46:38Z</time>
      </trkpt>
      <trkpt lat="48.00527570" lon="8.038001100">
        <ele>595.00000</ele>
        <time>2008-10-30T06:46:47Z</time>
      </trkpt>
      <trkpt lat="48.00536160" lon="8.037786500">
        <ele>585.00000</ele>
        <time>2008-10-30T06:46:53Z</time>
      </trkpt>
      <trkpt lat="48.00536160" lon="8.037443200">
        <ele>585.00000</ele>
        <time>2008-10-30T06:47:02Z</time>
      </trkpt>
      <trkpt lat="48.00544740" lon="8.037099800">
        <ele>592.00000</ele>
        <time>2008-10-30T06:47:12Z</time>
      </trkpt>
      <trkpt lat="48.00540450" lon="8.036928200">
        <ele>590.00000</ele>
        <time>2008-10-30T06:47:17Z</time>
      </trkpt>
      <trkpt lat="48.00518990" lon="8.036584900">
        <ele>590.00000</ele>
        <time>2008-10-30T06:47:30Z</time>
      </trkpt>
      <trkpt lat="48.00497530" lon="8.036069900">
        <ele>614.00000</ele>
        <time>2008-10-30T06:47:46Z</time>
      </trkpt>
      <trkpt lat="48.00463200" lon="8.034997000">
        <ele>635.00000</ele>
        <time>2008-10-30T06:48:18Z</time>
      </trkpt>
      <trkpt lat="48.00437450" lon="8.034696600">
        <ele>602.00000</ele>
        <time>2008-10-30T06:48:31Z</time>
      </trkpt>
      <trkpt lat="48.00398830" lon="8.034095800">
        <ele>611.00000</ele>
        <time>2008-10-30T06:48:53Z</time>
      </trkpt>
      <trkpt lat="48.00403120" lon="8.033795400">
        <ele>611.00000</ele>
        <time>2008-10-30T06:49:01Z</time>
      </trkpt>
      <trkpt lat="48.00407410" lon="8.033795400">
        <ele>611.00000</ele>
        <time>2008-10-30T06:49:03Z</time>
      </trkpt>
      <trkpt lat="48.00428870" lon="8.034267400">
        <ele>611.00000</ele>
        <time>2008-10-30T06:49:18Z</time>
      </trkpt>
      <trkpt lat="48.00480370" lon="8.034696600">
        <ele>635.00000</ele>
        <time>2008-10-30T06:49:42Z</time>
      </trkpt>
      <trkpt lat="48.00544740" lon="8.035554900">
        <ele>643.00000</ele>
        <time>2008-10-30T06:50:17Z</time>
      </trkpt>
      <trkpt lat="48.00566200" lon="8.035726500">
        <ele>643.00000</ele>
        <time>2008-10-30T06:50:26Z</time>
      </trkpt>
      <trkpt lat="48.00579070" lon="8.035769500">
        <ele>643.00000</ele>
        <time>2008-10-30T06:50:32Z</time>
      </trkpt>
      <trkpt lat="48.00604820" lon="8.035683600">
        <ele>643.00000</ele>
        <time>2008-10-30T06:50:42Z</time>
      </trkpt>
      <trkpt lat="48.00639150" lon="8.035383200">
        <ele>682.00000</ele>
        <time>2008-10-30T06:50:58Z</time>
      </trkpt>
      <trkpt lat="48.00652030" lon="8.035340300">
        <ele>682.00000</ele>
        <time>2008-10-30T06:51:03Z</time>
      </trkpt>
      <trkpt lat="48.00724980" lon="8.035512000">
        <ele>681.00000</ele>
        <time>2008-10-30T06:51:33Z</time>
      </trkpt>
      <trkpt lat="48.00729270" lon="8.035640700">
        <ele>681.00000</ele>
        <time>2008-10-30T06:51:37Z</time>
      </trkpt>
      <trkpt lat="48.00733570" lon="8.036670700">
        <ele>677.00000</ele>
        <time>2008-10-30T06:52:04Z</time>
      </trkpt>
      <trkpt lat="48.00755020" lon="8.037099800">
        <ele>669.00000</ele>
        <time>2008-10-30T06:52:19Z</time>
      </trkpt>
      <trkpt lat="48.00776480" lon="8.037314400">
        <ele>669.00000</ele>
        <time>2008-10-30T06:52:29Z</time>
      </trkpt>
      <trkpt lat="48.00797940" lon="8.037400200">
        <ele>699.00000</ele>
        <time>2008-10-30T06:52:38Z</time>
      </trkpt>
      <trkpt lat="48.00823690" lon="8.037400200">
        <ele>699.00000</ele>
        <time>2008-10-30T06:52:48Z</time>
      </trkpt>
      <trkpt lat="48.00853730" lon="8.037614800">
        <ele>699.00000</ele>
        <time>2008-10-30T06:53:02Z</time>
      </trkpt>
      <trkpt lat="48.00875190" lon="8.037872300">
        <ele>713.00000</ele>
        <time>2008-10-30T06:53:13Z</time>
      </trkpt>
      <trkpt lat="48.00952430" lon="8.038816500">
        <ele>704.00000</ele>
        <time>2008-10-30T06:53:53Z</time>
      </trkpt>
      <trkpt lat="48.00961020" lon="8.038945200">
        <ele>709.00000</ele>
        <time>2008-10-30T06:53:57Z</time>
      </trkpt>
      <trkpt lat="48.00982480" lon="8.038902300">
        <ele>709.00000</ele>
        <time>2008-10-30T06:54:06Z</time>
      </trkpt>
      <trkpt lat="48.01003930" lon="8.038601900">
        <ele>713.00000</ele>
        <time>2008-10-30T06:54:18Z</time>
      </trkpt>
      <trkpt lat="48.01012520" lon="8.038387300">
        <ele>713.00000</ele>
        <time>2008-10-30T06:54:25Z</time>
      </trkpt>
      <trkpt lat="48.01012520" lon="8.038001100">
        <ele>713.00000</ele>
        <time>2008-10-30T06:54:35Z</time>
      </trkpt>
      <trkpt lat="48.01012520" lon="8.037829400">
        <ele>713.00000</ele>
        <time>2008-10-30T06:54:40Z</time>
      </trkpt>
      <trkpt lat="48.01021100" lon="8.037786500">
        <ele>713.00000</ele>
        <time>2008-10-30T06:54:43Z</time>
      </trkpt>
      <trkpt lat="48.01076890" lon="8.037915200">
        <ele>717.00000</ele>
        <time>2008-10-30T06:55:06Z</time>
      </trkpt>
      <trkpt lat="48.01098350" lon="8.037915200">
        <ele>717.00000</ele>
        <time>2008-10-30T06:55:14Z</time>
      </trkpt>
      <trkpt lat="48.01136970" lon="8.037743600">
        <ele>716.00000</ele>
        <time>2008-10-30T06:55:31Z</time>
      </trkpt>
      <trkpt lat="48.01158430" lon="8.037529000">
        <ele>716.00000</ele>
        <time>2008-10-30T06:55:41Z</time>
      </trkpt>
      <trkpt lat="48.01209930" lon="8.036027000">
        <ele>720.00000</ele>
        <time>2008-10-30T06:56:26Z</time>
      </trkpt>
      <trkpt lat="48.01257130" lon="8.035984000">
        <ele>720.00000</ele>
        <time>2008-10-30T06:56:45Z</time>
      </trkpt>
      <trkpt lat="48.01312920" lon="8.035512000">
        <ele>725.00000</ele>
        <time>2008-10-30T06:57:11Z</time>
      </trkpt>
      <trkpt lat="48.01355840" lon="8.035039900">
        <ele>726.00000</ele>
        <time>2008-10-30T06:57:32Z</time>
      </trkpt>
      <trkpt lat="48.01433090" lon="8.033967000">
        <ele>722.00000</ele>
        <time>2008-10-30T06:58:14Z</time>
      </trkpt>
      <trkpt lat="48.01454540" lon="8.033709500">
        <ele>720.00000</ele>
        <time>2008-10-30T06:58:25Z</time>
      </trkpt>
      <trkpt lat="48.01583290" lon="8.033537900">
        <ele>712.00000</ele>
        <time>2008-10-30T06:59:17Z</time>
      </trkpt>
      <trkpt lat="48.01583290" lon="8.033838300">
        <ele>713.00000</ele>
        <time>2008-10-30T06:59:25Z</time>
      </trkpt>
      <trkpt lat="48.01591870" lon="8.035554900">
        <ele>718.00000</ele>
        <time>2008-10-30T07:00:11Z</time>
      </trkpt>
      <trkpt lat="48.01600460" lon="8.036027000">
        <ele>718.00000</ele>
        <time>2008-10-30T07:00:24Z</time>
      </trkpt>
      <trkpt lat="48.01626210" lon="8.036971100">
        <ele>715.00000</ele>
        <time>2008-10-30T07:00:51Z</time>
      </trkpt>
      <trkpt lat="48.01617620" lon="8.038644800">
        <ele>727.00000</ele>
        <time>2008-10-30T07:01:36Z</time>
      </trkpt>
      <trkpt lat="48.01617620" lon="8.039159800">
        <ele>728.00000</ele>
        <time>2008-10-30T07:01:50Z</time>
      </trkpt>
      <trkpt lat="48.01634790" lon="8.040189700">
        <ele>723.00000</ele>
        <time>2008-10-30T07:02:19Z</time>
      </trkpt>
      <trkpt lat="48.01669120" lon="8.041348500">
        <ele>730.00000</ele>
        <time>2008-10-30T07:02:53Z</time>
      </trkpt>
      <trkpt lat="48.01686290" lon="8.041520100">
        <ele>730.00000</ele>
        <time>2008-10-30T07:03:01Z</time>
      </trkpt>
      <trkpt lat="48.01677700" lon="8.042593000">
        <ele>733.00000</ele>
        <time>2008-10-30T07:03:30Z</time>
      </trkpt>
      <trkpt lat="48.01690580" lon="8.043708800">
        <ele>735.00000</ele>
        <time>2008-10-30T07:04:00Z</time>
      </trkpt>
      <trkpt lat="48.01780700" lon="8.046927500">
        <ele>746.00000</ele>
        <time>2008-10-30T07:05:34Z</time>
      </trkpt>
      <trkpt lat="48.01789280" lon="8.047184900">
        <ele>748.00000</ele>
        <time>2008-10-30T07:05:41Z</time>
      </trkpt>
      <trkpt lat="48.01810740" lon="8.047313700">
        <ele>749.00000</ele>
        <time>2008-10-30T07:05:50Z</time>
      </trkpt>
      <trkpt lat="48.01870820" lon="8.047356600">
        <ele>749.00000</ele>
        <time>2008-10-30T07:06:15Z</time>
      </trkpt>
      <trkpt lat="48.01892280" lon="8.047442400">
        <ele>746.00000</ele>
        <time>2008-10-30T07:06:23Z</time>
      </trkpt>
      <trkpt lat="48.01909450" lon="8.047699900">
        <ele>746.00000</ele>
        <time>2008-10-30T07:06:33Z</time>
      </trkpt>
      <trkpt lat="48.01922320" lon="8.048343700">
        <ele>743.00000</ele>
        <time>2008-10-30T07:06:51Z</time>
      </trkpt>
      <trkpt lat="48.01926610" lon="8.048901600">
        <ele>746.00000</ele>
        <time>2008-10-30T07:07:06Z</time>
      </trkpt>
      <trkpt lat="48.01918030" lon="8.049716900">
        <ele>748.00000</ele>
        <time>2008-10-30T07:07:28Z</time>
      </trkpt>
      <trkpt lat="48.01887990" lon="8.050532300">
        <ele>745.00000</ele>
        <time>2008-10-30T07:07:53Z</time>
      </trkpt>
      <trkpt lat="48.01892280" lon="8.050746900">
        <ele>745.00000</ele>
        <time>2008-10-30T07:07:59Z</time>
      </trkpt>
      <trkpt lat="48.01887990" lon="8.051261900">
        <ele>743.00000</ele>
        <time>2008-10-30T07:08:13Z</time>
      </trkpt>
      <trkpt lat="48.01870820" lon="8.052334800">
        <ele>740.00000</ele>
        <time>2008-10-30T07:08:43Z</time>
      </trkpt>
      <trkpt lat="48.01853660" lon="8.053021400">
        <ele>748.00000</ele>
        <time>2008-10-30T07:09:02Z</time>
      </trkpt>
      <trkpt lat="48.01845070" lon="8.054094300">
        <ele>757.00000</ele>
        <time>2008-10-30T07:09:31Z</time>
      </trkpt>
      <trkpt lat="48.01845070" lon="8.054266000">
        <ele>757.00000</ele>
        <time>2008-10-30T07:09:36Z</time>
      </trkpt>
      <trkpt lat="48.01857950" lon="8.054308900">
        <ele>757.00000</ele>
        <time>2008-10-30T07:09:41Z</time>
      </trkpt>
      <trkpt lat="48.01913740" lon="8.053965600">
        <ele>766.00000</ele>
        <time>2008-10-30T07:10:05Z</time>
      </trkpt>
      <trkpt lat="48.01930900" lon="8.053965600">
        <ele>766.00000</ele>
        <time>2008-10-30T07:10:12Z</time>
      </trkpt>
      <trkpt lat="48.01969530" lon="8.053321800">
        <ele>771.00000</ele>
        <time>2008-10-30T07:10:35Z</time>
      </trkpt>
      <trkpt lat="48.02033900" lon="8.052721000">
        <ele>757.00000</ele>
        <time>2008-10-30T07:11:06Z</time>
      </trkpt>
      <trkpt lat="48.02063940" lon="8.052120200">
        <ele>774.00000</ele>
        <time>2008-10-30T07:11:26Z</time>
      </trkpt>
      <trkpt lat="48.02072530" lon="8.051176100">
        <ele>758.00000</ele>
        <time>2008-10-30T07:11:51Z</time>
      </trkpt>
      <trkpt lat="48.02102570" lon="8.049974400">
        <ele>756.00000</ele>
        <time>2008-10-30T07:12:26Z</time>
      </trkpt>
      <trkpt lat="48.02106860" lon="8.049459500">
        <ele>754.00000</ele>
        <time>2008-10-30T07:12:39Z</time>
      </trkpt>
      <trkpt lat="48.02102570" lon="8.048944500">
        <ele>754.00000</ele>
        <time>2008-10-30T07:12:53Z</time>
      </trkpt>
      <trkpt lat="48.02076820" lon="8.048172000">
        <ele>756.00000</ele>
        <time>2008-10-30T07:13:16Z</time>
      </trkpt>
      <trkpt lat="48.02016740" lon="8.047313700">
        <ele>752.00000</ele>
        <time>2008-10-30T07:13:50Z</time>
      </trkpt>
      <trkpt lat="48.01999570" lon="8.046970400">
        <ele>751.00000</ele>
        <time>2008-10-30T07:14:01Z</time>
      </trkpt>
      <trkpt lat="48.01982400" lon="8.046627000">
        <ele>751.00000</ele>
        <time>2008-10-30T07:14:13Z</time>
      </trkpt>
      <trkpt lat="48.01965240" lon="8.045554200">
        <ele>748.00000</ele>
        <time>2008-10-30T07:14:42Z</time>
      </trkpt>
      <trkpt lat="48.01969530" lon="8.044567100">
        <ele>743.00000</ele>
        <time>2008-10-30T07:15:09Z</time>
      </trkpt>
      <trkpt lat="48.01995280" lon="8.042893400">
        <ele>736.00000</ele>
        <time>2008-10-30T07:15:55Z</time>
      </trkpt>
      <trkpt lat="48.02025320" lon="8.041133900">
        <ele>733.00000</ele>
        <time>2008-10-30T07:16:43Z</time>
      </trkpt>
      <trkpt lat="48.02046780" lon="8.039631800">
        <ele>741.00000</ele>
        <time>2008-10-30T07:17:24Z</time>
      </trkpt>
      <trkpt lat="48.02055360" lon="8.038473100">
        <ele>738.00000</ele>
        <time>2008-10-30T07:17:56Z</time>
      </trkpt>
      <trkpt lat="48.02055360" lon="8.038129800">
        <ele>738.00000</ele>
        <time>2008-10-30T07:18:05Z</time>
      </trkpt>
      <trkpt lat="48.02055360" lon="8.037529000">
        <ele>731.00000</ele>
        <time>2008-10-30T07:18:21Z</time>
      </trkpt>
      <trkpt lat="48.02059650" lon="8.036499000">
        <ele>725.00000</ele>
        <time>2008-10-30T07:18:49Z</time>
      </trkpt>
      <trkpt lat="48.02068230" lon="8.035726500">
        <ele>726.00000</ele>
        <time>2008-10-30T07:19:10Z</time>
      </trkpt>
      <trkpt lat="48.02098270" lon="8.034052800">
        <ele>730.00000</ele>
        <time>2008-10-30T07:19:56Z</time>
      </trkpt>
      <trkpt lat="48.02102570" lon="8.033881200">
        <ele>730.00000</ele>
        <time>2008-10-30T07:20:01Z</time>
      </trkpt>
      <trkpt lat="48.02136900" lon="8.032894100">
        <ele>754.00000</ele>
        <time>2008-10-30T07:20:31Z</time>
      </trkpt>
      <trkpt lat="48.02154060" lon="8.032164600">
        <ele>754.00000</ele>
        <time>2008-10-30T07:20:51Z</time>
      </trkpt>
      <trkpt lat="48.02154060" lon="8.031520800">
        <ele>762.00000</ele>
        <time>2008-10-30T07:21:09Z</time>
      </trkpt>
      <trkpt lat="48.02166940" lon="8.031048800">
        <ele>762.00000</ele>
        <time>2008-10-30T07:21:22Z</time>
      </trkpt>
      <trkpt lat="48.02188400" lon="8.030705500">
        <ele>762.00000</ele>
        <time>2008-10-30T07:21:35Z</time>
      </trkpt>
      <trkpt lat="48.02209850" lon="8.030533800">
        <ele>751.00000</ele>
        <time>2008-10-30T07:21:45Z</time>
      </trkpt>
      <trkpt lat="48.02261350" lon="8.029933000">
        <ele>739.00000</ele>
        <time>2008-10-30T07:22:11Z</time>
      </trkpt>
      <trkpt lat="48.02295680" lon="8.029761300">
        <ele>728.00000</ele>
        <time>2008-10-30T07:22:25Z</time>
      </trkpt>
      <trkpt lat="48.02317140" lon="8.029761300">
        <ele>728.00000</ele>
        <time>2008-10-30T07:22:34Z</time>
      </trkpt>
      <trkpt lat="48.02338600" lon="8.029847100">
        <ele>728.00000</ele>
        <time>2008-10-30T07:22:43Z</time>
      </trkpt>
      <trkpt lat="48.02368640" lon="8.030190500">
        <ele>728.00000</ele>
        <time>2008-10-30T07:22:58Z</time>
      </trkpt>
      <trkpt lat="48.02402970" lon="8.030920000">
        <ele>718.00000</ele>
        <time>2008-10-30T07:23:22Z</time>
      </trkpt>
      <trkpt lat="48.02420140" lon="8.031778300">
        <ele>723.00000</ele>
        <time>2008-10-30T07:23:46Z</time>
      </trkpt>
      <trkpt lat="48.02441600" lon="8.032207500">
        <ele>730.00000</ele>
        <time>2008-10-30T07:24:00Z</time>
      </trkpt>
      <trkpt lat="48.02463050" lon="8.032293300">
        <ele>722.00000</ele>
        <time>2008-10-30T07:24:09Z</time>
      </trkpt>
      <trkpt lat="48.02484510" lon="8.032207500">
        <ele>722.00000</ele>
        <time>2008-10-30T07:24:18Z</time>
      </trkpt>
      <trkpt lat="48.02501680" lon="8.031950000">
        <ele>718.00000</ele>
        <time>2008-10-30T07:24:28Z</time>
      </trkpt>
      <trkpt lat="48.02505970" lon="8.031649600">
        <ele>718.00000</ele>
        <time>2008-10-30T07:24:36Z</time>
      </trkpt>
      <trkpt lat="48.02475930" lon="8.029289200">
        <ele>713.00000</ele>
        <time>2008-10-30T07:25:40Z</time>
      </trkpt>
      <trkpt lat="48.02471640" lon="8.028860100">
        <ele>713.00000</ele>
        <time>2008-10-30T07:25:52Z</time>
      </trkpt>
      <trkpt lat="48.02475930" lon="8.028516800">
        <ele>697.00000</ele>
        <time>2008-10-30T07:26:01Z</time>
      </trkpt>
      <trkpt lat="48.02497390" lon="8.028345100">
        <ele>697.00000</ele>
        <time>2008-10-30T07:26:11Z</time>
      </trkpt>
      <trkpt lat="48.02548890" lon="8.028516800">
        <ele>690.00000</ele>
        <time>2008-10-30T07:26:32Z</time>
      </trkpt>
      <trkpt lat="48.02574630" lon="8.028430900">
        <ele>690.00000</ele>
        <time>2008-10-30T07:26:42Z</time>
      </trkpt>
      <trkpt lat="48.02634720" lon="8.027916000">
        <ele>678.00000</ele>
        <time>2008-10-30T07:27:10Z</time>
      </trkpt>
      <trkpt lat="48.02647590" lon="8.027916000">
        <ele>678.00000</ele>
        <time>2008-10-30T07:27:15Z</time>
      </trkpt>
      <trkpt lat="48.02686210" lon="8.028130500">
        <ele>699.00000</ele>
        <time>2008-10-30T07:27:32Z</time>
      </trkpt>
      <trkpt lat="48.02699090" lon="8.028044700">
        <ele>699.00000</ele>
        <time>2008-10-30T07:27:37Z</time>
      </trkpt>
      <trkpt lat="48.02716260" lon="8.027701400">
        <ele>697.00000</ele>
        <time>2008-10-30T07:27:49Z</time>
      </trkpt>
      <trkpt lat="48.02759170" lon="8.027315100">
        <ele>697.00000</ele>
        <time>2008-10-30T07:28:09Z</time>
      </trkpt>
      <trkpt lat="48.02776340" lon="8.027014700">
        <ele>673.00000</ele>
        <time>2008-10-30T07:28:20Z</time>
      </trkpt>
      <trkpt lat="48.02810670" lon="8.026199300">
        <ele>680.00000</ele>
        <time>2008-10-30T07:28:45Z</time>
      </trkpt>
      <trkpt lat="48.02814960" lon="8.025941800">
        <ele>680.00000</ele>
        <time>2008-10-30T07:28:53Z</time>
      </trkpt>
      <trkpt lat="48.02810670" lon="8.025813100">
        <ele>680.00000</ele>
        <time>2008-10-30T07:28:56Z</time>
      </trkpt>
      <trkpt lat="48.02836420" lon="8.025727300">
        <ele>680.00000</ele>
        <time>2008-10-30T07:29:07Z</time>
      </trkpt>
      <trkpt lat="48.02870750" lon="8.025770200">
        <ele>680.00000</ele>
        <time>2008-10-30T07:29:21Z</time>
      </trkpt>
      <trkpt lat="48.02900790" lon="8.025727300">
        <ele>702.00000</ele>
        <time>2008-10-30T07:29:33Z</time>
      </trkpt>
      <trkpt lat="48.02922250" lon="8.025469800">
        <ele>702.00000</ele>
        <time>2008-10-30T07:29:44Z</time>
      </trkpt>
      <trkpt lat="48.02969460" lon="8.025126500">
        <ele>703.00000</ele>
        <time>2008-10-30T07:30:05Z</time>
      </trkpt>
      <trkpt lat="48.02990910" lon="8.025083500">
        <ele>703.00000</ele>
        <time>2008-10-30T07:30:13Z</time>
      </trkpt>
      <trkpt lat="48.03046700" lon="8.025083500">
        <ele>705.00000</ele>
        <time>2008-10-30T07:30:36Z</time>
      </trkpt>
      <trkpt lat="48.03102490" lon="8.024911900">
        <ele>705.00000</ele>
        <time>2008-10-30T07:30:59Z</time>
      </trkpt>
      <trkpt lat="48.03171160" lon="8.025212300">
        <ele>704.00000</ele>
        <time>2008-10-30T07:31:27Z</time>
      </trkpt>
      <trkpt lat="48.03184030" lon="8.025212300">
        <ele>704.00000</ele>
        <time>2008-10-30T07:31:32Z</time>
      </trkpt>
      <trkpt lat="48.03239820" lon="8.024997700">
        <ele>714.00000</ele>
        <time>2008-10-30T07:31:55Z</time>
      </trkpt>
      <trkpt lat="48.03278450" lon="8.024654400">
        <ele>714.00000</ele>
        <time>2008-10-30T07:32:13Z</time>
      </trkpt>
      <trkpt lat="48.03291320" lon="8.024697300">
        <ele>714.00000</ele>
        <time>2008-10-30T07:32:19Z</time>
      </trkpt>
      <trkpt lat="48.03295610" lon="8.024740200">
        <ele>722.00000</ele>
        <time>2008-10-30T07:32:21Z</time>
      </trkpt>
      <trkpt lat="48.03321360" lon="8.026113500">
        <ele>730.00000</ele>
        <time>2008-10-30T07:32:59Z</time>
      </trkpt>
      <trkpt lat="48.03342820" lon="8.026757200">
        <ele>738.00000</ele>
        <time>2008-10-30T07:33:18Z</time>
      </trkpt>
      <trkpt lat="48.03458690" lon="8.028559700">
        <ele>736.00000</ele>
        <time>2008-10-30T07:34:25Z</time>
      </trkpt>
      <trkpt lat="48.03523060" lon="8.030276300">
        <ele>749.00000</ele>
        <time>2008-10-30T07:35:18Z</time>
      </trkpt>
      <trkpt lat="48.03561690" lon="8.031263400">
        <ele>749.00000</ele>
        <time>2008-10-30T07:35:48Z</time>
      </trkpt>
      <trkpt lat="48.03608890" lon="8.032078700">
        <ele>749.00000</ele>
        <time>2008-10-30T07:36:17Z</time>
      </trkpt>
      <trkpt lat="48.03630350" lon="8.032679600">
        <ele>736.00000</ele>
        <time>2008-10-30T07:36:36Z</time>
      </trkpt>
      <trkpt lat="48.03668980" lon="8.033494900">
        <ele>748.00000</ele>
        <time>2008-10-30T07:37:02Z</time>
      </trkpt>
      <trkpt lat="48.03686140" lon="8.035640700">
        <ele>767.00000</ele>
        <time>2008-10-30T07:38:00Z</time>
      </trkpt>
      <trkpt lat="48.03694730" lon="8.036069900">
        <ele>767.00000</ele>
        <time>2008-10-30T07:38:12Z</time>
      </trkpt>
      <trkpt lat="48.03716180" lon="8.036670700">
        <ele>764.00000</ele>
        <time>2008-10-30T07:38:30Z</time>
      </trkpt>
      <trkpt lat="48.03733350" lon="8.037786500">
        <ele>769.00000</ele>
        <time>2008-10-30T07:39:01Z</time>
      </trkpt>
      <trkpt lat="48.03754810" lon="8.038559000">
        <ele>776.00000</ele>
        <time>2008-10-30T07:39:23Z</time>
      </trkpt>
      <trkpt lat="48.03763390" lon="8.038687700">
        <ele>776.00000</ele>
        <time>2008-10-30T07:39:28Z</time>
      </trkpt>
      <trkpt lat="48.03780560" lon="8.038859400">
        <ele>783.00000</ele>
        <time>2008-10-30T07:39:37Z</time>
      </trkpt>
      <trkpt lat="48.03802010" lon="8.038902300">
        <ele>777.00000</ele>
        <time>2008-10-30T07:39:45Z</time>
      </trkpt>
      <trkpt lat="48.03827760" lon="8.038945200">
        <ele>777.00000</ele>
        <time>2008-10-30T07:39:56Z</time>
      </trkpt>
      <trkpt lat="48.03857800" lon="8.039116900">
        <ele>777.00000</ele>
        <time>2008-10-30T07:40:08Z</time>
      </trkpt>
      <trkpt lat="48.03887840" lon="8.039503100">
        <ele>791.00000</ele>
        <time>2008-10-30T07:40:24Z</time>
      </trkpt>
      <trkpt lat="48.03973670" lon="8.041348500">
        <ele>804.00000</ele>
        <time>2008-10-30T07:41:24Z</time>
      </trkpt>
      <trkpt lat="48.04025170" lon="8.042035100">
        <ele>804.00000</ele>
        <time>2008-10-30T07:41:52Z</time>
      </trkpt>
      <trkpt lat="48.04068090" lon="8.042292600">
        <ele>808.00000</ele>
        <time>2008-10-30T07:42:11Z</time>
      </trkpt>
      <trkpt lat="48.04119590" lon="8.042421300">
        <ele>808.00000</ele>
        <time>2008-10-30T07:42:31Z</time>
      </trkpt>
      <trkpt lat="48.04175380" lon="8.042678800">
        <ele>806.00000</ele>
        <time>2008-10-30T07:42:55Z</time>
      </trkpt>
      <trkpt lat="48.04244040" lon="8.043322600">
        <ele>821.00000</ele>
        <time>2008-10-30T07:43:27Z</time>
      </trkpt>
      <trkpt lat="48.04265500" lon="8.043794600">
        <ele>820.00000</ele>
        <time>2008-10-30T07:43:43Z</time>
      </trkpt>
      <trkpt lat="48.04317000" lon="8.044309600">
        <ele>837.00000</ele>
        <time>2008-10-30T07:44:07Z</time>
      </trkpt>
      <trkpt lat="48.04359910" lon="8.044910400">
        <ele>827.00000</ele>
        <time>2008-10-30T07:44:31Z</time>
      </trkpt>
      <trkpt lat="48.04389950" lon="8.045682900">
        <ele>847.00000</ele>
        <time>2008-10-30T07:44:55Z</time>
      </trkpt>
      <trkpt lat="48.04394250" lon="8.046326600">
        <ele>852.00000</ele>
        <time>2008-10-30T07:45:12Z</time>
      </trkpt>
      <trkpt lat="48.04385660" lon="8.046712900">
        <ele>852.00000</ele>
        <time>2008-10-30T07:45:23Z</time>
      </trkpt>
      <trkpt lat="48.04351330" lon="8.046884500">
        <ele>845.00000</ele>
        <time>2008-10-30T07:45:38Z</time>
      </trkpt>
      <trkpt lat="48.04347040" lon="8.047056200">
        <ele>845.00000</ele>
        <time>2008-10-30T07:45:42Z</time>
      </trkpt>
      <trkpt lat="48.04342750" lon="8.047227900">
        <ele>844.00000</ele>
        <time>2008-10-30T07:45:47Z</time>
      </trkpt>
      <trkpt lat="48.04351330" lon="8.047399500">
        <ele>844.00000</ele>
        <time>2008-10-30T07:45:53Z</time>
      </trkpt>
      <trkpt lat="48.04364200" lon="8.047399500">
        <ele>844.00000</ele>
        <time>2008-10-30T07:45:58Z</time>
      </trkpt>
      <trkpt lat="48.04398540" lon="8.047184900">
        <ele>861.00000</ele>
        <time>2008-10-30T07:46:13Z</time>
      </trkpt>
      <trkpt lat="48.04411410" lon="8.047013300">
        <ele>852.00000</ele>
        <time>2008-10-30T07:46:20Z</time>
      </trkpt>
      <trkpt lat="48.04432870" lon="8.046627000">
        <ele>852.00000</ele>
        <time>2008-10-30T07:46:33Z</time>
      </trkpt>
      <trkpt lat="48.04471490" lon="8.045640000">
        <ele>871.00000</ele>
        <time>2008-10-30T07:47:04Z</time>
      </trkpt>
      <trkpt lat="48.04480080" lon="8.045425400">
        <ele>871.00000</ele>
        <time>2008-10-30T07:47:11Z</time>
      </trkpt>
      <trkpt lat="48.04544450" lon="8.045039200">
        <ele>884.00000</ele>
        <time>2008-10-30T07:47:39Z</time>
      </trkpt>
      <trkpt lat="48.04557320" lon="8.044695900">
        <ele>884.00000</ele>
        <time>2008-10-30T07:47:49Z</time>
      </trkpt>
      <trkpt lat="48.04595950" lon="8.043451300">
        <ele>880.00000</ele>
        <time>2008-10-30T07:48:26Z</time>
      </trkpt>
      <trkpt lat="48.04608820" lon="8.043193800">
        <ele>880.00000</ele>
        <time>2008-10-30T07:48:34Z</time>
      </trkpt>
      <trkpt lat="48.04630280" lon="8.042979200">
        <ele>899.00000</ele>
        <time>2008-10-30T07:48:45Z</time>
      </trkpt>
      <trkpt lat="48.04673190" lon="8.042550100">
        <ele>892.00000</ele>
        <time>2008-10-30T07:49:05Z</time>
      </trkpt>
      <trkpt lat="48.04724690" lon="8.042249700">
        <ele>907.00000</ele>
        <time>2008-10-30T07:49:28Z</time>
      </trkpt>
      <trkpt lat="48.04806230" lon="8.042120900">
        <ele>923.00000</ele>
        <time>2008-10-30T07:50:00Z</time>
      </trkpt>
      <trkpt lat="48.04849150" lon="8.041949300">
        <ele>911.00000</ele>
        <time>2008-10-30T07:50:18Z</time>
      </trkpt>
      <trkpt lat="48.04879190" lon="8.041520100">
        <ele>929.00000</ele>
        <time>2008-10-30T07:50:35Z</time>
      </trkpt>
      <trkpt lat="48.04887770" lon="8.041477200">
        <ele>929.00000</ele>
        <time>2008-10-30T07:50:38Z</time>
      </trkpt>
      <trkpt lat="48.04896350" lon="8.041520100">
        <ele>929.00000</ele>
        <time>2008-10-30T07:50:42Z</time>
      </trkpt>
      <trkpt lat="48.04904940" lon="8.041863400">
        <ele>929.00000</ele>
        <time>2008-10-30T07:50:52Z</time>
      </trkpt>
      <trkpt lat="48.04892060" lon="8.042035100">
        <ele>929.00000</ele>
        <time>2008-10-30T07:50:59Z</time>
      </trkpt>
      <trkpt lat="48.04870610" lon="8.042120900">
        <ele>923.00000</ele>
        <time>2008-10-30T07:51:08Z</time>
      </trkpt>
      <trkpt lat="48.04857730" lon="8.042335500">
        <ele>923.00000</ele>
        <time>2008-10-30T07:51:15Z</time>
      </trkpt>
      <trkpt lat="48.04840560" lon="8.043451300">
        <ele>931.00000</ele>
        <time>2008-10-30T07:51:46Z</time>
      </trkpt>
      <trkpt lat="48.04840560" lon="8.043880500">
        <ele>936.00000</ele>
        <time>2008-10-30T07:51:57Z</time>
      </trkpt>
      <trkpt lat="48.04849150" lon="8.044738800">
        <ele>939.00000</ele>
        <time>2008-10-30T07:52:21Z</time>
      </trkpt>
      <trkpt lat="48.04862020" lon="8.045382500">
        <ele>939.00000</ele>
        <time>2008-10-30T07:52:39Z</time>
      </trkpt>
      <trkpt lat="48.04892060" lon="8.046326600">
        <ele>962.00000</ele>
        <time>2008-10-30T07:53:07Z</time>
      </trkpt>
      <trkpt lat="48.04917810" lon="8.046798700">
        <ele>962.00000</ele>
        <time>2008-10-30T07:53:23Z</time>
      </trkpt>
      <trkpt lat="48.04926400" lon="8.047099100">
        <ele>967.00000</ele>
        <time>2008-10-30T07:53:32Z</time>
      </trkpt>
      <trkpt lat="48.04926400" lon="8.047270800">
        <ele>967.00000</ele>
        <time>2008-10-30T07:53:36Z</time>
      </trkpt>
      <trkpt lat="48.04896350" lon="8.047957400">
        <ele>977.00000</ele>
        <time>2008-10-30T07:53:58Z</time>
      </trkpt>
      <trkpt lat="48.04887770" lon="8.048300700">
        <ele>977.00000</ele>
        <time>2008-10-30T07:54:08Z</time>
      </trkpt>
      <trkpt lat="48.04874900" lon="8.049159000">
        <ele>971.00000</ele>
        <time>2008-10-30T07:54:32Z</time>
      </trkpt>
      <trkpt lat="48.04879190" lon="8.049716900">
        <ele>990.00000</ele>
        <time>2008-10-30T07:54:47Z</time>
      </trkpt>
      <trkpt lat="48.04900650" lon="8.050403600">
        <ele>990.00000</ele>
        <time>2008-10-30T07:55:07Z</time>
      </trkpt>
      <trkpt lat="48.04913520" lon="8.050618200">
        <ele>993.00000</ele>
        <time>2008-10-30T07:55:15Z</time>
      </trkpt>
      <trkpt lat="48.04922100" lon="8.050661100">
        <ele>993.00000</ele>
        <time>2008-10-30T07:55:18Z</time>
      </trkpt>
      <trkpt lat="48.04943560" lon="8.050661100">
        <ele>993.00000</ele>
        <time>2008-10-30T07:55:27Z</time>
      </trkpt>
      <trkpt lat="48.04973600" lon="8.050060300">
        <ele>1000.0000</ele>
        <time>2008-10-30T07:55:47Z</time>
      </trkpt>
      <trkpt lat="48.05033680" lon="8.049759900">
        <ele>1000.0000</ele>
        <time>2008-10-30T07:56:12Z</time>
      </trkpt>
      <trkpt lat="48.05050850" lon="8.049631100">
        <ele>999.00000</ele>
        <time>2008-10-30T07:56:20Z</time>
      </trkpt>
      <trkpt lat="48.05068020" lon="8.049373600">
        <ele>1005.0000</ele>
        <time>2008-10-30T07:56:30Z</time>
      </trkpt>
      <trkpt lat="48.05119510" lon="8.048300700">
        <ele>1008.0000</ele>
        <time>2008-10-30T07:57:05Z</time>
      </trkpt>
      <trkpt lat="48.05132390" lon="8.047742800">
        <ele>1022.0000</ele>
        <time>2008-10-30T07:57:21Z</time>
      </trkpt>
      <trkpt lat="48.05162430" lon="8.046069100">
        <ele>1014.0000</ele>
        <time>2008-10-30T07:58:07Z</time>
      </trkpt>
      <trkpt lat="48.05171010" lon="8.045725800">
        <ele>1014.0000</ele>
        <time>2008-10-30T07:58:17Z</time>
      </trkpt>
      <trkpt lat="48.05196760" lon="8.045425400">
        <ele>1014.0000</ele>
        <time>2008-10-30T07:58:30Z</time>
      </trkpt>
      <trkpt lat="48.05239680" lon="8.045167900">
        <ele>1012.0000</ele>
        <time>2008-10-30T07:58:49Z</time>
      </trkpt>
      <trkpt lat="48.05291180" lon="8.044910400">
        <ele>1012.0000</ele>
        <time>2008-10-30T07:59:10Z</time>
      </trkpt>
      <trkpt lat="48.05359840" lon="8.044738800">
        <ele>1020.0000</ele>
        <time>2008-10-30T07:59:38Z</time>
      </trkpt>
      <trkpt lat="48.05411340" lon="8.044652900">
        <ele>1024.0000</ele>
        <time>2008-10-30T07:59:59Z</time>
      </trkpt>
      <trkpt lat="48.05583000" lon="8.044867500">
        <ele>1036.0000</ele>
        <time>2008-10-30T08:01:08Z</time>
      </trkpt>
      <trkpt lat="48.05630210" lon="8.044824600">
        <ele>1044.0000</ele>
        <time>2008-10-30T08:01:27Z</time>
      </trkpt>
      <trkpt lat="48.05934910" lon="8.043966300">
        <ele>1061.0000</ele>
        <time>2008-10-30T08:03:31Z</time>
      </trkpt>
      <trkpt lat="48.05943490" lon="8.043751700">
        <ele>1061.0000</ele>
        <time>2008-10-30T08:03:38Z</time>
      </trkpt>
      <trkpt lat="48.05947780" lon="8.043408400">
        <ele>1062.0000</ele>
        <time>2008-10-30T08:03:47Z</time>
      </trkpt>
      <trkpt lat="48.05943490" lon="8.041949300">
        <ele>1068.0000</ele>
        <time>2008-10-30T08:04:26Z</time>
      </trkpt>
      <trkpt lat="48.05917740" lon="8.039073900">
        <ele>1063.0000</ele>
        <time>2008-10-30T08:05:44Z</time>
      </trkpt>
      <trkpt lat="48.05913450" lon="8.038301500">
        <ele>1066.0000</ele>
        <time>2008-10-30T08:06:04Z</time>
      </trkpt>
      <trkpt lat="48.05904870" lon="8.037657700">
        <ele>1067.0000</ele>
        <time>2008-10-30T08:06:22Z</time>
      </trkpt>
      <trkpt lat="48.05840490" lon="8.035683600">
        <ele>1075.0000</ele>
        <time>2008-10-30T08:07:21Z</time>
      </trkpt>
      <trkpt lat="48.05836200" lon="8.034954100">
        <ele>1077.0000</ele>
        <time>2008-10-30T08:07:40Z</time>
      </trkpt>
      <trkpt lat="48.05849080" lon="8.034353300">
        <ele>1083.0000</ele>
        <time>2008-10-30T08:07:57Z</time>
      </trkpt>
      <trkpt lat="48.05934910" lon="8.032765400">
        <ele>1098.0000</ele>
        <time>2008-10-30T08:08:52Z</time>
      </trkpt>
      <trkpt lat="48.05952070" lon="8.032293300">
        <ele>1098.0000</ele>
        <time>2008-10-30T08:09:06Z</time>
      </trkpt>
      <trkpt lat="48.05969240" lon="8.031649600">
        <ele>1094.0000</ele>
        <time>2008-10-30T08:09:25Z</time>
      </trkpt>
      <trkpt lat="48.05977820" lon="8.030920000">
        <ele>1102.0000</ele>
        <time>2008-10-30T08:09:45Z</time>
      </trkpt>
      <trkpt lat="48.05994990" lon="8.028302200">
        <ele>1123.0000</ele>
        <time>2008-10-30T08:10:55Z</time>
      </trkpt>
      <trkpt lat="48.05990700" lon="8.027916000">
        <ele>1121.0000</ele>
        <time>2008-10-30T08:11:05Z</time>
      </trkpt>
      <trkpt lat="48.05969240" lon="8.027229300">
        <ele>1121.0000</ele>
        <time>2008-10-30T08:11:26Z</time>
      </trkpt>
      <trkpt lat="48.05917740" lon="8.025941800">
        <ele>1139.0000</ele>
        <time>2008-10-30T08:12:06Z</time>
      </trkpt>
      <trkpt lat="48.05909160" lon="8.025469800">
        <ele>1139.0000</ele>
        <time>2008-10-30T08:12:19Z</time>
      </trkpt>
      <trkpt lat="48.05913450" lon="8.024911900">
        <ele>1146.0000</ele>
        <time>2008-10-30T08:12:34Z</time>
      </trkpt>
      <trkpt lat="48.05909160" lon="8.024010700">
        <ele>1152.0000</ele>
        <time>2008-10-30T08:12:58Z</time>
      </trkpt>
      <trkpt lat="48.05943490" lon="8.022851900">
        <ele>1164.0000</ele>
        <time>2008-10-30T08:13:32Z</time>
      </trkpt>
      <trkpt lat="48.05947780" lon="8.022422800">
        <ele>1164.0000</ele>
        <time>2008-10-30T08:13:44Z</time>
      </trkpt>
      <trkpt lat="48.05952070" lon="8.021178200">
        <ele>1177.0000</ele>
        <time>2008-10-30T08:14:17Z</time>
      </trkpt>
      <trkpt lat="48.05964950" lon="8.020620300">
        <ele>1169.0000</ele>
        <time>2008-10-30T08:14:33Z</time>
      </trkpt>
      <trkpt lat="48.06003570" lon="8.019075400">
        <ele>1183.0000</ele>
        <time>2008-10-30T08:15:17Z</time>
      </trkpt>
      <trkpt lat="48.06012150" lon="8.018860800">
        <ele>1183.0000</ele>
        <time>2008-10-30T08:15:24Z</time>
      </trkpt>
      <trkpt lat="48.06029320" lon="8.018560400">
        <ele>1181.0000</ele>
        <time>2008-10-30T08:15:34Z</time>
      </trkpt>
      <trkpt lat="48.06132320" lon="8.017702100">
        <ele>1184.0000</ele>
        <time>2008-10-30T08:16:21Z</time>
      </trkpt>
      <trkpt lat="48.06158070" lon="8.017616300">
        <ele>1184.0000</ele>
        <time>2008-10-30T08:16:32Z</time>
      </trkpt>
      <trkpt lat="48.06291100" lon="8.017787900">
        <ele>1186.0000</ele>
        <time>2008-10-30T08:17:25Z</time>
      </trkpt>
      <trkpt lat="48.06342600" lon="8.017487500">
        <ele>1185.0000</ele>
        <time>2008-10-30T08:17:47Z</time>
      </trkpt>
      <trkpt lat="48.06389810" lon="8.017058400">
        <ele>1193.0000</ele>
        <time>2008-10-30T08:18:10Z</time>
      </trkpt>
      <trkpt lat="48.06428430" lon="8.016758000">
        <ele>1193.0000</ele>
        <time>2008-10-30T08:18:27Z</time>
      </trkpt>
      <trkpt lat="48.06518550" lon="8.016285900">
        <ele>1200.0000</ele>
        <time>2008-10-30T08:19:05Z</time>
      </trkpt>
      <trkpt lat="48.06608680" lon="8.015899700">
        <ele>1199.0000</ele>
        <time>2008-10-30T08:19:43Z</time>
      </trkpt>
      <trkpt lat="48.06720260" lon="8.015084300">
        <ele>1193.0000</ele>
        <time>2008-10-30T08:20:32Z</time>
      </trkpt>
      <trkpt lat="48.06879040" lon="8.014655100">
        <ele>1191.0000</ele>
        <time>2008-10-30T08:21:37Z</time>
      </trkpt>
      <trkpt lat="48.06956290" lon="8.014140100">
        <ele>1172.0000</ele>
        <time>2008-10-30T08:22:11Z</time>
      </trkpt>
      <trkpt lat="48.07046410" lon="8.014097200">
        <ele>1163.0000</ele>
        <time>2008-10-30T08:22:47Z</time>
      </trkpt>
      <trkpt lat="48.07097910" lon="8.014011400">
        <ele>1163.0000</ele>
        <time>2008-10-30T08:23:08Z</time>
      </trkpt>
      <trkpt lat="48.07179450" lon="8.014097200">
        <ele>1151.0000</ele>
        <time>2008-10-30T08:23:40Z</time>
      </trkpt>
      <trkpt lat="48.07248120" lon="8.013796800">
        <ele>1146.0000</ele>
        <time>2008-10-30T08:24:09Z</time>
      </trkpt>
      <trkpt lat="48.07256700" lon="8.013711000">
        <ele>1138.0000</ele>
        <time>2008-10-30T08:24:13Z</time>
      </trkpt>
      <trkpt lat="48.07248120" lon="8.013496400">
        <ele>1138.0000</ele>
        <time>2008-10-30T08:24:20Z</time>
      </trkpt>
      <trkpt lat="48.07192330" lon="8.013453500">
        <ele>1134.0000</ele>
        <time>2008-10-30T08:24:42Z</time>
      </trkpt>
      <trkpt lat="48.07145120" lon="8.013238900">
        <ele>1134.0000</ele>
        <time>2008-10-30T08:25:02Z</time>
      </trkpt>
      <trkpt lat="48.07089330" lon="8.013153100">
        <ele>1140.0000</ele>
        <time>2008-10-30T08:25:25Z</time>
      </trkpt>
      <trkpt lat="48.07085040" lon="8.013067200">
        <ele>1140.0000</ele>
        <time>2008-10-30T08:25:27Z</time>
      </trkpt>
      <trkpt lat="48.07089330" lon="8.012981400">
        <ele>1140.0000</ele>
        <time>2008-10-30T08:25:30Z</time>
      </trkpt>
      <trkpt lat="48.07188030" lon="8.012723900">
        <ele>1111.0000</ele>
        <time>2008-10-30T08:26:10Z</time>
      </trkpt>
      <trkpt lat="48.07248120" lon="8.012380600">
        <ele>1118.0000</ele>
        <time>2008-10-30T08:26:36Z</time>
      </trkpt>
      <trkpt lat="48.07308200" lon="8.011651000">
        <ele>1110.0000</ele>
        <time>2008-10-30T08:27:07Z</time>
      </trkpt>
      <trkpt lat="48.07372570" lon="8.010277700">
        <ele>1078.0000</ele>
        <time>2008-10-30T08:27:52Z</time>
      </trkpt>
      <trkpt lat="48.07428360" lon="8.010020300">
        <ele>1092.0000</ele>
        <time>2008-10-30T08:28:15Z</time>
      </trkpt>
      <trkpt lat="48.07539940" lon="8.008904500">
        <ele>1087.0000</ele>
        <time>2008-10-30T08:29:09Z</time>
      </trkpt>
      <trkpt lat="48.07617190" lon="8.008432400">
        <ele>1078.0000</ele>
        <time>2008-10-30T08:29:42Z</time>
      </trkpt>
      <trkpt lat="48.07642940" lon="8.008132000">
        <ele>1072.0000</ele>
        <time>2008-10-30T08:29:55Z</time>
      </trkpt>
      <trkpt lat="48.07642940" lon="8.007960300">
        <ele>1072.0000</ele>
        <time>2008-10-30T08:30:00Z</time>
      </trkpt>
      <trkpt lat="48.07634350" lon="8.007745700">
        <ele>1067.0000</ele>
        <time>2008-10-30T08:30:07Z</time>
      </trkpt>
      <trkpt lat="48.07625770" lon="8.007659900">
        <ele>1067.0000</ele>
        <time>2008-10-30T08:30:11Z</time>
      </trkpt>
      <trkpt lat="48.07531360" lon="8.007617000">
        <ele>1049.0000</ele>
        <time>2008-10-30T08:30:49Z</time>
      </trkpt>
      <trkpt lat="48.07497020" lon="8.007745700">
        <ele>1049.0000</ele>
        <time>2008-10-30T08:31:03Z</time>
      </trkpt>
      <trkpt lat="48.07432650" lon="8.008046200">
        <ele>1044.0000</ele>
        <time>2008-10-30T08:31:30Z</time>
      </trkpt>
      <trkpt lat="48.07411190" lon="8.008389500">
        <ele>1044.0000</ele>
        <time>2008-10-30T08:31:42Z</time>
      </trkpt>
      <trkpt lat="48.07381150" lon="8.008689900">
        <ele>1044.0000</ele>
        <time>2008-10-30T08:31:57Z</time>
      </trkpt>
      <trkpt lat="48.07273860" lon="8.008947400">
        <ele>1023.0000</ele>
        <time>2008-10-30T08:32:40Z</time>
      </trkpt>
      <trkpt lat="48.07248120" lon="8.009505300">
        <ele>1023.0000</ele>
        <time>2008-10-30T08:32:59Z</time>
      </trkpt>
      <trkpt lat="48.07213780" lon="8.009934400">
        <ele>1048.0000</ele>
        <time>2008-10-30T08:33:16Z</time>
      </trkpt>
      <trkpt lat="48.07149410" lon="8.010320700">
        <ele>1013.0000</ele>
        <time>2008-10-30T08:33:44Z</time>
      </trkpt>
      <trkpt lat="48.07089330" lon="8.010406500">
        <ele>1002.0000</ele>
        <time>2008-10-30T08:34:08Z</time>
      </trkpt>
      <trkpt lat="48.06973460" lon="8.010234800">
        <ele>1003.0000</ele>
        <time>2008-10-30T08:34:55Z</time>
      </trkpt>
      <trkpt lat="48.06861880" lon="8.010492300">
        <ele>1015.0000</ele>
        <time>2008-10-30T08:35:40Z</time>
      </trkpt>
      <trkpt lat="48.06767460" lon="8.010234800">
        <ele>982.00000</ele>
        <time>2008-10-30T08:36:19Z</time>
      </trkpt>
      <trkpt lat="48.06737420" lon="8.010234800">
        <ele>982.00000</ele>
        <time>2008-10-30T08:36:31Z</time>
      </trkpt>
      <trkpt lat="48.06720260" lon="8.010063200">
        <ele>982.00000</ele>
        <time>2008-10-30T08:36:39Z</time>
      </trkpt>
      <trkpt lat="48.06715970" lon="8.009676900">
        <ele>982.00000</ele>
        <time>2008-10-30T08:36:49Z</time>
      </trkpt>
      <trkpt lat="48.06720260" lon="8.008561100">
        <ele>961.00000</ele>
        <time>2008-10-30T08:37:19Z</time>
      </trkpt>
      <trkpt lat="48.06715970" lon="8.007273700">
        <ele>955.00000</ele>
        <time>2008-10-30T08:37:54Z</time>
      </trkpt>
      <trkpt lat="48.06724550" lon="8.006200800">
        <ele>935.00000</ele>
        <time>2008-10-30T08:38:23Z</time>
      </trkpt>
      <trkpt lat="48.06724550" lon="8.005900400">
        <ele>935.00000</ele>
        <time>2008-10-30T08:38:31Z</time>
      </trkpt>
      <trkpt lat="48.06715970" lon="8.005557100">
        <ele>935.00000</ele>
        <time>2008-10-30T08:38:40Z</time>
      </trkpt>
      <trkpt lat="48.06690220" lon="8.005042100">
        <ele>956.00000</ele>
        <time>2008-10-30T08:38:58Z</time>
      </trkpt>
      <trkpt lat="48.06690220" lon="8.004870400">
        <ele>956.00000</ele>
        <time>2008-10-30T08:39:02Z</time>
      </trkpt>
      <trkpt lat="48.06694510" lon="8.004827500">
        <ele>956.00000</ele>
        <time>2008-10-30T08:39:04Z</time>
      </trkpt>
      <trkpt lat="48.06703090" lon="8.004784600">
        <ele>956.00000</ele>
        <time>2008-10-30T08:39:08Z</time>
      </trkpt>
      <trkpt lat="48.06715970" lon="8.004870400">
        <ele>920.00000</ele>
        <time>2008-10-30T08:39:14Z</time>
      </trkpt>
      <trkpt lat="48.06746010" lon="8.005771600">
        <ele>935.00000</ele>
        <time>2008-10-30T08:39:41Z</time>
      </trkpt>
      <trkpt lat="48.06754590" lon="8.006029100">
        <ele>935.00000</ele>
        <time>2008-10-30T08:39:48Z</time>
      </trkpt>
      <trkpt lat="48.06763170" lon="8.006887400">
        <ele>948.00000</ele>
        <time>2008-10-30T08:40:11Z</time>
      </trkpt>
      <trkpt lat="48.06793210" lon="8.008303600">
        <ele>928.00000</ele>
        <time>2008-10-30T08:40:51Z</time>
      </trkpt>
      <trkpt lat="48.06814670" lon="8.008689900">
        <ele>928.00000</ele>
        <time>2008-10-30T08:41:05Z</time>
      </trkpt>
      <trkpt lat="48.06849000" lon="8.008689900">
        <ele>928.00000</ele>
        <time>2008-10-30T08:41:18Z</time>
      </trkpt>
      <trkpt lat="48.06999210" lon="8.007831600">
        <ele>897.00000</ele>
        <time>2008-10-30T08:42:23Z</time>
      </trkpt>
      <trkpt lat="48.07042120" lon="8.007874500">
        <ele>917.00000</ele>
        <time>2008-10-30T08:42:40Z</time>
      </trkpt>
      <trkpt lat="48.07063580" lon="8.007831600">
        <ele>917.00000</ele>
        <time>2008-10-30T08:42:49Z</time>
      </trkpt>
      <trkpt lat="48.07072160" lon="8.007702800">
        <ele>917.00000</ele>
        <time>2008-10-30T08:42:54Z</time>
      </trkpt>
      <trkpt lat="48.07080750" lon="8.007531200">
        <ele>917.00000</ele>
        <time>2008-10-30T08:42:59Z</time>
      </trkpt>
      <trkpt lat="48.07102200" lon="8.006544100">
        <ele>884.00000</ele>
        <time>2008-10-30T08:43:27Z</time>
      </trkpt>
      <trkpt lat="48.07166580" lon="8.005170800">
        <ele>867.00000</ele>
        <time>2008-10-30T08:44:12Z</time>
      </trkpt>
      <trkpt lat="48.07175160" lon="8.005085000">
        <ele>867.00000</ele>
        <time>2008-10-30T08:44:16Z</time>
      </trkpt>
      <trkpt lat="48.07188030" lon="8.005085000">
        <ele>867.00000</ele>
        <time>2008-10-30T08:44:21Z</time>
      </trkpt>
      <trkpt lat="48.07218070" lon="8.005342500">
        <ele>862.00000</ele>
        <time>2008-10-30T08:44:35Z</time>
      </trkpt>
      <trkpt lat="48.07239530" lon="8.005385400">
        <ele>862.00000</ele>
        <time>2008-10-30T08:44:44Z</time>
      </trkpt>
      <trkpt lat="48.07252410" lon="8.005428300">
        <ele>902.00000</ele>
        <time>2008-10-30T08:44:49Z</time>
      </trkpt>
      <trkpt lat="48.07269570" lon="8.005299600">
        <ele>862.00000</ele>
        <time>2008-10-30T08:44:57Z</time>
      </trkpt>
      <trkpt lat="48.07333950" lon="8.004441300">
        <ele>861.00000</ele>
        <time>2008-10-30T08:45:31Z</time>
      </trkpt>
      <trkpt lat="48.07385440" lon="8.003454200">
        <ele>857.00000</ele>
        <time>2008-10-30T08:46:05Z</time>
      </trkpt>
      <trkpt lat="48.07424070" lon="8.003110900">
        <ele>857.00000</ele>
        <time>2008-10-30T08:46:23Z</time>
      </trkpt>
      <trkpt lat="48.07466980" lon="8.002939200">
        <ele>877.00000</ele>
        <time>2008-10-30T08:46:40Z</time>
      </trkpt>
      <trkpt lat="48.07497020" lon="8.002681700">
        <ele>845.00000</ele>
        <time>2008-10-30T08:46:54Z</time>
      </trkpt>
      <trkpt lat="48.07505610" lon="8.002424200">
        <ele>845.00000</ele>
        <time>2008-10-30T08:47:02Z</time>
      </trkpt>
      <trkpt lat="48.07548520" lon="8.000664700">
        <ele>840.00000</ele>
        <time>2008-10-30T08:47:52Z</time>
      </trkpt>
      <trkpt lat="48.07557110" lon="8.000407200">
        <ele>818.00000</ele>
        <time>2008-10-30T08:48:00Z</time>
      </trkpt>
      <trkpt lat="48.07569980" lon="8.000278500">
        <ele>818.00000</ele>
        <time>2008-10-30T08:48:06Z</time>
      </trkpt>
      <trkpt lat="48.07720180" lon="7.999548900">
        <ele>788.00000</ele>
        <time>2008-10-30T08:49:09Z</time>
      </trkpt>
      <trkpt lat="48.07758810" lon="7.999634700">
        <ele>817.00000</ele>
        <time>2008-10-30T08:49:25Z</time>
      </trkpt>
      <trkpt lat="48.07806020" lon="8.000021000">
        <ele>797.00000</ele>
        <time>2008-10-30T08:49:46Z</time>
      </trkpt>
      <trkpt lat="48.07831760" lon="8.000149700">
        <ele>797.00000</ele>
        <time>2008-10-30T08:49:57Z</time>
      </trkpt>
      <trkpt lat="48.07939050" lon="7.999849300">
        <ele>793.00000</ele>
        <time>2008-10-30T08:50:41Z</time>
      </trkpt>
      <trkpt lat="48.07986260" lon="7.999634700">
        <ele>805.00000</ele>
        <time>2008-10-30T08:51:01Z</time>
      </trkpt>
      <trkpt lat="48.08072090" lon="7.998476000">
        <ele>767.00000</ele>
        <time>2008-10-30T08:51:47Z</time>
      </trkpt>
      <trkpt lat="48.08115010" lon="7.998175600">
        <ele>767.00000</ele>
        <time>2008-10-30T08:52:06Z</time>
      </trkpt>
      <trkpt lat="48.08140750" lon="7.998089800">
        <ele>776.00000</ele>
        <time>2008-10-30T08:52:16Z</time>
      </trkpt>
      <trkpt lat="48.08218000" lon="7.998046900">
        <ele>772.00000</ele>
        <time>2008-10-30T08:52:47Z</time>
      </trkpt>
      <trkpt lat="48.08325290" lon="7.997746500">
        <ele>738.00000</ele>
        <time>2008-10-30T08:53:31Z</time>
      </trkpt>
      <trkpt lat="48.08432580" lon="7.997360200">
        <ele>739.00000</ele>
        <time>2008-10-30T08:54:15Z</time>
      </trkpt>
      <trkpt lat="48.08492660" lon="7.997059800">
        <ele>713.00000</ele>
        <time>2008-10-30T08:54:41Z</time>
      </trkpt>
      <trkpt lat="48.08492660" lon="7.996931100">
        <ele>713.00000</ele>
        <time>2008-10-30T08:54:44Z</time>
      </trkpt>
      <trkpt lat="48.08484080" lon="7.996888200">
        <ele>713.00000</ele>
        <time>2008-10-30T08:54:48Z</time>
      </trkpt>
      <trkpt lat="48.08428290" lon="7.997102700">
        <ele>739.00000</ele>
        <time>2008-10-30T08:55:11Z</time>
      </trkpt>
      <trkpt lat="48.08376790" lon="7.997102700">
        <ele>739.00000</ele>
        <time>2008-10-30T08:55:31Z</time>
      </trkpt>
      <trkpt lat="48.08183670" lon="7.996802300">
        <ele>703.00000</ele>
        <time>2008-10-30T08:56:49Z</time>
      </trkpt>
      <trkpt lat="48.08089260" lon="7.996716500">
        <ele>699.00000</ele>
        <time>2008-10-30T08:57:27Z</time>
      </trkpt>
      <trkpt lat="48.07986260" lon="7.996802300">
        <ele>690.00000</ele>
        <time>2008-10-30T08:58:08Z</time>
      </trkpt>
      <trkpt lat="48.07900430" lon="7.997145700">
        <ele>690.00000</ele>
        <time>2008-10-30T08:58:44Z</time>
      </trkpt>
      <trkpt lat="48.07874680" lon="7.997016900">
        <ele>674.00000</ele>
        <time>2008-10-30T08:58:55Z</time>
      </trkpt>
      <trkpt lat="48.07810310" lon="7.995944000">
        <ele>653.00000</ele>
        <time>2008-10-30T08:59:33Z</time>
      </trkpt>
      <trkpt lat="48.07793140" lon="7.995772400">
        <ele>653.00000</ele>
        <time>2008-10-30T08:59:41Z</time>
      </trkpt>
      <trkpt lat="48.07638650" lon="7.995257400">
        <ele>628.00000</ele>
        <time>2008-10-30T09:00:45Z</time>
      </trkpt>
      <trkpt lat="48.07578560" lon="7.994442000">
        <ele>618.00000</ele>
        <time>2008-10-30T09:01:17Z</time>
      </trkpt>
      <trkpt lat="48.07565690" lon="7.994356200">
        <ele>618.00000</ele>
        <time>2008-10-30T09:01:23Z</time>
      </trkpt>
      <trkpt lat="48.07531360" lon="7.994270300">
        <ele>616.00000</ele>
        <time>2008-10-30T09:01:37Z</time>
      </trkpt>
      <trkpt lat="48.07488440" lon="7.994313200">
        <ele>616.00000</ele>
        <time>2008-10-30T09:01:54Z</time>
      </trkpt>
      <trkpt lat="48.07381150" lon="7.994484900">
        <ele>606.00000</ele>
        <time>2008-10-30T09:02:37Z</time>
      </trkpt>
      <trkpt lat="48.07368280" lon="7.994356200">
        <ele>619.00000</ele>
        <time>2008-10-30T09:02:44Z</time>
      </trkpt>
      <trkpt lat="48.07368280" lon="7.994184500">
        <ele>619.00000</ele>
        <time>2008-10-30T09:02:48Z</time>
      </trkpt>
      <trkpt lat="48.07376860" lon="7.994098700">
        <ele>606.00000</ele>
        <time>2008-10-30T09:02:52Z</time>
      </trkpt>
      <trkpt lat="48.07475570" lon="7.993497800">
        <ele>602.00000</ele>
        <time>2008-10-30T09:03:35Z</time>
      </trkpt>
      <trkpt lat="48.07591440" lon="7.992510800">
        <ele>594.00000</ele>
        <time>2008-10-30T09:04:28Z</time>
      </trkpt>
      <trkpt lat="48.07681560" lon="7.992081600">
        <ele>596.00000</ele>
        <time>2008-10-30T09:05:06Z</time>
      </trkpt>
      <trkpt lat="48.07866100" lon="7.991051700">
        <ele>582.00000</ele>
        <time>2008-10-30T09:06:25Z</time>
      </trkpt>
      <trkpt lat="48.07930470" lon="7.990751300">
        <ele>555.00000</ele>
        <time>2008-10-30T09:06:52Z</time>
      </trkpt>
      <trkpt lat="48.08007720" lon="7.990579600">
        <ele>542.00000</ele>
        <time>2008-10-30T09:07:23Z</time>
      </trkpt>
      <trkpt lat="48.08067800" lon="7.990493800">
        <ele>528.00000</ele>
        <time>2008-10-30T09:07:47Z</time>
      </trkpt>
      <trkpt lat="48.08127880" lon="7.990579600">
        <ele>517.00000</ele>
        <time>2008-10-30T09:08:12Z</time>
      </trkpt>
      <trkpt lat="48.08175090" lon="7.990407900">
        <ele>540.00000</ele>
        <time>2008-10-30T09:08:31Z</time>
      </trkpt>
      <trkpt lat="48.08295250" lon="7.989721300">
        <ele>491.00000</ele>
        <time>2008-10-30T09:09:22Z</time>
      </trkpt>
      <trkpt lat="48.08441160" lon="7.988734200">
        <ele>510.00000</ele>
        <time>2008-10-30T09:10:27Z</time>
      </trkpt>
      <trkpt lat="48.08569910" lon="7.988219300">
        <ele>473.00000</ele>
        <time>2008-10-30T09:11:20Z</time>
      </trkpt>
      <trkpt lat="48.08732990" lon="7.987318000">
        <ele>460.00000</ele>
        <time>2008-10-30T09:12:29Z</time>
      </trkpt>
      <trkpt lat="48.08831690" lon="7.986931800">
        <ele>477.00000</ele>
        <time>2008-10-30T09:13:10Z</time>
      </trkpt>
      <trkpt lat="48.08900360" lon="7.986974700">
        <ele>467.00000</ele>
        <time>2008-10-30T09:13:38Z</time>
      </trkpt>
      <trkpt lat="48.08921810" lon="7.987060500">
        <ele>467.00000</ele>
        <time>2008-10-30T09:13:47Z</time>
      </trkpt>
      <trkpt lat="48.09011940" lon="7.987918900">
        <ele>431.00000</ele>
        <time>2008-10-30T09:14:29Z</time>
      </trkpt>
      <trkpt lat="48.09029100" lon="7.987918900">
        <ele>431.00000</ele>
        <time>2008-10-30T09:14:36Z</time>
      </trkpt>
      <trkpt lat="48.09114930" lon="7.987575500">
        <ele>442.00000</ele>
        <time>2008-10-30T09:15:12Z</time>
      </trkpt>
      <trkpt lat="48.09170720" lon="7.987446800">
        <ele>428.00000</ele>
        <time>2008-10-30T09:15:35Z</time>
      </trkpt>
      <trkpt lat="48.09256550" lon="7.987103500">
        <ele>424.00000</ele>
        <time>2008-10-30T09:16:10Z</time>
      </trkpt>
      <trkpt lat="48.09338090" lon="7.986931800">
        <ele>418.00000</ele>
        <time>2008-10-30T09:16:43Z</time>
      </trkpt>
      <trkpt lat="48.09368130" lon="7.986803100">
        <ele>418.00000</ele>
        <time>2008-10-30T09:16:56Z</time>
      </trkpt>
      <trkpt lat="48.09406760" lon="7.986373900">
        <ele>397.00000</ele>
        <time>2008-10-30T09:17:15Z</time>
      </trkpt>
      <trkpt lat="48.09411050" lon="7.986159300">
        <ele>400.00000</ele>
        <time>2008-10-30T09:17:21Z</time>
      </trkpt>
      <trkpt lat="48.09402470" lon="7.985944700">
        <ele>400.00000</ele>
        <time>2008-10-30T09:17:27Z</time>
      </trkpt>
      <trkpt lat="48.09278010" lon="7.985730200">
        <ele>403.00000</ele>
        <time>2008-10-30T09:18:18Z</time>
      </trkpt>
      <trkpt lat="48.09243680" lon="7.985558500">
        <ele>403.00000</ele>
        <time>2008-10-30T09:18:32Z</time>
      </trkpt>
      <trkpt lat="48.09196470" lon="7.985172300">
        <ele>402.00000</ele>
        <time>2008-10-30T09:18:54Z</time>
      </trkpt>
      <trkpt lat="48.09187890" lon="7.984957700">
        <ele>402.00000</ele>
        <time>2008-10-30T09:19:00Z</time>
      </trkpt>
      <trkpt lat="48.09179310" lon="7.984700200">
        <ele>402.00000</ele>
        <time>2008-10-30T09:19:08Z</time>
      </trkpt>
      <trkpt lat="48.09179310" lon="7.984528500">
        <ele>406.00000</ele>
        <time>2008-10-30T09:19:13Z</time>
      </trkpt>
      <trkpt lat="48.09192180" lon="7.984314000">
        <ele>406.00000</ele>
        <time>2008-10-30T09:19:20Z</time>
      </trkpt>
      <trkpt lat="48.09239390" lon="7.984099400">
        <ele>380.00000</ele>
        <time>2008-10-30T09:19:40Z</time>
      </trkpt>
      <trkpt lat="48.09278010" lon="7.983884800">
        <ele>380.00000</ele>
        <time>2008-10-30T09:19:57Z</time>
      </trkpt>
      <trkpt lat="48.09303760" lon="7.983455700">
        <ele>357.00000</ele>
        <time>2008-10-30T09:20:12Z</time>
      </trkpt>
      <trkpt lat="48.09333800" lon="7.982983600">
        <ele>357.00000</ele>
        <time>2008-10-30T09:20:29Z</time>
      </trkpt>
      <trkpt lat="48.09342380" lon="7.982296900">
        <ele>354.00000</ele>
        <time>2008-10-30T09:20:48Z</time>
      </trkpt>
      <trkpt lat="48.09359550" lon="7.980752000">
        <ele>342.00000</ele>
        <time>2008-10-30T09:21:30Z</time>
      </trkpt>
      <trkpt lat="48.09376720" lon="7.979850800">
        <ele>324.00000</ele>
        <time>2008-10-30T09:21:55Z</time>
      </trkpt>
      <trkpt lat="48.09393880" lon="7.979378700">
        <ele>318.00000</ele>
        <time>2008-10-30T09:22:09Z</time>
      </trkpt>
      <trkpt lat="48.09406760" lon="7.979035400">
        <ele>318.00000</ele>
        <time>2008-10-30T09:22:20Z</time>
      </trkpt>
      <trkpt lat="48.09441090" lon="7.978692100">
        <ele>317.00000</ele>
        <time>2008-10-30T09:22:36Z</time>
      </trkpt>
      <trkpt lat="48.09544090" lon="7.978220000">
        <ele>313.00000</ele>
        <time>2008-10-30T09:23:20Z</time>
      </trkpt>
      <trkpt lat="48.09599880" lon="7.978048300">
        <ele>313.00000</ele>
        <time>2008-10-30T09:23:42Z</time>
      </trkpt>
      <trkpt lat="48.09612750" lon="7.978520400">
        <ele>313.00000</ele>
        <time>2008-10-30T09:23:56Z</time>
      </trkpt>
      <trkpt lat="48.09638500" lon="7.978906600">
        <ele>315.00000</ele>
        <time>2008-10-30T09:24:11Z</time>
      </trkpt>
      <trkpt lat="48.09664250" lon="7.979035400">
        <ele>315.00000</ele>
        <time>2008-10-30T09:24:21Z</time>
      </trkpt>
      <trkpt lat="48.09685710" lon="7.978949500">
        <ele>315.00000</ele>
        <time>2008-10-30T09:24:30Z</time>
      </trkpt>
      <trkpt lat="48.09702870" lon="7.978777900">
        <ele>315.00000</ele>
        <time>2008-10-30T09:24:39Z</time>
      </trkpt>
      <trkpt lat="48.09711460" lon="7.978477500">
        <ele>312.00000</ele>
        <time>2008-10-30T09:24:47Z</time>
      </trkpt>
      <trkpt lat="48.09711460" lon="7.977533300">
        <ele>310.00000</ele>
        <time>2008-10-30T09:25:13Z</time>
      </trkpt>
      <trkpt lat="48.09715750" lon="7.976632100">
        <ele>306.00000</ele>
        <time>2008-10-30T09:25:37Z</time>
      </trkpt>
      <trkpt lat="48.09737210" lon="7.975301700">
        <ele>298.00000</ele>
        <time>2008-10-30T09:26:13Z</time>
      </trkpt>
      <trkpt lat="48.09758660" lon="7.973756800">
        <ele>296.00000</ele>
        <time>2008-10-30T09:26:56Z</time>
      </trkpt>
      <trkpt lat="48.09775830" lon="7.972941400">
        <ele>293.00000</ele>
        <time>2008-10-30T09:27:18Z</time>
      </trkpt>
      <trkpt lat="48.09823040" lon="7.971096000">
        <ele>280.00000</ele>
        <time>2008-10-30T09:28:11Z</time>
      </trkpt>
      <trkpt lat="48.09883120" lon="7.969379400">
        <ele>267.00000</ele>
        <time>2008-10-30T09:29:03Z</time>
      </trkpt>
      <trkpt lat="48.09895990" lon="7.969207800">
        <ele>267.00000</ele>
        <time>2008-10-30T09:29:10Z</time>
      </trkpt>
      <trkpt lat="48.09908870" lon="7.968993200">
        <ele>267.00000</ele>
        <time>2008-10-30T09:29:18Z</time>
      </trkpt>
      <trkpt lat="48.09943200" lon="7.968649900">
        <ele>267.00000</ele>
        <time>2008-10-30T09:29:34Z</time>
      </trkpt>
      <trkpt lat="48.09964660" lon="7.969250700">
        <ele>268.00000</ele>
        <time>2008-10-30T09:29:52Z</time>
      </trkpt>
      <trkpt lat="48.09981820" lon="7.969422300">
        <ele>268.00000</ele>
        <time>2008-10-30T09:30:01Z</time>
      </trkpt>
      <trkpt lat="48.09994700" lon="7.969551100">
        <ele>268.00000</ele>
        <time>2008-10-30T09:30:07Z</time>
      </trkpt>
      <trkpt lat="48.10007570" lon="7.969722700">
        <ele>267.00000</ele>
        <time>2008-10-30T09:30:14Z</time>
      </trkpt>
      <trkpt lat="48.10020450" lon="7.970023200">
        <ele>267.00000</ele>
        <time>2008-10-30T09:30:23Z</time>
      </trkpt>
      <trkpt lat="48.10029030" lon="7.970323600">
        <ele>267.00000</ele>
        <time>2008-10-30T09:30:32Z</time>
      </trkpt>
      <trkpt lat="48.10041900" lon="7.970538100">
        <ele>269.00000</ele>
        <time>2008-10-30T09:30:40Z</time>
      </trkpt>
      <trkpt lat="48.10071950" lon="7.970924400">
        <ele>269.00000</ele>
        <time>2008-10-30T09:30:56Z</time>
      </trkpt>
      <trkpt lat="48.10101990" lon="7.971611000">
        <ele>270.00000</ele>
        <time>2008-10-30T09:31:18Z</time>
      </trkpt>
      <trkpt lat="48.10132030" lon="7.972211800">
        <ele>269.00000</ele>
        <time>2008-10-30T09:31:38Z</time>
      </trkpt>
      <trkpt lat="48.10144900" lon="7.972426400">
        <ele>269.00000</ele>
        <time>2008-10-30T09:31:45Z</time>
      </trkpt>
      <trkpt lat="48.10166360" lon="7.972641000">
        <ele>269.00000</ele>
        <time>2008-10-30T09:31:56Z</time>
      </trkpt>
      <trkpt lat="48.10192110" lon="7.972641000">
        <ele>269.00000</ele>
        <time>2008-10-30T09:32:06Z</time>
      </trkpt>
      <trkpt lat="48.10252190" lon="7.972254800">
        <ele>270.00000</ele>
        <time>2008-10-30T09:32:32Z</time>
      </trkpt>
      <trkpt lat="48.10269360" lon="7.972254800">
        <ele>270.00000</ele>
        <time>2008-10-30T09:32:39Z</time>
      </trkpt>
      <trkpt lat="48.10299400" lon="7.972168900">
        <ele>272.00000</ele>
        <time>2008-10-30T09:32:51Z</time>
      </trkpt>
      <trkpt lat="48.10277940" lon="7.971096000">
        <ele>273.00000</ele>
        <time>2008-10-30T09:33:21Z</time>
      </trkpt>
      <trkpt lat="48.10277940" lon="7.971053100">
        <ele>273.00000</ele>
        <time>2008-10-30T09:33:22Z</time>
      </trkpt>
      <trkpt lat="48.10273650" lon="7.969980200">
        <ele>271.00000</ele>
        <time>2008-10-30T09:33:51Z</time>
      </trkpt>
      <trkpt lat="48.10299400" lon="7.969594000">
        <ele>272.00000</ele>
        <time>2008-10-30T09:34:06Z</time>
      </trkpt>
      <trkpt lat="48.10376640" lon="7.968907400">
        <ele>270.00000</ele>
        <time>2008-10-30T09:34:42Z</time>
      </trkpt>
      <trkpt lat="48.10410980" lon="7.968692800">
        <ele>268.00000</ele>
        <time>2008-10-30T09:34:56Z</time>
      </trkpt>
      <trkpt lat="48.10441020" lon="7.968649900">
        <ele>268.00000</ele>
        <time>2008-10-30T09:35:09Z</time>
      </trkpt>
      <trkpt lat="48.10509680" lon="7.968349500">
        <ele>269.00000</ele>
        <time>2008-10-30T09:35:37Z</time>
      </trkpt>
      <trkpt lat="48.10556890" lon="7.968092000">
        <ele>273.00000</ele>
        <time>2008-10-30T09:35:57Z</time>
      </trkpt>
      <trkpt lat="48.10604100" lon="7.967748600">
        <ele>279.00000</ele>
        <time>2008-10-30T09:36:18Z</time>
      </trkpt>
      <trkpt lat="48.10608390" lon="7.967619900">
        <ele>279.00000</ele>
        <time>2008-10-30T09:36:22Z</time>
      </trkpt>
      <trkpt lat="48.10582640" lon="7.966976200">
        <ele>284.00000</ele>
        <time>2008-10-30T09:36:42Z</time>
      </trkpt>
      <trkpt lat="48.10582640" lon="7.966761600">
        <ele>284.00000</ele>
        <time>2008-10-30T09:36:48Z</time>
      </trkpt>
      <trkpt lat="48.10604100" lon="7.965517000">
        <ele>282.00000</ele>
        <time>2008-10-30T09:37:22Z</time>
      </trkpt>
      <trkpt lat="48.10664180" lon="7.963671700">
        <ele>285.00000</ele>
        <time>2008-10-30T09:38:17Z</time>
      </trkpt>
      <trkpt lat="48.10672760" lon="7.962770500">
        <ele>281.00000</ele>
        <time>2008-10-30T09:38:42Z</time>
      </trkpt>
      <trkpt lat="48.10677050" lon="7.962341300">
        <ele>281.00000</ele>
        <time>2008-10-30T09:38:53Z</time>
      </trkpt>
      <trkpt lat="48.10694220" lon="7.961998000">
        <ele>277.00000</ele>
        <time>2008-10-30T09:39:05Z</time>
      </trkpt>
      <trkpt lat="48.10810090" lon="7.959938000">
        <ele>291.00000</ele>
        <time>2008-10-30T09:40:17Z</time>
      </trkpt>
      <trkpt lat="48.10827260" lon="7.959466000">
        <ele>287.00000</ele>
        <time>2008-10-30T09:40:31Z</time>
      </trkpt>
      <trkpt lat="48.10835840" lon="7.958779300">
        <ele>287.00000</ele>
        <time>2008-10-30T09:40:50Z</time>
      </trkpt>
      <trkpt lat="48.10840130" lon="7.958521800">
        <ele>284.00000</ele>
        <time>2008-10-30T09:40:57Z</time>
      </trkpt>
      <trkpt lat="48.10891630" lon="7.956461900">
        <ele>286.00000</ele>
        <time>2008-10-30T09:41:56Z</time>
      </trkpt>
      <trkpt lat="48.10908790" lon="7.956161500">
        <ele>283.00000</ele>
        <time>2008-10-30T09:42:06Z</time>
      </trkpt>
      <trkpt lat="48.10960290" lon="7.955431900">
        <ele>290.00000</ele>
        <time>2008-10-30T09:42:34Z</time>
      </trkpt>
      <trkpt lat="48.11020370" lon="7.955002800">
        <ele>286.00000</ele>
        <time>2008-10-30T09:43:01Z</time>
      </trkpt>
      <trkpt lat="48.11123370" lon="7.954402000">
        <ele>287.00000</ele>
        <time>2008-10-30T09:43:45Z</time>
      </trkpt>
      <trkpt lat="48.11234950" lon="7.953972800">
        <ele>300.00000</ele>
        <time>2008-10-30T09:44:31Z</time>
      </trkpt>
      <trkpt lat="48.11282160" lon="7.953329100">
        <ele>294.00000</ele>
        <time>2008-10-30T09:44:57Z</time>
      </trkpt>
      <trkpt lat="48.11320780" lon="7.953200300">
        <ele>295.00000</ele>
        <time>2008-10-30T09:45:13Z</time>
      </trkpt>
      <trkpt lat="48.11363700" lon="7.952556600">
        <ele>297.00000</ele>
        <time>2008-10-30T09:45:37Z</time>
      </trkpt>
      <trkpt lat="48.11393740" lon="7.952513700">
        <ele>297.00000</ele>
        <time>2008-10-30T09:45:49Z</time>
      </trkpt>
      <trkpt lat="48.11428070" lon="7.952256200">
        <ele>297.00000</ele>
        <time>2008-10-30T09:46:05Z</time>
      </trkpt>
      <trkpt lat="48.11501030" lon="7.952213300">
        <ele>298.00000</ele>
        <time>2008-10-30T09:46:34Z</time>
      </trkpt>
      <trkpt lat="48.11535360" lon="7.951741200">
        <ele>311.00000</ele>
        <time>2008-10-30T09:46:53Z</time>
      </trkpt>
      <trkpt lat="48.11578270" lon="7.951483700">
        <ele>305.00000</ele>
        <time>2008-10-30T09:47:11Z</time>
      </trkpt>
      <trkpt lat="48.11634060" lon="7.950968700">
        <ele>317.00000</ele>
        <time>2008-10-30T09:47:37Z</time>
      </trkpt>
      <trkpt lat="48.11694150" lon="7.950453800">
        <ele>317.00000</ele>
        <time>2008-10-30T09:48:05Z</time>
      </trkpt>
      <trkpt lat="48.11767100" lon="7.949981700">
        <ele>320.00000</ele>
        <time>2008-10-30T09:48:37Z</time>
      </trkpt>
      <trkpt lat="48.11827180" lon="7.950153400">
        <ele>329.00000</ele>
        <time>2008-10-30T09:49:01Z</time>
      </trkpt>
      <trkpt lat="48.11870100" lon="7.950067500">
        <ele>329.00000</ele>
        <time>2008-10-30T09:49:19Z</time>
      </trkpt>
      <trkpt lat="48.12020300" lon="7.949638400">
        <ele>358.00000</ele>
        <time>2008-10-30T09:50:20Z</time>
      </trkpt>
      <trkpt lat="48.12058930" lon="7.949166300">
        <ele>361.00000</ele>
        <time>2008-10-30T09:50:40Z</time>
      </trkpt>
      <trkpt lat="48.12097550" lon="7.948522600">
        <ele>366.00000</ele>
        <time>2008-10-30T09:51:03Z</time>
      </trkpt>
      <trkpt lat="48.12127590" lon="7.948350900">
        <ele>371.00000</ele>
        <time>2008-10-30T09:51:16Z</time>
      </trkpt>
      <trkpt lat="48.12161920" lon="7.947878800">
        <ele>380.00000</ele>
        <time>2008-10-30T09:51:34Z</time>
      </trkpt>
      <trkpt lat="48.12191960" lon="7.947406800">
        <ele>380.00000</ele>
        <time>2008-10-30T09:51:52Z</time>
      </trkpt>
      <trkpt lat="48.12217710" lon="7.946591400">
        <ele>390.00000</ele>
        <time>2008-10-30T09:52:16Z</time>
      </trkpt>
      <trkpt lat="48.12252040" lon="7.946033500">
        <ele>398.00000</ele>
        <time>2008-10-30T09:52:36Z</time>
      </trkpt>
      <trkpt lat="48.12269210" lon="7.945604300">
        <ele>398.00000</ele>
        <time>2008-10-30T09:52:50Z</time>
      </trkpt>
      <trkpt lat="48.12290670" lon="7.944746000">
        <ele>404.00000</ele>
        <time>2008-10-30T09:53:14Z</time>
      </trkpt>
      <trkpt lat="48.12303540" lon="7.943801900">
        <ele>390.00000</ele>
        <time>2008-10-30T09:53:40Z</time>
      </trkpt>
      <trkpt lat="48.12337880" lon="7.942943600">
        <ele>397.00000</ele>
        <time>2008-10-30T09:54:07Z</time>
      </trkpt>
      <trkpt lat="48.12376500" lon="7.941398600">
        <ele>410.00000</ele>
        <time>2008-10-30T09:54:51Z</time>
      </trkpt>
      <trkpt lat="48.12380790" lon="7.941141100">
        <ele>408.00000</ele>
        <time>2008-10-30T09:54:58Z</time>
      </trkpt>
      <trkpt lat="48.12367920" lon="7.940626100">
        <ele>429.00000</ele>
        <time>2008-10-30T09:55:12Z</time>
      </trkpt>
      <trkpt lat="48.12397960" lon="7.940454500">
        <ele>408.00000</ele>
        <time>2008-10-30T09:55:25Z</time>
      </trkpt>
      <trkpt lat="48.12410830" lon="7.940540300">
        <ele>408.00000</ele>
        <time>2008-10-30T09:55:31Z</time>
      </trkpt>
      <trkpt lat="48.12415120" lon="7.941570300">
        <ele>410.00000</ele>
        <time>2008-10-30T09:55:59Z</time>
      </trkpt>
      <trkpt lat="48.12423710" lon="7.942128200">
        <ele>410.00000</ele>
        <time>2008-10-30T09:56:14Z</time>
      </trkpt>
      <trkpt lat="48.12410830" lon="7.942771900">
        <ele>410.00000</ele>
        <time>2008-10-30T09:56:32Z</time>
      </trkpt>
      <trkpt lat="48.12419410" lon="7.942986500">
        <ele>409.00000</ele>
        <time>2008-10-30T09:56:38Z</time>
      </trkpt>
      <trkpt lat="48.12458040" lon="7.942986500">
        <ele>409.00000</ele>
        <time>2008-10-30T09:56:54Z</time>
      </trkpt>
      <trkpt lat="48.12458040" lon="7.942643200">
        <ele>410.00000</ele>
        <time>2008-10-30T09:57:03Z</time>
      </trkpt>
      <trkpt lat="48.12470910" lon="7.942471500">
        <ele>432.00000</ele>
        <time>2008-10-30T09:57:10Z</time>
      </trkpt>
      <trkpt lat="48.12475200" lon="7.942514400">
        <ele>432.00000</ele>
        <time>2008-10-30T09:57:12Z</time>
      </trkpt>
      <trkpt lat="48.12488080" lon="7.943072300">
        <ele>429.00000</ele>
        <time>2008-10-30T09:57:28Z</time>
      </trkpt>
      <trkpt lat="48.12500950" lon="7.943158100">
        <ele>429.00000</ele>
        <time>2008-10-30T09:57:33Z</time>
      </trkpt>
      <trkpt lat="48.12543870" lon="7.943244000">
        <ele>448.00000</ele>
        <time>2008-10-30T09:57:51Z</time>
      </trkpt>
      <trkpt lat="48.12625410" lon="7.943115200">
        <ele>453.00000</ele>
        <time>2008-10-30T09:58:24Z</time>
      </trkpt>
      <trkpt lat="48.12702660" lon="7.942943600">
        <ele>453.00000</ele>
        <time>2008-10-30T09:58:55Z</time>
      </trkpt>
      <trkpt lat="48.12758450" lon="7.943415600">
        <ele>439.00000</ele>
        <time>2008-10-30T09:59:21Z</time>
      </trkpt>
      <trkpt lat="48.12805650" lon="7.943930600">
        <ele>427.00000</ele>
        <time>2008-10-30T09:59:44Z</time>
      </trkpt>
      <trkpt lat="48.12818530" lon="7.944231000">
        <ele>427.00000</ele>
        <time>2008-10-30T09:59:53Z</time>
      </trkpt>
      <trkpt lat="48.12827110" lon="7.944231000">
        <ele>427.00000</ele>
        <time>2008-10-30T09:59:57Z</time>
      </trkpt>
      <trkpt lat="48.12865730" lon="7.944059400">
        <ele>427.00000</ele>
        <time>2008-10-30T10:00:13Z</time>
      </trkpt>
      <trkpt lat="48.12912940" lon="7.944059400">
        <ele>415.00000</ele>
        <time>2008-10-30T10:00:32Z</time>
      </trkpt>
      <trkpt lat="48.12968730" lon="7.943801900">
        <ele>408.00000</ele>
        <time>2008-10-30T10:00:55Z</time>
      </trkpt>
      <trkpt lat="48.13003060" lon="7.943930600">
        <ele>408.00000</ele>
        <time>2008-10-30T10:01:09Z</time>
      </trkpt>
      <trkpt lat="48.13011650" lon="7.943801900">
        <ele>408.00000</ele>
        <time>2008-10-30T10:01:14Z</time>
      </trkpt>
      <trkpt lat="48.13024520" lon="7.943372700">
        <ele>398.00000</ele>
        <time>2008-10-30T10:01:27Z</time>
      </trkpt>
      <trkpt lat="48.13041690" lon="7.943244000">
        <ele>396.00000</ele>
        <time>2008-10-30T10:01:35Z</time>
      </trkpt>
      <trkpt lat="48.13131810" lon="7.943372700">
        <ele>391.00000</ele>
        <time>2008-10-30T10:02:11Z</time>
      </trkpt>
      <trkpt lat="48.13196180" lon="7.943372700">
        <ele>391.00000</ele>
        <time>2008-10-30T10:02:37Z</time>
      </trkpt>
      <trkpt lat="48.13264850" lon="7.943244000">
        <ele>383.00000</ele>
        <time>2008-10-30T10:03:04Z</time>
      </trkpt>
      <trkpt lat="48.13320640" lon="7.942857700">
        <ele>368.00000</ele>
        <time>2008-10-30T10:03:29Z</time>
      </trkpt>
      <trkpt lat="48.13359260" lon="7.942771900">
        <ele>368.00000</ele>
        <time>2008-10-30T10:03:45Z</time>
      </trkpt>
      <trkpt lat="48.13402180" lon="7.942256900">
        <ele>367.00000</ele>
        <time>2008-10-30T10:04:07Z</time>
      </trkpt>
      <trkpt lat="48.13432220" lon="7.941956500">
        <ele>352.00000</ele>
        <time>2008-10-30T10:04:21Z</time>
      </trkpt>
      <trkpt lat="48.13445090" lon="7.941999400">
        <ele>352.00000</ele>
        <time>2008-10-30T10:04:26Z</time>
      </trkpt>
      <trkpt lat="48.13453670" lon="7.942171100">
        <ele>367.00000</ele>
        <time>2008-10-30T10:04:32Z</time>
      </trkpt>
      <trkpt lat="48.13457970" lon="7.942385700">
        <ele>367.00000</ele>
        <time>2008-10-30T10:04:38Z</time>
      </trkpt>
      <trkpt lat="48.13462260" lon="7.942900700">
        <ele>351.00000</ele>
        <time>2008-10-30T10:04:52Z</time>
      </trkpt>
      <trkpt lat="48.13475130" lon="7.943115200">
        <ele>353.00000</ele>
        <time>2008-10-30T10:05:00Z</time>
      </trkpt>
      <trkpt lat="48.13488010" lon="7.943201100">
        <ele>353.00000</ele>
        <time>2008-10-30T10:05:05Z</time>
      </trkpt>
      <trkpt lat="48.13479420" lon="7.942299800">
        <ele>351.00000</ele>
        <time>2008-10-30T10:05:30Z</time>
      </trkpt>
      <trkpt lat="48.13483720" lon="7.941570300">
        <ele>352.00000</ele>
        <time>2008-10-30T10:05:49Z</time>
      </trkpt>
      <trkpt lat="48.13492300" lon="7.941141100">
        <ele>346.00000</ele>
        <time>2008-10-30T10:06:01Z</time>
      </trkpt>
      <trkpt lat="48.13548090" lon="7.940068200">
        <ele>355.00000</ele>
        <time>2008-10-30T10:06:37Z</time>
      </trkpt>
      <trkpt lat="48.13603880" lon="7.939081200">
        <ele>345.00000</ele>
        <time>2008-10-30T10:07:12Z</time>
      </trkpt>
      <trkpt lat="48.13745500" lon="7.937707900">
        <ele>326.00000</ele>
        <time>2008-10-30T10:08:19Z</time>
      </trkpt>
      <trkpt lat="48.13788410" lon="7.937321700">
        <ele>326.00000</ele>
        <time>2008-10-30T10:08:40Z</time>
      </trkpt>
      <trkpt lat="48.13835620" lon="7.937064200">
        <ele>324.00000</ele>
        <time>2008-10-30T10:09:00Z</time>
      </trkpt>
      <trkpt lat="48.13912870" lon="7.935948400">
        <ele>319.00000</ele>
        <time>2008-10-30T10:09:43Z</time>
      </trkpt>
      <trkpt lat="48.13960080" lon="7.935519200">
        <ele>327.00000</ele>
        <time>2008-10-30T10:10:05Z</time>
      </trkpt>
      <trkpt lat="48.14011570" lon="7.935304600">
        <ele>319.00000</ele>
        <time>2008-10-30T10:10:26Z</time>
      </trkpt>
      <trkpt lat="48.14054490" lon="7.935047100">
        <ele>321.00000</ele>
        <time>2008-10-30T10:10:45Z</time>
      </trkpt>
      <trkpt lat="48.14080240" lon="7.934789700">
        <ele>321.00000</ele>
        <time>2008-10-30T10:10:57Z</time>
      </trkpt>
      <trkpt lat="48.14114570" lon="7.934274700">
        <ele>317.00000</ele>
        <time>2008-10-30T10:11:16Z</time>
      </trkpt>
      <trkpt lat="48.14148900" lon="7.933931400">
        <ele>317.00000</ele>
        <time>2008-10-30T10:11:33Z</time>
      </trkpt>
      <trkpt lat="48.14217570" lon="7.932987200">
        <ele>322.00000</ele>
        <time>2008-10-30T10:12:10Z</time>
      </trkpt>
      <trkpt lat="48.14234730" lon="7.932686800">
        <ele>314.00000</ele>
        <time>2008-10-30T10:12:21Z</time>
      </trkpt>
      <trkpt lat="48.14324860" lon="7.931914300">
        <ele>313.00000</ele>
        <time>2008-10-30T10:13:02Z</time>
      </trkpt>
      <trkpt lat="48.14346310" lon="7.931571000">
        <ele>313.00000</ele>
        <time>2008-10-30T10:13:15Z</time>
      </trkpt>
      <trkpt lat="48.14354900" lon="7.931098900">
        <ele>306.00000</ele>
        <time>2008-10-30T10:13:28Z</time>
      </trkpt>
      <trkpt lat="48.14354900" lon="7.930626900">
        <ele>306.00000</ele>
        <time>2008-10-30T10:13:41Z</time>
      </trkpt>
      <trkpt lat="48.14363480" lon="7.929897300">
        <ele>306.00000</ele>
        <time>2008-10-30T10:14:00Z</time>
      </trkpt>
      <trkpt lat="48.14363480" lon="7.929296500">
        <ele>303.00000</ele>
        <time>2008-10-30T10:14:16Z</time>
      </trkpt>
      <trkpt lat="48.14367770" lon="7.928996100">
        <ele>303.00000</ele>
        <time>2008-10-30T10:14:25Z</time>
      </trkpt>
      <trkpt lat="48.14372060" lon="7.928824400">
        <ele>303.00000</ele>
        <time>2008-10-30T10:14:30Z</time>
      </trkpt>
      <trkpt lat="48.14440730" lon="7.927622800">
        <ele>295.00000</ele>
        <time>2008-10-30T10:15:12Z</time>
      </trkpt>
      <trkpt lat="48.14475060" lon="7.926507000">
        <ele>299.00000</ele>
        <time>2008-10-30T10:15:45Z</time>
      </trkpt>
      <trkpt lat="48.14475060" lon="7.926378300">
        <ele>299.00000</ele>
        <time>2008-10-30T10:15:48Z</time>
      </trkpt>
      <trkpt lat="48.14479350" lon="7.926034900">
        <ele>299.00000</ele>
        <time>2008-10-30T10:15:57Z</time>
      </trkpt>
      <trkpt lat="48.14479350" lon="7.924447100">
        <ele>299.00000</ele>
        <time>2008-10-30T10:16:40Z</time>
      </trkpt>
      <trkpt lat="48.14487930" lon="7.924060800">
        <ele>299.00000</ele>
        <time>2008-10-30T10:16:51Z</time>
      </trkpt>
      <trkpt lat="48.14492230" lon="7.923674600">
        <ele>296.00000</ele>
        <time>2008-10-30T10:17:01Z</time>
      </trkpt>
      <trkpt lat="48.14492230" lon="7.923159600">
        <ele>296.00000</ele>
        <time>2008-10-30T10:17:15Z</time>
      </trkpt>
      <trkpt lat="48.14470770" lon="7.922086700">
        <ele>298.00000</ele>
        <time>2008-10-30T10:17:45Z</time>
      </trkpt>
      <trkpt lat="48.14457890" lon="7.921657600">
        <ele>278.00000</ele>
        <time>2008-10-30T10:17:57Z</time>
      </trkpt>
      <trkpt lat="48.14440730" lon="7.921271300">
        <ele>278.00000</ele>
        <time>2008-10-30T10:18:10Z</time>
      </trkpt>
      <trkpt lat="48.14432140" lon="7.921099700">
        <ele>277.00000</ele>
        <time>2008-10-30T10:18:15Z</time>
      </trkpt>
      <trkpt lat="48.14423560" lon="7.920928000">
        <ele>277.00000</ele>
        <time>2008-10-30T10:18:21Z</time>
      </trkpt>
      <trkpt lat="48.14414980" lon="7.920541800">
        <ele>277.00000</ele>
        <time>2008-10-30T10:18:32Z</time>
      </trkpt>
      <trkpt lat="48.14457890" lon="7.920198400">
        <ele>275.00000</ele>
        <time>2008-10-30T10:18:52Z</time>
      </trkpt>
      <trkpt lat="48.14470770" lon="7.920241400">
        <ele>273.00000</ele>
        <time>2008-10-30T10:18:57Z</time>
      </trkpt>
      <trkpt lat="48.14505100" lon="7.920284300">
        <ele>273.00000</ele>
        <time>2008-10-30T10:19:11Z</time>
      </trkpt>
      <trkpt lat="48.14586640" lon="7.920498800">
        <ele>282.00000</ele>
        <time>2008-10-30T10:19:44Z</time>
      </trkpt>
      <trkpt lat="48.14655300" lon="7.920756300">
        <ele>282.00000</ele>
        <time>2008-10-30T10:20:12Z</time>
      </trkpt>
      <trkpt lat="48.14693930" lon="7.920713400">
        <ele>282.00000</ele>
        <time>2008-10-30T10:20:28Z</time>
      </trkpt>
      <trkpt lat="48.14741130" lon="7.920584700">
        <ele>284.00000</ele>
        <time>2008-10-30T10:20:47Z</time>
      </trkpt>
      <trkpt lat="48.14784050" lon="7.920670500">
        <ele>284.00000</ele>
        <time>2008-10-30T10:21:04Z</time>
      </trkpt>
      <trkpt lat="48.14951420" lon="7.921357200">
        <ele>294.00000</ele>
        <time>2008-10-30T10:22:14Z</time>
      </trkpt>
      <trkpt lat="48.15028670" lon="7.921357200">
        <ele>286.00000</ele>
        <time>2008-10-30T10:22:45Z</time>
      </trkpt>
      <trkpt lat="48.15063000" lon="7.921357200">
        <ele>284.00000</ele>
        <time>2008-10-30T10:22:58Z</time>
      </trkpt>
      <trkpt lat="48.15093040" lon="7.921700500">
        <ele>284.00000</ele>
        <time>2008-10-30T10:23:13Z</time>
      </trkpt>
      <trkpt lat="48.15123080" lon="7.922000900">
        <ele>284.00000</ele>
        <time>2008-10-30T10:23:28Z</time>
      </trkpt>
      <trkpt lat="48.15157410" lon="7.922215500">
        <ele>297.00000</ele>
        <time>2008-10-30T10:23:43Z</time>
      </trkpt>
      <trkpt lat="48.15238950" lon="7.922430000">
        <ele>295.00000</ele>
        <time>2008-10-30T10:24:16Z</time>
      </trkpt>
      <trkpt lat="48.15286160" lon="7.922773400">
        <ele>295.00000</ele>
        <time>2008-10-30T10:24:37Z</time>
      </trkpt>
      <trkpt lat="48.15367700" lon="7.923073800">
        <ele>305.00000</ele>
        <time>2008-10-30T10:25:11Z</time>
      </trkpt>
      <trkpt lat="48.15457820" lon="7.923245400">
        <ele>297.00000</ele>
        <time>2008-10-30T10:25:47Z</time>
      </trkpt>
      <trkpt lat="48.15547940" lon="7.923631700">
        <ele>294.00000</ele>
        <time>2008-10-30T10:26:24Z</time>
      </trkpt>
      <trkpt lat="48.15625190" lon="7.923631700">
        <ele>293.00000</ele>
        <time>2008-10-30T10:26:55Z</time>
      </trkpt>
      <trkpt lat="48.15659520" lon="7.923846200">
        <ele>300.00000</ele>
        <time>2008-10-30T10:27:10Z</time>
      </trkpt>
      <trkpt lat="48.15680980" lon="7.924232500">
        <ele>300.00000</ele>
        <time>2008-10-30T10:27:24Z</time>
      </trkpt>
      <trkpt lat="48.15706730" lon="7.924704600">
        <ele>310.00000</ele>
        <time>2008-10-30T10:27:40Z</time>
      </trkpt>
      <trkpt lat="48.15723900" lon="7.924833300">
        <ele>301.00000</ele>
        <time>2008-10-30T10:27:48Z</time>
      </trkpt>
      <trkpt lat="48.15736770" lon="7.924833300">
        <ele>301.00000</ele>
        <time>2008-10-30T10:27:53Z</time>
      </trkpt>
      <trkpt lat="48.15758230" lon="7.924661600">
        <ele>301.00000</ele>
        <time>2008-10-30T10:28:02Z</time>
      </trkpt>
      <trkpt lat="48.15775390" lon="7.924361200">
        <ele>298.00000</ele>
        <time>2008-10-30T10:28:13Z</time>
      </trkpt>
      <trkpt lat="48.15788270" lon="7.924146700">
        <ele>298.00000</ele>
        <time>2008-10-30T10:28:21Z</time>
      </trkpt>
      <trkpt lat="48.15814020" lon="7.924103700">
        <ele>298.00000</ele>
        <time>2008-10-30T10:28:31Z</time>
      </trkpt>
      <trkpt lat="48.15865520" lon="7.924532900">
        <ele>298.00000</ele>
        <time>2008-10-30T10:28:55Z</time>
      </trkpt>
      <trkpt lat="48.15951350" lon="7.924833300">
        <ele>307.00000</ele>
        <time>2008-10-30T10:29:30Z</time>
      </trkpt>
      <trkpt lat="48.15972810" lon="7.924790400">
        <ele>308.00000</ele>
        <time>2008-10-30T10:29:39Z</time>
      </trkpt>
      <trkpt lat="48.16037180" lon="7.924404100">
        <ele>296.00000</ele>
        <time>2008-10-30T10:30:06Z</time>
      </trkpt>
      <trkpt lat="48.16174510" lon="7.923545800">
        <ele>303.00000</ele>
        <time>2008-10-30T10:31:06Z</time>
      </trkpt>
      <trkpt lat="48.16264630" lon="7.923159600">
        <ele>307.00000</ele>
        <time>2008-10-30T10:31:43Z</time>
      </trkpt>
      <trkpt lat="48.16350460" lon="7.922859200">
        <ele>308.00000</ele>
        <time>2008-10-30T10:32:19Z</time>
      </trkpt>
      <trkpt lat="48.16380500" lon="7.922687500">
        <ele>325.00000</ele>
        <time>2008-10-30T10:32:32Z</time>
      </trkpt>
      <trkpt lat="48.16423420" lon="7.922043800">
        <ele>315.00000</ele>
        <time>2008-10-30T10:32:56Z</time>
      </trkpt>
      <trkpt lat="48.16453460" lon="7.921528800">
        <ele>315.00000</ele>
        <time>2008-10-30T10:33:14Z</time>
      </trkpt>
      <trkpt lat="48.16500660" lon="7.921099700">
        <ele>313.00000</ele>
        <time>2008-10-30T10:33:36Z</time>
      </trkpt>
      <trkpt lat="48.16547870" lon="7.920498800">
        <ele>311.00000</ele>
        <time>2008-10-30T10:34:01Z</time>
      </trkpt>
      <trkpt lat="48.16625120" lon="7.920069700">
        <ele>309.00000</ele>
        <time>2008-10-30T10:34:34Z</time>
      </trkpt>
      <trkpt lat="48.16740990" lon="7.919039700">
        <ele>314.00000</ele>
        <time>2008-10-30T10:35:28Z</time>
      </trkpt>
      <trkpt lat="48.16771030" lon="7.918524700">
        <ele>314.00000</ele>
        <time>2008-10-30T10:35:46Z</time>
      </trkpt>
      <trkpt lat="48.16783910" lon="7.917923900">
        <ele>314.00000</ele>
        <time>2008-10-30T10:36:03Z</time>
      </trkpt>
      <trkpt lat="48.16796780" lon="7.916936900">
        <ele>354.00000</ele>
        <time>2008-10-30T10:36:30Z</time>
      </trkpt>
      <trkpt lat="48.16809650" lon="7.915434800">
        <ele>351.00000</ele>
        <time>2008-10-30T10:37:10Z</time>
      </trkpt>
      <trkpt lat="48.16822530" lon="7.914662400">
        <ele>343.00000</ele>
        <time>2008-10-30T10:37:32Z</time>
      </trkpt>
      <trkpt lat="48.16865440" lon="7.913289100">
        <ele>324.00000</ele>
        <time>2008-10-30T10:38:12Z</time>
      </trkpt>
      <trkpt lat="48.16869740" lon="7.912645300">
        <ele>341.00000</ele>
        <time>2008-10-30T10:38:29Z</time>
      </trkpt>
      <trkpt lat="48.16865440" lon="7.912302000">
        <ele>341.00000</ele>
        <time>2008-10-30T10:38:39Z</time>
      </trkpt>
      <trkpt lat="48.16874030" lon="7.912001600">
        <ele>365.00000</ele>
        <time>2008-10-30T10:38:47Z</time>
      </trkpt>
      <trkpt lat="48.16886900" lon="7.911872900">
        <ele>350.00000</ele>
        <time>2008-10-30T10:38:54Z</time>
      </trkpt>
      <trkpt lat="48.16895480" lon="7.911872900">
        <ele>350.00000</ele>
        <time>2008-10-30T10:38:57Z</time>
      </trkpt>
      <trkpt lat="48.16925530" lon="7.910714100">
        <ele>359.00000</ele>
        <time>2008-10-30T10:39:30Z</time>
      </trkpt>
      <trkpt lat="48.16964150" lon="7.909855800">
        <ele>383.00000</ele>
        <time>2008-10-30T10:39:58Z</time>
      </trkpt>
      <trkpt lat="48.16972730" lon="7.909169200">
        <ele>381.00000</ele>
        <time>2008-10-30T10:40:17Z</time>
      </trkpt>
      <trkpt lat="48.16981320" lon="7.908825900">
        <ele>381.00000</ele>
        <time>2008-10-30T10:40:26Z</time>
      </trkpt>
      <trkpt lat="48.16985610" lon="7.908439600">
        <ele>375.00000</ele>
        <time>2008-10-30T10:40:37Z</time>
      </trkpt>
      <trkpt lat="48.16981320" lon="7.907667200">
        <ele>373.00000</ele>
        <time>2008-10-30T10:40:58Z</time>
      </trkpt>
      <trkpt lat="48.17062850" lon="7.905650100">
        <ele>380.00000</ele>
        <time>2008-10-30T10:42:00Z</time>
      </trkpt>
      <trkpt lat="48.17084310" lon="7.905263900">
        <ele>374.00000</ele>
        <time>2008-10-30T10:42:14Z</time>
      </trkpt>
      <trkpt lat="48.17101480" lon="7.904963500">
        <ele>374.00000</ele>
        <time>2008-10-30T10:42:24Z</time>
      </trkpt>
      <trkpt lat="48.17183020" lon="7.904405600">
        <ele>374.00000</ele>
        <time>2008-10-30T10:43:00Z</time>
      </trkpt>
      <trkpt lat="48.17234520" lon="7.903933500">
        <ele>375.00000</ele>
        <time>2008-10-30T10:43:25Z</time>
      </trkpt>
      <trkpt lat="48.17260270" lon="7.903590200">
        <ele>371.00000</ele>
        <time>2008-10-30T10:43:38Z</time>
      </trkpt>
      <trkpt lat="48.17316060" lon="7.902689000">
        <ele>385.00000</ele>
        <time>2008-10-30T10:44:11Z</time>
      </trkpt>
      <trkpt lat="48.17341800" lon="7.902045200">
        <ele>382.00000</ele>
        <time>2008-10-30T10:44:31Z</time>
      </trkpt>
      <trkpt lat="48.17380430" lon="7.901744800">
        <ele>389.00000</ele>
        <time>2008-10-30T10:44:49Z</time>
      </trkpt>
      <trkpt lat="48.17397590" lon="7.901530300">
        <ele>389.00000</ele>
        <time>2008-10-30T10:44:58Z</time>
      </trkpt>
      <trkpt lat="48.17423340" lon="7.900972400">
        <ele>383.00000</ele>
        <time>2008-10-30T10:45:16Z</time>
      </trkpt>
      <trkpt lat="48.17427640" lon="7.900800700">
        <ele>383.00000</ele>
        <time>2008-10-30T10:45:21Z</time>
      </trkpt>
      <trkpt lat="48.17419050" lon="7.899813700">
        <ele>390.00000</ele>
        <time>2008-10-30T10:45:47Z</time>
      </trkpt>
      <trkpt lat="48.17449090" lon="7.900028200">
        <ele>390.00000</ele>
        <time>2008-10-30T10:46:00Z</time>
      </trkpt>
      <trkpt lat="48.17466260" lon="7.899942400">
        <ele>394.00000</ele>
        <time>2008-10-30T10:46:08Z</time>
      </trkpt>
      <trkpt lat="48.17496300" lon="7.899727800">
        <ele>394.00000</ele>
        <time>2008-10-30T10:46:21Z</time>
      </trkpt>
      <trkpt lat="48.17539220" lon="7.899212800">
        <ele>398.00000</ele>
        <time>2008-10-30T10:46:43Z</time>
      </trkpt>
      <trkpt lat="48.17723750" lon="7.897968300">
        <ele>386.00000</ele>
        <time>2008-10-30T10:48:04Z</time>
      </trkpt>
      <trkpt lat="48.17740920" lon="7.898311600">
        <ele>386.00000</ele>
        <time>2008-10-30T10:48:15Z</time>
      </trkpt>
      <trkpt lat="48.17749500" lon="7.900028200">
        <ele>390.00000</ele>
        <time>2008-10-30T10:49:01Z</time>
      </trkpt>
      <trkpt lat="48.17770960" lon="7.901315700">
        <ele>404.00000</ele>
        <time>2008-10-30T10:49:37Z</time>
      </trkpt>
      <trkpt lat="48.17783830" lon="7.902560200">
        <ele>412.00000</ele>
        <time>2008-10-30T10:50:10Z</time>
      </trkpt>
      <trkpt lat="48.17792420" lon="7.902946500">
        <ele>415.00000</ele>
        <time>2008-10-30T10:50:21Z</time>
      </trkpt>
      <trkpt lat="48.17861080" lon="7.903118100">
        <ele>415.00000</ele>
        <time>2008-10-30T10:50:49Z</time>
      </trkpt>
      <trkpt lat="48.17873950" lon="7.903032300">
        <ele>415.00000</ele>
        <time>2008-10-30T10:50:55Z</time>
      </trkpt>
      <trkpt lat="48.17904000" lon="7.902560200">
        <ele>417.00000</ele>
        <time>2008-10-30T10:51:12Z</time>
      </trkpt>
      <trkpt lat="48.17959790" lon="7.902603100">
        <ele>435.00000</ele>
        <time>2008-10-30T10:51:35Z</time>
      </trkpt>
      <trkpt lat="48.17994120" lon="7.903246900">
        <ele>431.00000</ele>
        <time>2008-10-30T10:51:57Z</time>
      </trkpt>
      <trkpt lat="48.18041320" lon="7.903847700">
        <ele>427.00000</ele>
        <time>2008-10-30T10:52:21Z</time>
      </trkpt>
      <trkpt lat="48.18028450" lon="7.904362700">
        <ele>427.00000</ele>
        <time>2008-10-30T10:52:36Z</time>
      </trkpt>
      <trkpt lat="48.18024160" lon="7.904877700">
        <ele>426.00000</ele>
        <time>2008-10-30T10:52:50Z</time>
      </trkpt>
      <trkpt lat="48.18028450" lon="7.905521400">
        <ele>429.00000</ele>
        <time>2008-10-30T10:53:07Z</time>
      </trkpt>
      <trkpt lat="48.18105700" lon="7.908053400">
        <ele>436.00000</ele>
        <time>2008-10-30T10:54:21Z</time>
      </trkpt>
      <trkpt lat="48.18127160" lon="7.909255000">
        <ele>421.00000</ele>
        <time>2008-10-30T10:54:55Z</time>
      </trkpt>
      <trkpt lat="48.18144320" lon="7.909984600">
        <ele>428.00000</ele>
        <time>2008-10-30T10:55:15Z</time>
      </trkpt>
      <trkpt lat="48.18195820" lon="7.911143300">
        <ele>433.00000</ele>
        <time>2008-10-30T10:55:53Z</time>
      </trkpt>
      <trkpt lat="48.18277360" lon="7.912430800">
        <ele>431.00000</ele>
        <time>2008-10-30T10:56:40Z</time>
      </trkpt>
      <trkpt lat="48.18303110" lon="7.912859900">
        <ele>426.00000</ele>
        <time>2008-10-30T10:56:55Z</time>
      </trkpt>
      <trkpt lat="48.18406110" lon="7.914619400">
        <ele>428.00000</ele>
        <time>2008-10-30T10:57:58Z</time>
      </trkpt>
      <trkpt lat="48.18483350" lon="7.916507700">
        <ele>429.00000</ele>
        <time>2008-10-30T10:58:57Z</time>
      </trkpt>
      <trkpt lat="48.18513390" lon="7.917108500">
        <ele>429.00000</ele>
        <time>2008-10-30T10:59:17Z</time>
      </trkpt>
      <trkpt lat="48.18702220" lon="7.919855100">
        <ele>446.00000</ele>
        <time>2008-10-30T11:01:02Z</time>
      </trkpt>
      <trkpt lat="48.18758010" lon="7.920713400">
        <ele>446.00000</ele>
        <time>2008-10-30T11:01:34Z</time>
      </trkpt>
      <trkpt lat="48.18779470" lon="7.920799300">
        <ele>446.00000</ele>
        <time>2008-10-30T11:01:43Z</time>
      </trkpt>
      <trkpt lat="48.18843840" lon="7.920627600">
        <ele>447.00000</ele>
        <time>2008-10-30T11:02:09Z</time>
      </trkpt>
      <trkpt lat="48.18861010" lon="7.920627600">
        <ele>447.00000</ele>
        <time>2008-10-30T11:02:16Z</time>
      </trkpt>
      <trkpt lat="48.18882470" lon="7.920756300">
        <ele>453.00000</ele>
        <time>2008-10-30T11:02:25Z</time>
      </trkpt>
      <trkpt lat="48.18895340" lon="7.920928000">
        <ele>453.00000</ele>
        <time>2008-10-30T11:02:32Z</time>
      </trkpt>
      <trkpt lat="48.18925380" lon="7.921571700">
        <ele>455.00000</ele>
        <time>2008-10-30T11:02:53Z</time>
      </trkpt>
      <trkpt lat="48.18946840" lon="7.921657600">
        <ele>455.00000</ele>
        <time>2008-10-30T11:03:02Z</time>
      </trkpt>
      <trkpt lat="48.18951130" lon="7.921571700">
        <ele>455.00000</ele>
        <time>2008-10-30T11:03:05Z</time>
      </trkpt>
      <trkpt lat="48.18998340" lon="7.920713400">
        <ele>451.00000</ele>
        <time>2008-10-30T11:03:35Z</time>
      </trkpt>
      <trkpt lat="48.19015500" lon="7.920498800">
        <ele>451.00000</ele>
        <time>2008-10-30T11:03:44Z</time>
      </trkpt>
      <trkpt lat="48.19041250" lon="7.920327200">
        <ele>444.00000</ele>
        <time>2008-10-30T11:03:55Z</time>
      </trkpt>
      <trkpt lat="48.19067000" lon="7.920241400">
        <ele>448.00000</ele>
        <time>2008-10-30T11:04:06Z</time>
      </trkpt>
      <trkpt lat="48.19105630" lon="7.920284300">
        <ele>448.00000</ele>
        <time>2008-10-30T11:04:21Z</time>
      </trkpt>
      <trkpt lat="48.19187160" lon="7.920584700">
        <ele>459.00000</ele>
        <time>2008-10-30T11:04:55Z</time>
      </trkpt>
      <trkpt lat="48.19281580" lon="7.921271300">
        <ele>472.00000</ele>
        <time>2008-10-30T11:05:37Z</time>
      </trkpt>
      <trkpt lat="48.19345950" lon="7.922086700">
        <ele>473.00000</ele>
        <time>2008-10-30T11:06:10Z</time>
      </trkpt>
      <trkpt lat="48.19371700" lon="7.922644600">
        <ele>473.00000</ele>
        <time>2008-10-30T11:06:29Z</time>
      </trkpt>
      <trkpt lat="48.19388870" lon="7.923245400">
        <ele>475.00000</ele>
        <time>2008-10-30T11:06:46Z</time>
      </trkpt>
      <trkpt lat="48.19397450" lon="7.923889200">
        <ele>475.00000</ele>
        <time>2008-10-30T11:07:03Z</time>
      </trkpt>
      <trkpt lat="48.19401740" lon="7.924232500">
        <ele>475.00000</ele>
        <time>2008-10-30T11:07:13Z</time>
      </trkpt>
      <trkpt lat="48.19380280" lon="7.925906200">
        <ele>465.00000</ele>
        <time>2008-10-30T11:07:58Z</time>
      </trkpt>
      <trkpt lat="48.19380280" lon="7.926120800">
        <ele>465.00000</ele>
        <time>2008-10-30T11:08:04Z</time>
      </trkpt>
      <trkpt lat="48.19384570" lon="7.926292400">
        <ele>472.00000</ele>
        <time>2008-10-30T11:08:09Z</time>
      </trkpt>
      <trkpt lat="48.19401740" lon="7.926464100">
        <ele>472.00000</ele>
        <time>2008-10-30T11:08:17Z</time>
      </trkpt>
      <trkpt lat="48.19453240" lon="7.926635700">
        <ele>472.00000</ele>
        <time>2008-10-30T11:08:38Z</time>
      </trkpt>
      <trkpt lat="48.19466110" lon="7.926764500">
        <ele>462.00000</ele>
        <time>2008-10-30T11:08:44Z</time>
      </trkpt>
      <trkpt lat="48.19474700" lon="7.927107800">
        <ele>467.00000</ele>
        <time>2008-10-30T11:08:54Z</time>
      </trkpt>
      <trkpt lat="48.19470410" lon="7.927751500">
        <ele>467.00000</ele>
        <time>2008-10-30T11:09:12Z</time>
      </trkpt>
      <trkpt lat="48.19496150" lon="7.928438200">
        <ele>476.00000</ele>
        <time>2008-10-30T11:09:33Z</time>
      </trkpt>
      <trkpt lat="48.19509030" lon="7.928566900">
        <ele>476.00000</ele>
        <time>2008-10-30T11:09:39Z</time>
      </trkpt>
      <trkpt lat="48.19521900" lon="7.928738600">
        <ele>476.00000</ele>
        <time>2008-10-30T11:09:46Z</time>
      </trkpt>
      <trkpt lat="48.19534780" lon="7.928781500">
        <ele>484.00000</ele>
        <time>2008-10-30T11:09:51Z</time>
      </trkpt>
      <trkpt lat="48.19560530" lon="7.928695700">
        <ele>479.00000</ele>
        <time>2008-10-30T11:10:01Z</time>
      </trkpt>
      <trkpt lat="48.19607730" lon="7.928223600">
        <ele>479.00000</ele>
        <time>2008-10-30T11:10:24Z</time>
      </trkpt>
      <trkpt lat="48.19637780" lon="7.927794500">
        <ele>478.00000</ele>
        <time>2008-10-30T11:10:41Z</time>
      </trkpt>
      <trkpt lat="48.19654940" lon="7.927622800">
        <ele>478.00000</ele>
        <time>2008-10-30T11:10:49Z</time>
      </trkpt>
      <trkpt lat="48.19702150" lon="7.927408200">
        <ele>478.00000</ele>
        <time>2008-10-30T11:11:09Z</time>
      </trkpt>
      <trkpt lat="48.19757940" lon="7.927408200">
        <ele>485.00000</ele>
        <time>2008-10-30T11:11:31Z</time>
      </trkpt>
      <trkpt lat="48.19830890" lon="7.927794500">
        <ele>482.00000</ele>
        <time>2008-10-30T11:12:02Z</time>
      </trkpt>
      <trkpt lat="48.19912430" lon="7.928609800">
        <ele>476.00000</ele>
        <time>2008-10-30T11:12:41Z</time>
      </trkpt>
      <trkpt lat="48.19925310" lon="7.928781500">
        <ele>490.00000</ele>
        <time>2008-10-30T11:12:48Z</time>
      </trkpt>
      <trkpt lat="48.19959640" lon="7.929768600">
        <ele>474.00000</ele>
        <time>2008-10-30T11:13:18Z</time>
      </trkpt>
      <trkpt lat="48.19968220" lon="7.931013100">
        <ele>483.00000</ele>
        <time>2008-10-30T11:13:51Z</time>
      </trkpt>
      <trkpt lat="48.19963930" lon="7.931699800">
        <ele>480.00000</ele>
        <time>2008-10-30T11:14:10Z</time>
      </trkpt>
      <trkpt lat="48.19946770" lon="7.932300600">
        <ele>491.00000</ele>
        <time>2008-10-30T11:14:27Z</time>
      </trkpt>
      <trkpt lat="48.19912430" lon="7.932987200">
        <ele>474.00000</ele>
        <time>2008-10-30T11:14:50Z</time>
      </trkpt>
      <trkpt lat="48.19908140" lon="7.933201800">
        <ele>474.00000</ele>
        <time>2008-10-30T11:14:56Z</time>
      </trkpt>
      <trkpt lat="48.19903850" lon="7.933588000">
        <ele>474.00000</ele>
        <time>2008-10-30T11:15:06Z</time>
      </trkpt>
      <trkpt lat="48.19908140" lon="7.933888400">
        <ele>473.00000</ele>
        <time>2008-10-30T11:15:15Z</time>
      </trkpt>
      <trkpt lat="48.19933890" lon="7.934231800">
        <ele>473.00000</ele>
        <time>2008-10-30T11:15:28Z</time>
      </trkpt>
      <trkpt lat="48.19963930" lon="7.934575100">
        <ele>465.00000</ele>
        <time>2008-10-30T11:15:44Z</time>
      </trkpt>
      <trkpt lat="48.19981100" lon="7.934703800">
        <ele>479.00000</ele>
        <time>2008-10-30T11:15:51Z</time>
      </trkpt>
      <trkpt lat="48.20006850" lon="7.934703800">
        <ele>479.00000</ele>
        <time>2008-10-30T11:16:02Z</time>
      </trkpt>
      <trkpt lat="48.20122720" lon="7.934060100">
        <ele>471.00000</ele>
        <time>2008-10-30T11:16:51Z</time>
      </trkpt>
      <trkpt lat="48.20182800" lon="7.933802600">
        <ele>477.00000</ele>
        <time>2008-10-30T11:17:16Z</time>
      </trkpt>
      <trkpt lat="48.20212840" lon="7.933845500">
        <ele>472.00000</ele>
        <time>2008-10-30T11:17:28Z</time>
      </trkpt>
      <trkpt lat="48.20225720" lon="7.933974300">
        <ele>472.00000</ele>
        <time>2008-10-30T11:17:34Z</time>
      </trkpt>
      <trkpt lat="48.20234300" lon="7.934060100">
        <ele>472.00000</ele>
        <time>2008-10-30T11:17:38Z</time>
      </trkpt>
      <trkpt lat="48.20260050" lon="7.934703800">
        <ele>478.00000</ele>
        <time>2008-10-30T11:17:58Z</time>
      </trkpt>
      <trkpt lat="48.20277210" lon="7.935562100">
        <ele>484.00000</ele>
        <time>2008-10-30T11:18:22Z</time>
      </trkpt>
      <trkpt lat="48.20281510" lon="7.936034200">
        <ele>484.00000</ele>
        <time>2008-10-30T11:18:35Z</time>
      </trkpt>
      <trkpt lat="48.20277210" lon="7.936420400">
        <ele>483.00000</ele>
        <time>2008-10-30T11:18:46Z</time>
      </trkpt>
      <trkpt lat="48.20260050" lon="7.936763800">
        <ele>483.00000</ele>
        <time>2008-10-30T11:18:57Z</time>
      </trkpt>
      <trkpt lat="48.20157050" lon="7.937235800">
        <ele>479.00000</ele>
        <time>2008-10-30T11:19:40Z</time>
      </trkpt>
      <trkpt lat="48.20131300" lon="7.937450400">
        <ele>479.00000</ele>
        <time>2008-10-30T11:19:52Z</time>
      </trkpt>
      <trkpt lat="48.20122720" lon="7.937579200">
        <ele>497.00000</ele>
        <time>2008-10-30T11:19:57Z</time>
      </trkpt>
      <trkpt lat="48.20096970" lon="7.938265800">
        <ele>492.00000</ele>
        <time>2008-10-30T11:20:18Z</time>
      </trkpt>
      <trkpt lat="48.20058350" lon="7.938695000">
        <ele>492.00000</ele>
        <time>2008-10-30T11:20:37Z</time>
      </trkpt>
      <trkpt lat="48.20049760" lon="7.938823700">
        <ele>484.00000</ele>
        <time>2008-10-30T11:20:42Z</time>
      </trkpt>
      <trkpt lat="48.20041180" lon="7.939081200">
        <ele>515.00000</ele>
        <time>2008-10-30T11:20:50Z</time>
      </trkpt>
      <trkpt lat="48.20045470" lon="7.939338700">
        <ele>484.00000</ele>
        <time>2008-10-30T11:20:57Z</time>
      </trkpt>
      <trkpt lat="48.20054050" lon="7.939553300">
        <ele>484.00000</ele>
        <time>2008-10-30T11:21:03Z</time>
      </trkpt>
      <trkpt lat="48.20105550" lon="7.939982400">
        <ele>489.00000</ele>
        <time>2008-10-30T11:21:27Z</time>
      </trkpt>
      <trkpt lat="48.20204260" lon="7.940239900">
        <ele>479.00000</ele>
        <time>2008-10-30T11:22:07Z</time>
      </trkpt>
      <trkpt lat="48.20221420" lon="7.940368700">
        <ele>473.00000</ele>
        <time>2008-10-30T11:22:15Z</time>
      </trkpt>
      <trkpt lat="48.20242880" lon="7.940754900">
        <ele>490.00000</ele>
        <time>2008-10-30T11:22:28Z</time>
      </trkpt>
      <trkpt lat="48.20247170" lon="7.941098200">
        <ele>490.00000</ele>
        <time>2008-10-30T11:22:37Z</time>
      </trkpt>
      <trkpt lat="48.20212840" lon="7.941741900">
        <ele>492.00000</ele>
        <time>2008-10-30T11:22:59Z</time>
      </trkpt>
      <trkpt lat="48.20161340" lon="7.942514400">
        <ele>508.00000</ele>
        <time>2008-10-30T11:23:29Z</time>
      </trkpt>
      <trkpt lat="48.20131300" lon="7.942729000">
        <ele>508.00000</ele>
        <time>2008-10-30T11:23:42Z</time>
      </trkpt>
      <trkpt lat="48.20109840" lon="7.943029400">
        <ele>517.00000</ele>
        <time>2008-10-30T11:23:54Z</time>
      </trkpt>
      <trkpt lat="48.20096970" lon="7.943286900">
        <ele>517.00000</ele>
        <time>2008-10-30T11:24:02Z</time>
      </trkpt>
      <trkpt lat="48.20088390" lon="7.943544400">
        <ele>517.00000</ele>
        <time>2008-10-30T11:24:10Z</time>
      </trkpt>
      <trkpt lat="48.20088390" lon="7.943716000">
        <ele>517.00000</ele>
        <time>2008-10-30T11:24:14Z</time>
      </trkpt>
      <trkpt lat="48.20101260" lon="7.943973500">
        <ele>509.00000</ele>
        <time>2008-10-30T11:24:23Z</time>
      </trkpt>
      <trkpt lat="48.20139880" lon="7.944231000">
        <ele>502.00000</ele>
        <time>2008-10-30T11:24:40Z</time>
      </trkpt>
      <trkpt lat="48.20311550" lon="7.944617300">
        <ele>507.00000</ele>
        <time>2008-10-30T11:25:49Z</time>
      </trkpt>
      <trkpt lat="48.20431710" lon="7.944746000">
        <ele>507.00000</ele>
        <time>2008-10-30T11:26:38Z</time>
      </trkpt>
      <trkpt lat="48.20457460" lon="7.944488500">
        <ele>501.00000</ele>
        <time>2008-10-30T11:26:50Z</time>
      </trkpt>
      <trkpt lat="48.20478920" lon="7.943329800">
        <ele>501.00000</ele>
        <time>2008-10-30T11:27:22Z</time>
      </trkpt>
      <trkpt lat="48.20487500" lon="7.943115200">
        <ele>501.00000</ele>
        <time>2008-10-30T11:27:29Z</time>
      </trkpt>
      <trkpt lat="48.20526120" lon="7.942643200">
        <ele>494.00000</ele>
        <time>2008-10-30T11:27:49Z</time>
      </trkpt>
      <trkpt lat="48.20573330" lon="7.942471500">
        <ele>493.00000</ele>
        <time>2008-10-30T11:28:08Z</time>
      </trkpt>
      <trkpt lat="48.20581910" lon="7.942729000">
        <ele>493.00000</ele>
        <time>2008-10-30T11:28:16Z</time>
      </trkpt>
      <trkpt lat="48.20590500" lon="7.942771900">
        <ele>493.00000</ele>
        <time>2008-10-30T11:28:20Z</time>
      </trkpt>
      <trkpt lat="48.20556160" lon="7.943372700">
        <ele>496.00000</ele>
        <time>2008-10-30T11:28:41Z</time>
      </trkpt>
      <trkpt lat="48.20513250" lon="7.944402700">
        <ele>502.00000</ele>
        <time>2008-10-30T11:29:13Z</time>
      </trkpt>
      <trkpt lat="48.20496080" lon="7.944960600">
        <ele>507.00000</ele>
        <time>2008-10-30T11:29:29Z</time>
      </trkpt>
      <trkpt lat="48.20487500" lon="7.945303900">
        <ele>507.00000</ele>
        <time>2008-10-30T11:29:39Z</time>
      </trkpt>
      <trkpt lat="48.20564750" lon="7.946205100">
        <ele>505.00000</ele>
        <time>2008-10-30T11:30:18Z</time>
      </trkpt>
      <trkpt lat="48.20594790" lon="7.946677200">
        <ele>515.00000</ele>
        <time>2008-10-30T11:30:36Z</time>
      </trkpt>
      <trkpt lat="48.20603370" lon="7.946934700">
        <ele>515.00000</ele>
        <time>2008-10-30T11:30:43Z</time>
      </trkpt>
      <trkpt lat="48.20603370" lon="7.947149300">
        <ele>523.00000</ele>
        <time>2008-10-30T11:30:49Z</time>
      </trkpt>
      <trkpt lat="48.20594790" lon="7.947320900">
        <ele>523.00000</ele>
        <time>2008-10-30T11:30:55Z</time>
      </trkpt>
      <trkpt lat="48.20573330" lon="7.947535500">
        <ele>523.00000</ele>
        <time>2008-10-30T11:31:05Z</time>
      </trkpt>
      <trkpt lat="48.20564750" lon="7.947750100">
        <ele>523.00000</ele>
        <time>2008-10-30T11:31:12Z</time>
      </trkpt>
      <trkpt lat="48.20564750" lon="7.947921800">
        <ele>527.00000</ele>
        <time>2008-10-30T11:31:17Z</time>
      </trkpt>
      <trkpt lat="48.20629120" lon="7.950496700">
        <ele>515.00000</ele>
        <time>2008-10-30T11:32:30Z</time>
      </trkpt>
      <trkpt lat="48.20637700" lon="7.950625400">
        <ele>515.00000</ele>
        <time>2008-10-30T11:32:35Z</time>
      </trkpt>
      <trkpt lat="48.20659160" lon="7.951483700">
        <ele>533.00000</ele>
        <time>2008-10-30T11:32:59Z</time>
      </trkpt>
      <trkpt lat="48.20676330" lon="7.951870000">
        <ele>533.00000</ele>
        <time>2008-10-30T11:33:12Z</time>
      </trkpt>
      <trkpt lat="48.20702080" lon="7.952942800">
        <ele>556.00000</ele>
        <time>2008-10-30T11:33:42Z</time>
      </trkpt>
      <trkpt lat="48.20757870" lon="7.954230300">
        <ele>534.00000</ele>
        <time>2008-10-30T11:34:23Z</time>
      </trkpt>
      <trkpt lat="48.20762160" lon="7.954659500">
        <ele>542.00000</ele>
        <time>2008-10-30T11:34:35Z</time>
      </trkpt>
      <trkpt lat="48.20762160" lon="7.955389000">
        <ele>542.00000</ele>
        <time>2008-10-30T11:34:54Z</time>
      </trkpt>
      <trkpt lat="48.20775030" lon="7.955517800">
        <ele>549.00000</ele>
        <time>2008-10-30T11:35:00Z</time>
      </trkpt>
      <trkpt lat="48.20787910" lon="7.955517800">
        <ele>549.00000</ele>
        <time>2008-10-30T11:35:05Z</time>
      </trkpt>
      <trkpt lat="48.20809360" lon="7.955303200">
        <ele>519.00000</ele>
        <time>2008-10-30T11:35:16Z</time>
      </trkpt>
      <trkpt lat="48.20847990" lon="7.955088600">
        <ele>519.00000</ele>
        <time>2008-10-30T11:35:32Z</time>
      </trkpt>
      <trkpt lat="48.20869450" lon="7.955303200">
        <ele>519.00000</ele>
        <time>2008-10-30T11:35:42Z</time>
      </trkpt>
      <trkpt lat="48.20886610" lon="7.955732300">
        <ele>525.00000</ele>
        <time>2008-10-30T11:35:56Z</time>
      </trkpt>
      <trkpt lat="48.20908070" lon="7.957277300">
        <ele>548.00000</ele>
        <time>2008-10-30T11:36:38Z</time>
      </trkpt>
      <trkpt lat="48.20911830" lon="7.957390100">
        <ele>548.00000</ele>
        <time>2008-10-30T11:36:41Z</time>
      </trkpt>
      <trkpt lat="48.20912360" lon="7.957406000">
        <ele>548.00000</ele>
        <time>2008-10-30T11:36:42Z</time>
      </trkpt>
      <trkpt lat="48.20925240" lon="7.957491900">
        <ele>548.00000</ele>
        <time>2008-10-30T11:36:47Z</time>
      </trkpt>
      <trkpt lat="48.20942400" lon="7.957491900">
        <ele>548.00000</ele>
        <time>2008-10-30T11:36:54Z</time>
      </trkpt>
      <trkpt lat="48.21049690" lon="7.958178500">
        <ele>538.00000</ele>
        <time>2008-10-30T11:37:41Z</time>
      </trkpt>
      <trkpt lat="48.21114060" lon="7.958951000">
        <ele>544.00000</ele>
        <time>2008-10-30T11:38:14Z</time>
      </trkpt>
      <trkpt lat="48.21109770" lon="7.960367200">
        <ele>541.00000</ele>
        <time>2008-10-30T11:38:52Z</time>
      </trkpt>
      <trkpt lat="48.21169850" lon="7.961010900">
        <ele>516.00000</ele>
        <time>2008-10-30T11:39:21Z</time>
      </trkpt>
      <trkpt lat="48.21199890" lon="7.961397200">
        <ele>522.00000</ele>
        <time>2008-10-30T11:39:37Z</time>
      </trkpt>
      <trkpt lat="48.21264270" lon="7.962684600">
        <ele>508.00000</ele>
        <time>2008-10-30T11:40:20Z</time>
      </trkpt>
      <trkpt lat="48.21285720" lon="7.963414200">
        <ele>497.00000</ele>
        <time>2008-10-30T11:40:41Z</time>
      </trkpt>
      <trkpt lat="48.21290020" lon="7.963843300">
        <ele>485.00000</ele>
        <time>2008-10-30T11:40:53Z</time>
      </trkpt>
      <trkpt lat="48.21328640" lon="7.964701700">
        <ele>473.00000</ele>
        <time>2008-10-30T11:41:21Z</time>
      </trkpt>
      <trkpt lat="48.21345810" lon="7.965345400">
        <ele>473.00000</ele>
        <time>2008-10-30T11:41:39Z</time>
      </trkpt>
      <trkpt lat="48.21384430" lon="7.965688700">
        <ele>458.00000</ele>
        <time>2008-10-30T11:41:57Z</time>
      </trkpt>
      <trkpt lat="48.21453090" lon="7.966761600">
        <ele>471.00000</ele>
        <time>2008-10-30T11:42:37Z</time>
      </trkpt>
      <trkpt lat="48.21478840" lon="7.966976200">
        <ele>452.00000</ele>
        <time>2008-10-30T11:42:49Z</time>
      </trkpt>
      <trkpt lat="48.21526050" lon="7.966976200">
        <ele>452.00000</ele>
        <time>2008-10-30T11:43:07Z</time>
      </trkpt>
      <trkpt lat="48.21573260" lon="7.966976200">
        <ele>445.00000</ele>
        <time>2008-10-30T11:43:26Z</time>
      </trkpt>
      <trkpt lat="48.21646210" lon="7.967362400">
        <ele>453.00000</ele>
        <time>2008-10-30T11:43:57Z</time>
      </trkpt>
      <trkpt lat="48.21749210" lon="7.967319500">
        <ele>448.00000</ele>
        <time>2008-10-30T11:44:39Z</time>
      </trkpt>
      <trkpt lat="48.21809290" lon="7.967362400">
        <ele>440.00000</ele>
        <time>2008-10-30T11:45:03Z</time>
      </trkpt>
      <trkpt lat="48.21852210" lon="7.967491100">
        <ele>440.00000</ele>
        <time>2008-10-30T11:45:20Z</time>
      </trkpt>
      <trkpt lat="48.21882250" lon="7.967619900">
        <ele>430.00000</ele>
        <time>2008-10-30T11:45:33Z</time>
      </trkpt>
      <trkpt lat="48.21920870" lon="7.967920300">
        <ele>432.00000</ele>
        <time>2008-10-30T11:45:50Z</time>
      </trkpt>
      <trkpt lat="48.21998120" lon="7.968435300">
        <ele>427.00000</ele>
        <time>2008-10-30T11:46:24Z</time>
      </trkpt>
      <trkpt lat="48.22023870" lon="7.968392400">
        <ele>427.00000</ele>
        <time>2008-10-30T11:46:34Z</time>
      </trkpt>
      <trkpt lat="48.22041030" lon="7.969207800">
        <ele>432.00000</ele>
        <time>2008-10-30T11:46:57Z</time>
      </trkpt>
      <trkpt lat="48.22075370" lon="7.970023200">
        <ele>433.00000</ele>
        <time>2008-10-30T11:47:23Z</time>
      </trkpt>
      <trkpt lat="48.22135450" lon="7.971482300">
        <ele>434.00000</ele>
        <time>2008-10-30T11:48:09Z</time>
      </trkpt>
      <trkpt lat="48.22178360" lon="7.972426400">
        <ele>444.00000</ele>
        <time>2008-10-30T11:48:39Z</time>
      </trkpt>
      <trkpt lat="48.22199820" lon="7.972769700">
        <ele>444.00000</ele>
        <time>2008-10-30T11:48:52Z</time>
      </trkpt>
      <trkpt lat="48.22311400" lon="7.974143000">
        <ele>449.00000</ele>
        <time>2008-10-30T11:49:49Z</time>
      </trkpt>
      <trkpt lat="48.22371480" lon="7.974915500">
        <ele>467.00000</ele>
        <time>2008-10-30T11:50:21Z</time>
      </trkpt>
      <trkpt lat="48.22410110" lon="7.975344700">
        <ele>455.00000</ele>
        <time>2008-10-30T11:50:40Z</time>
      </trkpt>
      <trkpt lat="48.22440150" lon="7.975859600">
        <ele>467.00000</ele>
        <time>2008-10-30T11:50:58Z</time>
      </trkpt>
      <trkpt lat="48.22483060" lon="7.977619200">
        <ele>465.00000</ele>
        <time>2008-10-30T11:51:48Z</time>
      </trkpt>
      <trkpt lat="48.22551730" lon="7.979121200">
        <ele>476.00000</ele>
        <time>2008-10-30T11:52:37Z</time>
      </trkpt>
      <trkpt lat="48.22581770" lon="7.979593300">
        <ele>475.00000</ele>
        <time>2008-10-30T11:52:54Z</time>
      </trkpt>
      <trkpt lat="48.22607520" lon="7.979893700">
        <ele>475.00000</ele>
        <time>2008-10-30T11:53:07Z</time>
      </trkpt>
      <trkpt lat="48.22714810" lon="7.980794900">
        <ele>492.00000</ele>
        <time>2008-10-30T11:53:57Z</time>
      </trkpt>
      <trkpt lat="48.22753430" lon="7.981009500">
        <ele>492.00000</ele>
        <time>2008-10-30T11:54:13Z</time>
      </trkpt>
      <trkpt lat="48.22783470" lon="7.981095300">
        <ele>492.00000</ele>
        <time>2008-10-30T11:54:25Z</time>
      </trkpt>
      <trkpt lat="48.22817800" lon="7.981309900">
        <ele>500.00000</ele>
        <time>2008-10-30T11:54:40Z</time>
      </trkpt>
      <trkpt lat="48.22933670" lon="7.982683200">
        <ele>519.00000</ele>
        <time>2008-10-30T11:55:39Z</time>
      </trkpt>
      <trkpt lat="48.23023800" lon="7.983412700">
        <ele>530.00000</ele>
        <time>2008-10-30T11:56:20Z</time>
      </trkpt>
      <trkpt lat="48.23096750" lon="7.983841900">
        <ele>532.00000</ele>
        <time>2008-10-30T11:56:52Z</time>
      </trkpt>
      <trkpt lat="48.23186870" lon="7.984142300">
        <ele>550.00000</ele>
        <time>2008-10-30T11:57:29Z</time>
      </trkpt>
      <trkpt lat="48.23311330" lon="7.984442700">
        <ele>560.00000</ele>
        <time>2008-10-30T11:58:19Z</time>
      </trkpt>
      <trkpt lat="48.23354240" lon="7.984657300">
        <ele>551.00000</ele>
        <time>2008-10-30T11:58:37Z</time>
      </trkpt>
      <trkpt lat="48.23397160" lon="7.984957700">
        <ele>560.00000</ele>
        <time>2008-10-30T11:58:56Z</time>
      </trkpt>
      <trkpt lat="48.23427200" lon="7.985343900">
        <ele>560.00000</ele>
        <time>2008-10-30T11:59:12Z</time>
      </trkpt>
      <trkpt lat="48.23461530" lon="7.985987700">
        <ele>577.00000</ele>
        <time>2008-10-30T11:59:34Z</time>
      </trkpt>
      <trkpt lat="48.23495860" lon="7.986803100">
        <ele>578.00000</ele>
        <time>2008-10-30T12:00:00Z</time>
      </trkpt>
      <trkpt lat="48.23560240" lon="7.987833000">
        <ele>601.00000</ele>
        <time>2008-10-30T12:00:37Z</time>
      </trkpt>
      <trkpt lat="48.23581700" lon="7.988305100">
        <ele>598.00000</ele>
        <time>2008-10-30T12:00:53Z</time>
      </trkpt>
      <trkpt lat="48.23620320" lon="7.988991700">
        <ele>594.00000</ele>
        <time>2008-10-30T12:01:17Z</time>
      </trkpt>
      <trkpt lat="48.23680400" lon="7.989721300">
        <ele>609.00000</ele>
        <time>2008-10-30T12:01:48Z</time>
      </trkpt>
      <trkpt lat="48.23697570" lon="7.990064600">
        <ele>609.00000</ele>
        <time>2008-10-30T12:01:59Z</time>
      </trkpt>
      <trkpt lat="48.23719020" lon="7.990794200">
        <ele>602.00000</ele>
        <time>2008-10-30T12:02:20Z</time>
      </trkpt>
      <trkpt lat="48.23744770" lon="7.991609600">
        <ele>612.00000</ele>
        <time>2008-10-30T12:02:44Z</time>
      </trkpt>
      <trkpt lat="48.23770520" lon="7.992038700">
        <ele>612.00000</ele>
        <time>2008-10-30T12:03:00Z</time>
      </trkpt>
      <trkpt lat="48.23959350" lon="7.993369100">
        <ele>614.00000</ele>
        <time>2008-10-30T12:04:23Z</time>
      </trkpt>
      <trkpt lat="48.24002270" lon="7.993841200">
        <ele>630.00000</ele>
        <time>2008-10-30T12:04:45Z</time>
      </trkpt>
      <trkpt lat="48.24015140" lon="7.993884100">
        <ele>630.00000</ele>
        <time>2008-10-30T12:04:50Z</time>
      </trkpt>
      <trkpt lat="48.24045180" lon="7.993755300">
        <ele>616.00000</ele>
        <time>2008-10-30T12:05:02Z</time>
      </trkpt>
      <trkpt lat="48.24066640" lon="7.993755300">
        <ele>616.00000</ele>
        <time>2008-10-30T12:05:11Z</time>
      </trkpt>
      <trkpt lat="48.24100970" lon="7.994141600">
        <ele>616.00000</ele>
        <time>2008-10-30T12:05:28Z</time>
      </trkpt>
      <trkpt lat="48.24203970" lon="7.994399100">
        <ele>605.00000</ele>
        <time>2008-10-30T12:06:10Z</time>
      </trkpt>
      <trkpt lat="48.24289800" lon="7.994914100">
        <ele>606.00000</ele>
        <time>2008-10-30T12:06:47Z</time>
      </trkpt>
      <trkpt lat="48.24341300" lon="7.995514900">
        <ele>593.00000</ele>
        <time>2008-10-30T12:07:13Z</time>
      </trkpt>
      <trkpt lat="48.24371340" lon="7.995986900">
        <ele>593.00000</ele>
        <time>2008-10-30T12:07:30Z</time>
      </trkpt>
      <trkpt lat="48.24392800" lon="7.996244400">
        <ele>576.00000</ele>
        <time>2008-10-30T12:07:41Z</time>
      </trkpt>
      <trkpt lat="48.24440000" lon="7.996587800">
        <ele>583.00000</ele>
        <time>2008-10-30T12:08:02Z</time>
      </trkpt>
      <trkpt lat="48.24521540" lon="7.996716500">
        <ele>587.00000</ele>
        <time>2008-10-30T12:08:35Z</time>
      </trkpt>
      <trkpt lat="48.24637410" lon="7.996330300">
        <ele>587.00000</ele>
        <time>2008-10-30T12:09:23Z</time>
      </trkpt>
      <trkpt lat="48.24701790" lon="7.996158600">
        <ele>552.00000</ele>
        <time>2008-10-30T12:09:49Z</time>
      </trkpt>
      <trkpt lat="48.24753280" lon="7.996072800">
        <ele>551.00000</ele>
        <time>2008-10-30T12:10:10Z</time>
      </trkpt>
      <trkpt lat="48.24779030" lon="7.996115700">
        <ele>551.00000</ele>
        <time>2008-10-30T12:10:20Z</time>
      </trkpt>
      <trkpt lat="48.24899200" lon="7.996673600">
        <ele>544.00000</ele>
        <time>2008-10-30T12:11:10Z</time>
      </trkpt>
      <trkpt lat="48.24920650" lon="7.996845200">
        <ele>544.00000</ele>
        <time>2008-10-30T12:11:20Z</time>
      </trkpt>
      <trkpt lat="48.24937820" lon="7.997188600">
        <ele>551.00000</ele>
        <time>2008-10-30T12:11:32Z</time>
      </trkpt>
      <trkpt lat="48.25010780" lon="7.999334300">
        <ele>533.00000</ele>
        <time>2008-10-30T12:12:36Z</time>
      </trkpt>
      <trkpt lat="48.25002190" lon="8.001437200">
        <ele>525.00000</ele>
        <time>2008-10-30T12:13:32Z</time>
      </trkpt>
      <trkpt lat="48.24993610" lon="8.001737600">
        <ele>525.00000</ele>
        <time>2008-10-30T12:13:41Z</time>
      </trkpt>
      <trkpt lat="48.24980740" lon="8.001995100">
        <ele>525.00000</ele>
        <time>2008-10-30T12:13:49Z</time>
      </trkpt>
      <trkpt lat="48.24920650" lon="8.002724600">
        <ele>543.00000</ele>
        <time>2008-10-30T12:14:20Z</time>
      </trkpt>
      <trkpt lat="48.24907780" lon="8.003110900">
        <ele>528.00000</ele>
        <time>2008-10-30T12:14:32Z</time>
      </trkpt>
      <trkpt lat="48.24912070" lon="8.003368400">
        <ele>528.00000</ele>
        <time>2008-10-30T12:14:39Z</time>
      </trkpt>
      <trkpt lat="48.24963570" lon="8.004741700">
        <ele>504.00000</ele>
        <time>2008-10-30T12:15:21Z</time>
      </trkpt>
      <trkpt lat="48.24980740" lon="8.004956200">
        <ele>504.00000</ele>
        <time>2008-10-30T12:15:30Z</time>
      </trkpt>
      <trkpt lat="48.25027940" lon="8.005299600">
        <ele>504.00000</ele>
        <time>2008-10-30T12:15:51Z</time>
      </trkpt>
      <trkpt lat="48.25139520" lon="8.007359500">
        <ele>490.00000</ele>
        <time>2008-10-30T12:17:01Z</time>
      </trkpt>
      <trkpt lat="48.25152400" lon="8.007488300">
        <ele>490.00000</ele>
        <time>2008-10-30T12:17:08Z</time>
      </trkpt>
      <trkpt lat="48.25165270" lon="8.007402400">
        <ele>490.00000</ele>
        <time>2008-10-30T12:17:13Z</time>
      </trkpt>
      <trkpt lat="48.25169560" lon="8.007102000">
        <ele>490.00000</ele>
        <time>2008-10-30T12:17:21Z</time>
      </trkpt>
      <trkpt lat="48.25148110" lon="8.006415400">
        <ele>487.00000</ele>
        <time>2008-10-30T12:17:42Z</time>
      </trkpt>
      <trkpt lat="48.25143810" lon="8.005557100">
        <ele>474.00000</ele>
        <time>2008-10-30T12:18:05Z</time>
      </trkpt>
      <trkpt lat="48.25113770" lon="8.004570000">
        <ele>481.00000</ele>
        <time>2008-10-30T12:18:34Z</time>
      </trkpt>
      <trkpt lat="48.25109480" lon="8.004226700">
        <ele>481.00000</ele>
        <time>2008-10-30T12:18:43Z</time>
      </trkpt>
      <trkpt lat="48.25109480" lon="8.004055000">
        <ele>481.00000</ele>
        <time>2008-10-30T12:18:47Z</time>
      </trkpt>
      <trkpt lat="48.25113770" lon="8.003840400">
        <ele>481.00000</ele>
        <time>2008-10-30T12:18:53Z</time>
      </trkpt>
      <trkpt lat="48.25122360" lon="8.003711700">
        <ele>478.00000</ele>
        <time>2008-10-30T12:18:58Z</time>
      </trkpt>
      <trkpt lat="48.25143810" lon="8.003583000">
        <ele>474.00000</ele>
        <time>2008-10-30T12:19:08Z</time>
      </trkpt>
      <trkpt lat="48.25173850" lon="8.003797500">
        <ele>462.00000</ele>
        <time>2008-10-30T12:19:21Z</time>
      </trkpt>
      <trkpt lat="48.25195310" lon="8.004012100">
        <ele>462.00000</ele>
        <time>2008-10-30T12:19:31Z</time>
      </trkpt>
      <trkpt lat="48.25259690" lon="8.005213700">
        <ele>451.00000</ele>
        <time>2008-10-30T12:20:12Z</time>
      </trkpt>
      <trkpt lat="48.25294020" lon="8.006200800">
        <ele>446.00000</ele>
        <time>2008-10-30T12:20:42Z</time>
      </trkpt>
      <trkpt lat="48.25349810" lon="8.007445300">
        <ele>433.00000</ele>
        <time>2008-10-30T12:21:22Z</time>
      </trkpt>
      <trkpt lat="48.25384140" lon="8.008518200">
        <ele>422.00000</ele>
        <time>2008-10-30T12:21:54Z</time>
      </trkpt>
      <trkpt lat="48.25414180" lon="8.009161900">
        <ele>415.00000</ele>
        <time>2008-10-30T12:22:15Z</time>
      </trkpt>
      <trkpt lat="48.25422760" lon="8.010277700">
        <ele>410.00000</ele>
        <time>2008-10-30T12:22:45Z</time>
      </trkpt>
      <trkpt lat="48.25422760" lon="8.011050200">
        <ele>402.00000</ele>
        <time>2008-10-30T12:23:05Z</time>
      </trkpt>
      <trkpt lat="48.25444220" lon="8.011736900">
        <ele>396.00000</ele>
        <time>2008-10-30T12:23:25Z</time>
      </trkpt>
      <trkpt lat="48.25474260" lon="8.012251900">
        <ele>374.00000</ele>
        <time>2008-10-30T12:23:44Z</time>
      </trkpt>
      <trkpt lat="48.25590130" lon="8.013539300">
        <ele>371.00000</ele>
        <time>2008-10-30T12:24:41Z</time>
      </trkpt>
      <trkpt lat="48.25615880" lon="8.013839700">
        <ele>360.00000</ele>
        <time>2008-10-30T12:24:54Z</time>
      </trkpt>
      <trkpt lat="48.25658800" lon="8.014655100">
        <ele>355.00000</ele>
        <time>2008-10-30T12:25:22Z</time>
      </trkpt>
      <trkpt lat="48.25723170" lon="8.015298800">
        <ele>360.00000</ele>
        <time>2008-10-30T12:25:53Z</time>
      </trkpt>
      <trkpt lat="48.25912000" lon="8.017401700">
        <ele>334.00000</ele>
        <time>2008-10-30T12:27:27Z</time>
      </trkpt>
      <trkpt lat="48.25984950" lon="8.017787900">
        <ele>334.00000</ele>
        <time>2008-10-30T12:27:58Z</time>
      </trkpt>
      <trkpt lat="48.26096530" lon="8.018946600">
        <ele>328.00000</ele>
        <time>2008-10-30T12:28:52Z</time>
      </trkpt>
      <trkpt lat="48.26135160" lon="8.019204100">
        <ele>321.00000</ele>
        <time>2008-10-30T12:29:09Z</time>
      </trkpt>
      <trkpt lat="48.26208110" lon="8.019504500">
        <ele>321.00000</ele>
        <time>2008-10-30T12:29:40Z</time>
      </trkpt>
      <trkpt lat="48.26216700" lon="8.019590400">
        <ele>323.00000</ele>
        <time>2008-10-30T12:29:44Z</time>
      </trkpt>
      <trkpt lat="48.26246740" lon="8.020105400">
        <ele>323.00000</ele>
        <time>2008-10-30T12:30:02Z</time>
      </trkpt>
      <trkpt lat="48.26263900" lon="8.020234100">
        <ele>323.00000</ele>
        <time>2008-10-30T12:30:10Z</time>
      </trkpt>
      <trkpt lat="48.26332570" lon="8.020148300">
        <ele>310.00000</ele>
        <time>2008-10-30T12:30:37Z</time>
      </trkpt>
      <trkpt lat="48.26401230" lon="8.020191200">
        <ele>308.00000</ele>
        <time>2008-10-30T12:31:05Z</time>
      </trkpt>
      <trkpt lat="48.26491360" lon="8.020534500">
        <ele>307.00000</ele>
        <time>2008-10-30T12:31:42Z</time>
      </trkpt>
      <trkpt lat="48.26585770" lon="8.020491600">
        <ele>301.00000</ele>
        <time>2008-10-30T12:32:20Z</time>
      </trkpt>
      <trkpt lat="48.26632980" lon="8.020792000">
        <ele>300.00000</ele>
        <time>2008-10-30T12:32:40Z</time>
      </trkpt>
      <trkpt lat="48.26654430" lon="8.021092400">
        <ele>300.00000</ele>
        <time>2008-10-30T12:32:52Z</time>
      </trkpt>
      <trkpt lat="48.26693060" lon="8.021264100">
        <ele>312.00000</ele>
        <time>2008-10-30T12:33:08Z</time>
      </trkpt>
      <trkpt lat="48.26731680" lon="8.021307000">
        <ele>309.00000</ele>
        <time>2008-10-30T12:33:24Z</time>
      </trkpt>
      <trkpt lat="48.26826100" lon="8.021221200">
        <ele>290.00000</ele>
        <time>2008-10-30T12:34:02Z</time>
      </trkpt>
      <trkpt lat="48.26847550" lon="8.021092400">
        <ele>290.00000</ele>
        <time>2008-10-30T12:34:11Z</time>
      </trkpt>
      <trkpt lat="48.26869010" lon="8.020877800">
        <ele>290.00000</ele>
        <time>2008-10-30T12:34:21Z</time>
      </trkpt>
      <trkpt lat="48.26894760" lon="8.020577400">
        <ele>285.00000</ele>
        <time>2008-10-30T12:34:34Z</time>
      </trkpt>
      <trkpt lat="48.26967720" lon="8.020362900">
        <ele>284.00000</ele>
        <time>2008-10-30T12:35:04Z</time>
      </trkpt>
      <trkpt lat="48.27079300" lon="8.019418700">
        <ele>299.00000</ele>
        <time>2008-10-30T12:35:55Z</time>
      </trkpt>
      <trkpt lat="48.27208040" lon="8.019247100">
        <ele>292.00000</ele>
        <time>2008-10-30T12:36:47Z</time>
      </trkpt>
      <trkpt lat="48.27302460" lon="8.018860800">
        <ele>276.00000</ele>
        <time>2008-10-30T12:37:26Z</time>
      </trkpt>
      <trkpt lat="48.27388290" lon="8.018560400">
        <ele>279.00000</ele>
        <time>2008-10-30T12:38:01Z</time>
      </trkpt>
      <trkpt lat="48.27448370" lon="8.018775000">
        <ele>270.00000</ele>
        <time>2008-10-30T12:38:26Z</time>
      </trkpt>
      <trkpt lat="48.27469830" lon="8.018732100">
        <ele>267.00000</ele>
        <time>2008-10-30T12:38:35Z</time>
      </trkpt>
      <trkpt lat="48.27504160" lon="8.018474600">
        <ele>267.00000</ele>
        <time>2008-10-30T12:38:50Z</time>
      </trkpt>
      <trkpt lat="48.27538490" lon="8.017959600">
        <ele>267.00000</ele>
        <time>2008-10-30T12:39:10Z</time>
      </trkpt>
      <trkpt lat="48.27551360" lon="8.017916700">
        <ele>267.00000</ele>
        <time>2008-10-30T12:39:15Z</time>
      </trkpt>
      <trkpt lat="48.27568530" lon="8.018045400">
        <ele>267.00000</ele>
        <time>2008-10-30T12:39:22Z</time>
      </trkpt>
      <trkpt lat="48.27598570" lon="8.018732100">
        <ele>267.00000</ele>
        <time>2008-10-30T12:39:44Z</time>
      </trkpt>
      <trkpt lat="48.27662940" lon="8.020319900">
        <ele>261.00000</ele>
        <time>2008-10-30T12:40:34Z</time>
      </trkpt>
      <trkpt lat="48.27710150" lon="8.021092400">
        <ele>259.00000</ele>
        <time>2008-10-30T12:41:02Z</time>
      </trkpt>
      <trkpt lat="48.27748780" lon="8.021564500">
        <ele>256.00000</ele>
        <time>2008-10-30T12:41:22Z</time>
      </trkpt>
      <trkpt lat="48.27761650" lon="8.021693200">
        <ele>256.00000</ele>
        <time>2008-10-30T12:41:28Z</time>
      </trkpt>
      <trkpt lat="48.27821730" lon="8.021993600">
        <ele>256.00000</ele>
        <time>2008-10-30T12:41:53Z</time>
      </trkpt>
      <trkpt lat="48.27843190" lon="8.022208200">
        <ele>254.00000</ele>
        <time>2008-10-30T12:42:04Z</time>
      </trkpt>
      <trkpt lat="48.27851770" lon="8.022465700">
        <ele>254.00000</ele>
        <time>2008-10-30T12:42:11Z</time>
      </trkpt>
      <trkpt lat="48.27886100" lon="8.023109400">
        <ele>252.00000</ele>
        <time>2008-10-30T12:42:33Z</time>
      </trkpt>
      <trkpt lat="48.27937600" lon="8.023881900">
        <ele>253.00000</ele>
        <time>2008-10-30T12:43:02Z</time>
      </trkpt>
      <trkpt lat="48.28027730" lon="8.024740200">
        <ele>248.00000</ele>
        <time>2008-10-30T12:43:45Z</time>
      </trkpt>
      <trkpt lat="48.28062060" lon="8.025298100">
        <ele>246.00000</ele>
        <time>2008-10-30T12:44:05Z</time>
      </trkpt>
      <trkpt lat="48.28070640" lon="8.025383900">
        <ele>246.00000</ele>
        <time>2008-10-30T12:44:09Z</time>
      </trkpt>
      <trkpt lat="48.28160760" lon="8.026542700">
        <ele>244.00000</ele>
        <time>2008-10-30T12:44:57Z</time>
      </trkpt>
      <trkpt lat="48.28199390" lon="8.026928900">
        <ele>244.00000</ele>
        <time>2008-10-30T12:45:16Z</time>
      </trkpt>
      <trkpt lat="48.28229430" lon="8.027014700">
        <ele>243.00000</ele>
        <time>2008-10-30T12:45:28Z</time>
      </trkpt>
      <trkpt lat="48.28259470" lon="8.027229300">
        <ele>244.00000</ele>
        <time>2008-10-30T12:45:41Z</time>
      </trkpt>
      <trkpt lat="48.28293800" lon="8.027787200">
        <ele>240.00000</ele>
        <time>2008-10-30T12:46:01Z</time>
      </trkpt>
      <trkpt lat="48.28336720" lon="8.028216400">
        <ele>237.00000</ele>
        <time>2008-10-30T12:46:22Z</time>
      </trkpt>
      <trkpt lat="48.28388210" lon="8.028817200">
        <ele>239.00000</ele>
        <time>2008-10-30T12:46:48Z</time>
      </trkpt>
      <trkpt lat="48.28413960" lon="8.029246300">
        <ele>239.00000</ele>
        <time>2008-10-30T12:47:03Z</time>
      </trkpt>
      <trkpt lat="48.28431130" lon="8.029675500">
        <ele>240.00000</ele>
        <time>2008-10-30T12:47:17Z</time>
      </trkpt>
      <trkpt lat="48.28452590" lon="8.030104600">
        <ele>240.00000</ele>
        <time>2008-10-30T12:47:31Z</time>
      </trkpt>
      <trkpt lat="48.28491210" lon="8.030576700">
        <ele>235.00000</ele>
        <time>2008-10-30T12:47:51Z</time>
      </trkpt>
      <trkpt lat="48.28581330" lon="8.031349200">
        <ele>233.00000</ele>
        <time>2008-10-30T12:48:33Z</time>
      </trkpt>
      <trkpt lat="48.28645710" lon="8.032250400">
        <ele>230.00000</ele>
        <time>2008-10-30T12:49:08Z</time>
      </trkpt>
      <trkpt lat="48.28667160" lon="8.032465000">
        <ele>230.00000</ele>
        <time>2008-10-30T12:49:18Z</time>
      </trkpt>
      <trkpt lat="48.28692910" lon="8.032679600">
        <ele>230.00000</ele>
        <time>2008-10-30T12:49:30Z</time>
      </trkpt>
      <trkpt lat="48.28722950" lon="8.033151600">
        <ele>231.00000</ele>
        <time>2008-10-30T12:49:47Z</time>
      </trkpt>
      <trkpt lat="48.28765870" lon="8.034224500">
        <ele>231.00000</ele>
        <time>2008-10-30T12:50:21Z</time>
      </trkpt>
      <trkpt lat="48.28787330" lon="8.034653700">
        <ele>230.00000</ele>
        <time>2008-10-30T12:50:35Z</time>
      </trkpt>
      <trkpt lat="48.28860280" lon="8.035683600">
        <ele>228.00000</ele>
        <time>2008-10-30T12:51:15Z</time>
      </trkpt>
      <trkpt lat="48.28886030" lon="8.035941100">
        <ele>224.00000</ele>
        <time>2008-10-30T12:51:27Z</time>
      </trkpt>
      <trkpt lat="48.28984740" lon="8.036198600">
        <ele>224.00000</ele>
        <time>2008-10-30T12:52:07Z</time>
      </trkpt>
      <trkpt lat="48.29006200" lon="8.036456100">
        <ele>226.00000</ele>
        <time>2008-10-30T12:52:18Z</time>
      </trkpt>
      <trkpt lat="48.29049110" lon="8.037400200">
        <ele>223.00000</ele>
        <time>2008-10-30T12:52:49Z</time>
      </trkpt>
      <trkpt lat="48.29074860" lon="8.038086900">
        <ele>225.00000</ele>
        <time>2008-10-30T12:53:10Z</time>
      </trkpt>
      <trkpt lat="48.29109190" lon="8.039245600">
        <ele>225.00000</ele>
        <time>2008-10-30T12:53:44Z</time>
      </trkpt>
      <trkpt lat="48.29164980" lon="8.040661800">
        <ele>221.00000</ele>
        <time>2008-10-30T12:54:28Z</time>
      </trkpt>
      <trkpt lat="48.29216480" lon="8.041520100">
        <ele>219.00000</ele>
        <time>2008-10-30T12:54:58Z</time>
      </trkpt>
      <trkpt lat="48.29302310" lon="8.042893400">
        <ele>216.00000</ele>
        <time>2008-10-30T12:55:48Z</time>
      </trkpt>
      <trkpt lat="48.29323770" lon="8.043537100">
        <ele>218.00000</ele>
        <time>2008-10-30T12:56:08Z</time>
      </trkpt>
      <trkpt lat="48.29349520" lon="8.044481300">
        <ele>219.00000</ele>
        <time>2008-10-30T12:56:35Z</time>
      </trkpt>
      <trkpt lat="48.29431060" lon="8.047742800">
        <ele>217.00000</ele>
        <time>2008-10-30T12:58:08Z</time>
      </trkpt>
      <trkpt lat="48.29478260" lon="8.048558200">
        <ele>214.00000</ele>
        <time>2008-10-30T12:58:36Z</time>
      </trkpt>
      <trkpt lat="48.29529760" lon="8.049116100">
        <ele>215.00000</ele>
        <time>2008-10-30T12:59:02Z</time>
      </trkpt>
      <trkpt lat="48.29551220" lon="8.049287800">
        <ele>211.00000</ele>
        <time>2008-10-30T12:59:12Z</time>
      </trkpt>
      <trkpt lat="48.29572680" lon="8.049631100">
        <ele>211.00000</ele>
        <time>2008-10-30T12:59:24Z</time>
      </trkpt>
      <trkpt lat="48.29576970" lon="8.050360700">
        <ele>211.00000</ele>
        <time>2008-10-30T12:59:44Z</time>
      </trkpt>
      <trkpt lat="48.29576970" lon="8.050661100">
        <ele>212.00000</ele>
        <time>2008-10-30T12:59:52Z</time>
      </trkpt>
      <trkpt lat="48.29598430" lon="8.051219000">
        <ele>212.00000</ele>
        <time>2008-10-30T13:00:09Z</time>
      </trkpt>
      <trkpt lat="48.29607010" lon="8.051691100">
        <ele>214.00000</ele>
        <time>2008-10-30T13:00:22Z</time>
      </trkpt>
      <trkpt lat="48.29602720" lon="8.052420600">
        <ele>215.00000</ele>
        <time>2008-10-30T13:00:41Z</time>
      </trkpt>
      <trkpt lat="48.29602720" lon="8.052806900">
        <ele>215.00000</ele>
        <time>2008-10-30T13:00:52Z</time>
      </trkpt>
      <trkpt lat="48.29602720" lon="8.054051400">
        <ele>215.00000</ele>
        <time>2008-10-30T13:01:25Z</time>
      </trkpt>
      <trkpt lat="48.29607010" lon="8.054609300">
        <ele>216.00000</ele>
        <time>2008-10-30T13:01:40Z</time>
      </trkpt>
      <trkpt lat="48.29628470" lon="8.056283000">
        <ele>208.00000</ele>
        <time>2008-10-30T13:02:25Z</time>
      </trkpt>
      <trkpt lat="48.29641340" lon="8.056669200">
        <ele>208.00000</ele>
        <time>2008-10-30T13:02:37Z</time>
      </trkpt>
      <trkpt lat="48.29649930" lon="8.056926700">
        <ele>208.00000</ele>
        <time>2008-10-30T13:02:44Z</time>
      </trkpt>
      <trkpt lat="48.29688550" lon="8.057656300">
        <ele>206.00000</ele>
        <time>2008-10-30T13:03:09Z</time>
      </trkpt>
      <trkpt lat="48.29701420" lon="8.057785000">
        <ele>206.00000</ele>
        <time>2008-10-30T13:03:15Z</time>
      </trkpt>
      <trkpt lat="48.29722880" lon="8.058257100">
        <ele>204.00000</ele>
        <time>2008-10-30T13:03:31Z</time>
      </trkpt>
      <trkpt lat="48.29662800" lon="8.059029600">
        <ele>204.00000</ele>
        <time>2008-10-30T13:04:02Z</time>
      </trkpt>
      <trkpt lat="48.29559800" lon="8.060488700">
        <ele>205.00000</ele>
        <time>2008-10-30T13:04:59Z</time>
      </trkpt>
      <trkpt lat="48.29469680" lon="8.061389900">
        <ele>201.00000</ele>
        <time>2008-10-30T13:05:42Z</time>
      </trkpt>
      <trkpt lat="48.29345230" lon="8.062462800">
        <ele>205.00000</ele>
        <time>2008-10-30T13:06:40Z</time>
      </trkpt>
      <trkpt lat="48.29255100" lon="8.063106500">
        <ele>205.00000</ele>
        <time>2008-10-30T13:07:20Z</time>
      </trkpt>
      <trkpt lat="48.29087730" lon="8.064136500">
        <ele>202.00000</ele>
        <time>2008-10-30T13:08:32Z</time>
      </trkpt>
      <trkpt lat="48.28989030" lon="8.064780200">
        <ele>205.00000</ele>
        <time>2008-10-30T13:09:15Z</time>
      </trkpt>
      <trkpt lat="48.28873160" lon="8.065767300">
        <ele>205.00000</ele>
        <time>2008-10-30T13:10:08Z</time>
      </trkpt>
      <trkpt lat="48.28791620" lon="8.066668500">
        <ele>203.00000</ele>
        <time>2008-10-30T13:10:49Z</time>
      </trkpt>
      <trkpt lat="48.28692910" lon="8.068041800">
        <ele>207.00000</ele>
        <time>2008-10-30T13:11:43Z</time>
      </trkpt>
      <trkpt lat="48.28598500" lon="8.069672600">
        <ele>206.00000</ele>
        <time>2008-10-30T13:12:40Z</time>
      </trkpt>
      <trkpt lat="48.28538420" lon="8.070960000">
        <ele>209.00000</ele>
        <time>2008-10-30T13:13:22Z</time>
      </trkpt>
      <trkpt lat="48.28469750" lon="8.072419200">
        <ele>208.00000</ele>
        <time>2008-10-30T13:14:10Z</time>
      </trkpt>
      <trkpt lat="48.28413960" lon="8.073449100">
        <ele>210.00000</ele>
        <time>2008-10-30T13:14:45Z</time>
      </trkpt>
      <trkpt lat="48.28409670" lon="8.073577900">
        <ele>210.00000</ele>
        <time>2008-10-30T13:14:49Z</time>
      </trkpt>
      <trkpt lat="48.28409670" lon="8.074178700">
        <ele>211.00000</ele>
        <time>2008-10-30T13:15:05Z</time>
      </trkpt>
      <trkpt lat="48.28353880" lon="8.074522000">
        <ele>210.00000</ele>
        <time>2008-10-30T13:15:29Z</time>
      </trkpt>
      <trkpt lat="48.28319550" lon="8.075037000">
        <ele>208.00000</ele>
        <time>2008-10-30T13:15:49Z</time>
      </trkpt>
      <trkpt lat="48.28268050" lon="8.076238600">
        <ele>211.00000</ele>
        <time>2008-10-30T13:16:27Z</time>
      </trkpt>
      <trkpt lat="48.28233720" lon="8.077611900">
        <ele>208.00000</ele>
        <time>2008-10-30T13:17:06Z</time>
      </trkpt>
      <trkpt lat="48.28216550" lon="8.078856500">
        <ele>207.00000</ele>
        <time>2008-10-30T13:17:40Z</time>
      </trkpt>
      <trkpt lat="48.28199390" lon="8.079500200">
        <ele>211.00000</ele>
        <time>2008-10-30T13:17:58Z</time>
      </trkpt>
      <trkpt lat="48.28182220" lon="8.079800600">
        <ele>212.00000</ele>
        <time>2008-10-30T13:18:09Z</time>
      </trkpt>
      <trkpt lat="48.28147890" lon="8.080101000">
        <ele>212.00000</ele>
        <time>2008-10-30T13:18:24Z</time>
      </trkpt>
      <trkpt lat="48.28152180" lon="8.080573100">
        <ele>210.00000</ele>
        <time>2008-10-30T13:18:37Z</time>
      </trkpt>
      <trkpt lat="48.28122140" lon="8.082203900">
        <ele>213.00000</ele>
        <time>2008-10-30T13:19:22Z</time>
      </trkpt>
      <trkpt lat="48.28087810" lon="8.082847600">
        <ele>213.00000</ele>
        <time>2008-10-30T13:19:44Z</time>
      </trkpt>
      <trkpt lat="48.28074930" lon="8.083190900">
        <ele>214.00000</ele>
        <time>2008-10-30T13:19:55Z</time>
      </trkpt>
      <trkpt lat="48.27993390" lon="8.088984500">
        <ele>214.00000</ele>
        <time>2008-10-30T13:22:32Z</time>
      </trkpt>
      <trkpt lat="48.27997680" lon="8.089199100">
        <ele>214.00000</ele>
        <time>2008-10-30T13:22:38Z</time>
      </trkpt>
      <trkpt lat="48.28023430" lon="8.089370700">
        <ele>214.00000</ele>
        <time>2008-10-30T13:22:50Z</time>
      </trkpt>
      <trkpt lat="48.28053470" lon="8.089413600">
        <ele>213.00000</ele>
        <time>2008-10-30T13:23:02Z</time>
      </trkpt>
      <trkpt lat="48.28092100" lon="8.089456600">
        <ele>213.00000</ele>
        <time>2008-10-30T13:23:17Z</time>
      </trkpt>
      <trkpt lat="48.28135010" lon="8.089456600">
        <ele>219.00000</ele>
        <time>2008-10-30T13:23:34Z</time>
      </trkpt>
      <trkpt lat="48.28173640" lon="8.089499500">
        <ele>219.00000</ele>
        <time>2008-10-30T13:23:50Z</time>
      </trkpt>
      <trkpt lat="48.28186510" lon="8.089499500">
        <ele>219.00000</ele>
        <time>2008-10-30T13:23:55Z</time>
      </trkpt>
      <trkpt lat="48.28195100" lon="8.089671100">
        <ele>221.00000</ele>
        <time>2008-10-30T13:24:01Z</time>
      </trkpt>
      <trkpt lat="48.28199390" lon="8.089799900">
        <ele>221.00000</ele>
        <time>2008-10-30T13:24:05Z</time>
      </trkpt>
      <trkpt lat="48.28207970" lon="8.090872800">
        <ele>217.00000</ele>
        <time>2008-10-30T13:24:33Z</time>
      </trkpt>
      <trkpt lat="48.28216550" lon="8.093533500">
        <ele>231.00000</ele>
        <time>2008-10-30T13:25:44Z</time>
      </trkpt>
      <trkpt lat="48.28220840" lon="8.093876800">
        <ele>224.00000</ele>
        <time>2008-10-30T13:25:54Z</time>
      </trkpt>
      <trkpt lat="48.28242300" lon="8.094692200">
        <ele>223.00000</ele>
        <time>2008-10-30T13:26:17Z</time>
      </trkpt>
      <trkpt lat="48.28268050" lon="8.095293000">
        <ele>223.00000</ele>
        <time>2008-10-30T13:26:36Z</time>
      </trkpt>
      <trkpt lat="48.28310970" lon="8.095936800">
        <ele>229.00000</ele>
        <time>2008-10-30T13:27:00Z</time>
      </trkpt>
      <trkpt lat="48.28435420" lon="8.097868000">
        <ele>229.00000</ele>
        <time>2008-10-30T13:28:12Z</time>
      </trkpt>
      <trkpt lat="48.28474040" lon="8.098640400">
        <ele>246.00000</ele>
        <time>2008-10-30T13:28:38Z</time>
      </trkpt>
      <trkpt lat="48.28478340" lon="8.099198300">
        <ele>225.00000</ele>
        <time>2008-10-30T13:28:53Z</time>
      </trkpt>
      <trkpt lat="48.28469750" lon="8.099842100">
        <ele>220.00000</ele>
        <time>2008-10-30T13:29:10Z</time>
      </trkpt>
      <trkpt lat="48.28452590" lon="8.100442900">
        <ele>215.00000</ele>
        <time>2008-10-30T13:29:28Z</time>
      </trkpt>
      <trkpt lat="48.28422550" lon="8.101086600">
        <ele>215.00000</ele>
        <time>2008-10-30T13:29:49Z</time>
      </trkpt>
      <trkpt lat="48.28371050" lon="8.102073700">
        <ele>215.00000</ele>
        <time>2008-10-30T13:30:22Z</time>
      </trkpt>
      <trkpt lat="48.28366760" lon="8.102374100">
        <ele>218.00000</ele>
        <time>2008-10-30T13:30:30Z</time>
      </trkpt>
      <trkpt lat="48.28362460" lon="8.102717400">
        <ele>218.00000</ele>
        <time>2008-10-30T13:30:39Z</time>
      </trkpt>
      <trkpt lat="48.28431130" lon="8.105549800">
        <ele>218.00000</ele>
        <time>2008-10-30T13:32:00Z</time>
      </trkpt>
      <trkpt lat="48.28444000" lon="8.106150600">
        <ele>218.00000</ele>
        <time>2008-10-30T13:32:17Z</time>
      </trkpt>
      <trkpt lat="48.28469750" lon="8.107137700">
        <ele>221.00000</ele>
        <time>2008-10-30T13:32:45Z</time>
      </trkpt>
      <trkpt lat="48.28491210" lon="8.107695600">
        <ele>221.00000</ele>
        <time>2008-10-30T13:33:02Z</time>
      </trkpt>
      <trkpt lat="48.28508380" lon="8.107953100">
        <ele>221.00000</ele>
        <time>2008-10-30T13:33:12Z</time>
      </trkpt>
      <trkpt lat="48.28628540" lon="8.108768500">
        <ele>237.00000</ele>
        <time>2008-10-30T13:34:04Z</time>
      </trkpt>
      <trkpt lat="48.28654290" lon="8.109026000">
        <ele>237.00000</ele>
        <time>2008-10-30T13:34:17Z</time>
      </trkpt>
      <trkpt lat="48.28667160" lon="8.109326400">
        <ele>237.00000</ele>
        <time>2008-10-30T13:34:26Z</time>
      </trkpt>
      <trkpt lat="48.28701500" lon="8.110785500">
        <ele>235.00000</ele>
        <time>2008-10-30T13:35:08Z</time>
      </trkpt>
      <trkpt lat="48.28714370" lon="8.111171700">
        <ele>242.00000</ele>
        <time>2008-10-30T13:35:19Z</time>
      </trkpt>
      <trkpt lat="48.28740120" lon="8.111987100">
        <ele>243.00000</ele>
        <time>2008-10-30T13:35:43Z</time>
      </trkpt>
      <trkpt lat="48.28778740" lon="8.112459200">
        <ele>243.00000</ele>
        <time>2008-10-30T13:36:03Z</time>
      </trkpt>
      <trkpt lat="48.28795910" lon="8.112759600">
        <ele>261.00000</ele>
        <time>2008-10-30T13:36:14Z</time>
      </trkpt>
      <trkpt lat="48.28808780" lon="8.113317500">
        <ele>256.00000</ele>
        <time>2008-10-30T13:36:29Z</time>
      </trkpt>
    </trkseg>
  </trk>
</gpx>

